<?xml version="1.0" encoding="UTF-8" standalone="no" ?>
<gpx xmlns="http://www.topografix.com/GPX/1/1" xmlns:xsi="http://www.w3.org/2001/XMLSchema-instance" xsi:schemaLocation="http://www.topografix.com/GPX/1/1 http://www.topografix.com/GPX/1/1/gpx.xsd" version="1.1" creator="VisuGPX - https://www.visugpx.com">
  <metadata>
    <name>Nez de Boeuf 50 km 2024</name>
  </metadata>
  <trk>
    <name><![CDATA[Maisse VTT]]></name>
    <trkseg>
      <trkpt lat="48.38289" lon="2.37851">
        <ele>66.599998474121</ele>
        <time>2024-04-07T06:53:22.000Z</time>
      </trkpt>
      <trkpt lat="48.38285" lon="2.37851">
        <ele>66.599998474121</ele>
        <time>2024-04-07T06:53:23.000Z</time>
      </trkpt>
      <trkpt lat="48.38252" lon="2.37849">
        <ele>66</ele>
        <time>2024-04-07T06:53:30.000Z</time>
      </trkpt>
      <trkpt lat="48.38225" lon="2.37846">
        <ele>66.199996948242</ele>
        <time>2024-04-07T06:53:36.000Z</time>
      </trkpt>
      <trkpt lat="48.38215" lon="2.37844">
        <ele>66.599998474121</ele>
        <time>2024-04-07T06:53:38.000Z</time>
      </trkpt>
      <trkpt lat="48.3819" lon="2.37835">
        <ele>66.199996948242</ele>
        <time>2024-04-07T06:53:43.000Z</time>
      </trkpt>
      <trkpt lat="48.3818" lon="2.3783">
        <ele>66.199996948242</ele>
        <time>2024-04-07T06:53:45.000Z</time>
      </trkpt>
      <trkpt lat="48.38149" lon="2.37807">
        <ele>66.400001525879</ele>
        <time>2024-04-07T06:53:52.000Z</time>
      </trkpt>
      <trkpt lat="48.38128" lon="2.37793">
        <ele>66.400001525879</ele>
        <time>2024-04-07T06:53:57.000Z</time>
      </trkpt>
      <trkpt lat="48.38117" lon="2.37786">
        <ele>66.800003051758</ele>
        <time>2024-04-07T06:54:00.000Z</time>
      </trkpt>
      <trkpt lat="48.38104" lon="2.3778">
        <ele>68</ele>
        <time>2024-04-07T06:54:04.000Z</time>
      </trkpt>
      <trkpt lat="48.38099" lon="2.37777">
        <ele>68.800003051758</ele>
        <time>2024-04-07T06:54:06.000Z</time>
      </trkpt>
      <trkpt lat="48.38096" lon="2.37776">
        <ele>69.199996948242</ele>
        <time>2024-04-07T06:54:07.000Z</time>
      </trkpt>
      <trkpt lat="48.38084" lon="2.37773">
        <ele>70.400001525879</ele>
        <time>2024-04-07T06:54:11.000Z</time>
      </trkpt>
      <trkpt lat="48.38074" lon="2.3777">
        <ele>70.800003051758</ele>
        <time>2024-04-07T06:54:13.000Z</time>
      </trkpt>
      <trkpt lat="48.38039" lon="2.3776">
        <ele>71.400001525879</ele>
        <time>2024-04-07T06:54:20.000Z</time>
      </trkpt>
      <trkpt lat="48.38007" lon="2.37757">
        <ele>71.599998474121</ele>
        <time>2024-04-07T06:54:27.000Z</time>
      </trkpt>
      <trkpt lat="48.3798" lon="2.37767">
        <ele>71.800003051758</ele>
        <time>2024-04-07T06:54:34.000Z</time>
      </trkpt>
      <trkpt lat="48.37966" lon="2.37773">
        <ele>72.199996948242</ele>
        <time>2024-04-07T06:54:37.000Z</time>
      </trkpt>
      <trkpt lat="48.37961" lon="2.37774">
        <ele>72.199996948242</ele>
        <time>2024-04-07T06:54:38.000Z</time>
      </trkpt>
      <trkpt lat="48.37948" lon="2.37776">
        <ele>72.199996948242</ele>
        <time>2024-04-07T06:54:40.000Z</time>
      </trkpt>
      <trkpt lat="48.3791" lon="2.37783">
        <ele>72.199996948242</ele>
        <time>2024-04-07T06:54:46.000Z</time>
      </trkpt>
      <trkpt lat="48.37875" lon="2.37788">
        <ele>70.800003051758</ele>
        <time>2024-04-07T06:54:51.000Z</time>
      </trkpt>
      <trkpt lat="48.37868" lon="2.37789">
        <ele>70.599998474121</ele>
        <time>2024-04-07T06:54:52.000Z</time>
      </trkpt>
      <trkpt lat="48.37828" lon="2.37794">
        <ele>69.800003051758</ele>
        <time>2024-04-07T06:54:58.000Z</time>
      </trkpt>
      <trkpt lat="48.37822" lon="2.37794">
        <ele>69.800003051758</ele>
        <time>2024-04-07T06:54:59.000Z</time>
      </trkpt>
      <trkpt lat="48.3778" lon="2.37791">
        <ele>69.800003051758</ele>
        <time>2024-04-07T06:55:06.000Z</time>
      </trkpt>
      <trkpt lat="48.3774" lon="2.37792">
        <ele>70.199996948242</ele>
        <time>2024-04-07T06:55:13.000Z</time>
      </trkpt>
      <trkpt lat="48.37704" lon="2.37796">
        <ele>70.400001525879</ele>
        <time>2024-04-07T06:55:19.000Z</time>
      </trkpt>
      <trkpt lat="48.37664" lon="2.37802">
        <ele>70.599998474121</ele>
        <time>2024-04-07T06:55:26.000Z</time>
      </trkpt>
      <trkpt lat="48.37628" lon="2.37807">
        <ele>70.599998474121</ele>
        <time>2024-04-07T06:55:32.000Z</time>
      </trkpt>
      <trkpt lat="48.37623" lon="2.37809">
        <ele>70.599998474121</ele>
        <time>2024-04-07T06:55:33.000Z</time>
      </trkpt>
      <trkpt lat="48.37608" lon="2.37819">
        <ele>70.599998474121</ele>
        <time>2024-04-07T06:55:36.000Z</time>
      </trkpt>
      <trkpt lat="48.37598" lon="2.37825">
        <ele>70.800003051758</ele>
        <time>2024-04-07T06:55:38.000Z</time>
      </trkpt>
      <trkpt lat="48.37588" lon="2.3783">
        <ele>70.800003051758</ele>
        <time>2024-04-07T06:55:40.000Z</time>
      </trkpt>
      <trkpt lat="48.37578" lon="2.37834">
        <ele>71</ele>
        <time>2024-04-07T06:55:42.000Z</time>
      </trkpt>
      <trkpt lat="48.37569" lon="2.37836">
        <ele>71.199996948242</ele>
        <time>2024-04-07T06:55:44.000Z</time>
      </trkpt>
      <trkpt lat="48.37564" lon="2.37836">
        <ele>71.199996948242</ele>
        <time>2024-04-07T06:55:45.000Z</time>
      </trkpt>
      <trkpt lat="48.3755" lon="2.3783">
        <ele>71.599998474121</ele>
        <time>2024-04-07T06:55:49.000Z</time>
      </trkpt>
      <trkpt lat="48.3755" lon="2.37826">
        <ele>71.599998474121</ele>
        <time>2024-04-07T06:55:50.000Z</time>
      </trkpt>
      <trkpt lat="48.37552" lon="2.37822">
        <ele>71.599998474121</ele>
        <time>2024-04-07T06:55:52.000Z</time>
      </trkpt>
      <trkpt lat="48.37554" lon="2.3782">
        <ele>71.599998474121</ele>
        <time>2024-04-07T06:55:53.000Z</time>
      </trkpt>
      <trkpt lat="48.37551" lon="2.3781">
        <ele>71.800003051758</ele>
        <time>2024-04-07T06:55:57.000Z</time>
      </trkpt>
      <trkpt lat="48.37545" lon="2.37809">
        <ele>73</ele>
        <time>2024-04-07T06:55:59.000Z</time>
      </trkpt>
      <trkpt lat="48.37542" lon="2.37809">
        <ele>73.800003051758</ele>
        <time>2024-04-07T06:56:00.000Z</time>
      </trkpt>
      <trkpt lat="48.37539" lon="2.37809">
        <ele>74.199996948242</ele>
        <time>2024-04-07T06:56:01.000Z</time>
      </trkpt>
      <trkpt lat="48.37536" lon="2.3781">
        <ele>74.400001525879</ele>
        <time>2024-04-07T06:56:02.000Z</time>
      </trkpt>
      <trkpt lat="48.37511" lon="2.37814">
        <ele>74.599998474121</ele>
        <time>2024-04-07T06:56:08.000Z</time>
      </trkpt>
      <trkpt lat="48.37502" lon="2.37817">
        <ele>74.599998474121</ele>
        <time>2024-04-07T06:56:10.000Z</time>
      </trkpt>
      <trkpt lat="48.37469" lon="2.37828">
        <ele>73.400001525879</ele>
        <time>2024-04-07T06:56:17.000Z</time>
      </trkpt>
      <trkpt lat="48.3744" lon="2.37833">
        <ele>73.400001525879</ele>
        <time>2024-04-07T06:56:23.000Z</time>
      </trkpt>
      <trkpt lat="48.3743" lon="2.37834">
        <ele>73.400001525879</ele>
        <time>2024-04-07T06:56:25.000Z</time>
      </trkpt>
      <trkpt lat="48.3741" lon="2.3784">
        <ele>73.400001525879</ele>
        <time>2024-04-07T06:56:29.000Z</time>
      </trkpt>
      <trkpt lat="48.37391" lon="2.37845">
        <ele>73.400001525879</ele>
        <time>2024-04-07T06:56:33.000Z</time>
      </trkpt>
      <trkpt lat="48.3738" lon="2.37833">
        <ele>73.599998474121</ele>
        <time>2024-04-07T06:56:36.000Z</time>
      </trkpt>
      <trkpt lat="48.37374" lon="2.3781">
        <ele>73.599998474121</ele>
        <time>2024-04-07T06:56:40.000Z</time>
      </trkpt>
      <trkpt lat="48.3737" lon="2.37801">
        <ele>73.599998474121</ele>
        <time>2024-04-07T06:56:42.000Z</time>
      </trkpt>
      <trkpt lat="48.37367" lon="2.37789">
        <ele>74.800003051758</ele>
        <time>2024-04-07T06:56:45.000Z</time>
      </trkpt>
      <trkpt lat="48.37367" lon="2.37784">
        <ele>75.199996948242</ele>
        <time>2024-04-07T06:56:46.000Z</time>
      </trkpt>
      <trkpt lat="48.37366" lon="2.37771">
        <ele>76.599998474121</ele>
        <time>2024-04-07T06:56:49.000Z</time>
      </trkpt>
      <trkpt lat="48.37365" lon="2.37763">
        <ele>77.199996948242</ele>
        <time>2024-04-07T06:56:51.000Z</time>
      </trkpt>
      <trkpt lat="48.37365" lon="2.37754">
        <ele>77.599998474121</ele>
        <time>2024-04-07T06:56:53.000Z</time>
      </trkpt>
      <trkpt lat="48.37362" lon="2.37737">
        <ele>79</ele>
        <time>2024-04-07T06:56:57.000Z</time>
      </trkpt>
      <trkpt lat="48.37361" lon="2.37728">
        <ele>79.599998474121</ele>
        <time>2024-04-07T06:56:59.000Z</time>
      </trkpt>
      <trkpt lat="48.3736" lon="2.3772">
        <ele>80.199996948242</ele>
        <time>2024-04-07T06:57:01.000Z</time>
      </trkpt>
      <trkpt lat="48.37359" lon="2.37706">
        <ele>81.199996948242</ele>
        <time>2024-04-07T06:57:05.000Z</time>
      </trkpt>
      <trkpt lat="48.37359" lon="2.37702">
        <ele>81.800003051758</ele>
        <time>2024-04-07T06:57:06.000Z</time>
      </trkpt>
      <trkpt lat="48.37359" lon="2.37698">
        <ele>82.400001525879</ele>
        <time>2024-04-07T06:57:07.000Z</time>
      </trkpt>
      <trkpt lat="48.37357" lon="2.37683">
        <ele>83.599998474121</ele>
        <time>2024-04-07T06:57:11.000Z</time>
      </trkpt>
      <trkpt lat="48.37357" lon="2.37677">
        <ele>84.599998474121</ele>
        <time>2024-04-07T06:57:13.000Z</time>
      </trkpt>
      <trkpt lat="48.37357" lon="2.3767">
        <ele>85.400001525879</ele>
        <time>2024-04-07T06:57:15.000Z</time>
      </trkpt>
      <trkpt lat="48.37357" lon="2.37667">
        <ele>85.800003051758</ele>
        <time>2024-04-07T06:57:16.000Z</time>
      </trkpt>
      <trkpt lat="48.37357" lon="2.37655">
        <ele>87</ele>
        <time>2024-04-07T06:57:20.000Z</time>
      </trkpt>
      <trkpt lat="48.37357" lon="2.3765">
        <ele>87.800003051758</ele>
        <time>2024-04-07T06:57:22.000Z</time>
      </trkpt>
      <trkpt lat="48.37356" lon="2.37647">
        <ele>88.199996948242</ele>
        <time>2024-04-07T06:57:23.000Z</time>
      </trkpt>
      <trkpt lat="48.37357" lon="2.37634">
        <ele>89</ele>
        <time>2024-04-07T06:57:27.000Z</time>
      </trkpt>
      <trkpt lat="48.37358" lon="2.37631">
        <ele>89.199996948242</ele>
        <time>2024-04-07T06:57:28.000Z</time>
      </trkpt>
      <trkpt lat="48.37359" lon="2.37621">
        <ele>90.199996948242</ele>
        <time>2024-04-07T06:57:31.000Z</time>
      </trkpt>
      <trkpt lat="48.37361" lon="2.37608">
        <ele>91.400001525879</ele>
        <time>2024-04-07T06:57:35.000Z</time>
      </trkpt>
      <trkpt lat="48.37361" lon="2.37606">
        <ele>91.599998474121</ele>
        <time>2024-04-07T06:57:36.000Z</time>
      </trkpt>
      <trkpt lat="48.3736" lon="2.37594">
        <ele>92.599998474121</ele>
        <time>2024-04-07T06:57:40.000Z</time>
      </trkpt>
      <trkpt lat="48.37359" lon="2.37585">
        <ele>93.599998474121</ele>
        <time>2024-04-07T06:57:43.000Z</time>
      </trkpt>
      <trkpt lat="48.37358" lon="2.37582">
        <ele>93.800003051758</ele>
        <time>2024-04-07T06:57:44.000Z</time>
      </trkpt>
      <trkpt lat="48.37353" lon="2.37571">
        <ele>94.800003051758</ele>
        <time>2024-04-07T06:57:48.000Z</time>
      </trkpt>
      <trkpt lat="48.37351" lon="2.37569">
        <ele>95</ele>
        <time>2024-04-07T06:57:49.000Z</time>
      </trkpt>
      <trkpt lat="48.37345" lon="2.37563">
        <ele>96</ele>
        <time>2024-04-07T06:57:52.000Z</time>
      </trkpt>
      <trkpt lat="48.37342" lon="2.37559">
        <ele>97.199996948242</ele>
        <time>2024-04-07T06:57:55.000Z</time>
      </trkpt>
      <trkpt lat="48.37338" lon="2.37554">
        <ele>98.400001525879</ele>
        <time>2024-04-07T06:57:58.000Z</time>
      </trkpt>
      <trkpt lat="48.37333" lon="2.37547">
        <ele>99.800003051758</ele>
        <time>2024-04-07T06:58:01.000Z</time>
      </trkpt>
      <trkpt lat="48.37328" lon="2.3754">
        <ele>101.19999694824</ele>
        <time>2024-04-07T06:58:04.000Z</time>
      </trkpt>
      <trkpt lat="48.37323" lon="2.37531">
        <ele>102.59999847412</ele>
        <time>2024-04-07T06:58:07.000Z</time>
      </trkpt>
      <trkpt lat="48.37321" lon="2.37523">
        <ele>104.59999847412</ele>
        <time>2024-04-07T06:58:10.000Z</time>
      </trkpt>
      <trkpt lat="48.37321" lon="2.37518">
        <ele>105.40000152588</ele>
        <time>2024-04-07T06:58:12.000Z</time>
      </trkpt>
      <trkpt lat="48.37321" lon="2.37515">
        <ele>105.80000305176</ele>
        <time>2024-04-07T06:58:13.000Z</time>
      </trkpt>
      <trkpt lat="48.37322" lon="2.37509">
        <ele>106.59999847412</ele>
        <time>2024-04-07T06:58:15.000Z</time>
      </trkpt>
      <trkpt lat="48.37322" lon="2.37506">
        <ele>107</ele>
        <time>2024-04-07T06:58:16.000Z</time>
      </trkpt>
      <trkpt lat="48.37321" lon="2.37503">
        <ele>107.40000152588</ele>
        <time>2024-04-07T06:58:17.000Z</time>
      </trkpt>
      <trkpt lat="48.37322" lon="2.37498">
        <ele>108.40000152588</ele>
        <time>2024-04-07T06:58:19.000Z</time>
      </trkpt>
      <trkpt lat="48.37322" lon="2.37483">
        <ele>109.59999847412</ele>
        <time>2024-04-07T06:58:23.000Z</time>
      </trkpt>
      <trkpt lat="48.37324" lon="2.37471">
        <ele>110.40000152588</ele>
        <time>2024-04-07T06:58:26.000Z</time>
      </trkpt>
      <trkpt lat="48.37324" lon="2.37468">
        <ele>110.59999847412</ele>
        <time>2024-04-07T06:58:27.000Z</time>
      </trkpt>
      <trkpt lat="48.37323" lon="2.37453">
        <ele>112</ele>
        <time>2024-04-07T06:58:31.000Z</time>
      </trkpt>
      <trkpt lat="48.37323" lon="2.3745">
        <ele>112.19999694824</ele>
        <time>2024-04-07T06:58:32.000Z</time>
      </trkpt>
      <trkpt lat="48.37324" lon="2.37437">
        <ele>113</ele>
        <time>2024-04-07T06:58:36.000Z</time>
      </trkpt>
      <trkpt lat="48.37324" lon="2.3743">
        <ele>113.40000152588</ele>
        <time>2024-04-07T06:58:38.000Z</time>
      </trkpt>
      <trkpt lat="48.37325" lon="2.37419">
        <ele>114.19999694824</ele>
        <time>2024-04-07T06:58:41.000Z</time>
      </trkpt>
      <trkpt lat="48.37326" lon="2.37406">
        <ele>115.19999694824</ele>
        <time>2024-04-07T06:58:45.000Z</time>
      </trkpt>
      <trkpt lat="48.3733" lon="2.37388">
        <ele>116.19999694824</ele>
        <time>2024-04-07T06:58:51.000Z</time>
      </trkpt>
      <trkpt lat="48.37331" lon="2.37385">
        <ele>116.40000152588</ele>
        <time>2024-04-07T06:58:52.000Z</time>
      </trkpt>
      <trkpt lat="48.37337" lon="2.3737">
        <ele>117.59999847412</ele>
        <time>2024-04-07T06:58:57.000Z</time>
      </trkpt>
      <trkpt lat="48.37339" lon="2.37363">
        <ele>118.19999694824</ele>
        <time>2024-04-07T06:58:59.000Z</time>
      </trkpt>
      <trkpt lat="48.37342" lon="2.37358">
        <ele>118.59999847412</ele>
        <time>2024-04-07T06:59:01.000Z</time>
      </trkpt>
      <trkpt lat="48.37354" lon="2.37339">
        <ele>119.59999847412</ele>
        <time>2024-04-07T06:59:08.000Z</time>
      </trkpt>
      <trkpt lat="48.37356" lon="2.37336">
        <ele>119.59999847412</ele>
        <time>2024-04-07T06:59:09.000Z</time>
      </trkpt>
      <trkpt lat="48.37368" lon="2.37321">
        <ele>120.19999694824</ele>
        <time>2024-04-07T06:59:16.000Z</time>
      </trkpt>
      <trkpt lat="48.37371" lon="2.37316">
        <ele>120.80000305176</ele>
        <time>2024-04-07T06:59:19.000Z</time>
      </trkpt>
      <trkpt lat="48.37371" lon="2.37313">
        <ele>121</ele>
        <time>2024-04-07T06:59:20.000Z</time>
      </trkpt>
      <trkpt lat="48.37371" lon="2.37305">
        <ele>121.40000152588</ele>
        <time>2024-04-07T06:59:23.000Z</time>
      </trkpt>
      <trkpt lat="48.37371" lon="2.37299">
        <ele>121.80000305176</ele>
        <time>2024-04-07T06:59:25.000Z</time>
      </trkpt>
      <trkpt lat="48.37372" lon="2.37281">
        <ele>122.59999847412</ele>
        <time>2024-04-07T06:59:31.000Z</time>
      </trkpt>
      <trkpt lat="48.37373" lon="2.37277">
        <ele>123</ele>
        <time>2024-04-07T06:59:32.000Z</time>
      </trkpt>
      <trkpt lat="48.37376" lon="2.37259">
        <ele>123.40000152588</ele>
        <time>2024-04-07T06:59:38.000Z</time>
      </trkpt>
      <trkpt lat="48.37377" lon="2.37246">
        <ele>123.80000305176</ele>
        <time>2024-04-07T06:59:42.000Z</time>
      </trkpt>
      <trkpt lat="48.37378" lon="2.37242">
        <ele>124</ele>
        <time>2024-04-07T06:59:43.000Z</time>
      </trkpt>
      <trkpt lat="48.37378" lon="2.37238">
        <ele>124</ele>
        <time>2024-04-07T06:59:44.000Z</time>
      </trkpt>
      <trkpt lat="48.3738" lon="2.37211">
        <ele>124.40000152588</ele>
        <time>2024-04-07T06:59:51.000Z</time>
      </trkpt>
      <trkpt lat="48.3738" lon="2.37203">
        <ele>124.59999847412</ele>
        <time>2024-04-07T06:59:53.000Z</time>
      </trkpt>
      <trkpt lat="48.37381" lon="2.37175">
        <ele>125</ele>
        <time>2024-04-07T06:59:59.000Z</time>
      </trkpt>
      <trkpt lat="48.37382" lon="2.37165">
        <ele>125</ele>
        <time>2024-04-07T07:00:01.000Z</time>
      </trkpt>
      <trkpt lat="48.37384" lon="2.37137">
        <ele>125.19999694824</ele>
        <time>2024-04-07T07:00:07.000Z</time>
      </trkpt>
      <trkpt lat="48.37386" lon="2.37117">
        <ele>125.40000152588</ele>
        <time>2024-04-07T07:00:11.000Z</time>
      </trkpt>
      <trkpt lat="48.37387" lon="2.37094">
        <ele>125.80000305176</ele>
        <time>2024-04-07T07:00:16.000Z</time>
      </trkpt>
      <trkpt lat="48.37388" lon="2.3708">
        <ele>125.80000305176</ele>
        <time>2024-04-07T07:00:19.000Z</time>
      </trkpt>
      <trkpt lat="48.37389" lon="2.37061">
        <ele>126</ele>
        <time>2024-04-07T07:00:23.000Z</time>
      </trkpt>
      <trkpt lat="48.37389" lon="2.37026">
        <ele>126</ele>
        <time>2024-04-07T07:00:30.000Z</time>
      </trkpt>
      <trkpt lat="48.3739" lon="2.36998">
        <ele>126</ele>
        <time>2024-04-07T07:00:35.000Z</time>
      </trkpt>
      <trkpt lat="48.3739" lon="2.36974">
        <ele>126</ele>
        <time>2024-04-07T07:00:39.000Z</time>
      </trkpt>
      <trkpt lat="48.37391" lon="2.36927">
        <ele>125.80000305176</ele>
        <time>2024-04-07T07:00:47.000Z</time>
      </trkpt>
      <trkpt lat="48.37392" lon="2.36863">
        <ele>125.59999847412</ele>
        <time>2024-04-07T07:00:57.000Z</time>
      </trkpt>
      <trkpt lat="48.37395" lon="2.36789">
        <ele>125</ele>
        <time>2024-04-07T07:01:08.000Z</time>
      </trkpt>
      <trkpt lat="48.37395" lon="2.36769">
        <ele>125</ele>
        <time>2024-04-07T07:01:11.000Z</time>
      </trkpt>
      <trkpt lat="48.37397" lon="2.36714">
        <ele>124.59999847412</ele>
        <time>2024-04-07T07:01:19.000Z</time>
      </trkpt>
      <trkpt lat="48.37398" lon="2.36653">
        <ele>124.19999694824</ele>
        <time>2024-04-07T07:01:28.000Z</time>
      </trkpt>
      <trkpt lat="48.37399" lon="2.36591">
        <ele>124</ele>
        <time>2024-04-07T07:01:37.000Z</time>
      </trkpt>
      <trkpt lat="48.374" lon="2.36535">
        <ele>124.19999694824</ele>
        <time>2024-04-07T07:01:45.000Z</time>
      </trkpt>
      <trkpt lat="48.37401" lon="2.3652">
        <ele>124.19999694824</ele>
        <time>2024-04-07T07:01:47.000Z</time>
      </trkpt>
      <trkpt lat="48.37403" lon="2.36435">
        <ele>124.19999694824</ele>
        <time>2024-04-07T07:01:59.000Z</time>
      </trkpt>
      <trkpt lat="48.37404" lon="2.36392">
        <ele>124.19999694824</ele>
        <time>2024-04-07T07:02:05.000Z</time>
      </trkpt>
      <trkpt lat="48.37405" lon="2.36363">
        <ele>124.40000152588</ele>
        <time>2024-04-07T07:02:09.000Z</time>
      </trkpt>
      <trkpt lat="48.37407" lon="2.36296">
        <ele>124.40000152588</ele>
        <time>2024-04-07T07:02:18.000Z</time>
      </trkpt>
      <trkpt lat="48.37408" lon="2.36282">
        <ele>124.19999694824</ele>
        <time>2024-04-07T07:02:20.000Z</time>
      </trkpt>
      <trkpt lat="48.37409" lon="2.36254">
        <ele>124.19999694824</ele>
        <time>2024-04-07T07:02:24.000Z</time>
      </trkpt>
      <trkpt lat="48.37409" lon="2.36248">
        <ele>124.19999694824</ele>
        <time>2024-04-07T07:02:25.000Z</time>
      </trkpt>
      <trkpt lat="48.37409" lon="2.36214">
        <ele>124.19999694824</ele>
        <time>2024-04-07T07:02:30.000Z</time>
      </trkpt>
      <trkpt lat="48.3741" lon="2.36168">
        <ele>124.19999694824</ele>
        <time>2024-04-07T07:02:36.000Z</time>
      </trkpt>
      <trkpt lat="48.37411" lon="2.36144">
        <ele>124.19999694824</ele>
        <time>2024-04-07T07:02:39.000Z</time>
      </trkpt>
      <trkpt lat="48.37413" lon="2.36104">
        <ele>123.80000305176</ele>
        <time>2024-04-07T07:02:44.000Z</time>
      </trkpt>
      <trkpt lat="48.37414" lon="2.36065">
        <ele>123.59999847412</ele>
        <time>2024-04-07T07:02:49.000Z</time>
      </trkpt>
      <trkpt lat="48.37415" lon="2.36026">
        <ele>123.40000152588</ele>
        <time>2024-04-07T07:02:55.000Z</time>
      </trkpt>
      <trkpt lat="48.37416" lon="2.35995">
        <ele>123.40000152588</ele>
        <time>2024-04-07T07:03:01.000Z</time>
      </trkpt>
      <trkpt lat="48.37419" lon="2.35993">
        <ele>123.59999847412</ele>
        <time>2024-04-07T07:03:02.000Z</time>
      </trkpt>
      <trkpt lat="48.37429" lon="2.35998">
        <ele>123.80000305176</ele>
        <time>2024-04-07T07:03:05.000Z</time>
      </trkpt>
      <trkpt lat="48.37444" lon="2.36009">
        <ele>124</ele>
        <time>2024-04-07T07:03:09.000Z</time>
      </trkpt>
      <trkpt lat="48.37459" lon="2.3602">
        <ele>124.19999694824</ele>
        <time>2024-04-07T07:03:13.000Z</time>
      </trkpt>
      <trkpt lat="48.37484" lon="2.36038">
        <ele>124.19999694824</ele>
        <time>2024-04-07T07:03:19.000Z</time>
      </trkpt>
      <trkpt lat="48.37493" lon="2.36044">
        <ele>124</ele>
        <time>2024-04-07T07:03:21.000Z</time>
      </trkpt>
      <trkpt lat="48.37529" lon="2.36069">
        <ele>123.59999847412</ele>
        <time>2024-04-07T07:03:29.000Z</time>
      </trkpt>
      <trkpt lat="48.37568" lon="2.36095">
        <ele>123.19999694824</ele>
        <time>2024-04-07T07:03:37.000Z</time>
      </trkpt>
      <trkpt lat="48.37584" lon="2.36104">
        <ele>123</ele>
        <time>2024-04-07T07:03:40.000Z</time>
      </trkpt>
      <trkpt lat="48.37595" lon="2.3611">
        <ele>122.80000305176</ele>
        <time>2024-04-07T07:03:42.000Z</time>
      </trkpt>
      <trkpt lat="48.37633" lon="2.36135">
        <ele>121.80000305176</ele>
        <time>2024-04-07T07:03:49.000Z</time>
      </trkpt>
      <trkpt lat="48.37639" lon="2.36138">
        <ele>121.59999847412</ele>
        <time>2024-04-07T07:03:50.000Z</time>
      </trkpt>
      <trkpt lat="48.37668" lon="2.36154">
        <ele>120.59999847412</ele>
        <time>2024-04-07T07:03:55.000Z</time>
      </trkpt>
      <trkpt lat="48.37685" lon="2.36165">
        <ele>120.19999694824</ele>
        <time>2024-04-07T07:03:58.000Z</time>
      </trkpt>
      <trkpt lat="48.37702" lon="2.36178">
        <ele>119.40000152588</ele>
        <time>2024-04-07T07:04:01.000Z</time>
      </trkpt>
      <trkpt lat="48.37706" lon="2.36183">
        <ele>119.40000152588</ele>
        <time>2024-04-07T07:04:02.000Z</time>
      </trkpt>
      <trkpt lat="48.3771" lon="2.3619">
        <ele>119</ele>
        <time>2024-04-07T07:04:03.000Z</time>
      </trkpt>
      <trkpt lat="48.37715" lon="2.36206">
        <ele>117.80000305176</ele>
        <time>2024-04-07T07:04:05.000Z</time>
      </trkpt>
      <trkpt lat="48.37717" lon="2.36214">
        <ele>117.19999694824</ele>
        <time>2024-04-07T07:04:06.000Z</time>
      </trkpt>
      <trkpt lat="48.3772" lon="2.36221">
        <ele>116.80000305176</ele>
        <time>2024-04-07T07:04:07.000Z</time>
      </trkpt>
      <trkpt lat="48.37723" lon="2.36227">
        <ele>116.59999847412</ele>
        <time>2024-04-07T07:04:08.000Z</time>
      </trkpt>
      <trkpt lat="48.37733" lon="2.36243">
        <ele>116</ele>
        <time>2024-04-07T07:04:11.000Z</time>
      </trkpt>
      <trkpt lat="48.37736" lon="2.3625">
        <ele>115.59999847412</ele>
        <time>2024-04-07T07:04:12.000Z</time>
      </trkpt>
      <trkpt lat="48.3774" lon="2.36258">
        <ele>115.40000152588</ele>
        <time>2024-04-07T07:04:13.000Z</time>
      </trkpt>
      <trkpt lat="48.37757" lon="2.36285">
        <ele>114.19999694824</ele>
        <time>2024-04-07T07:04:16.000Z</time>
      </trkpt>
      <trkpt lat="48.37788" lon="2.36345">
        <ele>112.59999847412</ele>
        <time>2024-04-07T07:04:21.000Z</time>
      </trkpt>
      <trkpt lat="48.37794" lon="2.36373">
        <ele>110.40000152588</ele>
        <time>2024-04-07T07:04:23.000Z</time>
      </trkpt>
      <trkpt lat="48.37795" lon="2.36388">
        <ele>108.80000305176</ele>
        <time>2024-04-07T07:04:24.000Z</time>
      </trkpt>
      <trkpt lat="48.37796" lon="2.36403">
        <ele>107</ele>
        <time>2024-04-07T07:04:25.000Z</time>
      </trkpt>
      <trkpt lat="48.37797" lon="2.36418">
        <ele>105.19999694824</ele>
        <time>2024-04-07T07:04:26.000Z</time>
      </trkpt>
      <trkpt lat="48.37799" lon="2.36433">
        <ele>101.59999847412</ele>
        <time>2024-04-07T07:04:27.000Z</time>
      </trkpt>
      <trkpt lat="48.37801" lon="2.36448">
        <ele>100.40000152588</ele>
        <time>2024-04-07T07:04:28.000Z</time>
      </trkpt>
      <trkpt lat="48.37804" lon="2.36462">
        <ele>99.800003051758</ele>
        <time>2024-04-07T07:04:29.000Z</time>
      </trkpt>
      <trkpt lat="48.37809" lon="2.36475">
        <ele>99.400001525879</ele>
        <time>2024-04-07T07:04:30.000Z</time>
      </trkpt>
      <trkpt lat="48.37818" lon="2.36501">
        <ele>98.199996948242</ele>
        <time>2024-04-07T07:04:32.000Z</time>
      </trkpt>
      <trkpt lat="48.37823" lon="2.36513">
        <ele>97.400001525879</ele>
        <time>2024-04-07T07:04:33.000Z</time>
      </trkpt>
      <trkpt lat="48.37828" lon="2.36524">
        <ele>96.800003051758</ele>
        <time>2024-04-07T07:04:34.000Z</time>
      </trkpt>
      <trkpt lat="48.37841" lon="2.36547">
        <ele>95.400001525879</ele>
        <time>2024-04-07T07:04:36.000Z</time>
      </trkpt>
      <trkpt lat="48.37853" lon="2.36568">
        <ele>94.199996948242</ele>
        <time>2024-04-07T07:04:38.000Z</time>
      </trkpt>
      <trkpt lat="48.3786" lon="2.36578">
        <ele>93.800003051758</ele>
        <time>2024-04-07T07:04:39.000Z</time>
      </trkpt>
      <trkpt lat="48.37866" lon="2.36587">
        <ele>93</ele>
        <time>2024-04-07T07:04:40.000Z</time>
      </trkpt>
      <trkpt lat="48.37879" lon="2.36606">
        <ele>91.800003051758</ele>
        <time>2024-04-07T07:04:42.000Z</time>
      </trkpt>
      <trkpt lat="48.37889" lon="2.36628">
        <ele>90.800003051758</ele>
        <time>2024-04-07T07:04:44.000Z</time>
      </trkpt>
      <trkpt lat="48.37902" lon="2.36675">
        <ele>89</ele>
        <time>2024-04-07T07:04:48.000Z</time>
      </trkpt>
      <trkpt lat="48.37912" lon="2.36698">
        <ele>88</ele>
        <time>2024-04-07T07:04:50.000Z</time>
      </trkpt>
      <trkpt lat="48.37922" lon="2.36731">
        <ele>86.800003051758</ele>
        <time>2024-04-07T07:04:53.000Z</time>
      </trkpt>
      <trkpt lat="48.37926" lon="2.36741">
        <ele>86.599998474121</ele>
        <time>2024-04-07T07:04:54.000Z</time>
      </trkpt>
      <trkpt lat="48.37932" lon="2.36763">
        <ele>85.199996948242</ele>
        <time>2024-04-07T07:04:56.000Z</time>
      </trkpt>
      <trkpt lat="48.37934" lon="2.36774">
        <ele>84.800003051758</ele>
        <time>2024-04-07T07:04:57.000Z</time>
      </trkpt>
      <trkpt lat="48.37935" lon="2.36786">
        <ele>84.599998474121</ele>
        <time>2024-04-07T07:04:58.000Z</time>
      </trkpt>
      <trkpt lat="48.37938" lon="2.36821">
        <ele>84.199996948242</ele>
        <time>2024-04-07T07:05:01.000Z</time>
      </trkpt>
      <trkpt lat="48.37941" lon="2.36832">
        <ele>84</ele>
        <time>2024-04-07T07:05:02.000Z</time>
      </trkpt>
      <trkpt lat="48.37955" lon="2.36862">
        <ele>83.400001525879</ele>
        <time>2024-04-07T07:05:05.000Z</time>
      </trkpt>
      <trkpt lat="48.3796" lon="2.36873">
        <ele>83.199996948242</ele>
        <time>2024-04-07T07:05:06.000Z</time>
      </trkpt>
      <trkpt lat="48.37965" lon="2.36882">
        <ele>82.800003051758</ele>
        <time>2024-04-07T07:05:07.000Z</time>
      </trkpt>
      <trkpt lat="48.37971" lon="2.36891">
        <ele>82.599998474121</ele>
        <time>2024-04-07T07:05:08.000Z</time>
      </trkpt>
      <trkpt lat="48.37988" lon="2.36915">
        <ele>81.599998474121</ele>
        <time>2024-04-07T07:05:11.000Z</time>
      </trkpt>
      <trkpt lat="48.37994" lon="2.36921">
        <ele>81.199996948242</ele>
        <time>2024-04-07T07:05:12.000Z</time>
      </trkpt>
      <trkpt lat="48.38015" lon="2.36938">
        <ele>80.599998474121</ele>
        <time>2024-04-07T07:05:15.000Z</time>
      </trkpt>
      <trkpt lat="48.38029" lon="2.36949">
        <ele>80.599998474121</ele>
        <time>2024-04-07T07:05:17.000Z</time>
      </trkpt>
      <trkpt lat="48.38052" lon="2.36975">
        <ele>80</ele>
        <time>2024-04-07T07:05:21.000Z</time>
      </trkpt>
      <trkpt lat="48.38066" lon="2.36989">
        <ele>79.199996948242</ele>
        <time>2024-04-07T07:05:23.000Z</time>
      </trkpt>
      <trkpt lat="48.38097" lon="2.37013">
        <ele>78.599998474121</ele>
        <time>2024-04-07T07:05:27.000Z</time>
      </trkpt>
      <trkpt lat="48.38118" lon="2.37037">
        <ele>77.599998474121</ele>
        <time>2024-04-07T07:05:30.000Z</time>
      </trkpt>
      <trkpt lat="48.38132" lon="2.37052">
        <ele>76</ele>
        <time>2024-04-07T07:05:32.000Z</time>
      </trkpt>
      <trkpt lat="48.38152" lon="2.37077">
        <ele>75</ele>
        <time>2024-04-07T07:05:35.000Z</time>
      </trkpt>
      <trkpt lat="48.38163" lon="2.37095">
        <ele>74.199996948242</ele>
        <time>2024-04-07T07:05:37.000Z</time>
      </trkpt>
      <trkpt lat="48.38167" lon="2.37104">
        <ele>74</ele>
        <time>2024-04-07T07:05:38.000Z</time>
      </trkpt>
      <trkpt lat="48.38176" lon="2.37123">
        <ele>73.400001525879</ele>
        <time>2024-04-07T07:05:40.000Z</time>
      </trkpt>
      <trkpt lat="48.3818" lon="2.37129">
        <ele>73.199996948242</ele>
        <time>2024-04-07T07:05:41.000Z</time>
      </trkpt>
      <trkpt lat="48.38198" lon="2.37138">
        <ele>73.199996948242</ele>
        <time>2024-04-07T07:05:45.000Z</time>
      </trkpt>
      <trkpt lat="48.38208" lon="2.3714">
        <ele>73.199996948242</ele>
        <time>2024-04-07T07:05:49.000Z</time>
      </trkpt>
      <trkpt lat="48.3821" lon="2.3714">
        <ele>73.599998474121</ele>
        <time>2024-04-07T07:05:50.000Z</time>
      </trkpt>
      <trkpt lat="48.38215" lon="2.37142">
        <ele>74.199996948242</ele>
        <time>2024-04-07T07:05:52.000Z</time>
      </trkpt>
      <trkpt lat="48.3822" lon="2.37142">
        <ele>75.599998474121</ele>
        <time>2024-04-07T07:05:54.000Z</time>
      </trkpt>
      <trkpt lat="48.38224" lon="2.37141">
        <ele>76.599998474121</ele>
        <time>2024-04-07T07:05:56.000Z</time>
      </trkpt>
      <trkpt lat="48.38227" lon="2.3714">
        <ele>78.400001525879</ele>
        <time>2024-04-07T07:05:58.000Z</time>
      </trkpt>
      <trkpt lat="48.3823" lon="2.37141">
        <ele>79.800003051758</ele>
        <time>2024-04-07T07:06:00.000Z</time>
      </trkpt>
      <trkpt lat="48.38233" lon="2.37143">
        <ele>80.599998474121</ele>
        <time>2024-04-07T07:06:02.000Z</time>
      </trkpt>
      <trkpt lat="48.38235" lon="2.37144">
        <ele>81</ele>
        <time>2024-04-07T07:06:03.000Z</time>
      </trkpt>
      <trkpt lat="48.38236" lon="2.37144">
        <ele>81.599998474121</ele>
        <time>2024-04-07T07:06:04.000Z</time>
      </trkpt>
      <trkpt lat="48.38237" lon="2.37143">
        <ele>82.599998474121</ele>
        <time>2024-04-07T07:06:05.000Z</time>
      </trkpt>
      <trkpt lat="48.38239" lon="2.37142">
        <ele>83.400001525879</ele>
        <time>2024-04-07T07:06:06.000Z</time>
      </trkpt>
      <trkpt lat="48.3824" lon="2.37141">
        <ele>84.400001525879</ele>
        <time>2024-04-07T07:06:07.000Z</time>
      </trkpt>
      <trkpt lat="48.38244" lon="2.37141">
        <ele>85.800003051758</ele>
        <time>2024-04-07T07:06:09.000Z</time>
      </trkpt>
      <trkpt lat="48.38248" lon="2.37142">
        <ele>86.400001525879</ele>
        <time>2024-04-07T07:06:11.000Z</time>
      </trkpt>
      <trkpt lat="48.38251" lon="2.37143">
        <ele>86.800003051758</ele>
        <time>2024-04-07T07:06:12.000Z</time>
      </trkpt>
      <trkpt lat="48.38259" lon="2.37147">
        <ele>88.199996948242</ele>
        <time>2024-04-07T07:06:15.000Z</time>
      </trkpt>
      <trkpt lat="48.38264" lon="2.37149">
        <ele>88.599998474121</ele>
        <time>2024-04-07T07:06:17.000Z</time>
      </trkpt>
      <trkpt lat="48.38278" lon="2.37158">
        <ele>89</ele>
        <time>2024-04-07T07:06:23.000Z</time>
      </trkpt>
      <trkpt lat="48.38299" lon="2.3717">
        <ele>88.599998474121</ele>
        <time>2024-04-07T07:06:29.000Z</time>
      </trkpt>
      <trkpt lat="48.38318" lon="2.37189">
        <ele>88.400001525879</ele>
        <time>2024-04-07T07:06:36.000Z</time>
      </trkpt>
      <trkpt lat="48.38332" lon="2.37206">
        <ele>88.400001525879</ele>
        <time>2024-04-07T07:06:42.000Z</time>
      </trkpt>
      <trkpt lat="48.38337" lon="2.37209">
        <ele>89.199996948242</ele>
        <time>2024-04-07T07:06:44.000Z</time>
      </trkpt>
      <trkpt lat="48.38345" lon="2.37211">
        <ele>90.400001525879</ele>
        <time>2024-04-07T07:06:47.000Z</time>
      </trkpt>
      <trkpt lat="48.38347" lon="2.37212">
        <ele>91</ele>
        <time>2024-04-07T07:06:48.000Z</time>
      </trkpt>
      <trkpt lat="48.38352" lon="2.37214">
        <ele>91.599998474121</ele>
        <time>2024-04-07T07:06:50.000Z</time>
      </trkpt>
      <trkpt lat="48.38359" lon="2.37217">
        <ele>93</ele>
        <time>2024-04-07T07:06:53.000Z</time>
      </trkpt>
      <trkpt lat="48.38361" lon="2.37218">
        <ele>93.400001525879</ele>
        <time>2024-04-07T07:06:54.000Z</time>
      </trkpt>
      <trkpt lat="48.38377" lon="2.37217">
        <ele>94</ele>
        <time>2024-04-07T07:07:00.000Z</time>
      </trkpt>
      <trkpt lat="48.38391" lon="2.37231">
        <ele>94.199996948242</ele>
        <time>2024-04-07T07:07:05.000Z</time>
      </trkpt>
      <trkpt lat="48.38406" lon="2.37244">
        <ele>94.400001525879</ele>
        <time>2024-04-07T07:07:10.000Z</time>
      </trkpt>
      <trkpt lat="48.38423" lon="2.37262">
        <ele>95</ele>
        <time>2024-04-07T07:07:16.000Z</time>
      </trkpt>
      <trkpt lat="48.38432" lon="2.37271">
        <ele>95</ele>
        <time>2024-04-07T07:07:19.000Z</time>
      </trkpt>
      <trkpt lat="48.38435" lon="2.37273">
        <ele>95.199996948242</ele>
        <time>2024-04-07T07:07:20.000Z</time>
      </trkpt>
      <trkpt lat="48.38445" lon="2.37288">
        <ele>95.599998474121</ele>
        <time>2024-04-07T07:07:25.000Z</time>
      </trkpt>
      <trkpt lat="48.38459" lon="2.37301">
        <ele>96</ele>
        <time>2024-04-07T07:07:30.000Z</time>
      </trkpt>
      <trkpt lat="48.38462" lon="2.37304">
        <ele>96.199996948242</ele>
        <time>2024-04-07T07:07:31.000Z</time>
      </trkpt>
      <trkpt lat="48.38473" lon="2.37314">
        <ele>96.599998474121</ele>
        <time>2024-04-07T07:07:35.000Z</time>
      </trkpt>
      <trkpt lat="48.38481" lon="2.37323">
        <ele>96.800003051758</ele>
        <time>2024-04-07T07:07:38.000Z</time>
      </trkpt>
      <trkpt lat="48.38491" lon="2.37333">
        <ele>96.800003051758</ele>
        <time>2024-04-07T07:07:42.000Z</time>
      </trkpt>
      <trkpt lat="48.38497" lon="2.3734">
        <ele>96.599998474121</ele>
        <time>2024-04-07T07:07:44.000Z</time>
      </trkpt>
      <trkpt lat="48.38511" lon="2.37352">
        <ele>96.199996948242</ele>
        <time>2024-04-07T07:07:47.000Z</time>
      </trkpt>
      <trkpt lat="48.3852" lon="2.37356">
        <ele>95.800003051758</ele>
        <time>2024-04-07T07:07:49.000Z</time>
      </trkpt>
      <trkpt lat="48.38536" lon="2.37361">
        <ele>94.800003051758</ele>
        <time>2024-04-07T07:07:53.000Z</time>
      </trkpt>
      <trkpt lat="48.38543" lon="2.37365">
        <ele>93.599998474121</ele>
        <time>2024-04-07T07:07:55.000Z</time>
      </trkpt>
      <trkpt lat="48.38566" lon="2.37379">
        <ele>93</ele>
        <time>2024-04-07T07:08:01.000Z</time>
      </trkpt>
      <trkpt lat="48.38584" lon="2.37395">
        <ele>92.800003051758</ele>
        <time>2024-04-07T07:08:06.000Z</time>
      </trkpt>
      <trkpt lat="48.38601" lon="2.37409">
        <ele>93</ele>
        <time>2024-04-07T07:08:11.000Z</time>
      </trkpt>
      <trkpt lat="48.38605" lon="2.37409">
        <ele>93</ele>
        <time>2024-04-07T07:08:12.000Z</time>
      </trkpt>
      <trkpt lat="48.38605" lon="2.37404">
        <ele>93</ele>
        <time>2024-04-07T07:08:15.000Z</time>
      </trkpt>
      <trkpt lat="48.38605" lon="2.37398">
        <ele>93</ele>
        <time>2024-04-07T07:08:17.000Z</time>
      </trkpt>
      <trkpt lat="48.38605" lon="2.37393">
        <ele>93.199996948242</ele>
        <time>2024-04-07T07:08:19.000Z</time>
      </trkpt>
      <trkpt lat="48.38605" lon="2.37389">
        <ele>93.800003051758</ele>
        <time>2024-04-07T07:08:21.000Z</time>
      </trkpt>
      <trkpt lat="48.38604" lon="2.37387">
        <ele>94.199996948242</ele>
        <time>2024-04-07T07:08:22.000Z</time>
      </trkpt>
      <trkpt lat="48.38603" lon="2.37383">
        <ele>95</ele>
        <time>2024-04-07T07:08:24.000Z</time>
      </trkpt>
      <trkpt lat="48.38601" lon="2.37379">
        <ele>96</ele>
        <time>2024-04-07T07:08:26.000Z</time>
      </trkpt>
      <trkpt lat="48.38599" lon="2.37376">
        <ele>96.800003051758</ele>
        <time>2024-04-07T07:08:28.000Z</time>
      </trkpt>
      <trkpt lat="48.38598" lon="2.37374">
        <ele>97.199996948242</ele>
        <time>2024-04-07T07:08:29.000Z</time>
      </trkpt>
      <trkpt lat="48.38596" lon="2.37372">
        <ele>98</ele>
        <time>2024-04-07T07:08:31.000Z</time>
      </trkpt>
      <trkpt lat="48.38596" lon="2.3737">
        <ele>98.400001525879</ele>
        <time>2024-04-07T07:08:32.000Z</time>
      </trkpt>
      <trkpt lat="48.38596" lon="2.37367">
        <ele>99.599998474121</ele>
        <time>2024-04-07T07:08:34.000Z</time>
      </trkpt>
      <trkpt lat="48.38596" lon="2.37365">
        <ele>100</ele>
        <time>2024-04-07T07:08:35.000Z</time>
      </trkpt>
      <trkpt lat="48.38596" lon="2.37361">
        <ele>101</ele>
        <time>2024-04-07T07:08:37.000Z</time>
      </trkpt>
      <trkpt lat="48.38596" lon="2.37357">
        <ele>102.19999694824</ele>
        <time>2024-04-07T07:08:39.000Z</time>
      </trkpt>
      <trkpt lat="48.38597" lon="2.37355">
        <ele>102.80000305176</ele>
        <time>2024-04-07T07:08:40.000Z</time>
      </trkpt>
      <trkpt lat="48.38597" lon="2.37354">
        <ele>103.40000152588</ele>
        <time>2024-04-07T07:08:41.000Z</time>
      </trkpt>
      <trkpt lat="48.38597" lon="2.37348">
        <ele>104.59999847412</ele>
        <time>2024-04-07T07:08:44.000Z</time>
      </trkpt>
      <trkpt lat="48.38597" lon="2.37344">
        <ele>105.80000305176</ele>
        <time>2024-04-07T07:08:46.000Z</time>
      </trkpt>
      <trkpt lat="48.38598" lon="2.3734">
        <ele>107.19999694824</ele>
        <time>2024-04-07T07:08:48.000Z</time>
      </trkpt>
      <trkpt lat="48.38596" lon="2.37336">
        <ele>107.80000305176</ele>
        <time>2024-04-07T07:08:50.000Z</time>
      </trkpt>
      <trkpt lat="48.38596" lon="2.37334">
        <ele>108.19999694824</ele>
        <time>2024-04-07T07:08:51.000Z</time>
      </trkpt>
      <trkpt lat="48.38596" lon="2.37329">
        <ele>109.19999694824</ele>
        <time>2024-04-07T07:08:53.000Z</time>
      </trkpt>
      <trkpt lat="48.38596" lon="2.37326">
        <ele>109.40000152588</ele>
        <time>2024-04-07T07:08:54.000Z</time>
      </trkpt>
      <trkpt lat="48.38596" lon="2.37324">
        <ele>109.59999847412</ele>
        <time>2024-04-07T07:08:55.000Z</time>
      </trkpt>
      <trkpt lat="48.38597" lon="2.37314">
        <ele>110.19999694824</ele>
        <time>2024-04-07T07:09:00.000Z</time>
      </trkpt>
      <trkpt lat="48.38596" lon="2.37311">
        <ele>110.59999847412</ele>
        <time>2024-04-07T07:09:01.000Z</time>
      </trkpt>
      <trkpt lat="48.38596" lon="2.37302">
        <ele>111.59999847412</ele>
        <time>2024-04-07T07:09:05.000Z</time>
      </trkpt>
      <trkpt lat="48.38597" lon="2.37296">
        <ele>112</ele>
        <time>2024-04-07T07:09:07.000Z</time>
      </trkpt>
      <trkpt lat="48.38599" lon="2.37285">
        <ele>112.80000305176</ele>
        <time>2024-04-07T07:09:11.000Z</time>
      </trkpt>
      <trkpt lat="48.38599" lon="2.37276">
        <ele>113</ele>
        <time>2024-04-07T07:09:14.000Z</time>
      </trkpt>
      <trkpt lat="48.38599" lon="2.37266">
        <ele>113.80000305176</ele>
        <time>2024-04-07T07:09:17.000Z</time>
      </trkpt>
      <trkpt lat="48.38598" lon="2.37262">
        <ele>114</ele>
        <time>2024-04-07T07:09:18.000Z</time>
      </trkpt>
      <trkpt lat="48.38596" lon="2.37251">
        <ele>114.59999847412</ele>
        <time>2024-04-07T07:09:21.000Z</time>
      </trkpt>
      <trkpt lat="48.38596" lon="2.37244">
        <ele>114.80000305176</ele>
        <time>2024-04-07T07:09:23.000Z</time>
      </trkpt>
      <trkpt lat="48.38598" lon="2.37231">
        <ele>115.80000305176</ele>
        <time>2024-04-07T07:09:27.000Z</time>
      </trkpt>
      <trkpt lat="48.38598" lon="2.37229">
        <ele>115.80000305176</ele>
        <time>2024-04-07T07:09:28.000Z</time>
      </trkpt>
      <trkpt lat="48.38597" lon="2.37214">
        <ele>117</ele>
        <time>2024-04-07T07:09:33.000Z</time>
      </trkpt>
      <trkpt lat="48.38598" lon="2.37212">
        <ele>117.19999694824</ele>
        <time>2024-04-07T07:09:34.000Z</time>
      </trkpt>
      <trkpt lat="48.386" lon="2.37203">
        <ele>118.19999694824</ele>
        <time>2024-04-07T07:09:38.000Z</time>
      </trkpt>
      <trkpt lat="48.38603" lon="2.37195">
        <ele>119.40000152588</ele>
        <time>2024-04-07T07:09:42.000Z</time>
      </trkpt>
      <trkpt lat="48.38614" lon="2.37188">
        <ele>120.40000152588</ele>
        <time>2024-04-07T07:09:48.000Z</time>
      </trkpt>
      <trkpt lat="48.38615" lon="2.37186">
        <ele>120.40000152588</ele>
        <time>2024-04-07T07:09:49.000Z</time>
      </trkpt>
      <trkpt lat="48.38624" lon="2.37174">
        <ele>121.19999694824</ele>
        <time>2024-04-07T07:09:55.000Z</time>
      </trkpt>
      <trkpt lat="48.38632" lon="2.37166">
        <ele>121.40000152588</ele>
        <time>2024-04-07T07:09:59.000Z</time>
      </trkpt>
      <trkpt lat="48.38637" lon="2.37161">
        <ele>121.59999847412</ele>
        <time>2024-04-07T07:10:01.000Z</time>
      </trkpt>
      <trkpt lat="48.3864" lon="2.37155">
        <ele>121.40000152588</ele>
        <time>2024-04-07T07:10:03.000Z</time>
      </trkpt>
      <trkpt lat="48.38642" lon="2.37152">
        <ele>121.40000152588</ele>
        <time>2024-04-07T07:10:04.000Z</time>
      </trkpt>
      <trkpt lat="48.38641" lon="2.37144">
        <ele>121.40000152588</ele>
        <time>2024-04-07T07:10:06.000Z</time>
      </trkpt>
      <trkpt lat="48.38642" lon="2.3713">
        <ele>121.59999847412</ele>
        <time>2024-04-07T07:10:10.000Z</time>
      </trkpt>
      <trkpt lat="48.38642" lon="2.37124">
        <ele>121.59999847412</ele>
        <time>2024-04-07T07:10:12.000Z</time>
      </trkpt>
      <trkpt lat="48.38643" lon="2.37122">
        <ele>121.59999847412</ele>
        <time>2024-04-07T07:10:13.000Z</time>
      </trkpt>
      <trkpt lat="48.38644" lon="2.37111">
        <ele>121.59999847412</ele>
        <time>2024-04-07T07:10:16.000Z</time>
      </trkpt>
      <trkpt lat="48.38645" lon="2.37101">
        <ele>121.59999847412</ele>
        <time>2024-04-07T07:10:18.000Z</time>
      </trkpt>
      <trkpt lat="48.3865" lon="2.37072">
        <ele>121.80000305176</ele>
        <time>2024-04-07T07:10:23.000Z</time>
      </trkpt>
      <trkpt lat="48.38649" lon="2.37038">
        <ele>121.80000305176</ele>
        <time>2024-04-07T07:10:28.000Z</time>
      </trkpt>
      <trkpt lat="48.38644" lon="2.37002">
        <ele>120.59999847412</ele>
        <time>2024-04-07T07:10:34.000Z</time>
      </trkpt>
      <trkpt lat="48.38645" lon="2.36987">
        <ele>120.19999694824</ele>
        <time>2024-04-07T07:10:36.000Z</time>
      </trkpt>
      <trkpt lat="48.38645" lon="2.36974">
        <ele>120</ele>
        <time>2024-04-07T07:10:38.000Z</time>
      </trkpt>
      <trkpt lat="48.38644" lon="2.36963">
        <ele>119.59999847412</ele>
        <time>2024-04-07T07:10:40.000Z</time>
      </trkpt>
      <trkpt lat="48.38644" lon="2.36956">
        <ele>119.40000152588</ele>
        <time>2024-04-07T07:10:41.000Z</time>
      </trkpt>
      <trkpt lat="48.38645" lon="2.36942">
        <ele>119.19999694824</ele>
        <time>2024-04-07T07:10:43.000Z</time>
      </trkpt>
      <trkpt lat="48.38645" lon="2.36934">
        <ele>119</ele>
        <time>2024-04-07T07:10:44.000Z</time>
      </trkpt>
      <trkpt lat="48.38647" lon="2.36927">
        <ele>119</ele>
        <time>2024-04-07T07:10:45.000Z</time>
      </trkpt>
      <trkpt lat="48.38649" lon="2.36921">
        <ele>119</ele>
        <time>2024-04-07T07:10:46.000Z</time>
      </trkpt>
      <trkpt lat="48.3865" lon="2.36902">
        <ele>118.59999847412</ele>
        <time>2024-04-07T07:10:49.000Z</time>
      </trkpt>
      <trkpt lat="48.38652" lon="2.36891">
        <ele>118.40000152588</ele>
        <time>2024-04-07T07:10:52.000Z</time>
      </trkpt>
      <trkpt lat="48.38653" lon="2.3689">
        <ele>118</ele>
        <time>2024-04-07T07:10:53.000Z</time>
      </trkpt>
      <trkpt lat="48.38657" lon="2.36897">
        <ele>117.40000152588</ele>
        <time>2024-04-07T07:10:56.000Z</time>
      </trkpt>
      <trkpt lat="48.38659" lon="2.36901">
        <ele>117.40000152588</ele>
        <time>2024-04-07T07:10:57.000Z</time>
      </trkpt>
      <trkpt lat="48.38677" lon="2.36925">
        <ele>116.80000305176</ele>
        <time>2024-04-07T07:11:02.000Z</time>
      </trkpt>
      <trkpt lat="48.38681" lon="2.36932">
        <ele>116.59999847412</ele>
        <time>2024-04-07T07:11:03.000Z</time>
      </trkpt>
      <trkpt lat="48.38691" lon="2.36954">
        <ele>115.40000152588</ele>
        <time>2024-04-07T07:11:06.000Z</time>
      </trkpt>
      <trkpt lat="48.38694" lon="2.36961">
        <ele>114.80000305176</ele>
        <time>2024-04-07T07:11:07.000Z</time>
      </trkpt>
      <trkpt lat="48.38699" lon="2.36975">
        <ele>114</ele>
        <time>2024-04-07T07:11:09.000Z</time>
      </trkpt>
      <trkpt lat="48.38704" lon="2.36987">
        <ele>112.40000152588</ele>
        <time>2024-04-07T07:11:11.000Z</time>
      </trkpt>
      <trkpt lat="48.38706" lon="2.36993">
        <ele>112</ele>
        <time>2024-04-07T07:11:12.000Z</time>
      </trkpt>
      <trkpt lat="48.38713" lon="2.37009">
        <ele>111.40000152588</ele>
        <time>2024-04-07T07:11:15.000Z</time>
      </trkpt>
      <trkpt lat="48.38719" lon="2.37019">
        <ele>111.19999694824</ele>
        <time>2024-04-07T07:11:17.000Z</time>
      </trkpt>
      <trkpt lat="48.38722" lon="2.37024">
        <ele>111.19999694824</ele>
        <time>2024-04-07T07:11:18.000Z</time>
      </trkpt>
      <trkpt lat="48.38732" lon="2.37048">
        <ele>111.59999847412</ele>
        <time>2024-04-07T07:11:23.000Z</time>
      </trkpt>
      <trkpt lat="48.38738" lon="2.37068">
        <ele>112</ele>
        <time>2024-04-07T07:11:28.000Z</time>
      </trkpt>
      <trkpt lat="48.38742" lon="2.37081">
        <ele>112.40000152588</ele>
        <time>2024-04-07T07:11:32.000Z</time>
      </trkpt>
      <trkpt lat="48.38743" lon="2.37085">
        <ele>112.40000152588</ele>
        <time>2024-04-07T07:11:33.000Z</time>
      </trkpt>
      <trkpt lat="48.38753" lon="2.37098">
        <ele>113.40000152588</ele>
        <time>2024-04-07T07:11:37.000Z</time>
      </trkpt>
      <trkpt lat="48.38757" lon="2.37102">
        <ele>113.80000305176</ele>
        <time>2024-04-07T07:11:38.000Z</time>
      </trkpt>
      <trkpt lat="48.38767" lon="2.37114">
        <ele>114.59999847412</ele>
        <time>2024-04-07T07:11:42.000Z</time>
      </trkpt>
      <trkpt lat="48.38772" lon="2.37119">
        <ele>114.59999847412</ele>
        <time>2024-04-07T07:11:44.000Z</time>
      </trkpt>
      <trkpt lat="48.38782" lon="2.3714">
        <ele>114.59999847412</ele>
        <time>2024-04-07T07:11:49.000Z</time>
      </trkpt>
      <trkpt lat="48.38787" lon="2.37163">
        <ele>114.59999847412</ele>
        <time>2024-04-07T07:11:54.000Z</time>
      </trkpt>
      <trkpt lat="48.38788" lon="2.37183">
        <ele>114.59999847412</ele>
        <time>2024-04-07T07:11:59.000Z</time>
      </trkpt>
      <trkpt lat="48.38788" lon="2.37193">
        <ele>114.59999847412</ele>
        <time>2024-04-07T07:12:04.000Z</time>
      </trkpt>
      <trkpt lat="48.38788" lon="2.37199">
        <ele>114.80000305176</ele>
        <time>2024-04-07T07:12:07.000Z</time>
      </trkpt>
      <trkpt lat="48.3879" lon="2.37207">
        <ele>115</ele>
        <time>2024-04-07T07:12:10.000Z</time>
      </trkpt>
      <trkpt lat="48.38786" lon="2.37224">
        <ele>115.19999694824</ele>
        <time>2024-04-07T07:12:16.000Z</time>
      </trkpt>
      <trkpt lat="48.38782" lon="2.3723">
        <ele>115.19999694824</ele>
        <time>2024-04-07T07:12:19.000Z</time>
      </trkpt>
      <trkpt lat="48.38778" lon="2.37231">
        <ele>115.19999694824</ele>
        <time>2024-04-07T07:12:21.000Z</time>
      </trkpt>
      <trkpt lat="48.38773" lon="2.37232">
        <ele>115.40000152588</ele>
        <time>2024-04-07T07:12:23.000Z</time>
      </trkpt>
      <trkpt lat="48.38771" lon="2.37232">
        <ele>115.59999847412</ele>
        <time>2024-04-07T07:12:24.000Z</time>
      </trkpt>
      <trkpt lat="48.38766" lon="2.37232">
        <ele>116.40000152588</ele>
        <time>2024-04-07T07:12:26.000Z</time>
      </trkpt>
      <trkpt lat="48.38763" lon="2.37232">
        <ele>116.80000305176</ele>
        <time>2024-04-07T07:12:27.000Z</time>
      </trkpt>
      <trkpt lat="48.38757" lon="2.37233">
        <ele>117.59999847412</ele>
        <time>2024-04-07T07:12:29.000Z</time>
      </trkpt>
      <trkpt lat="48.38754" lon="2.37234">
        <ele>118.19999694824</ele>
        <time>2024-04-07T07:12:30.000Z</time>
      </trkpt>
      <trkpt lat="48.38746" lon="2.37237">
        <ele>119.40000152588</ele>
        <time>2024-04-07T07:12:33.000Z</time>
      </trkpt>
      <trkpt lat="48.38737" lon="2.3724">
        <ele>119.80000305176</ele>
        <time>2024-04-07T07:12:36.000Z</time>
      </trkpt>
      <trkpt lat="48.38703" lon="2.37251">
        <ele>119.80000305176</ele>
        <time>2024-04-07T07:12:46.000Z</time>
      </trkpt>
      <trkpt lat="48.38676" lon="2.37258">
        <ele>119.80000305176</ele>
        <time>2024-04-07T07:12:53.000Z</time>
      </trkpt>
      <trkpt lat="48.38659" lon="2.37265">
        <ele>119.80000305176</ele>
        <time>2024-04-07T07:12:57.000Z</time>
      </trkpt>
      <trkpt lat="48.38651" lon="2.37273">
        <ele>119.80000305176</ele>
        <time>2024-04-07T07:12:59.000Z</time>
      </trkpt>
      <trkpt lat="48.38652" lon="2.3729">
        <ele>119.80000305176</ele>
        <time>2024-04-07T07:13:02.000Z</time>
      </trkpt>
      <trkpt lat="48.38654" lon="2.37296">
        <ele>119.80000305176</ele>
        <time>2024-04-07T07:13:03.000Z</time>
      </trkpt>
      <trkpt lat="48.38662" lon="2.37321">
        <ele>118.19999694824</ele>
        <time>2024-04-07T07:13:07.000Z</time>
      </trkpt>
      <trkpt lat="48.38669" lon="2.37343">
        <ele>117.40000152588</ele>
        <time>2024-04-07T07:13:11.000Z</time>
      </trkpt>
      <trkpt lat="48.38671" lon="2.37349">
        <ele>117.19999694824</ele>
        <time>2024-04-07T07:13:12.000Z</time>
      </trkpt>
      <trkpt lat="48.38675" lon="2.37357">
        <ele>117</ele>
        <time>2024-04-07T07:13:14.000Z</time>
      </trkpt>
      <trkpt lat="48.3869" lon="2.37368">
        <ele>116.59999847412</ele>
        <time>2024-04-07T07:13:19.000Z</time>
      </trkpt>
      <trkpt lat="48.38695" lon="2.37379">
        <ele>116</ele>
        <time>2024-04-07T07:13:22.000Z</time>
      </trkpt>
      <trkpt lat="48.38699" lon="2.37387">
        <ele>114.80000305176</ele>
        <time>2024-04-07T07:13:24.000Z</time>
      </trkpt>
      <trkpt lat="48.38701" lon="2.37391">
        <ele>113.40000152588</ele>
        <time>2024-04-07T07:13:25.000Z</time>
      </trkpt>
      <trkpt lat="48.38708" lon="2.37397">
        <ele>111.80000305176</ele>
        <time>2024-04-07T07:13:27.000Z</time>
      </trkpt>
      <trkpt lat="48.38711" lon="2.37398">
        <ele>111.40000152588</ele>
        <time>2024-04-07T07:13:28.000Z</time>
      </trkpt>
      <trkpt lat="48.38717" lon="2.37399">
        <ele>111.19999694824</ele>
        <time>2024-04-07T07:13:31.000Z</time>
      </trkpt>
      <trkpt lat="48.38719" lon="2.37399">
        <ele>111.19999694824</ele>
        <time>2024-04-07T07:13:32.000Z</time>
      </trkpt>
      <trkpt lat="48.38722" lon="2.37399">
        <ele>111.19999694824</ele>
        <time>2024-04-07T07:13:34.000Z</time>
      </trkpt>
      <trkpt lat="48.38725" lon="2.37401">
        <ele>111.40000152588</ele>
        <time>2024-04-07T07:13:36.000Z</time>
      </trkpt>
      <trkpt lat="48.3873" lon="2.37404">
        <ele>113.19999694824</ele>
        <time>2024-04-07T07:13:38.000Z</time>
      </trkpt>
      <trkpt lat="48.38735" lon="2.37409">
        <ele>114.80000305176</ele>
        <time>2024-04-07T07:13:40.000Z</time>
      </trkpt>
      <trkpt lat="48.38742" lon="2.37418">
        <ele>116</ele>
        <time>2024-04-07T07:13:43.000Z</time>
      </trkpt>
      <trkpt lat="48.38758" lon="2.37431">
        <ele>116.19999694824</ele>
        <time>2024-04-07T07:13:49.000Z</time>
      </trkpt>
      <trkpt lat="48.38766" lon="2.37441">
        <ele>116</ele>
        <time>2024-04-07T07:13:53.000Z</time>
      </trkpt>
      <trkpt lat="48.38769" lon="2.37445">
        <ele>116</ele>
        <time>2024-04-07T07:13:54.000Z</time>
      </trkpt>
      <trkpt lat="48.38773" lon="2.37447">
        <ele>116</ele>
        <time>2024-04-07T07:13:55.000Z</time>
      </trkpt>
      <trkpt lat="48.3878" lon="2.37446">
        <ele>115.80000305176</ele>
        <time>2024-04-07T07:13:57.000Z</time>
      </trkpt>
      <trkpt lat="48.38796" lon="2.37439">
        <ele>115</ele>
        <time>2024-04-07T07:14:02.000Z</time>
      </trkpt>
      <trkpt lat="48.38797" lon="2.37438">
        <ele>114</ele>
        <time>2024-04-07T07:14:03.000Z</time>
      </trkpt>
      <trkpt lat="48.38799" lon="2.37438">
        <ele>113</ele>
        <time>2024-04-07T07:14:04.000Z</time>
      </trkpt>
      <trkpt lat="48.38801" lon="2.37437">
        <ele>112</ele>
        <time>2024-04-07T07:14:06.000Z</time>
      </trkpt>
      <trkpt lat="48.38801" lon="2.37436">
        <ele>111.80000305176</ele>
        <time>2024-04-07T07:14:07.000Z</time>
      </trkpt>
      <trkpt lat="48.38812" lon="2.37431">
        <ele>112.40000152588</ele>
        <time>2024-04-07T07:14:19.000Z</time>
      </trkpt>
      <trkpt lat="48.38817" lon="2.37428">
        <ele>112.40000152588</ele>
        <time>2024-04-07T07:14:23.000Z</time>
      </trkpt>
      <trkpt lat="48.38822" lon="2.37423">
        <ele>112.40000152588</ele>
        <time>2024-04-07T07:14:25.000Z</time>
      </trkpt>
      <trkpt lat="48.38826" lon="2.37407">
        <ele>112.19999694824</ele>
        <time>2024-04-07T07:14:29.000Z</time>
      </trkpt>
      <trkpt lat="48.38829" lon="2.37384">
        <ele>111.59999847412</ele>
        <time>2024-04-07T07:14:32.000Z</time>
      </trkpt>
      <trkpt lat="48.38831" lon="2.37377">
        <ele>110.59999847412</ele>
        <time>2024-04-07T07:14:33.000Z</time>
      </trkpt>
      <trkpt lat="48.38833" lon="2.37371">
        <ele>108.59999847412</ele>
        <time>2024-04-07T07:14:34.000Z</time>
      </trkpt>
      <trkpt lat="48.38839" lon="2.37352">
        <ele>107.40000152588</ele>
        <time>2024-04-07T07:14:37.000Z</time>
      </trkpt>
      <trkpt lat="48.38841" lon="2.37342">
        <ele>105.59999847412</ele>
        <time>2024-04-07T07:14:39.000Z</time>
      </trkpt>
      <trkpt lat="48.38843" lon="2.37335">
        <ele>104.19999694824</ele>
        <time>2024-04-07T07:14:41.000Z</time>
      </trkpt>
      <trkpt lat="48.38843" lon="2.37326">
        <ele>102.80000305176</ele>
        <time>2024-04-07T07:14:43.000Z</time>
      </trkpt>
      <trkpt lat="48.38843" lon="2.37321">
        <ele>102</ele>
        <time>2024-04-07T07:14:44.000Z</time>
      </trkpt>
      <trkpt lat="48.38842" lon="2.37317">
        <ele>101.80000305176</ele>
        <time>2024-04-07T07:14:45.000Z</time>
      </trkpt>
      <trkpt lat="48.38839" lon="2.373">
        <ele>101.40000152588</ele>
        <time>2024-04-07T07:14:49.000Z</time>
      </trkpt>
      <trkpt lat="48.38836" lon="2.37292">
        <ele>101.40000152588</ele>
        <time>2024-04-07T07:14:52.000Z</time>
      </trkpt>
      <trkpt lat="48.38836" lon="2.37284">
        <ele>101.40000152588</ele>
        <time>2024-04-07T07:14:55.000Z</time>
      </trkpt>
      <trkpt lat="48.38835" lon="2.37279">
        <ele>102.80000305176</ele>
        <time>2024-04-07T07:14:58.000Z</time>
      </trkpt>
      <trkpt lat="48.38834" lon="2.37274">
        <ele>104.19999694824</ele>
        <time>2024-04-07T07:15:00.000Z</time>
      </trkpt>
      <trkpt lat="48.38833" lon="2.3727">
        <ele>104.59999847412</ele>
        <time>2024-04-07T07:15:01.000Z</time>
      </trkpt>
      <trkpt lat="48.38834" lon="2.37263">
        <ele>105.80000305176</ele>
        <time>2024-04-07T07:15:03.000Z</time>
      </trkpt>
      <trkpt lat="48.38835" lon="2.37254">
        <ele>106</ele>
        <time>2024-04-07T07:15:05.000Z</time>
      </trkpt>
      <trkpt lat="48.38836" lon="2.37249">
        <ele>106</ele>
        <time>2024-04-07T07:15:06.000Z</time>
      </trkpt>
      <trkpt lat="48.38845" lon="2.37239">
        <ele>106</ele>
        <time>2024-04-07T07:15:09.000Z</time>
      </trkpt>
      <trkpt lat="48.38848" lon="2.37235">
        <ele>106</ele>
        <time>2024-04-07T07:15:10.000Z</time>
      </trkpt>
      <trkpt lat="48.38858" lon="2.37228">
        <ele>105.59999847412</ele>
        <time>2024-04-07T07:15:13.000Z</time>
      </trkpt>
      <trkpt lat="48.3886" lon="2.37226">
        <ele>104.80000305176</ele>
        <time>2024-04-07T07:15:14.000Z</time>
      </trkpt>
      <trkpt lat="48.38861" lon="2.37224">
        <ele>103.40000152588</ele>
        <time>2024-04-07T07:15:15.000Z</time>
      </trkpt>
      <trkpt lat="48.38861" lon="2.37222">
        <ele>101.80000305176</ele>
        <time>2024-04-07T07:15:16.000Z</time>
      </trkpt>
      <trkpt lat="48.38861" lon="2.3722">
        <ele>100.19999694824</ele>
        <time>2024-04-07T07:15:17.000Z</time>
      </trkpt>
      <trkpt lat="48.3886" lon="2.37218">
        <ele>98.199996948242</ele>
        <time>2024-04-07T07:15:18.000Z</time>
      </trkpt>
      <trkpt lat="48.38859" lon="2.37216">
        <ele>96.400001525879</ele>
        <time>2024-04-07T07:15:19.000Z</time>
      </trkpt>
      <trkpt lat="48.3886" lon="2.37213">
        <ele>94.800003051758</ele>
        <time>2024-04-07T07:15:20.000Z</time>
      </trkpt>
      <trkpt lat="48.38862" lon="2.37211">
        <ele>93.199996948242</ele>
        <time>2024-04-07T07:15:21.000Z</time>
      </trkpt>
      <trkpt lat="48.38864" lon="2.37208">
        <ele>92.199996948242</ele>
        <time>2024-04-07T07:15:22.000Z</time>
      </trkpt>
      <trkpt lat="48.38868" lon="2.37203">
        <ele>91.800003051758</ele>
        <time>2024-04-07T07:15:23.000Z</time>
      </trkpt>
      <trkpt lat="48.38873" lon="2.37195">
        <ele>91</ele>
        <time>2024-04-07T07:15:25.000Z</time>
      </trkpt>
      <trkpt lat="48.38874" lon="2.37192">
        <ele>90.800003051758</ele>
        <time>2024-04-07T07:15:26.000Z</time>
      </trkpt>
      <trkpt lat="48.38869" lon="2.37184">
        <ele>90.199996948242</ele>
        <time>2024-04-07T07:15:30.000Z</time>
      </trkpt>
      <trkpt lat="48.38868" lon="2.37182">
        <ele>89.599998474121</ele>
        <time>2024-04-07T07:15:31.000Z</time>
      </trkpt>
      <trkpt lat="48.3886" lon="2.3717">
        <ele>89</ele>
        <time>2024-04-07T07:15:37.000Z</time>
      </trkpt>
      <trkpt lat="48.38852" lon="2.37153">
        <ele>89.800003051758</ele>
        <time>2024-04-07T07:15:44.000Z</time>
      </trkpt>
      <trkpt lat="48.38841" lon="2.37136">
        <ele>90.400001525879</ele>
        <time>2024-04-07T07:15:51.000Z</time>
      </trkpt>
      <trkpt lat="48.3884" lon="2.37134">
        <ele>90.800003051758</ele>
        <time>2024-04-07T07:15:52.000Z</time>
      </trkpt>
      <trkpt lat="48.38833" lon="2.37123">
        <ele>91.800003051758</ele>
        <time>2024-04-07T07:15:57.000Z</time>
      </trkpt>
      <trkpt lat="48.38831" lon="2.3712">
        <ele>92</ele>
        <time>2024-04-07T07:15:58.000Z</time>
      </trkpt>
      <trkpt lat="48.38826" lon="2.37113">
        <ele>92.800003051758</ele>
        <time>2024-04-07T07:16:01.000Z</time>
      </trkpt>
      <trkpt lat="48.38822" lon="2.37107">
        <ele>93.599998474121</ele>
        <time>2024-04-07T07:16:04.000Z</time>
      </trkpt>
      <trkpt lat="48.38818" lon="2.37103">
        <ele>94</ele>
        <time>2024-04-07T07:16:06.000Z</time>
      </trkpt>
      <trkpt lat="48.38807" lon="2.37093">
        <ele>94.800003051758</ele>
        <time>2024-04-07T07:16:11.000Z</time>
      </trkpt>
      <trkpt lat="48.388" lon="2.37089">
        <ele>95.199996948242</ele>
        <time>2024-04-07T07:16:14.000Z</time>
      </trkpt>
      <trkpt lat="48.38792" lon="2.37082">
        <ele>95.599998474121</ele>
        <time>2024-04-07T07:16:18.000Z</time>
      </trkpt>
      <trkpt lat="48.38785" lon="2.37075">
        <ele>96</ele>
        <time>2024-04-07T07:16:21.000Z</time>
      </trkpt>
      <trkpt lat="48.38771" lon="2.3706">
        <ele>97.199996948242</ele>
        <time>2024-04-07T07:16:27.000Z</time>
      </trkpt>
      <trkpt lat="48.38774" lon="2.3705">
        <ele>98</ele>
        <time>2024-04-07T07:16:31.000Z</time>
      </trkpt>
      <trkpt lat="48.38775" lon="2.37048">
        <ele>98.199996948242</ele>
        <time>2024-04-07T07:16:32.000Z</time>
      </trkpt>
      <trkpt lat="48.38784" lon="2.37041">
        <ele>99.199996948242</ele>
        <time>2024-04-07T07:16:37.000Z</time>
      </trkpt>
      <trkpt lat="48.38786" lon="2.37039">
        <ele>99.400001525879</ele>
        <time>2024-04-07T07:16:38.000Z</time>
      </trkpt>
      <trkpt lat="48.38795" lon="2.37033">
        <ele>99.400001525879</ele>
        <time>2024-04-07T07:16:41.000Z</time>
      </trkpt>
      <trkpt lat="48.38804" lon="2.37025">
        <ele>99.400001525879</ele>
        <time>2024-04-07T07:16:44.000Z</time>
      </trkpt>
      <trkpt lat="48.3881" lon="2.37019">
        <ele>99.400001525879</ele>
        <time>2024-04-07T07:16:46.000Z</time>
      </trkpt>
      <trkpt lat="48.38817" lon="2.37013">
        <ele>98</ele>
        <time>2024-04-07T07:16:48.000Z</time>
      </trkpt>
      <trkpt lat="48.3882" lon="2.3701">
        <ele>96.199996948242</ele>
        <time>2024-04-07T07:16:49.000Z</time>
      </trkpt>
      <trkpt lat="48.38821" lon="2.37007">
        <ele>94.199996948242</ele>
        <time>2024-04-07T07:16:50.000Z</time>
      </trkpt>
      <trkpt lat="48.38824" lon="2.37004">
        <ele>92</ele>
        <time>2024-04-07T07:16:51.000Z</time>
      </trkpt>
      <trkpt lat="48.38825" lon="2.37001">
        <ele>90.599998474121</ele>
        <time>2024-04-07T07:16:52.000Z</time>
      </trkpt>
      <trkpt lat="48.38828" lon="2.36991">
        <ele>88.800003051758</ele>
        <time>2024-04-07T07:16:54.000Z</time>
      </trkpt>
      <trkpt lat="48.38831" lon="2.36983">
        <ele>87.199996948242</ele>
        <time>2024-04-07T07:16:56.000Z</time>
      </trkpt>
      <trkpt lat="48.38836" lon="2.36973">
        <ele>86.199996948242</ele>
        <time>2024-04-07T07:16:58.000Z</time>
      </trkpt>
      <trkpt lat="48.38838" lon="2.36957">
        <ele>85.199996948242</ele>
        <time>2024-04-07T07:17:00.000Z</time>
      </trkpt>
      <trkpt lat="48.38838" lon="2.3695">
        <ele>84.800003051758</ele>
        <time>2024-04-07T07:17:01.000Z</time>
      </trkpt>
      <trkpt lat="48.38837" lon="2.36944">
        <ele>84.199996948242</ele>
        <time>2024-04-07T07:17:02.000Z</time>
      </trkpt>
      <trkpt lat="48.38835" lon="2.36934">
        <ele>83</ele>
        <time>2024-04-07T07:17:04.000Z</time>
      </trkpt>
      <trkpt lat="48.38833" lon="2.3693">
        <ele>82.199996948242</ele>
        <time>2024-04-07T07:17:05.000Z</time>
      </trkpt>
      <trkpt lat="48.38832" lon="2.36927">
        <ele>81.400001525879</ele>
        <time>2024-04-07T07:17:06.000Z</time>
      </trkpt>
      <trkpt lat="48.38823" lon="2.36909">
        <ele>80.599998474121</ele>
        <time>2024-04-07T07:17:11.000Z</time>
      </trkpt>
      <trkpt lat="48.38819" lon="2.36901">
        <ele>80.599998474121</ele>
        <time>2024-04-07T07:17:13.000Z</time>
      </trkpt>
      <trkpt lat="48.38818" lon="2.36884">
        <ele>81</ele>
        <time>2024-04-07T07:17:17.000Z</time>
      </trkpt>
      <trkpt lat="48.38819" lon="2.3688">
        <ele>81.199996948242</ele>
        <time>2024-04-07T07:17:18.000Z</time>
      </trkpt>
      <trkpt lat="48.38823" lon="2.36871">
        <ele>81.599998474121</ele>
        <time>2024-04-07T07:17:21.000Z</time>
      </trkpt>
      <trkpt lat="48.38827" lon="2.36866">
        <ele>81.800003051758</ele>
        <time>2024-04-07T07:17:24.000Z</time>
      </trkpt>
      <trkpt lat="48.38832" lon="2.36863">
        <ele>82.599998474121</ele>
        <time>2024-04-07T07:17:27.000Z</time>
      </trkpt>
      <trkpt lat="48.38835" lon="2.36862">
        <ele>83.800003051758</ele>
        <time>2024-04-07T07:17:29.000Z</time>
      </trkpt>
      <trkpt lat="48.38841" lon="2.3686">
        <ele>85</ele>
        <time>2024-04-07T07:17:32.000Z</time>
      </trkpt>
      <trkpt lat="48.38862" lon="2.36858">
        <ele>86</ele>
        <time>2024-04-07T07:17:38.000Z</time>
      </trkpt>
      <trkpt lat="48.38871" lon="2.36858">
        <ele>86</ele>
        <time>2024-04-07T07:17:40.000Z</time>
      </trkpt>
      <trkpt lat="48.38889" lon="2.36862">
        <ele>85.800003051758</ele>
        <time>2024-04-07T07:17:44.000Z</time>
      </trkpt>
      <trkpt lat="48.38893" lon="2.36864">
        <ele>85.599998474121</ele>
        <time>2024-04-07T07:17:45.000Z</time>
      </trkpt>
      <trkpt lat="48.38906" lon="2.36878">
        <ele>84.599998474121</ele>
        <time>2024-04-07T07:17:48.000Z</time>
      </trkpt>
      <trkpt lat="48.38913" lon="2.36893">
        <ele>83.800003051758</ele>
        <time>2024-04-07T07:17:50.000Z</time>
      </trkpt>
      <trkpt lat="48.38916" lon="2.36901">
        <ele>83.400001525879</ele>
        <time>2024-04-07T07:17:51.000Z</time>
      </trkpt>
      <trkpt lat="48.38922" lon="2.36919">
        <ele>82.800003051758</ele>
        <time>2024-04-07T07:17:53.000Z</time>
      </trkpt>
      <trkpt lat="48.38925" lon="2.36928">
        <ele>82.199996948242</ele>
        <time>2024-04-07T07:17:54.000Z</time>
      </trkpt>
      <trkpt lat="48.38932" lon="2.36946">
        <ele>81.199996948242</ele>
        <time>2024-04-07T07:17:56.000Z</time>
      </trkpt>
      <trkpt lat="48.38939" lon="2.36965">
        <ele>80</ele>
        <time>2024-04-07T07:17:58.000Z</time>
      </trkpt>
      <trkpt lat="48.3895" lon="2.36991">
        <ele>78.599998474121</ele>
        <time>2024-04-07T07:18:01.000Z</time>
      </trkpt>
      <trkpt lat="48.38957" lon="2.37008">
        <ele>77.599998474121</ele>
        <time>2024-04-07T07:18:03.000Z</time>
      </trkpt>
      <trkpt lat="48.38961" lon="2.37017">
        <ele>77.199996948242</ele>
        <time>2024-04-07T07:18:04.000Z</time>
      </trkpt>
      <trkpt lat="48.38968" lon="2.37034">
        <ele>76.599998474121</ele>
        <time>2024-04-07T07:18:06.000Z</time>
      </trkpt>
      <trkpt lat="48.38975" lon="2.37051">
        <ele>76.400001525879</ele>
        <time>2024-04-07T07:18:08.000Z</time>
      </trkpt>
      <trkpt lat="48.38979" lon="2.3706">
        <ele>76.199996948242</ele>
        <time>2024-04-07T07:18:09.000Z</time>
      </trkpt>
      <trkpt lat="48.3899" lon="2.37086">
        <ele>75.599998474121</ele>
        <time>2024-04-07T07:18:12.000Z</time>
      </trkpt>
      <trkpt lat="48.38997" lon="2.37102">
        <ele>75</ele>
        <time>2024-04-07T07:18:14.000Z</time>
      </trkpt>
      <trkpt lat="48.39016" lon="2.37142">
        <ele>74.199996948242</ele>
        <time>2024-04-07T07:18:19.000Z</time>
      </trkpt>
      <trkpt lat="48.3902" lon="2.3715">
        <ele>73.800003051758</ele>
        <time>2024-04-07T07:18:20.000Z</time>
      </trkpt>
      <trkpt lat="48.39038" lon="2.37195">
        <ele>73</ele>
        <time>2024-04-07T07:18:26.000Z</time>
      </trkpt>
      <trkpt lat="48.39041" lon="2.37203">
        <ele>72.599998474121</ele>
        <time>2024-04-07T07:18:27.000Z</time>
      </trkpt>
      <trkpt lat="48.39066" lon="2.37262">
        <ele>71.599998474121</ele>
        <time>2024-04-07T07:18:35.000Z</time>
      </trkpt>
      <trkpt lat="48.39069" lon="2.3727">
        <ele>71.599998474121</ele>
        <time>2024-04-07T07:18:36.000Z</time>
      </trkpt>
      <trkpt lat="48.39094" lon="2.37319">
        <ele>70.800003051758</ele>
        <time>2024-04-07T07:18:43.000Z</time>
      </trkpt>
      <trkpt lat="48.39112" lon="2.3735">
        <ele>70.400001525879</ele>
        <time>2024-04-07T07:18:48.000Z</time>
      </trkpt>
      <trkpt lat="48.39118" lon="2.3736">
        <ele>70.400001525879</ele>
        <time>2024-04-07T07:18:50.000Z</time>
      </trkpt>
      <trkpt lat="48.39127" lon="2.37376">
        <ele>70.400001525879</ele>
        <time>2024-04-07T07:18:53.000Z</time>
      </trkpt>
      <trkpt lat="48.39135" lon="2.37381">
        <ele>70.400001525879</ele>
        <time>2024-04-07T07:18:55.000Z</time>
      </trkpt>
      <trkpt lat="48.39147" lon="2.37373">
        <ele>70.599998474121</ele>
        <time>2024-04-07T07:18:58.000Z</time>
      </trkpt>
      <trkpt lat="48.39151" lon="2.3737">
        <ele>70.800003051758</ele>
        <time>2024-04-07T07:18:59.000Z</time>
      </trkpt>
      <trkpt lat="48.39159" lon="2.37359">
        <ele>70.800003051758</ele>
        <time>2024-04-07T07:19:02.000Z</time>
      </trkpt>
      <trkpt lat="48.3916" lon="2.37354">
        <ele>70.800003051758</ele>
        <time>2024-04-07T07:19:03.000Z</time>
      </trkpt>
      <trkpt lat="48.39164" lon="2.37324">
        <ele>71</ele>
        <time>2024-04-07T07:19:08.000Z</time>
      </trkpt>
      <trkpt lat="48.39165" lon="2.37318">
        <ele>71.400001525879</ele>
        <time>2024-04-07T07:19:09.000Z</time>
      </trkpt>
      <trkpt lat="48.39168" lon="2.37298">
        <ele>72.599998474121</ele>
        <time>2024-04-07T07:19:12.000Z</time>
      </trkpt>
      <trkpt lat="48.39174" lon="2.3728">
        <ele>73</ele>
        <time>2024-04-07T07:19:15.000Z</time>
      </trkpt>
      <trkpt lat="48.39185" lon="2.37257">
        <ele>73.400001525879</ele>
        <time>2024-04-07T07:19:19.000Z</time>
      </trkpt>
      <trkpt lat="48.39193" lon="2.37242">
        <ele>73.599998474121</ele>
        <time>2024-04-07T07:19:22.000Z</time>
      </trkpt>
      <trkpt lat="48.39208" lon="2.37218">
        <ele>73.800003051758</ele>
        <time>2024-04-07T07:19:27.000Z</time>
      </trkpt>
      <trkpt lat="48.39211" lon="2.37215">
        <ele>74</ele>
        <time>2024-04-07T07:19:28.000Z</time>
      </trkpt>
      <trkpt lat="48.39222" lon="2.37216">
        <ele>74.199996948242</ele>
        <time>2024-04-07T07:19:31.000Z</time>
      </trkpt>
      <trkpt lat="48.39226" lon="2.37218">
        <ele>74.199996948242</ele>
        <time>2024-04-07T07:19:32.000Z</time>
      </trkpt>
      <trkpt lat="48.39237" lon="2.37224">
        <ele>74.800003051758</ele>
        <time>2024-04-07T07:19:35.000Z</time>
      </trkpt>
      <trkpt lat="48.39251" lon="2.37235">
        <ele>75.800003051758</ele>
        <time>2024-04-07T07:19:39.000Z</time>
      </trkpt>
      <trkpt lat="48.39255" lon="2.37238">
        <ele>76</ele>
        <time>2024-04-07T07:19:40.000Z</time>
      </trkpt>
      <trkpt lat="48.39274" lon="2.3725">
        <ele>77</ele>
        <time>2024-04-07T07:19:45.000Z</time>
      </trkpt>
      <trkpt lat="48.39278" lon="2.37252">
        <ele>77.199996948242</ele>
        <time>2024-04-07T07:19:46.000Z</time>
      </trkpt>
      <trkpt lat="48.39293" lon="2.37259">
        <ele>78</ele>
        <time>2024-04-07T07:19:50.000Z</time>
      </trkpt>
      <trkpt lat="48.39308" lon="2.37264">
        <ele>78.800003051758</ele>
        <time>2024-04-07T07:19:54.000Z</time>
      </trkpt>
      <trkpt lat="48.39316" lon="2.37266">
        <ele>79.199996948242</ele>
        <time>2024-04-07T07:19:56.000Z</time>
      </trkpt>
      <trkpt lat="48.39336" lon="2.37271">
        <ele>80</ele>
        <time>2024-04-07T07:20:01.000Z</time>
      </trkpt>
      <trkpt lat="48.3934" lon="2.37274">
        <ele>80</ele>
        <time>2024-04-07T07:20:02.000Z</time>
      </trkpt>
      <trkpt lat="48.39347" lon="2.37281">
        <ele>80.400001525879</ele>
        <time>2024-04-07T07:20:04.000Z</time>
      </trkpt>
      <trkpt lat="48.3935" lon="2.37285">
        <ele>80.599998474121</ele>
        <time>2024-04-07T07:20:05.000Z</time>
      </trkpt>
      <trkpt lat="48.39356" lon="2.37299">
        <ele>81.199996948242</ele>
        <time>2024-04-07T07:20:08.000Z</time>
      </trkpt>
      <trkpt lat="48.39359" lon="2.3731">
        <ele>81.599998474121</ele>
        <time>2024-04-07T07:20:10.000Z</time>
      </trkpt>
      <trkpt lat="48.39361" lon="2.37315">
        <ele>81.599998474121</ele>
        <time>2024-04-07T07:20:11.000Z</time>
      </trkpt>
      <trkpt lat="48.39369" lon="2.37343">
        <ele>82.400001525879</ele>
        <time>2024-04-07T07:20:17.000Z</time>
      </trkpt>
      <trkpt lat="48.39372" lon="2.37351">
        <ele>82.599998474121</ele>
        <time>2024-04-07T07:20:19.000Z</time>
      </trkpt>
      <trkpt lat="48.39376" lon="2.37362">
        <ele>84.199996948242</ele>
        <time>2024-04-07T07:20:22.000Z</time>
      </trkpt>
      <trkpt lat="48.39382" lon="2.37371">
        <ele>84.400001525879</ele>
        <time>2024-04-07T07:20:25.000Z</time>
      </trkpt>
      <trkpt lat="48.39389" lon="2.37372">
        <ele>84.599998474121</ele>
        <time>2024-04-07T07:20:27.000Z</time>
      </trkpt>
      <trkpt lat="48.39395" lon="2.37368">
        <ele>85</ele>
        <time>2024-04-07T07:20:29.000Z</time>
      </trkpt>
      <trkpt lat="48.394" lon="2.37362">
        <ele>85.400001525879</ele>
        <time>2024-04-07T07:20:31.000Z</time>
      </trkpt>
      <trkpt lat="48.39402" lon="2.37358">
        <ele>85.400001525879</ele>
        <time>2024-04-07T07:20:32.000Z</time>
      </trkpt>
      <trkpt lat="48.39409" lon="2.37347">
        <ele>85.599998474121</ele>
        <time>2024-04-07T07:20:36.000Z</time>
      </trkpt>
      <trkpt lat="48.39413" lon="2.37342">
        <ele>85.800003051758</ele>
        <time>2024-04-07T07:20:38.000Z</time>
      </trkpt>
      <trkpt lat="48.39416" lon="2.37336">
        <ele>86.199996948242</ele>
        <time>2024-04-07T07:20:40.000Z</time>
      </trkpt>
      <trkpt lat="48.39425" lon="2.37322">
        <ele>87.199996948242</ele>
        <time>2024-04-07T07:20:45.000Z</time>
      </trkpt>
      <trkpt lat="48.39426" lon="2.3732">
        <ele>87.599998474121</ele>
        <time>2024-04-07T07:20:46.000Z</time>
      </trkpt>
      <trkpt lat="48.3943" lon="2.37312">
        <ele>88.400001525879</ele>
        <time>2024-04-07T07:20:49.000Z</time>
      </trkpt>
      <trkpt lat="48.39434" lon="2.37304">
        <ele>89.599998474121</ele>
        <time>2024-04-07T07:20:52.000Z</time>
      </trkpt>
      <trkpt lat="48.39436" lon="2.37301">
        <ele>90</ele>
        <time>2024-04-07T07:20:53.000Z</time>
      </trkpt>
      <trkpt lat="48.39438" lon="2.37297">
        <ele>90.800003051758</ele>
        <time>2024-04-07T07:20:55.000Z</time>
      </trkpt>
      <trkpt lat="48.39446" lon="2.37285">
        <ele>91.800003051758</ele>
        <time>2024-04-07T07:21:00.000Z</time>
      </trkpt>
      <trkpt lat="48.39447" lon="2.37282">
        <ele>92</ele>
        <time>2024-04-07T07:21:01.000Z</time>
      </trkpt>
      <trkpt lat="48.39453" lon="2.37274">
        <ele>93.199996948242</ele>
        <time>2024-04-07T07:21:05.000Z</time>
      </trkpt>
      <trkpt lat="48.39456" lon="2.37266">
        <ele>94.199996948242</ele>
        <time>2024-04-07T07:21:08.000Z</time>
      </trkpt>
      <trkpt lat="48.39457" lon="2.37262">
        <ele>94.400001525879</ele>
        <time>2024-04-07T07:21:09.000Z</time>
      </trkpt>
      <trkpt lat="48.39462" lon="2.37246">
        <ele>95.800003051758</ele>
        <time>2024-04-07T07:21:14.000Z</time>
      </trkpt>
      <trkpt lat="48.39463" lon="2.37243">
        <ele>96</ele>
        <time>2024-04-07T07:21:15.000Z</time>
      </trkpt>
      <trkpt lat="48.39466" lon="2.37233">
        <ele>97</ele>
        <time>2024-04-07T07:21:18.000Z</time>
      </trkpt>
      <trkpt lat="48.39472" lon="2.37216">
        <ele>97.800003051758</ele>
        <time>2024-04-07T07:21:23.000Z</time>
      </trkpt>
      <trkpt lat="48.39473" lon="2.37212">
        <ele>98</ele>
        <time>2024-04-07T07:21:24.000Z</time>
      </trkpt>
      <trkpt lat="48.39476" lon="2.37191">
        <ele>99</ele>
        <time>2024-04-07T07:21:30.000Z</time>
      </trkpt>
      <trkpt lat="48.39476" lon="2.37187">
        <ele>99.199996948242</ele>
        <time>2024-04-07T07:21:31.000Z</time>
      </trkpt>
      <trkpt lat="48.39478" lon="2.37169">
        <ele>100.19999694824</ele>
        <time>2024-04-07T07:21:36.000Z</time>
      </trkpt>
      <trkpt lat="48.39479" lon="2.37162">
        <ele>100.80000305176</ele>
        <time>2024-04-07T07:21:38.000Z</time>
      </trkpt>
      <trkpt lat="48.39481" lon="2.37153">
        <ele>101.40000152588</ele>
        <time>2024-04-07T07:21:41.000Z</time>
      </trkpt>
      <trkpt lat="48.39483" lon="2.37144">
        <ele>102.19999694824</ele>
        <time>2024-04-07T07:21:44.000Z</time>
      </trkpt>
      <trkpt lat="48.39484" lon="2.37138">
        <ele>102.59999847412</ele>
        <time>2024-04-07T07:21:46.000Z</time>
      </trkpt>
      <trkpt lat="48.39483" lon="2.37125">
        <ele>103.59999847412</ele>
        <time>2024-04-07T07:21:50.000Z</time>
      </trkpt>
      <trkpt lat="48.39482" lon="2.37123">
        <ele>103.80000305176</ele>
        <time>2024-04-07T07:21:51.000Z</time>
      </trkpt>
      <trkpt lat="48.39477" lon="2.37114">
        <ele>104.80000305176</ele>
        <time>2024-04-07T07:21:55.000Z</time>
      </trkpt>
      <trkpt lat="48.39476" lon="2.37111">
        <ele>105</ele>
        <time>2024-04-07T07:21:56.000Z</time>
      </trkpt>
      <trkpt lat="48.39473" lon="2.37098">
        <ele>106</ele>
        <time>2024-04-07T07:22:00.000Z</time>
      </trkpt>
      <trkpt lat="48.39472" lon="2.37096">
        <ele>106.40000152588</ele>
        <time>2024-04-07T07:22:01.000Z</time>
      </trkpt>
      <trkpt lat="48.39472" lon="2.37093">
        <ele>107</ele>
        <time>2024-04-07T07:22:02.000Z</time>
      </trkpt>
      <trkpt lat="48.39471" lon="2.37091">
        <ele>107.40000152588</ele>
        <time>2024-04-07T07:22:03.000Z</time>
      </trkpt>
      <trkpt lat="48.39469" lon="2.37083">
        <ele>108.19999694824</ele>
        <time>2024-04-07T07:22:07.000Z</time>
      </trkpt>
      <trkpt lat="48.39469" lon="2.37082">
        <ele>108.80000305176</ele>
        <time>2024-04-07T07:22:08.000Z</time>
      </trkpt>
      <trkpt lat="48.39469" lon="2.37077">
        <ele>109.80000305176</ele>
        <time>2024-04-07T07:22:10.000Z</time>
      </trkpt>
      <trkpt lat="48.3947" lon="2.37072">
        <ele>111</ele>
        <time>2024-04-07T07:22:13.000Z</time>
      </trkpt>
      <trkpt lat="48.3947" lon="2.37068">
        <ele>112</ele>
        <time>2024-04-07T07:22:15.000Z</time>
      </trkpt>
      <trkpt lat="48.39471" lon="2.37065">
        <ele>113</ele>
        <time>2024-04-07T07:22:17.000Z</time>
      </trkpt>
      <trkpt lat="48.39473" lon="2.37061">
        <ele>114.19999694824</ele>
        <time>2024-04-07T07:22:19.000Z</time>
      </trkpt>
      <trkpt lat="48.39474" lon="2.37059">
        <ele>114.59999847412</ele>
        <time>2024-04-07T07:22:20.000Z</time>
      </trkpt>
      <trkpt lat="48.39476" lon="2.37056">
        <ele>115.40000152588</ele>
        <time>2024-04-07T07:22:22.000Z</time>
      </trkpt>
      <trkpt lat="48.39479" lon="2.37048">
        <ele>116.59999847412</ele>
        <time>2024-04-07T07:22:25.000Z</time>
      </trkpt>
      <trkpt lat="48.3948" lon="2.37037">
        <ele>117.40000152588</ele>
        <time>2024-04-07T07:22:28.000Z</time>
      </trkpt>
      <trkpt lat="48.39482" lon="2.37034">
        <ele>117.59999847412</ele>
        <time>2024-04-07T07:22:29.000Z</time>
      </trkpt>
      <trkpt lat="48.39486" lon="2.37033">
        <ele>118.19999694824</ele>
        <time>2024-04-07T07:22:32.000Z</time>
      </trkpt>
      <trkpt lat="48.39497" lon="2.37047">
        <ele>118.59999847412</ele>
        <time>2024-04-07T07:22:38.000Z</time>
      </trkpt>
      <trkpt lat="48.39499" lon="2.37049">
        <ele>118.59999847412</ele>
        <time>2024-04-07T07:22:39.000Z</time>
      </trkpt>
      <trkpt lat="48.39505" lon="2.3706">
        <ele>119</ele>
        <time>2024-04-07T07:22:44.000Z</time>
      </trkpt>
      <trkpt lat="48.39506" lon="2.37063">
        <ele>119</ele>
        <time>2024-04-07T07:22:45.000Z</time>
      </trkpt>
      <trkpt lat="48.39504" lon="2.3708">
        <ele>119.40000152588</ele>
        <time>2024-04-07T07:22:50.000Z</time>
      </trkpt>
      <trkpt lat="48.39503" lon="2.37084">
        <ele>119.40000152588</ele>
        <time>2024-04-07T07:22:51.000Z</time>
      </trkpt>
      <trkpt lat="48.39503" lon="2.37103">
        <ele>119.40000152588</ele>
        <time>2024-04-07T07:22:56.000Z</time>
      </trkpt>
      <trkpt lat="48.39508" lon="2.37117">
        <ele>119.40000152588</ele>
        <time>2024-04-07T07:23:00.000Z</time>
      </trkpt>
      <trkpt lat="48.3951" lon="2.3712">
        <ele>119.19999694824</ele>
        <time>2024-04-07T07:23:01.000Z</time>
      </trkpt>
      <trkpt lat="48.39513" lon="2.37124">
        <ele>119</ele>
        <time>2024-04-07T07:23:02.000Z</time>
      </trkpt>
      <trkpt lat="48.39516" lon="2.37134">
        <ele>118.59999847412</ele>
        <time>2024-04-07T07:23:05.000Z</time>
      </trkpt>
      <trkpt lat="48.39516" lon="2.37137">
        <ele>118.59999847412</ele>
        <time>2024-04-07T07:23:06.000Z</time>
      </trkpt>
      <trkpt lat="48.39519" lon="2.37153">
        <ele>118.80000305176</ele>
        <time>2024-04-07T07:23:10.000Z</time>
      </trkpt>
      <trkpt lat="48.39521" lon="2.37161">
        <ele>119</ele>
        <time>2024-04-07T07:23:12.000Z</time>
      </trkpt>
      <trkpt lat="48.39525" lon="2.37163">
        <ele>119.19999694824</ele>
        <time>2024-04-07T07:23:14.000Z</time>
      </trkpt>
      <trkpt lat="48.39528" lon="2.37159">
        <ele>119.19999694824</ele>
        <time>2024-04-07T07:23:17.000Z</time>
      </trkpt>
      <trkpt lat="48.39529" lon="2.37156">
        <ele>119.19999694824</ele>
        <time>2024-04-07T07:23:18.000Z</time>
      </trkpt>
      <trkpt lat="48.3953" lon="2.37154">
        <ele>119.40000152588</ele>
        <time>2024-04-07T07:23:19.000Z</time>
      </trkpt>
      <trkpt lat="48.39533" lon="2.37148">
        <ele>119.59999847412</ele>
        <time>2024-04-07T07:23:24.000Z</time>
      </trkpt>
      <trkpt lat="48.39534" lon="2.37147">
        <ele>119.59999847412</ele>
        <time>2024-04-07T07:23:25.000Z</time>
      </trkpt>
      <trkpt lat="48.39536" lon="2.37147">
        <ele>119.59999847412</ele>
        <time>2024-04-07T07:23:26.000Z</time>
      </trkpt>
      <trkpt lat="48.3954" lon="2.37148">
        <ele>119.80000305176</ele>
        <time>2024-04-07T07:23:28.000Z</time>
      </trkpt>
      <trkpt lat="48.39542" lon="2.3715">
        <ele>119.80000305176</ele>
        <time>2024-04-07T07:23:29.000Z</time>
      </trkpt>
      <trkpt lat="48.39544" lon="2.37152">
        <ele>119.80000305176</ele>
        <time>2024-04-07T07:23:30.000Z</time>
      </trkpt>
      <trkpt lat="48.39552" lon="2.37167">
        <ele>119.80000305176</ele>
        <time>2024-04-07T07:23:35.000Z</time>
      </trkpt>
      <trkpt lat="48.3956" lon="2.37184">
        <ele>119.80000305176</ele>
        <time>2024-04-07T07:23:40.000Z</time>
      </trkpt>
      <trkpt lat="48.39562" lon="2.37189">
        <ele>119.59999847412</ele>
        <time>2024-04-07T07:23:41.000Z</time>
      </trkpt>
      <trkpt lat="48.39563" lon="2.37208">
        <ele>119.40000152588</ele>
        <time>2024-04-07T07:23:46.000Z</time>
      </trkpt>
      <trkpt lat="48.39554" lon="2.37217">
        <ele>119.40000152588</ele>
        <time>2024-04-07T07:23:50.000Z</time>
      </trkpt>
      <trkpt lat="48.39541" lon="2.37229">
        <ele>119.40000152588</ele>
        <time>2024-04-07T07:23:54.000Z</time>
      </trkpt>
      <trkpt lat="48.39534" lon="2.37247">
        <ele>119.40000152588</ele>
        <time>2024-04-07T07:23:58.000Z</time>
      </trkpt>
      <trkpt lat="48.39533" lon="2.37262">
        <ele>119.19999694824</ele>
        <time>2024-04-07T07:24:02.000Z</time>
      </trkpt>
      <trkpt lat="48.3953" lon="2.37268">
        <ele>119</ele>
        <time>2024-04-07T07:24:03.000Z</time>
      </trkpt>
      <trkpt lat="48.39525" lon="2.37283">
        <ele>118.40000152588</ele>
        <time>2024-04-07T07:24:05.000Z</time>
      </trkpt>
      <trkpt lat="48.39525" lon="2.3729">
        <ele>118</ele>
        <time>2024-04-07T07:24:06.000Z</time>
      </trkpt>
      <trkpt lat="48.39531" lon="2.37303">
        <ele>117.59999847412</ele>
        <time>2024-04-07T07:24:09.000Z</time>
      </trkpt>
      <trkpt lat="48.39535" lon="2.37303">
        <ele>117.19999694824</ele>
        <time>2024-04-07T07:24:10.000Z</time>
      </trkpt>
      <trkpt lat="48.39537" lon="2.37303">
        <ele>116.19999694824</ele>
        <time>2024-04-07T07:24:11.000Z</time>
      </trkpt>
      <trkpt lat="48.3954" lon="2.37303">
        <ele>114.80000305176</ele>
        <time>2024-04-07T07:24:12.000Z</time>
      </trkpt>
      <trkpt lat="48.39543" lon="2.37305">
        <ele>111.19999694824</ele>
        <time>2024-04-07T07:24:13.000Z</time>
      </trkpt>
      <trkpt lat="48.39549" lon="2.37309">
        <ele>109.59999847412</ele>
        <time>2024-04-07T07:24:15.000Z</time>
      </trkpt>
      <trkpt lat="48.39555" lon="2.37316">
        <ele>109.19999694824</ele>
        <time>2024-04-07T07:24:17.000Z</time>
      </trkpt>
      <trkpt lat="48.39565" lon="2.37327">
        <ele>108.40000152588</ele>
        <time>2024-04-07T07:24:20.000Z</time>
      </trkpt>
      <trkpt lat="48.3957" lon="2.37329">
        <ele>107.80000305176</ele>
        <time>2024-04-07T07:24:22.000Z</time>
      </trkpt>
      <trkpt lat="48.39576" lon="2.37329">
        <ele>107.40000152588</ele>
        <time>2024-04-07T07:24:24.000Z</time>
      </trkpt>
      <trkpt lat="48.39582" lon="2.37331">
        <ele>106.40000152588</ele>
        <time>2024-04-07T07:24:27.000Z</time>
      </trkpt>
      <trkpt lat="48.39583" lon="2.37331">
        <ele>105.59999847412</ele>
        <time>2024-04-07T07:24:28.000Z</time>
      </trkpt>
      <trkpt lat="48.39583" lon="2.37331">
        <ele>105</ele>
        <time>2024-04-07T07:24:29.000Z</time>
      </trkpt>
      <trkpt lat="48.39584" lon="2.37332">
        <ele>104.19999694824</ele>
        <time>2024-04-07T07:24:35.000Z</time>
      </trkpt>
      <trkpt lat="48.39584" lon="2.37332">
        <ele>104.19999694824</ele>
        <time>2024-04-07T07:24:38.000Z</time>
      </trkpt>
      <trkpt lat="48.39584" lon="2.37332">
        <ele>104</ele>
        <time>2024-04-07T07:24:41.000Z</time>
      </trkpt>
      <trkpt lat="48.39587" lon="2.37333">
        <ele>103.59999847412</ele>
        <time>2024-04-07T07:24:57.000Z</time>
      </trkpt>
      <trkpt lat="48.39592" lon="2.37336">
        <ele>103.19999694824</ele>
        <time>2024-04-07T07:25:05.000Z</time>
      </trkpt>
      <trkpt lat="48.39592" lon="2.37336">
        <ele>102.80000305176</ele>
        <time>2024-04-07T07:25:08.000Z</time>
      </trkpt>
      <trkpt lat="48.39594" lon="2.37337">
        <ele>102.40000152588</ele>
        <time>2024-04-07T07:25:20.000Z</time>
      </trkpt>
      <trkpt lat="48.39595" lon="2.37338">
        <ele>102.40000152588</ele>
        <time>2024-04-07T07:25:25.000Z</time>
      </trkpt>
      <trkpt lat="48.39595" lon="2.37339">
        <ele>102.19999694824</ele>
        <time>2024-04-07T07:25:31.000Z</time>
      </trkpt>
      <trkpt lat="48.39595" lon="2.37339">
        <ele>102.19999694824</ele>
        <time>2024-04-07T07:25:38.000Z</time>
      </trkpt>
      <trkpt lat="48.39596" lon="2.37339">
        <ele>102</ele>
        <time>2024-04-07T07:25:42.000Z</time>
      </trkpt>
      <trkpt lat="48.39598" lon="2.37339">
        <ele>102</ele>
        <time>2024-04-07T07:25:56.000Z</time>
      </trkpt>
      <trkpt lat="48.39597" lon="2.37342">
        <ele>102</ele>
        <time>2024-04-07T07:26:10.000Z</time>
      </trkpt>
      <trkpt lat="48.39597" lon="2.37343">
        <ele>102</ele>
        <time>2024-04-07T07:26:19.000Z</time>
      </trkpt>
      <trkpt lat="48.39598" lon="2.37343">
        <ele>102</ele>
        <time>2024-04-07T07:26:23.000Z</time>
      </trkpt>
      <trkpt lat="48.39598" lon="2.37343">
        <ele>102</ele>
        <time>2024-04-07T07:26:24.000Z</time>
      </trkpt>
      <trkpt lat="48.39601" lon="2.37343">
        <ele>102.19999694824</ele>
        <time>2024-04-07T07:26:38.000Z</time>
      </trkpt>
      <trkpt lat="48.39601" lon="2.37343">
        <ele>102</ele>
        <time>2024-04-07T07:26:55.000Z</time>
      </trkpt>
      <trkpt lat="48.39601" lon="2.37343">
        <ele>102</ele>
        <time>2024-04-07T07:26:57.000Z</time>
      </trkpt>
      <trkpt lat="48.39602" lon="2.37342">
        <ele>102.19999694824</ele>
        <time>2024-04-07T07:27:06.000Z</time>
      </trkpt>
      <trkpt lat="48.39602" lon="2.37342">
        <ele>102.19999694824</ele>
        <time>2024-04-07T07:27:12.000Z</time>
      </trkpt>
      <trkpt lat="48.39602" lon="2.37342">
        <ele>102.40000152588</ele>
        <time>2024-04-07T07:27:29.000Z</time>
      </trkpt>
      <trkpt lat="48.39604" lon="2.37345">
        <ele>102.40000152588</ele>
        <time>2024-04-07T07:27:32.000Z</time>
      </trkpt>
      <trkpt lat="48.39609" lon="2.37342">
        <ele>102.40000152588</ele>
        <time>2024-04-07T07:27:35.000Z</time>
      </trkpt>
      <trkpt lat="48.39611" lon="2.37336">
        <ele>102.19999694824</ele>
        <time>2024-04-07T07:27:38.000Z</time>
      </trkpt>
      <trkpt lat="48.39612" lon="2.37331">
        <ele>102</ele>
        <time>2024-04-07T07:27:40.000Z</time>
      </trkpt>
      <trkpt lat="48.39613" lon="2.37325">
        <ele>101.80000305176</ele>
        <time>2024-04-07T07:27:42.000Z</time>
      </trkpt>
      <trkpt lat="48.39615" lon="2.3732">
        <ele>101.80000305176</ele>
        <time>2024-04-07T07:27:44.000Z</time>
      </trkpt>
      <trkpt lat="48.39616" lon="2.37317">
        <ele>101.80000305176</ele>
        <time>2024-04-07T07:27:45.000Z</time>
      </trkpt>
      <trkpt lat="48.39616" lon="2.37314">
        <ele>101.80000305176</ele>
        <time>2024-04-07T07:27:46.000Z</time>
      </trkpt>
      <trkpt lat="48.39617" lon="2.37309">
        <ele>102</ele>
        <time>2024-04-07T07:27:48.000Z</time>
      </trkpt>
      <trkpt lat="48.39618" lon="2.37305">
        <ele>102.59999847412</ele>
        <time>2024-04-07T07:27:50.000Z</time>
      </trkpt>
      <trkpt lat="48.39618" lon="2.37302">
        <ele>103.19999694824</ele>
        <time>2024-04-07T07:27:51.000Z</time>
      </trkpt>
      <trkpt lat="48.39618" lon="2.37297">
        <ele>104</ele>
        <time>2024-04-07T07:27:53.000Z</time>
      </trkpt>
      <trkpt lat="48.39618" lon="2.37295">
        <ele>104.40000152588</ele>
        <time>2024-04-07T07:27:54.000Z</time>
      </trkpt>
      <trkpt lat="48.39619" lon="2.37292">
        <ele>105.40000152588</ele>
        <time>2024-04-07T07:27:56.000Z</time>
      </trkpt>
      <trkpt lat="48.3962" lon="2.37287">
        <ele>106.19999694824</ele>
        <time>2024-04-07T07:27:58.000Z</time>
      </trkpt>
      <trkpt lat="48.3962" lon="2.37285">
        <ele>106.40000152588</ele>
        <time>2024-04-07T07:27:59.000Z</time>
      </trkpt>
      <trkpt lat="48.39623" lon="2.37278">
        <ele>107.19999694824</ele>
        <time>2024-04-07T07:28:02.000Z</time>
      </trkpt>
      <trkpt lat="48.39624" lon="2.37274">
        <ele>107.59999847412</ele>
        <time>2024-04-07T07:28:04.000Z</time>
      </trkpt>
      <trkpt lat="48.39626" lon="2.37269">
        <ele>108.40000152588</ele>
        <time>2024-04-07T07:28:06.000Z</time>
      </trkpt>
      <trkpt lat="48.39626" lon="2.37267">
        <ele>108.59999847412</ele>
        <time>2024-04-07T07:28:07.000Z</time>
      </trkpt>
      <trkpt lat="48.39627" lon="2.37256">
        <ele>109.80000305176</ele>
        <time>2024-04-07T07:28:12.000Z</time>
      </trkpt>
      <trkpt lat="48.39627" lon="2.37246">
        <ele>111</ele>
        <time>2024-04-07T07:28:15.000Z</time>
      </trkpt>
      <trkpt lat="48.39628" lon="2.3724">
        <ele>111.59999847412</ele>
        <time>2024-04-07T07:28:17.000Z</time>
      </trkpt>
      <trkpt lat="48.39629" lon="2.37236">
        <ele>112.40000152588</ele>
        <time>2024-04-07T07:28:19.000Z</time>
      </trkpt>
      <trkpt lat="48.39631" lon="2.37228">
        <ele>113.59999847412</ele>
        <time>2024-04-07T07:28:22.000Z</time>
      </trkpt>
      <trkpt lat="48.39635" lon="2.37214">
        <ele>114.80000305176</ele>
        <time>2024-04-07T07:28:26.000Z</time>
      </trkpt>
      <trkpt lat="48.39636" lon="2.37198">
        <ele>115.80000305176</ele>
        <time>2024-04-07T07:28:30.000Z</time>
      </trkpt>
      <trkpt lat="48.39638" lon="2.37188">
        <ele>116.19999694824</ele>
        <time>2024-04-07T07:28:33.000Z</time>
      </trkpt>
      <trkpt lat="48.39639" lon="2.37168">
        <ele>116.40000152588</ele>
        <time>2024-04-07T07:28:39.000Z</time>
      </trkpt>
      <trkpt lat="48.39641" lon="2.37161">
        <ele>116.80000305176</ele>
        <time>2024-04-07T07:28:41.000Z</time>
      </trkpt>
      <trkpt lat="48.39645" lon="2.37152">
        <ele>117.59999847412</ele>
        <time>2024-04-07T07:28:44.000Z</time>
      </trkpt>
      <trkpt lat="48.3965" lon="2.3714">
        <ele>118</ele>
        <time>2024-04-07T07:28:47.000Z</time>
      </trkpt>
      <trkpt lat="48.39657" lon="2.37131">
        <ele>118.59999847412</ele>
        <time>2024-04-07T07:28:50.000Z</time>
      </trkpt>
      <trkpt lat="48.39664" lon="2.37119">
        <ele>119</ele>
        <time>2024-04-07T07:28:53.000Z</time>
      </trkpt>
      <trkpt lat="48.3967" lon="2.37106">
        <ele>119.40000152588</ele>
        <time>2024-04-07T07:28:56.000Z</time>
      </trkpt>
      <trkpt lat="48.39685" lon="2.3708">
        <ele>120</ele>
        <time>2024-04-07T07:29:03.000Z</time>
      </trkpt>
      <trkpt lat="48.3969" lon="2.37073">
        <ele>120</ele>
        <time>2024-04-07T07:29:05.000Z</time>
      </trkpt>
      <trkpt lat="48.39702" lon="2.37054">
        <ele>120.19999694824</ele>
        <time>2024-04-07T07:29:09.000Z</time>
      </trkpt>
      <trkpt lat="48.39706" lon="2.37048">
        <ele>120.19999694824</ele>
        <time>2024-04-07T07:29:10.000Z</time>
      </trkpt>
      <trkpt lat="48.39712" lon="2.37031">
        <ele>120.40000152588</ele>
        <time>2024-04-07T07:29:13.000Z</time>
      </trkpt>
      <trkpt lat="48.39707" lon="2.37013">
        <ele>120.40000152588</ele>
        <time>2024-04-07T07:29:16.000Z</time>
      </trkpt>
      <trkpt lat="48.39696" lon="2.37008">
        <ele>119.40000152588</ele>
        <time>2024-04-07T07:29:19.000Z</time>
      </trkpt>
      <trkpt lat="48.3969" lon="2.37004">
        <ele>119.19999694824</ele>
        <time>2024-04-07T07:29:21.000Z</time>
      </trkpt>
      <trkpt lat="48.3968" lon="2.37">
        <ele>119</ele>
        <time>2024-04-07T07:29:24.000Z</time>
      </trkpt>
      <trkpt lat="48.39665" lon="2.36989">
        <ele>118.59999847412</ele>
        <time>2024-04-07T07:29:29.000Z</time>
      </trkpt>
      <trkpt lat="48.39656" lon="2.36981">
        <ele>118.59999847412</ele>
        <time>2024-04-07T07:29:32.000Z</time>
      </trkpt>
      <trkpt lat="48.39654" lon="2.36981">
        <ele>118.80000305176</ele>
        <time>2024-04-07T07:29:33.000Z</time>
      </trkpt>
      <trkpt lat="48.39643" lon="2.36985">
        <ele>118.80000305176</ele>
        <time>2024-04-07T07:29:38.000Z</time>
      </trkpt>
      <trkpt lat="48.39641" lon="2.36982">
        <ele>119</ele>
        <time>2024-04-07T07:29:43.000Z</time>
      </trkpt>
      <trkpt lat="48.3964" lon="2.36979">
        <ele>119.40000152588</ele>
        <time>2024-04-07T07:29:45.000Z</time>
      </trkpt>
      <trkpt lat="48.3964" lon="2.36974">
        <ele>119.59999847412</ele>
        <time>2024-04-07T07:29:47.000Z</time>
      </trkpt>
      <trkpt lat="48.39634" lon="2.36972">
        <ele>119.59999847412</ele>
        <time>2024-04-07T07:29:50.000Z</time>
      </trkpt>
      <trkpt lat="48.39621" lon="2.36985">
        <ele>119.59999847412</ele>
        <time>2024-04-07T07:29:54.000Z</time>
      </trkpt>
      <trkpt lat="48.39606" lon="2.3699">
        <ele>118.80000305176</ele>
        <time>2024-04-07T07:29:58.000Z</time>
      </trkpt>
      <trkpt lat="48.39589" lon="2.36993">
        <ele>118.40000152588</ele>
        <time>2024-04-07T07:30:03.000Z</time>
      </trkpt>
      <trkpt lat="48.39562" lon="2.37002">
        <ele>119.40000152588</ele>
        <time>2024-04-07T07:30:10.000Z</time>
      </trkpt>
      <trkpt lat="48.39552" lon="2.37002">
        <ele>119.80000305176</ele>
        <time>2024-04-07T07:30:13.000Z</time>
      </trkpt>
      <trkpt lat="48.3955" lon="2.36999">
        <ele>119.80000305176</ele>
        <time>2024-04-07T07:30:14.000Z</time>
      </trkpt>
      <trkpt lat="48.3955" lon="2.36979">
        <ele>120</ele>
        <time>2024-04-07T07:30:18.000Z</time>
      </trkpt>
      <trkpt lat="48.39555" lon="2.36965">
        <ele>120.19999694824</ele>
        <time>2024-04-07T07:30:21.000Z</time>
      </trkpt>
      <trkpt lat="48.39558" lon="2.36962">
        <ele>120.19999694824</ele>
        <time>2024-04-07T07:30:22.000Z</time>
      </trkpt>
      <trkpt lat="48.39569" lon="2.36954">
        <ele>120.40000152588</ele>
        <time>2024-04-07T07:30:25.000Z</time>
      </trkpt>
      <trkpt lat="48.39578" lon="2.36948">
        <ele>120.80000305176</ele>
        <time>2024-04-07T07:30:28.000Z</time>
      </trkpt>
      <trkpt lat="48.39581" lon="2.36946">
        <ele>120.80000305176</ele>
        <time>2024-04-07T07:30:29.000Z</time>
      </trkpt>
      <trkpt lat="48.3959" lon="2.36942">
        <ele>122.19999694824</ele>
        <time>2024-04-07T07:30:32.000Z</time>
      </trkpt>
      <trkpt lat="48.39595" lon="2.36939">
        <ele>123.40000152588</ele>
        <time>2024-04-07T07:30:34.000Z</time>
      </trkpt>
      <trkpt lat="48.39609" lon="2.36935">
        <ele>124.59999847412</ele>
        <time>2024-04-07T07:30:38.000Z</time>
      </trkpt>
      <trkpt lat="48.3962" lon="2.36933">
        <ele>125.19999694824</ele>
        <time>2024-04-07T07:30:41.000Z</time>
      </trkpt>
      <trkpt lat="48.39626" lon="2.36933">
        <ele>125.59999847412</ele>
        <time>2024-04-07T07:30:43.000Z</time>
      </trkpt>
      <trkpt lat="48.39649" lon="2.36936">
        <ele>126.40000152588</ele>
        <time>2024-04-07T07:30:49.000Z</time>
      </trkpt>
      <trkpt lat="48.39658" lon="2.36938">
        <ele>126.59999847412</ele>
        <time>2024-04-07T07:30:51.000Z</time>
      </trkpt>
      <trkpt lat="48.39667" lon="2.36941">
        <ele>126.80000305176</ele>
        <time>2024-04-07T07:30:53.000Z</time>
      </trkpt>
      <trkpt lat="48.39672" lon="2.36944">
        <ele>126.80000305176</ele>
        <time>2024-04-07T07:30:54.000Z</time>
      </trkpt>
      <trkpt lat="48.39696" lon="2.36962">
        <ele>126.80000305176</ele>
        <time>2024-04-07T07:30:59.000Z</time>
      </trkpt>
      <trkpt lat="48.39701" lon="2.36965">
        <ele>126.80000305176</ele>
        <time>2024-04-07T07:31:00.000Z</time>
      </trkpt>
      <trkpt lat="48.39716" lon="2.36972">
        <ele>126.80000305176</ele>
        <time>2024-04-07T07:31:03.000Z</time>
      </trkpt>
      <trkpt lat="48.39732" lon="2.36977">
        <ele>126.59999847412</ele>
        <time>2024-04-07T07:31:06.000Z</time>
      </trkpt>
      <trkpt lat="48.39768" lon="2.36989">
        <ele>126.59999847412</ele>
        <time>2024-04-07T07:31:13.000Z</time>
      </trkpt>
      <trkpt lat="48.39774" lon="2.3699">
        <ele>126.40000152588</ele>
        <time>2024-04-07T07:31:14.000Z</time>
      </trkpt>
      <trkpt lat="48.39789" lon="2.36988">
        <ele>126.40000152588</ele>
        <time>2024-04-07T07:31:17.000Z</time>
      </trkpt>
      <trkpt lat="48.39794" lon="2.36985">
        <ele>126.40000152588</ele>
        <time>2024-04-07T07:31:18.000Z</time>
      </trkpt>
      <trkpt lat="48.39806" lon="2.36972">
        <ele>126.19999694824</ele>
        <time>2024-04-07T07:31:21.000Z</time>
      </trkpt>
      <trkpt lat="48.39809" lon="2.36966">
        <ele>126.19999694824</ele>
        <time>2024-04-07T07:31:22.000Z</time>
      </trkpt>
      <trkpt lat="48.39817" lon="2.36929">
        <ele>126</ele>
        <time>2024-04-07T07:31:27.000Z</time>
      </trkpt>
      <trkpt lat="48.39817" lon="2.36912">
        <ele>126</ele>
        <time>2024-04-07T07:31:29.000Z</time>
      </trkpt>
      <trkpt lat="48.39817" lon="2.36896">
        <ele>125.80000305176</ele>
        <time>2024-04-07T07:31:31.000Z</time>
      </trkpt>
      <trkpt lat="48.39817" lon="2.36889">
        <ele>125.59999847412</ele>
        <time>2024-04-07T07:31:32.000Z</time>
      </trkpt>
      <trkpt lat="48.39817" lon="2.36881">
        <ele>125.40000152588</ele>
        <time>2024-04-07T07:31:33.000Z</time>
      </trkpt>
      <trkpt lat="48.39814" lon="2.36852">
        <ele>124.59999847412</ele>
        <time>2024-04-07T07:31:37.000Z</time>
      </trkpt>
      <trkpt lat="48.39812" lon="2.3683">
        <ele>124</ele>
        <time>2024-04-07T07:31:40.000Z</time>
      </trkpt>
      <trkpt lat="48.39818" lon="2.36799">
        <ele>124</ele>
        <time>2024-04-07T07:31:45.000Z</time>
      </trkpt>
      <trkpt lat="48.39827" lon="2.36798">
        <ele>124</ele>
        <time>2024-04-07T07:31:48.000Z</time>
      </trkpt>
      <trkpt lat="48.39839" lon="2.36814">
        <ele>124.40000152588</ele>
        <time>2024-04-07T07:31:52.000Z</time>
      </trkpt>
      <trkpt lat="48.39842" lon="2.36826">
        <ele>124.40000152588</ele>
        <time>2024-04-07T07:31:54.000Z</time>
      </trkpt>
      <trkpt lat="48.39846" lon="2.36837">
        <ele>124.40000152588</ele>
        <time>2024-04-07T07:31:56.000Z</time>
      </trkpt>
      <trkpt lat="48.39851" lon="2.36857">
        <ele>124.40000152588</ele>
        <time>2024-04-07T07:31:59.000Z</time>
      </trkpt>
      <trkpt lat="48.39854" lon="2.36863">
        <ele>124.19999694824</ele>
        <time>2024-04-07T07:32:00.000Z</time>
      </trkpt>
      <trkpt lat="48.39859" lon="2.36875">
        <ele>123.80000305176</ele>
        <time>2024-04-07T07:32:02.000Z</time>
      </trkpt>
      <trkpt lat="48.39866" lon="2.36885">
        <ele>123.19999694824</ele>
        <time>2024-04-07T07:32:05.000Z</time>
      </trkpt>
      <trkpt lat="48.39868" lon="2.36892">
        <ele>122</ele>
        <time>2024-04-07T07:32:07.000Z</time>
      </trkpt>
      <trkpt lat="48.39876" lon="2.36905">
        <ele>120.80000305176</ele>
        <time>2024-04-07T07:32:11.000Z</time>
      </trkpt>
      <trkpt lat="48.39878" lon="2.36909">
        <ele>120.59999847412</ele>
        <time>2024-04-07T07:32:12.000Z</time>
      </trkpt>
      <trkpt lat="48.39887" lon="2.36926">
        <ele>120</ele>
        <time>2024-04-07T07:32:16.000Z</time>
      </trkpt>
      <trkpt lat="48.39901" lon="2.36949">
        <ele>120</ele>
        <time>2024-04-07T07:32:22.000Z</time>
      </trkpt>
      <trkpt lat="48.39904" lon="2.36954">
        <ele>120</ele>
        <time>2024-04-07T07:32:24.000Z</time>
      </trkpt>
      <trkpt lat="48.39904" lon="2.36962">
        <ele>120</ele>
        <time>2024-04-07T07:32:27.000Z</time>
      </trkpt>
      <trkpt lat="48.39902" lon="2.36966">
        <ele>120</ele>
        <time>2024-04-07T07:32:29.000Z</time>
      </trkpt>
      <trkpt lat="48.39898" lon="2.36974">
        <ele>120.80000305176</ele>
        <time>2024-04-07T07:32:34.000Z</time>
      </trkpt>
      <trkpt lat="48.39899" lon="2.36977">
        <ele>121.19999694824</ele>
        <time>2024-04-07T07:32:35.000Z</time>
      </trkpt>
      <trkpt lat="48.399" lon="2.36979">
        <ele>122.19999694824</ele>
        <time>2024-04-07T07:32:36.000Z</time>
      </trkpt>
      <trkpt lat="48.39905" lon="2.36985">
        <ele>123.40000152588</ele>
        <time>2024-04-07T07:32:39.000Z</time>
      </trkpt>
      <trkpt lat="48.39907" lon="2.36987">
        <ele>123.80000305176</ele>
        <time>2024-04-07T07:32:40.000Z</time>
      </trkpt>
      <trkpt lat="48.39911" lon="2.3699">
        <ele>124.19999694824</ele>
        <time>2024-04-07T07:32:42.000Z</time>
      </trkpt>
      <trkpt lat="48.39919" lon="2.36995">
        <ele>124.40000152588</ele>
        <time>2024-04-07T07:32:45.000Z</time>
      </trkpt>
      <trkpt lat="48.39922" lon="2.36998">
        <ele>124.40000152588</ele>
        <time>2024-04-07T07:32:46.000Z</time>
      </trkpt>
      <trkpt lat="48.39944" lon="2.37013">
        <ele>124.40000152588</ele>
        <time>2024-04-07T07:32:51.000Z</time>
      </trkpt>
      <trkpt lat="48.39976" lon="2.3703">
        <ele>123.59999847412</ele>
        <time>2024-04-07T07:32:58.000Z</time>
      </trkpt>
      <trkpt lat="48.39982" lon="2.37036">
        <ele>123.40000152588</ele>
        <time>2024-04-07T07:33:00.000Z</time>
      </trkpt>
      <trkpt lat="48.39994" lon="2.37051">
        <ele>123.40000152588</ele>
        <time>2024-04-07T07:33:04.000Z</time>
      </trkpt>
      <trkpt lat="48.40012" lon="2.37065">
        <ele>124</ele>
        <time>2024-04-07T07:33:09.000Z</time>
      </trkpt>
      <trkpt lat="48.4002" lon="2.37071">
        <ele>124</ele>
        <time>2024-04-07T07:33:11.000Z</time>
      </trkpt>
      <trkpt lat="48.40027" lon="2.37081">
        <ele>124.19999694824</ele>
        <time>2024-04-07T07:33:13.000Z</time>
      </trkpt>
      <trkpt lat="48.40033" lon="2.37098">
        <ele>124.40000152588</ele>
        <time>2024-04-07T07:33:17.000Z</time>
      </trkpt>
      <trkpt lat="48.40037" lon="2.37106">
        <ele>124.40000152588</ele>
        <time>2024-04-07T07:33:19.000Z</time>
      </trkpt>
      <trkpt lat="48.40039" lon="2.37114">
        <ele>124.59999847412</ele>
        <time>2024-04-07T07:33:21.000Z</time>
      </trkpt>
      <trkpt lat="48.40039" lon="2.3712">
        <ele>125.80000305176</ele>
        <time>2024-04-07T07:33:23.000Z</time>
      </trkpt>
      <trkpt lat="48.40042" lon="2.37127">
        <ele>127</ele>
        <time>2024-04-07T07:33:25.000Z</time>
      </trkpt>
      <trkpt lat="48.40043" lon="2.3714">
        <ele>127.59999847412</ele>
        <time>2024-04-07T07:33:28.000Z</time>
      </trkpt>
      <trkpt lat="48.40045" lon="2.37148">
        <ele>127.59999847412</ele>
        <time>2024-04-07T07:33:30.000Z</time>
      </trkpt>
      <trkpt lat="48.40048" lon="2.37159">
        <ele>127.59999847412</ele>
        <time>2024-04-07T07:33:32.000Z</time>
      </trkpt>
      <trkpt lat="48.40051" lon="2.37172">
        <ele>127.59999847412</ele>
        <time>2024-04-07T07:33:34.000Z</time>
      </trkpt>
      <trkpt lat="48.40051" lon="2.37177">
        <ele>127.59999847412</ele>
        <time>2024-04-07T07:33:35.000Z</time>
      </trkpt>
      <trkpt lat="48.40054" lon="2.37188">
        <ele>127.19999694824</ele>
        <time>2024-04-07T07:33:38.000Z</time>
      </trkpt>
      <trkpt lat="48.40056" lon="2.3719">
        <ele>126.19999694824</ele>
        <time>2024-04-07T07:33:39.000Z</time>
      </trkpt>
      <trkpt lat="48.40057" lon="2.37191">
        <ele>124.80000305176</ele>
        <time>2024-04-07T07:33:40.000Z</time>
      </trkpt>
      <trkpt lat="48.40058" lon="2.37192">
        <ele>123.40000152588</ele>
        <time>2024-04-07T07:33:41.000Z</time>
      </trkpt>
      <trkpt lat="48.40059" lon="2.37194">
        <ele>122.19999694824</ele>
        <time>2024-04-07T07:33:42.000Z</time>
      </trkpt>
      <trkpt lat="48.40061" lon="2.37198">
        <ele>120.80000305176</ele>
        <time>2024-04-07T07:33:44.000Z</time>
      </trkpt>
      <trkpt lat="48.40061" lon="2.37201">
        <ele>120.59999847412</ele>
        <time>2024-04-07T07:33:45.000Z</time>
      </trkpt>
      <trkpt lat="48.40063" lon="2.37208">
        <ele>120.19999694824</ele>
        <time>2024-04-07T07:33:47.000Z</time>
      </trkpt>
      <trkpt lat="48.40068" lon="2.37212">
        <ele>120</ele>
        <time>2024-04-07T07:33:49.000Z</time>
      </trkpt>
      <trkpt lat="48.4007" lon="2.37211">
        <ele>119.80000305176</ele>
        <time>2024-04-07T07:33:50.000Z</time>
      </trkpt>
      <trkpt lat="48.40074" lon="2.3721">
        <ele>119.59999847412</ele>
        <time>2024-04-07T07:33:51.000Z</time>
      </trkpt>
      <trkpt lat="48.40081" lon="2.37209">
        <ele>118.19999694824</ele>
        <time>2024-04-07T07:33:53.000Z</time>
      </trkpt>
      <trkpt lat="48.40084" lon="2.3721">
        <ele>117</ele>
        <time>2024-04-07T07:33:54.000Z</time>
      </trkpt>
      <trkpt lat="48.40087" lon="2.37209">
        <ele>115.80000305176</ele>
        <time>2024-04-07T07:33:55.000Z</time>
      </trkpt>
      <trkpt lat="48.4009" lon="2.37208">
        <ele>114.59999847412</ele>
        <time>2024-04-07T07:33:56.000Z</time>
      </trkpt>
      <trkpt lat="48.40092" lon="2.37206">
        <ele>113.59999847412</ele>
        <time>2024-04-07T07:33:57.000Z</time>
      </trkpt>
      <trkpt lat="48.40093" lon="2.37202">
        <ele>112.40000152588</ele>
        <time>2024-04-07T07:33:58.000Z</time>
      </trkpt>
      <trkpt lat="48.40093" lon="2.37197">
        <ele>111.19999694824</ele>
        <time>2024-04-07T07:33:59.000Z</time>
      </trkpt>
      <trkpt lat="48.40094" lon="2.37191">
        <ele>110</ele>
        <time>2024-04-07T07:34:00.000Z</time>
      </trkpt>
      <trkpt lat="48.40095" lon="2.37185">
        <ele>108.80000305176</ele>
        <time>2024-04-07T07:34:01.000Z</time>
      </trkpt>
      <trkpt lat="48.40095" lon="2.37181">
        <ele>107.80000305176</ele>
        <time>2024-04-07T07:34:02.000Z</time>
      </trkpt>
      <trkpt lat="48.40096" lon="2.37178">
        <ele>105.80000305176</ele>
        <time>2024-04-07T07:34:03.000Z</time>
      </trkpt>
      <trkpt lat="48.40097" lon="2.37174">
        <ele>105</ele>
        <time>2024-04-07T07:34:05.000Z</time>
      </trkpt>
      <trkpt lat="48.40101" lon="2.3717">
        <ele>104.40000152588</ele>
        <time>2024-04-07T07:34:07.000Z</time>
      </trkpt>
      <trkpt lat="48.40102" lon="2.37166">
        <ele>104</ele>
        <time>2024-04-07T07:34:08.000Z</time>
      </trkpt>
      <trkpt lat="48.40102" lon="2.37163">
        <ele>103.80000305176</ele>
        <time>2024-04-07T07:34:09.000Z</time>
      </trkpt>
      <trkpt lat="48.40101" lon="2.37154">
        <ele>103.19999694824</ele>
        <time>2024-04-07T07:34:12.000Z</time>
      </trkpt>
      <trkpt lat="48.40099" lon="2.37149">
        <ele>102.80000305176</ele>
        <time>2024-04-07T07:34:14.000Z</time>
      </trkpt>
      <trkpt lat="48.40099" lon="2.37139">
        <ele>102</ele>
        <time>2024-04-07T07:34:17.000Z</time>
      </trkpt>
      <trkpt lat="48.40096" lon="2.37126">
        <ele>101.80000305176</ele>
        <time>2024-04-07T07:34:21.000Z</time>
      </trkpt>
      <trkpt lat="48.40089" lon="2.37099">
        <ele>102</ele>
        <time>2024-04-07T07:34:29.000Z</time>
      </trkpt>
      <trkpt lat="48.40078" lon="2.37079">
        <ele>102.40000152588</ele>
        <time>2024-04-07T07:34:35.000Z</time>
      </trkpt>
      <trkpt lat="48.40061" lon="2.37057">
        <ele>102.80000305176</ele>
        <time>2024-04-07T07:34:42.000Z</time>
      </trkpt>
      <trkpt lat="48.40058" lon="2.37053">
        <ele>102.80000305176</ele>
        <time>2024-04-07T07:34:43.000Z</time>
      </trkpt>
      <trkpt lat="48.40053" lon="2.37046">
        <ele>103</ele>
        <time>2024-04-07T07:34:45.000Z</time>
      </trkpt>
      <trkpt lat="48.40042" lon="2.37033">
        <ele>103.80000305176</ele>
        <time>2024-04-07T07:34:50.000Z</time>
      </trkpt>
      <trkpt lat="48.40035" lon="2.37025">
        <ele>104.19999694824</ele>
        <time>2024-04-07T07:34:53.000Z</time>
      </trkpt>
      <trkpt lat="48.40023" lon="2.37011">
        <ele>104.80000305176</ele>
        <time>2024-04-07T07:34:58.000Z</time>
      </trkpt>
      <trkpt lat="48.40017" lon="2.37004">
        <ele>105.40000152588</ele>
        <time>2024-04-07T07:35:01.000Z</time>
      </trkpt>
      <trkpt lat="48.40011" lon="2.36996">
        <ele>105.80000305176</ele>
        <time>2024-04-07T07:35:04.000Z</time>
      </trkpt>
      <trkpt lat="48.39998" lon="2.36981">
        <ele>106.40000152588</ele>
        <time>2024-04-07T07:35:10.000Z</time>
      </trkpt>
      <trkpt lat="48.39996" lon="2.36978">
        <ele>106.59999847412</ele>
        <time>2024-04-07T07:35:11.000Z</time>
      </trkpt>
      <trkpt lat="48.39989" lon="2.3697">
        <ele>107.19999694824</ele>
        <time>2024-04-07T07:35:14.000Z</time>
      </trkpt>
      <trkpt lat="48.39981" lon="2.36961">
        <ele>107.40000152588</ele>
        <time>2024-04-07T07:35:17.000Z</time>
      </trkpt>
      <trkpt lat="48.39974" lon="2.36956">
        <ele>107.59999847412</ele>
        <time>2024-04-07T07:35:19.000Z</time>
      </trkpt>
      <trkpt lat="48.39957" lon="2.36941">
        <ele>108.40000152588</ele>
        <time>2024-04-07T07:35:25.000Z</time>
      </trkpt>
      <trkpt lat="48.39952" lon="2.36935">
        <ele>108.59999847412</ele>
        <time>2024-04-07T07:35:27.000Z</time>
      </trkpt>
      <trkpt lat="48.3994" lon="2.36923">
        <ele>109</ele>
        <time>2024-04-07T07:35:31.000Z</time>
      </trkpt>
      <trkpt lat="48.39923" lon="2.36904">
        <ele>109.59999847412</ele>
        <time>2024-04-07T07:35:37.000Z</time>
      </trkpt>
      <trkpt lat="48.3992" lon="2.36899">
        <ele>109.80000305176</ele>
        <time>2024-04-07T07:35:38.000Z</time>
      </trkpt>
      <trkpt lat="48.39903" lon="2.36872">
        <ele>110.59999847412</ele>
        <time>2024-04-07T07:35:44.000Z</time>
      </trkpt>
      <trkpt lat="48.39898" lon="2.36861">
        <ele>110.80000305176</ele>
        <time>2024-04-07T07:35:47.000Z</time>
      </trkpt>
      <trkpt lat="48.39895" lon="2.36853">
        <ele>111.19999694824</ele>
        <time>2024-04-07T07:35:49.000Z</time>
      </trkpt>
      <trkpt lat="48.39885" lon="2.3682">
        <ele>111.59999847412</ele>
        <time>2024-04-07T07:35:55.000Z</time>
      </trkpt>
      <trkpt lat="48.39885" lon="2.36814">
        <ele>111.80000305176</ele>
        <time>2024-04-07T07:35:56.000Z</time>
      </trkpt>
      <trkpt lat="48.39884" lon="2.36787">
        <ele>112.59999847412</ele>
        <time>2024-04-07T07:36:01.000Z</time>
      </trkpt>
      <trkpt lat="48.39883" lon="2.36782">
        <ele>112.80000305176</ele>
        <time>2024-04-07T07:36:02.000Z</time>
      </trkpt>
      <trkpt lat="48.39879" lon="2.36759">
        <ele>113</ele>
        <time>2024-04-07T07:36:06.000Z</time>
      </trkpt>
      <trkpt lat="48.39878" lon="2.36725">
        <ele>113.80000305176</ele>
        <time>2024-04-07T07:36:12.000Z</time>
      </trkpt>
      <trkpt lat="48.39876" lon="2.36719">
        <ele>114</ele>
        <time>2024-04-07T07:36:13.000Z</time>
      </trkpt>
      <trkpt lat="48.39873" lon="2.36683">
        <ele>114.80000305176</ele>
        <time>2024-04-07T07:36:19.000Z</time>
      </trkpt>
      <trkpt lat="48.39873" lon="2.36677">
        <ele>115</ele>
        <time>2024-04-07T07:36:20.000Z</time>
      </trkpt>
      <trkpt lat="48.39873" lon="2.36665">
        <ele>115.19999694824</ele>
        <time>2024-04-07T07:36:22.000Z</time>
      </trkpt>
      <trkpt lat="48.39872" lon="2.36641">
        <ele>115.40000152588</ele>
        <time>2024-04-07T07:36:26.000Z</time>
      </trkpt>
      <trkpt lat="48.39872" lon="2.36636">
        <ele>115.59999847412</ele>
        <time>2024-04-07T07:36:27.000Z</time>
      </trkpt>
      <trkpt lat="48.3987" lon="2.36625">
        <ele>116</ele>
        <time>2024-04-07T07:36:29.000Z</time>
      </trkpt>
      <trkpt lat="48.39868" lon="2.36598">
        <ele>116.80000305176</ele>
        <time>2024-04-07T07:36:34.000Z</time>
      </trkpt>
      <trkpt lat="48.39867" lon="2.36589">
        <ele>117.19999694824</ele>
        <time>2024-04-07T07:36:36.000Z</time>
      </trkpt>
      <trkpt lat="48.39863" lon="2.36569">
        <ele>117.80000305176</ele>
        <time>2024-04-07T07:36:40.000Z</time>
      </trkpt>
      <trkpt lat="48.3986" lon="2.3655">
        <ele>118.40000152588</ele>
        <time>2024-04-07T07:36:44.000Z</time>
      </trkpt>
      <trkpt lat="48.3986" lon="2.36539">
        <ele>118.59999847412</ele>
        <time>2024-04-07T07:36:46.000Z</time>
      </trkpt>
      <trkpt lat="48.39857" lon="2.36513">
        <ele>119.19999694824</ele>
        <time>2024-04-07T07:36:51.000Z</time>
      </trkpt>
      <trkpt lat="48.39856" lon="2.36507">
        <ele>119.19999694824</ele>
        <time>2024-04-07T07:36:52.000Z</time>
      </trkpt>
      <trkpt lat="48.39851" lon="2.36469">
        <ele>120.19999694824</ele>
        <time>2024-04-07T07:36:59.000Z</time>
      </trkpt>
      <trkpt lat="48.39851" lon="2.36434">
        <ele>121</ele>
        <time>2024-04-07T07:37:05.000Z</time>
      </trkpt>
      <trkpt lat="48.39847" lon="2.36421">
        <ele>121.40000152588</ele>
        <time>2024-04-07T07:37:07.000Z</time>
      </trkpt>
      <trkpt lat="48.39838" lon="2.36399">
        <ele>122.19999694824</ele>
        <time>2024-04-07T07:37:11.000Z</time>
      </trkpt>
      <trkpt lat="48.39832" lon="2.36377">
        <ele>122.40000152588</ele>
        <time>2024-04-07T07:37:15.000Z</time>
      </trkpt>
      <trkpt lat="48.39831" lon="2.36365">
        <ele>122.59999847412</ele>
        <time>2024-04-07T07:37:17.000Z</time>
      </trkpt>
      <trkpt lat="48.39825" lon="2.36347">
        <ele>122.80000305176</ele>
        <time>2024-04-07T07:37:19.000Z</time>
      </trkpt>
      <trkpt lat="48.39824" lon="2.36346">
        <ele>122.80000305176</ele>
        <time>2024-04-07T07:37:20.000Z</time>
      </trkpt>
      <trkpt lat="48.39828" lon="2.36354">
        <ele>123.59999847412</ele>
        <time>2024-04-07T07:37:24.000Z</time>
      </trkpt>
      <trkpt lat="48.3983" lon="2.36364">
        <ele>125</ele>
        <time>2024-04-07T07:37:28.000Z</time>
      </trkpt>
      <trkpt lat="48.39832" lon="2.36366">
        <ele>125.59999847412</ele>
        <time>2024-04-07T07:37:29.000Z</time>
      </trkpt>
      <trkpt lat="48.39836" lon="2.36371">
        <ele>126</ele>
        <time>2024-04-07T07:37:31.000Z</time>
      </trkpt>
      <trkpt lat="48.39839" lon="2.36379">
        <ele>126.19999694824</ele>
        <time>2024-04-07T07:37:33.000Z</time>
      </trkpt>
      <trkpt lat="48.39838" lon="2.36392">
        <ele>126.19999694824</ele>
        <time>2024-04-07T07:37:36.000Z</time>
      </trkpt>
      <trkpt lat="48.39837" lon="2.36396">
        <ele>126.19999694824</ele>
        <time>2024-04-07T07:37:37.000Z</time>
      </trkpt>
      <trkpt lat="48.39837" lon="2.3642">
        <ele>125.59999847412</ele>
        <time>2024-04-07T07:37:42.000Z</time>
      </trkpt>
      <trkpt lat="48.39838" lon="2.36425">
        <ele>125.59999847412</ele>
        <time>2024-04-07T07:37:43.000Z</time>
      </trkpt>
      <trkpt lat="48.39843" lon="2.36454">
        <ele>125.40000152588</ele>
        <time>2024-04-07T07:37:49.000Z</time>
      </trkpt>
      <trkpt lat="48.39848" lon="2.36479">
        <ele>125.40000152588</ele>
        <time>2024-04-07T07:37:54.000Z</time>
      </trkpt>
      <trkpt lat="48.39849" lon="2.36484">
        <ele>125.40000152588</ele>
        <time>2024-04-07T07:37:55.000Z</time>
      </trkpt>
      <trkpt lat="48.39854" lon="2.36491">
        <ele>125.40000152588</ele>
        <time>2024-04-07T07:37:57.000Z</time>
      </trkpt>
      <trkpt lat="48.39862" lon="2.36498">
        <ele>125.40000152588</ele>
        <time>2024-04-07T07:37:59.000Z</time>
      </trkpt>
      <trkpt lat="48.39872" lon="2.36507">
        <ele>125</ele>
        <time>2024-04-07T07:38:02.000Z</time>
      </trkpt>
      <trkpt lat="48.39875" lon="2.36511">
        <ele>124.59999847412</ele>
        <time>2024-04-07T07:38:03.000Z</time>
      </trkpt>
      <trkpt lat="48.3988" lon="2.36516">
        <ele>123.80000305176</ele>
        <time>2024-04-07T07:38:05.000Z</time>
      </trkpt>
      <trkpt lat="48.39889" lon="2.36522">
        <ele>122.59999847412</ele>
        <time>2024-04-07T07:38:07.000Z</time>
      </trkpt>
      <trkpt lat="48.39898" lon="2.36527">
        <ele>121.59999847412</ele>
        <time>2024-04-07T07:38:09.000Z</time>
      </trkpt>
      <trkpt lat="48.39902" lon="2.36531">
        <ele>121.40000152588</ele>
        <time>2024-04-07T07:38:10.000Z</time>
      </trkpt>
      <trkpt lat="48.39903" lon="2.36536">
        <ele>121.19999694824</ele>
        <time>2024-04-07T07:38:11.000Z</time>
      </trkpt>
      <trkpt lat="48.39906" lon="2.36552">
        <ele>120.19999694824</ele>
        <time>2024-04-07T07:38:14.000Z</time>
      </trkpt>
      <trkpt lat="48.39907" lon="2.36557">
        <ele>118.80000305176</ele>
        <time>2024-04-07T07:38:15.000Z</time>
      </trkpt>
      <trkpt lat="48.39907" lon="2.36561">
        <ele>117.59999847412</ele>
        <time>2024-04-07T07:38:16.000Z</time>
      </trkpt>
      <trkpt lat="48.39904" lon="2.36567">
        <ele>116.40000152588</ele>
        <time>2024-04-07T07:38:18.000Z</time>
      </trkpt>
      <trkpt lat="48.39903" lon="2.36569">
        <ele>116.19999694824</ele>
        <time>2024-04-07T07:38:19.000Z</time>
      </trkpt>
      <trkpt lat="48.39902" lon="2.36572">
        <ele>116.19999694824</ele>
        <time>2024-04-07T07:38:20.000Z</time>
      </trkpt>
      <trkpt lat="48.39901" lon="2.36577">
        <ele>116.19999694824</ele>
        <time>2024-04-07T07:38:22.000Z</time>
      </trkpt>
      <trkpt lat="48.39905" lon="2.36584">
        <ele>116</ele>
        <time>2024-04-07T07:38:24.000Z</time>
      </trkpt>
      <trkpt lat="48.39911" lon="2.36595">
        <ele>116</ele>
        <time>2024-04-07T07:38:28.000Z</time>
      </trkpt>
      <trkpt lat="48.39913" lon="2.36598">
        <ele>115.80000305176</ele>
        <time>2024-04-07T07:38:33.000Z</time>
      </trkpt>
      <trkpt lat="48.39915" lon="2.36602">
        <ele>115.40000152588</ele>
        <time>2024-04-07T07:38:36.000Z</time>
      </trkpt>
      <trkpt lat="48.39915" lon="2.36604">
        <ele>115.40000152588</ele>
        <time>2024-04-07T07:38:37.000Z</time>
      </trkpt>
      <trkpt lat="48.39916" lon="2.36606">
        <ele>115.40000152588</ele>
        <time>2024-04-07T07:38:38.000Z</time>
      </trkpt>
      <trkpt lat="48.39921" lon="2.36623">
        <ele>115.40000152588</ele>
        <time>2024-04-07T07:38:42.000Z</time>
      </trkpt>
      <trkpt lat="48.3993" lon="2.3665">
        <ele>114.80000305176</ele>
        <time>2024-04-07T07:38:46.000Z</time>
      </trkpt>
      <trkpt lat="48.39931" lon="2.36657">
        <ele>114</ele>
        <time>2024-04-07T07:38:47.000Z</time>
      </trkpt>
      <trkpt lat="48.39931" lon="2.36661">
        <ele>113</ele>
        <time>2024-04-07T07:38:48.000Z</time>
      </trkpt>
      <trkpt lat="48.39931" lon="2.36666">
        <ele>111.80000305176</ele>
        <time>2024-04-07T07:38:49.000Z</time>
      </trkpt>
      <trkpt lat="48.39932" lon="2.36669">
        <ele>110.40000152588</ele>
        <time>2024-04-07T07:38:50.000Z</time>
      </trkpt>
      <trkpt lat="48.39933" lon="2.36673">
        <ele>109.80000305176</ele>
        <time>2024-04-07T07:38:51.000Z</time>
      </trkpt>
      <trkpt lat="48.39934" lon="2.36678">
        <ele>109.40000152588</ele>
        <time>2024-04-07T07:38:52.000Z</time>
      </trkpt>
      <trkpt lat="48.39936" lon="2.36694">
        <ele>108.40000152588</ele>
        <time>2024-04-07T07:38:55.000Z</time>
      </trkpt>
      <trkpt lat="48.39937" lon="2.36714">
        <ele>108</ele>
        <time>2024-04-07T07:39:00.000Z</time>
      </trkpt>
      <trkpt lat="48.39938" lon="2.36739">
        <ele>108.40000152588</ele>
        <time>2024-04-07T07:39:05.000Z</time>
      </trkpt>
      <trkpt lat="48.39942" lon="2.36758">
        <ele>107.80000305176</ele>
        <time>2024-04-07T07:39:09.000Z</time>
      </trkpt>
      <trkpt lat="48.39945" lon="2.36776">
        <ele>106.80000305176</ele>
        <time>2024-04-07T07:39:13.000Z</time>
      </trkpt>
      <trkpt lat="48.39946" lon="2.36781">
        <ele>106</ele>
        <time>2024-04-07T07:39:14.000Z</time>
      </trkpt>
      <trkpt lat="48.39947" lon="2.36785">
        <ele>105.19999694824</ele>
        <time>2024-04-07T07:39:15.000Z</time>
      </trkpt>
      <trkpt lat="48.39949" lon="2.36789">
        <ele>104.40000152588</ele>
        <time>2024-04-07T07:39:16.000Z</time>
      </trkpt>
      <trkpt lat="48.3995" lon="2.36792">
        <ele>103.59999847412</ele>
        <time>2024-04-07T07:39:17.000Z</time>
      </trkpt>
      <trkpt lat="48.39952" lon="2.36795">
        <ele>103</ele>
        <time>2024-04-07T07:39:18.000Z</time>
      </trkpt>
      <trkpt lat="48.39956" lon="2.36799">
        <ele>102.40000152588</ele>
        <time>2024-04-07T07:39:20.000Z</time>
      </trkpt>
      <trkpt lat="48.3996" lon="2.36802">
        <ele>102</ele>
        <time>2024-04-07T07:39:22.000Z</time>
      </trkpt>
      <trkpt lat="48.39964" lon="2.36803">
        <ele>101.80000305176</ele>
        <time>2024-04-07T07:39:23.000Z</time>
      </trkpt>
      <trkpt lat="48.39973" lon="2.36811">
        <ele>101.40000152588</ele>
        <time>2024-04-07T07:39:26.000Z</time>
      </trkpt>
      <trkpt lat="48.39975" lon="2.36814">
        <ele>101.19999694824</ele>
        <time>2024-04-07T07:39:27.000Z</time>
      </trkpt>
      <trkpt lat="48.39978" lon="2.36817">
        <ele>101.19999694824</ele>
        <time>2024-04-07T07:39:28.000Z</time>
      </trkpt>
      <trkpt lat="48.39981" lon="2.36824">
        <ele>100.59999847412</ele>
        <time>2024-04-07T07:39:31.000Z</time>
      </trkpt>
      <trkpt lat="48.39987" lon="2.36838">
        <ele>100.40000152588</ele>
        <time>2024-04-07T07:39:37.000Z</time>
      </trkpt>
      <trkpt lat="48.39993" lon="2.36848">
        <ele>100.59999847412</ele>
        <time>2024-04-07T07:39:43.000Z</time>
      </trkpt>
      <trkpt lat="48.39996" lon="2.36851">
        <ele>100.80000305176</ele>
        <time>2024-04-07T07:39:45.000Z</time>
      </trkpt>
      <trkpt lat="48.4" lon="2.36863">
        <ele>100.80000305176</ele>
        <time>2024-04-07T07:39:49.000Z</time>
      </trkpt>
      <trkpt lat="48.40003" lon="2.36872">
        <ele>101</ele>
        <time>2024-04-07T07:39:51.000Z</time>
      </trkpt>
      <trkpt lat="48.40005" lon="2.36886">
        <ele>101</ele>
        <time>2024-04-07T07:39:54.000Z</time>
      </trkpt>
      <trkpt lat="48.40006" lon="2.36889">
        <ele>101</ele>
        <time>2024-04-07T07:39:55.000Z</time>
      </trkpt>
      <trkpt lat="48.40012" lon="2.36898">
        <ele>100.80000305176</ele>
        <time>2024-04-07T07:39:58.000Z</time>
      </trkpt>
      <trkpt lat="48.40014" lon="2.36907">
        <ele>100.59999847412</ele>
        <time>2024-04-07T07:40:00.000Z</time>
      </trkpt>
      <trkpt lat="48.40017" lon="2.36917">
        <ele>100.40000152588</ele>
        <time>2024-04-07T07:40:02.000Z</time>
      </trkpt>
      <trkpt lat="48.40017" lon="2.36929">
        <ele>99.800003051758</ele>
        <time>2024-04-07T07:40:05.000Z</time>
      </trkpt>
      <trkpt lat="48.40017" lon="2.36932">
        <ele>99.400001525879</ele>
        <time>2024-04-07T07:40:06.000Z</time>
      </trkpt>
      <trkpt lat="48.40021" lon="2.36952">
        <ele>98.800003051758</ele>
        <time>2024-04-07T07:40:10.000Z</time>
      </trkpt>
      <trkpt lat="48.40023" lon="2.36981">
        <ele>98.199996948242</ele>
        <time>2024-04-07T07:40:15.000Z</time>
      </trkpt>
      <trkpt lat="48.40028" lon="2.36996">
        <ele>97.800003051758</ele>
        <time>2024-04-07T07:40:18.000Z</time>
      </trkpt>
      <trkpt lat="48.40031" lon="2.37003">
        <ele>97.800003051758</ele>
        <time>2024-04-07T07:40:20.000Z</time>
      </trkpt>
      <trkpt lat="48.40036" lon="2.37014">
        <ele>97.800003051758</ele>
        <time>2024-04-07T07:40:23.000Z</time>
      </trkpt>
      <trkpt lat="48.40038" lon="2.37018">
        <ele>97.599998474121</ele>
        <time>2024-04-07T07:40:24.000Z</time>
      </trkpt>
      <trkpt lat="48.40041" lon="2.37023">
        <ele>97.199996948242</ele>
        <time>2024-04-07T07:40:25.000Z</time>
      </trkpt>
      <trkpt lat="48.40057" lon="2.37043">
        <ele>97</ele>
        <time>2024-04-07T07:40:30.000Z</time>
      </trkpt>
      <trkpt lat="48.40078" lon="2.37066">
        <ele>96</ele>
        <time>2024-04-07T07:40:36.000Z</time>
      </trkpt>
      <trkpt lat="48.40081" lon="2.37071">
        <ele>95</ele>
        <time>2024-04-07T07:40:37.000Z</time>
      </trkpt>
      <trkpt lat="48.40085" lon="2.37079">
        <ele>93.800003051758</ele>
        <time>2024-04-07T07:40:39.000Z</time>
      </trkpt>
      <trkpt lat="48.4009" lon="2.37085">
        <ele>92.199996948242</ele>
        <time>2024-04-07T07:40:41.000Z</time>
      </trkpt>
      <trkpt lat="48.40096" lon="2.37095">
        <ele>90.400001525879</ele>
        <time>2024-04-07T07:40:43.000Z</time>
      </trkpt>
      <trkpt lat="48.40104" lon="2.37101">
        <ele>89.599998474121</ele>
        <time>2024-04-07T07:40:45.000Z</time>
      </trkpt>
      <trkpt lat="48.4011" lon="2.37106">
        <ele>89.400001525879</ele>
        <time>2024-04-07T07:40:47.000Z</time>
      </trkpt>
      <trkpt lat="48.40118" lon="2.37112">
        <ele>89.199996948242</ele>
        <time>2024-04-07T07:40:50.000Z</time>
      </trkpt>
      <trkpt lat="48.40127" lon="2.37114">
        <ele>89.800003051758</ele>
        <time>2024-04-07T07:40:56.000Z</time>
      </trkpt>
      <trkpt lat="48.40128" lon="2.37114">
        <ele>90.400001525879</ele>
        <time>2024-04-07T07:40:58.000Z</time>
      </trkpt>
      <trkpt lat="48.40139" lon="2.37119">
        <ele>90.800003051758</ele>
        <time>2024-04-07T07:41:05.000Z</time>
      </trkpt>
      <trkpt lat="48.40146" lon="2.37121">
        <ele>90.800003051758</ele>
        <time>2024-04-07T07:41:07.000Z</time>
      </trkpt>
      <trkpt lat="48.40153" lon="2.3712">
        <ele>90.800003051758</ele>
        <time>2024-04-07T07:41:09.000Z</time>
      </trkpt>
      <trkpt lat="48.40156" lon="2.37122">
        <ele>90.800003051758</ele>
        <time>2024-04-07T07:41:10.000Z</time>
      </trkpt>
      <trkpt lat="48.40158" lon="2.37125">
        <ele>90.800003051758</ele>
        <time>2024-04-07T07:41:11.000Z</time>
      </trkpt>
      <trkpt lat="48.4016" lon="2.3714">
        <ele>89.199996948242</ele>
        <time>2024-04-07T07:41:15.000Z</time>
      </trkpt>
      <trkpt lat="48.4016" lon="2.37143">
        <ele>88.400001525879</ele>
        <time>2024-04-07T07:41:16.000Z</time>
      </trkpt>
      <trkpt lat="48.4016" lon="2.37147">
        <ele>87.800003051758</ele>
        <time>2024-04-07T07:41:17.000Z</time>
      </trkpt>
      <trkpt lat="48.40161" lon="2.37155">
        <ele>87.199996948242</ele>
        <time>2024-04-07T07:41:20.000Z</time>
      </trkpt>
      <trkpt lat="48.40164" lon="2.3716">
        <ele>87.199996948242</ele>
        <time>2024-04-07T07:41:22.000Z</time>
      </trkpt>
      <trkpt lat="48.40166" lon="2.37165">
        <ele>87.199996948242</ele>
        <time>2024-04-07T07:41:24.000Z</time>
      </trkpt>
      <trkpt lat="48.4017" lon="2.37175">
        <ele>87.599998474121</ele>
        <time>2024-04-07T07:41:28.000Z</time>
      </trkpt>
      <trkpt lat="48.40174" lon="2.3719">
        <ele>89</ele>
        <time>2024-04-07T07:41:33.000Z</time>
      </trkpt>
      <trkpt lat="48.40174" lon="2.37193">
        <ele>89.199996948242</ele>
        <time>2024-04-07T07:41:34.000Z</time>
      </trkpt>
      <trkpt lat="48.40177" lon="2.37208">
        <ele>90</ele>
        <time>2024-04-07T07:41:37.000Z</time>
      </trkpt>
      <trkpt lat="48.40178" lon="2.37214">
        <ele>90</ele>
        <time>2024-04-07T07:41:38.000Z</time>
      </trkpt>
      <trkpt lat="48.4018" lon="2.37228">
        <ele>90.199996948242</ele>
        <time>2024-04-07T07:41:40.000Z</time>
      </trkpt>
      <trkpt lat="48.40184" lon="2.3724">
        <ele>90.199996948242</ele>
        <time>2024-04-07T07:41:42.000Z</time>
      </trkpt>
      <trkpt lat="48.40195" lon="2.37255">
        <ele>89.800003051758</ele>
        <time>2024-04-07T07:41:45.000Z</time>
      </trkpt>
      <trkpt lat="48.402" lon="2.3726">
        <ele>89.400001525879</ele>
        <time>2024-04-07T07:41:46.000Z</time>
      </trkpt>
      <trkpt lat="48.40205" lon="2.37265">
        <ele>88.800003051758</ele>
        <time>2024-04-07T07:41:47.000Z</time>
      </trkpt>
      <trkpt lat="48.40209" lon="2.37272">
        <ele>87.599998474121</ele>
        <time>2024-04-07T07:41:48.000Z</time>
      </trkpt>
      <trkpt lat="48.40216" lon="2.37285">
        <ele>85</ele>
        <time>2024-04-07T07:41:50.000Z</time>
      </trkpt>
      <trkpt lat="48.40219" lon="2.37292">
        <ele>84.199996948242</ele>
        <time>2024-04-07T07:41:51.000Z</time>
      </trkpt>
      <trkpt lat="48.40223" lon="2.37298">
        <ele>83.199996948242</ele>
        <time>2024-04-07T07:41:52.000Z</time>
      </trkpt>
      <trkpt lat="48.4023" lon="2.3731">
        <ele>81.599998474121</ele>
        <time>2024-04-07T07:41:54.000Z</time>
      </trkpt>
      <trkpt lat="48.40233" lon="2.37316">
        <ele>80.800003051758</ele>
        <time>2024-04-07T07:41:55.000Z</time>
      </trkpt>
      <trkpt lat="48.40237" lon="2.37321">
        <ele>80.400001525879</ele>
        <time>2024-04-07T07:41:56.000Z</time>
      </trkpt>
      <trkpt lat="48.40243" lon="2.37332">
        <ele>79.599998474121</ele>
        <time>2024-04-07T07:41:58.000Z</time>
      </trkpt>
      <trkpt lat="48.4025" lon="2.37348">
        <ele>79.199996948242</ele>
        <time>2024-04-07T07:42:01.000Z</time>
      </trkpt>
      <trkpt lat="48.40253" lon="2.37353">
        <ele>79.199996948242</ele>
        <time>2024-04-07T07:42:02.000Z</time>
      </trkpt>
      <trkpt lat="48.40261" lon="2.37368">
        <ele>78.800003051758</ele>
        <time>2024-04-07T07:42:05.000Z</time>
      </trkpt>
      <trkpt lat="48.40265" lon="2.37378">
        <ele>78.599998474121</ele>
        <time>2024-04-07T07:42:07.000Z</time>
      </trkpt>
      <trkpt lat="48.40269" lon="2.37387">
        <ele>78.599998474121</ele>
        <time>2024-04-07T07:42:09.000Z</time>
      </trkpt>
      <trkpt lat="48.40275" lon="2.37394">
        <ele>78.400001525879</ele>
        <time>2024-04-07T07:42:11.000Z</time>
      </trkpt>
      <trkpt lat="48.40277" lon="2.37395">
        <ele>78.400001525879</ele>
        <time>2024-04-07T07:42:12.000Z</time>
      </trkpt>
      <trkpt lat="48.40282" lon="2.374">
        <ele>78.400001525879</ele>
        <time>2024-04-07T07:42:15.000Z</time>
      </trkpt>
      <trkpt lat="48.40287" lon="2.37403">
        <ele>78.400001525879</ele>
        <time>2024-04-07T07:42:18.000Z</time>
      </trkpt>
      <trkpt lat="48.40302" lon="2.37405">
        <ele>78</ele>
        <time>2024-04-07T07:42:22.000Z</time>
      </trkpt>
      <trkpt lat="48.40305" lon="2.37405">
        <ele>78</ele>
        <time>2024-04-07T07:42:23.000Z</time>
      </trkpt>
      <trkpt lat="48.40324" lon="2.37406">
        <ele>76.800003051758</ele>
        <time>2024-04-07T07:42:28.000Z</time>
      </trkpt>
      <trkpt lat="48.40328" lon="2.37407">
        <ele>76.400001525879</ele>
        <time>2024-04-07T07:42:29.000Z</time>
      </trkpt>
      <trkpt lat="48.40341" lon="2.37418">
        <ele>75.800003051758</ele>
        <time>2024-04-07T07:42:32.000Z</time>
      </trkpt>
      <trkpt lat="48.40344" lon="2.37423">
        <ele>75.800003051758</ele>
        <time>2024-04-07T07:42:33.000Z</time>
      </trkpt>
      <trkpt lat="48.40351" lon="2.37442">
        <ele>75.599998474121</ele>
        <time>2024-04-07T07:42:36.000Z</time>
      </trkpt>
      <trkpt lat="48.40352" lon="2.37448">
        <ele>75.599998474121</ele>
        <time>2024-04-07T07:42:37.000Z</time>
      </trkpt>
      <trkpt lat="48.40353" lon="2.37462">
        <ele>75.400001525879</ele>
        <time>2024-04-07T07:42:39.000Z</time>
      </trkpt>
      <trkpt lat="48.40353" lon="2.37483">
        <ele>74.800003051758</ele>
        <time>2024-04-07T07:42:42.000Z</time>
      </trkpt>
      <trkpt lat="48.40353" lon="2.3749">
        <ele>74.800003051758</ele>
        <time>2024-04-07T07:42:43.000Z</time>
      </trkpt>
      <trkpt lat="48.40353" lon="2.3752">
        <ele>74</ele>
        <time>2024-04-07T07:42:47.000Z</time>
      </trkpt>
      <trkpt lat="48.40353" lon="2.37528">
        <ele>73.800003051758</ele>
        <time>2024-04-07T07:42:48.000Z</time>
      </trkpt>
      <trkpt lat="48.40352" lon="2.37544">
        <ele>73.400001525879</ele>
        <time>2024-04-07T07:42:50.000Z</time>
      </trkpt>
      <trkpt lat="48.40353" lon="2.37554">
        <ele>73.400001525879</ele>
        <time>2024-04-07T07:42:51.000Z</time>
      </trkpt>
      <trkpt lat="48.40355" lon="2.37572">
        <ele>73.199996948242</ele>
        <time>2024-04-07T07:42:53.000Z</time>
      </trkpt>
      <trkpt lat="48.40355" lon="2.37599">
        <ele>72.599998474121</ele>
        <time>2024-04-07T07:42:56.000Z</time>
      </trkpt>
      <trkpt lat="48.40354" lon="2.37608">
        <ele>72.400001525879</ele>
        <time>2024-04-07T07:42:57.000Z</time>
      </trkpt>
      <trkpt lat="48.40352" lon="2.37617">
        <ele>72.199996948242</ele>
        <time>2024-04-07T07:42:58.000Z</time>
      </trkpt>
      <trkpt lat="48.40346" lon="2.3766">
        <ele>71.199996948242</ele>
        <time>2024-04-07T07:43:03.000Z</time>
      </trkpt>
      <trkpt lat="48.40342" lon="2.37676">
        <ele>71</ele>
        <time>2024-04-07T07:43:05.000Z</time>
      </trkpt>
      <trkpt lat="48.40337" lon="2.377">
        <ele>70.800003051758</ele>
        <time>2024-04-07T07:43:08.000Z</time>
      </trkpt>
      <trkpt lat="48.40328" lon="2.37719">
        <ele>70.599998474121</ele>
        <time>2024-04-07T07:43:11.000Z</time>
      </trkpt>
      <trkpt lat="48.4032" lon="2.3773">
        <ele>70.599998474121</ele>
        <time>2024-04-07T07:43:13.000Z</time>
      </trkpt>
      <trkpt lat="48.40303" lon="2.37751">
        <ele>70.400001525879</ele>
        <time>2024-04-07T07:43:17.000Z</time>
      </trkpt>
      <trkpt lat="48.40287" lon="2.37773">
        <ele>70.199996948242</ele>
        <time>2024-04-07T07:43:21.000Z</time>
      </trkpt>
      <trkpt lat="48.40283" lon="2.37779">
        <ele>70.199996948242</ele>
        <time>2024-04-07T07:43:22.000Z</time>
      </trkpt>
      <trkpt lat="48.4028" lon="2.37784">
        <ele>70.199996948242</ele>
        <time>2024-04-07T07:43:23.000Z</time>
      </trkpt>
      <trkpt lat="48.40257" lon="2.37829">
        <ele>69.800003051758</ele>
        <time>2024-04-07T07:43:31.000Z</time>
      </trkpt>
      <trkpt lat="48.40249" lon="2.37844">
        <ele>69.800003051758</ele>
        <time>2024-04-07T07:43:35.000Z</time>
      </trkpt>
      <trkpt lat="48.40246" lon="2.3786">
        <ele>69.599998474121</ele>
        <time>2024-04-07T07:43:38.000Z</time>
      </trkpt>
      <trkpt lat="48.40247" lon="2.37867">
        <ele>69.599998474121</ele>
        <time>2024-04-07T07:43:39.000Z</time>
      </trkpt>
      <trkpt lat="48.40255" lon="2.37884">
        <ele>69.599998474121</ele>
        <time>2024-04-07T07:43:42.000Z</time>
      </trkpt>
      <trkpt lat="48.40258" lon="2.37889">
        <ele>69.599998474121</ele>
        <time>2024-04-07T07:43:43.000Z</time>
      </trkpt>
      <trkpt lat="48.40259" lon="2.37909">
        <ele>69.400001525879</ele>
        <time>2024-04-07T07:43:46.000Z</time>
      </trkpt>
      <trkpt lat="48.40256" lon="2.37923">
        <ele>69.199996948242</ele>
        <time>2024-04-07T07:43:48.000Z</time>
      </trkpt>
      <trkpt lat="48.40254" lon="2.37929">
        <ele>69</ele>
        <time>2024-04-07T07:43:49.000Z</time>
      </trkpt>
      <trkpt lat="48.40248" lon="2.37956">
        <ele>68.599998474121</ele>
        <time>2024-04-07T07:43:53.000Z</time>
      </trkpt>
      <trkpt lat="48.40233" lon="2.38012">
        <ele>68</ele>
        <time>2024-04-07T07:44:01.000Z</time>
      </trkpt>
      <trkpt lat="48.40229" lon="2.38028">
        <ele>68</ele>
        <time>2024-04-07T07:44:03.000Z</time>
      </trkpt>
      <trkpt lat="48.40225" lon="2.38043">
        <ele>67.599998474121</ele>
        <time>2024-04-07T07:44:05.000Z</time>
      </trkpt>
      <trkpt lat="48.40221" lon="2.38057">
        <ele>67.199996948242</ele>
        <time>2024-04-07T07:44:07.000Z</time>
      </trkpt>
      <trkpt lat="48.40219" lon="2.38064">
        <ele>67</ele>
        <time>2024-04-07T07:44:08.000Z</time>
      </trkpt>
      <trkpt lat="48.40214" lon="2.38085">
        <ele>66.800003051758</ele>
        <time>2024-04-07T07:44:11.000Z</time>
      </trkpt>
      <trkpt lat="48.40203" lon="2.38121">
        <ele>66.400001525879</ele>
        <time>2024-04-07T07:44:17.000Z</time>
      </trkpt>
      <trkpt lat="48.40201" lon="2.38126">
        <ele>66.400001525879</ele>
        <time>2024-04-07T07:44:18.000Z</time>
      </trkpt>
      <trkpt lat="48.40199" lon="2.38131">
        <ele>66.400001525879</ele>
        <time>2024-04-07T07:44:19.000Z</time>
      </trkpt>
      <trkpt lat="48.40192" lon="2.38137">
        <ele>66.400001525879</ele>
        <time>2024-04-07T07:44:21.000Z</time>
      </trkpt>
      <trkpt lat="48.40177" lon="2.38135">
        <ele>66.199996948242</ele>
        <time>2024-04-07T07:44:24.000Z</time>
      </trkpt>
      <trkpt lat="48.40173" lon="2.38134">
        <ele>66.199996948242</ele>
        <time>2024-04-07T07:44:25.000Z</time>
      </trkpt>
      <trkpt lat="48.40157" lon="2.3813">
        <ele>66</ele>
        <time>2024-04-07T07:44:29.000Z</time>
      </trkpt>
      <trkpt lat="48.4014" lon="2.38125">
        <ele>65.800003051758</ele>
        <time>2024-04-07T07:44:33.000Z</time>
      </trkpt>
      <trkpt lat="48.4012" lon="2.38121">
        <ele>65.800003051758</ele>
        <time>2024-04-07T07:44:37.000Z</time>
      </trkpt>
      <trkpt lat="48.40095" lon="2.38115">
        <ele>65.400001525879</ele>
        <time>2024-04-07T07:44:42.000Z</time>
      </trkpt>
      <trkpt lat="48.40084" lon="2.38112">
        <ele>65</ele>
        <time>2024-04-07T07:44:44.000Z</time>
      </trkpt>
      <trkpt lat="48.40048" lon="2.38103">
        <ele>64.400001525879</ele>
        <time>2024-04-07T07:44:51.000Z</time>
      </trkpt>
      <trkpt lat="48.40033" lon="2.38099">
        <ele>64.599998474121</ele>
        <time>2024-04-07T07:44:54.000Z</time>
      </trkpt>
      <trkpt lat="48.40017" lon="2.38097">
        <ele>64.800003051758</ele>
        <time>2024-04-07T07:44:57.000Z</time>
      </trkpt>
      <trkpt lat="48.40007" lon="2.38095">
        <ele>64.800003051758</ele>
        <time>2024-04-07T07:44:59.000Z</time>
      </trkpt>
      <trkpt lat="48.39991" lon="2.38092">
        <ele>65</ele>
        <time>2024-04-07T07:45:02.000Z</time>
      </trkpt>
      <trkpt lat="48.39967" lon="2.38089">
        <ele>65.199996948242</ele>
        <time>2024-04-07T07:45:07.000Z</time>
      </trkpt>
      <trkpt lat="48.39962" lon="2.38088">
        <ele>65.199996948242</ele>
        <time>2024-04-07T07:45:08.000Z</time>
      </trkpt>
      <trkpt lat="48.39934" lon="2.38083">
        <ele>66.199996948242</ele>
        <time>2024-04-07T07:45:14.000Z</time>
      </trkpt>
      <trkpt lat="48.39929" lon="2.38083">
        <ele>66.400001525879</ele>
        <time>2024-04-07T07:45:15.000Z</time>
      </trkpt>
      <trkpt lat="48.399" lon="2.38085">
        <ele>67.199996948242</ele>
        <time>2024-04-07T07:45:21.000Z</time>
      </trkpt>
      <trkpt lat="48.39895" lon="2.38087">
        <ele>67.400001525879</ele>
        <time>2024-04-07T07:45:22.000Z</time>
      </trkpt>
      <trkpt lat="48.39871" lon="2.38098">
        <ele>67.800003051758</ele>
        <time>2024-04-07T07:45:27.000Z</time>
      </trkpt>
      <trkpt lat="48.39833" lon="2.38109">
        <ele>67.800003051758</ele>
        <time>2024-04-07T07:45:34.000Z</time>
      </trkpt>
      <trkpt lat="48.39822" lon="2.38111">
        <ele>67.599998474121</ele>
        <time>2024-04-07T07:45:36.000Z</time>
      </trkpt>
      <trkpt lat="48.39806" lon="2.38112">
        <ele>67.199996948242</ele>
        <time>2024-04-07T07:45:39.000Z</time>
      </trkpt>
      <trkpt lat="48.39801" lon="2.38111">
        <ele>67</ele>
        <time>2024-04-07T07:45:40.000Z</time>
      </trkpt>
      <trkpt lat="48.39795" lon="2.38109">
        <ele>66.800003051758</ele>
        <time>2024-04-07T07:45:41.000Z</time>
      </trkpt>
      <trkpt lat="48.39779" lon="2.38097">
        <ele>66.599998474121</ele>
        <time>2024-04-07T07:45:44.000Z</time>
      </trkpt>
      <trkpt lat="48.39774" lon="2.38092">
        <ele>66.400001525879</ele>
        <time>2024-04-07T07:45:45.000Z</time>
      </trkpt>
      <trkpt lat="48.39765" lon="2.38082">
        <ele>66.199996948242</ele>
        <time>2024-04-07T07:45:47.000Z</time>
      </trkpt>
      <trkpt lat="48.3974" lon="2.38054">
        <ele>65.199996948242</ele>
        <time>2024-04-07T07:45:52.000Z</time>
      </trkpt>
      <trkpt lat="48.39699" lon="2.38017">
        <ele>64.800003051758</ele>
        <time>2024-04-07T07:46:00.000Z</time>
      </trkpt>
      <trkpt lat="48.39668" lon="2.37991">
        <ele>64.599998474121</ele>
        <time>2024-04-07T07:46:06.000Z</time>
      </trkpt>
      <trkpt lat="48.39655" lon="2.3798">
        <ele>64.599998474121</ele>
        <time>2024-04-07T07:46:09.000Z</time>
      </trkpt>
      <trkpt lat="48.39651" lon="2.37981">
        <ele>64.599998474121</ele>
        <time>2024-04-07T07:46:10.000Z</time>
      </trkpt>
      <trkpt lat="48.39645" lon="2.37992">
        <ele>64.599998474121</ele>
        <time>2024-04-07T07:46:12.000Z</time>
      </trkpt>
      <trkpt lat="48.39644" lon="2.38016">
        <ele>64.800003051758</ele>
        <time>2024-04-07T07:46:15.000Z</time>
      </trkpt>
      <trkpt lat="48.39644" lon="2.38025">
        <ele>64.800003051758</ele>
        <time>2024-04-07T07:46:16.000Z</time>
      </trkpt>
      <trkpt lat="48.39641" lon="2.3809">
        <ele>64.800003051758</ele>
        <time>2024-04-07T07:46:23.000Z</time>
      </trkpt>
      <trkpt lat="48.39638" lon="2.38151">
        <ele>64.199996948242</ele>
        <time>2024-04-07T07:46:29.000Z</time>
      </trkpt>
      <trkpt lat="48.39636" lon="2.3819">
        <ele>63.400001525879</ele>
        <time>2024-04-07T07:46:33.000Z</time>
      </trkpt>
      <trkpt lat="48.39636" lon="2.382">
        <ele>63</ele>
        <time>2024-04-07T07:46:34.000Z</time>
      </trkpt>
      <trkpt lat="48.39633" lon="2.38266">
        <ele>62.200000762939</ele>
        <time>2024-04-07T07:46:41.000Z</time>
      </trkpt>
      <trkpt lat="48.39633" lon="2.38275">
        <ele>61.799999237061</ele>
        <time>2024-04-07T07:46:42.000Z</time>
      </trkpt>
      <trkpt lat="48.39631" lon="2.38337">
        <ele>61.599998474121</ele>
        <time>2024-04-07T07:46:49.000Z</time>
      </trkpt>
      <trkpt lat="48.39621" lon="2.38349">
        <ele>61.599998474121</ele>
        <time>2024-04-07T07:46:52.000Z</time>
      </trkpt>
      <trkpt lat="48.3961" lon="2.3835">
        <ele>61.599998474121</ele>
        <time>2024-04-07T07:46:54.000Z</time>
      </trkpt>
      <trkpt lat="48.396" lon="2.38351">
        <ele>61.599998474121</ele>
        <time>2024-04-07T07:46:56.000Z</time>
      </trkpt>
      <trkpt lat="48.39578" lon="2.38354">
        <ele>61.599998474121</ele>
        <time>2024-04-07T07:47:00.000Z</time>
      </trkpt>
      <trkpt lat="48.39561" lon="2.38356">
        <ele>61.599998474121</ele>
        <time>2024-04-07T07:47:03.000Z</time>
      </trkpt>
      <trkpt lat="48.39529" lon="2.38356">
        <ele>61.599998474121</ele>
        <time>2024-04-07T07:47:09.000Z</time>
      </trkpt>
      <trkpt lat="48.39523" lon="2.38356">
        <ele>61.599998474121</ele>
        <time>2024-04-07T07:47:10.000Z</time>
      </trkpt>
      <trkpt lat="48.39483" lon="2.3836">
        <ele>61.599998474121</ele>
        <time>2024-04-07T07:47:18.000Z</time>
      </trkpt>
      <trkpt lat="48.39475" lon="2.38358">
        <ele>61.599998474121</ele>
        <time>2024-04-07T07:47:20.000Z</time>
      </trkpt>
      <trkpt lat="48.39472" lon="2.38355">
        <ele>61.599998474121</ele>
        <time>2024-04-07T07:47:21.000Z</time>
      </trkpt>
      <trkpt lat="48.39458" lon="2.38333">
        <ele>62.400001525879</ele>
        <time>2024-04-07T07:47:27.000Z</time>
      </trkpt>
      <trkpt lat="48.3944" lon="2.38312">
        <ele>63</ele>
        <time>2024-04-07T07:47:33.000Z</time>
      </trkpt>
      <trkpt lat="48.39438" lon="2.3831">
        <ele>63</ele>
        <time>2024-04-07T07:47:34.000Z</time>
      </trkpt>
      <trkpt lat="48.39433" lon="2.38314">
        <ele>63</ele>
        <time>2024-04-07T07:47:36.000Z</time>
      </trkpt>
      <trkpt lat="48.39432" lon="2.38329">
        <ele>63.200000762939</ele>
        <time>2024-04-07T07:47:40.000Z</time>
      </trkpt>
      <trkpt lat="48.39432" lon="2.38334">
        <ele>63.200000762939</ele>
        <time>2024-04-07T07:47:41.000Z</time>
      </trkpt>
      <trkpt lat="48.39431" lon="2.38361">
        <ele>63.799999237061</ele>
        <time>2024-04-07T07:47:46.000Z</time>
      </trkpt>
      <trkpt lat="48.39431" lon="2.38367">
        <ele>63.799999237061</ele>
        <time>2024-04-07T07:47:47.000Z</time>
      </trkpt>
      <trkpt lat="48.3943" lon="2.3838">
        <ele>63.799999237061</ele>
        <time>2024-04-07T07:47:49.000Z</time>
      </trkpt>
      <trkpt lat="48.39428" lon="2.3841">
        <ele>63.799999237061</ele>
        <time>2024-04-07T07:47:54.000Z</time>
      </trkpt>
      <trkpt lat="48.39427" lon="2.38423">
        <ele>63.799999237061</ele>
        <time>2024-04-07T07:47:56.000Z</time>
      </trkpt>
      <trkpt lat="48.39425" lon="2.38442">
        <ele>63.799999237061</ele>
        <time>2024-04-07T07:47:59.000Z</time>
      </trkpt>
      <trkpt lat="48.39419" lon="2.38466">
        <ele>63.599998474121</ele>
        <time>2024-04-07T07:48:03.000Z</time>
      </trkpt>
      <trkpt lat="48.39416" lon="2.38477">
        <ele>63.599998474121</ele>
        <time>2024-04-07T07:48:05.000Z</time>
      </trkpt>
      <trkpt lat="48.39405" lon="2.38506">
        <ele>63.400001525879</ele>
        <time>2024-04-07T07:48:10.000Z</time>
      </trkpt>
      <trkpt lat="48.39389" lon="2.38546">
        <ele>63.400001525879</ele>
        <time>2024-04-07T07:48:17.000Z</time>
      </trkpt>
      <trkpt lat="48.3938" lon="2.38568">
        <ele>63.200000762939</ele>
        <time>2024-04-07T07:48:21.000Z</time>
      </trkpt>
      <trkpt lat="48.39374" lon="2.38587">
        <ele>63</ele>
        <time>2024-04-07T07:48:24.000Z</time>
      </trkpt>
      <trkpt lat="48.39359" lon="2.38636">
        <ele>62.799999237061</ele>
        <time>2024-04-07T07:48:32.000Z</time>
      </trkpt>
      <trkpt lat="48.39343" lon="2.38688">
        <ele>62.799999237061</ele>
        <time>2024-04-07T07:48:40.000Z</time>
      </trkpt>
      <trkpt lat="48.3934" lon="2.38701">
        <ele>62.799999237061</ele>
        <time>2024-04-07T07:48:42.000Z</time>
      </trkpt>
      <trkpt lat="48.39327" lon="2.38757">
        <ele>62.799999237061</ele>
        <time>2024-04-07T07:48:50.000Z</time>
      </trkpt>
      <trkpt lat="48.39316" lon="2.38809">
        <ele>62.599998474121</ele>
        <time>2024-04-07T07:48:58.000Z</time>
      </trkpt>
      <trkpt lat="48.39309" lon="2.38842">
        <ele>62.400001525879</ele>
        <time>2024-04-07T07:49:03.000Z</time>
      </trkpt>
      <trkpt lat="48.39305" lon="2.38862">
        <ele>62.400001525879</ele>
        <time>2024-04-07T07:49:06.000Z</time>
      </trkpt>
      <trkpt lat="48.39295" lon="2.38912">
        <ele>62.200000762939</ele>
        <time>2024-04-07T07:49:13.000Z</time>
      </trkpt>
      <trkpt lat="48.39283" lon="2.38967">
        <ele>62.799999237061</ele>
        <time>2024-04-07T07:49:21.000Z</time>
      </trkpt>
      <trkpt lat="48.39274" lon="2.39017">
        <ele>63.400001525879</ele>
        <time>2024-04-07T07:49:28.000Z</time>
      </trkpt>
      <trkpt lat="48.39265" lon="2.39067">
        <ele>63.799999237061</ele>
        <time>2024-04-07T07:49:35.000Z</time>
      </trkpt>
      <trkpt lat="48.39265" lon="2.39073">
        <ele>64</ele>
        <time>2024-04-07T07:49:36.000Z</time>
      </trkpt>
      <trkpt lat="48.39266" lon="2.3909">
        <ele>64</ele>
        <time>2024-04-07T07:49:39.000Z</time>
      </trkpt>
      <trkpt lat="48.39265" lon="2.39095">
        <ele>64</ele>
        <time>2024-04-07T07:49:40.000Z</time>
      </trkpt>
      <trkpt lat="48.39257" lon="2.39113">
        <ele>64</ele>
        <time>2024-04-07T07:49:44.000Z</time>
      </trkpt>
      <trkpt lat="48.39256" lon="2.39119">
        <ele>64</ele>
        <time>2024-04-07T07:49:45.000Z</time>
      </trkpt>
      <trkpt lat="48.39255" lon="2.39125">
        <ele>64.199996948242</ele>
        <time>2024-04-07T07:49:46.000Z</time>
      </trkpt>
      <trkpt lat="48.39251" lon="2.39149">
        <ele>64.199996948242</ele>
        <time>2024-04-07T07:49:50.000Z</time>
      </trkpt>
      <trkpt lat="48.3925" lon="2.39156">
        <ele>64.199996948242</ele>
        <time>2024-04-07T07:49:51.000Z</time>
      </trkpt>
      <trkpt lat="48.3925" lon="2.39187">
        <ele>64.199996948242</ele>
        <time>2024-04-07T07:49:56.000Z</time>
      </trkpt>
      <trkpt lat="48.39248" lon="2.3924">
        <ele>64.599998474121</ele>
        <time>2024-04-07T07:50:04.000Z</time>
      </trkpt>
      <trkpt lat="48.39249" lon="2.39253">
        <ele>64.800003051758</ele>
        <time>2024-04-07T07:50:06.000Z</time>
      </trkpt>
      <trkpt lat="48.39251" lon="2.39265">
        <ele>65.199996948242</ele>
        <time>2024-04-07T07:50:08.000Z</time>
      </trkpt>
      <trkpt lat="48.39252" lon="2.39271">
        <ele>65.400001525879</ele>
        <time>2024-04-07T07:50:09.000Z</time>
      </trkpt>
      <trkpt lat="48.39254" lon="2.39287">
        <ele>65.400001525879</ele>
        <time>2024-04-07T07:50:12.000Z</time>
      </trkpt>
      <trkpt lat="48.39255" lon="2.39293">
        <ele>65.599998474121</ele>
        <time>2024-04-07T07:50:14.000Z</time>
      </trkpt>
      <trkpt lat="48.39254" lon="2.39294">
        <ele>65.599998474121</ele>
        <time>2024-04-07T07:50:19.000Z</time>
      </trkpt>
      <trkpt lat="48.39253" lon="2.39296">
        <ele>66.199996948242</ele>
        <time>2024-04-07T07:50:27.000Z</time>
      </trkpt>
      <trkpt lat="48.39252" lon="2.39298">
        <ele>66.199996948242</ele>
        <time>2024-04-07T07:50:28.000Z</time>
      </trkpt>
      <trkpt lat="48.3925" lon="2.39309">
        <ele>66.199996948242</ele>
        <time>2024-04-07T07:50:31.000Z</time>
      </trkpt>
      <trkpt lat="48.39249" lon="2.39315">
        <ele>66.199996948242</ele>
        <time>2024-04-07T07:50:32.000Z</time>
      </trkpt>
      <trkpt lat="48.39253" lon="2.39344">
        <ele>66</ele>
        <time>2024-04-07T07:50:36.000Z</time>
      </trkpt>
      <trkpt lat="48.39256" lon="2.3936">
        <ele>65.800003051758</ele>
        <time>2024-04-07T07:50:38.000Z</time>
      </trkpt>
      <trkpt lat="48.3926" lon="2.39375">
        <ele>65.800003051758</ele>
        <time>2024-04-07T07:50:40.000Z</time>
      </trkpt>
      <trkpt lat="48.3927" lon="2.39405">
        <ele>65.800003051758</ele>
        <time>2024-04-07T07:50:44.000Z</time>
      </trkpt>
      <trkpt lat="48.39276" lon="2.39419">
        <ele>65.800003051758</ele>
        <time>2024-04-07T07:50:46.000Z</time>
      </trkpt>
      <trkpt lat="48.39279" lon="2.39435">
        <ele>65.800003051758</ele>
        <time>2024-04-07T07:50:48.000Z</time>
      </trkpt>
      <trkpt lat="48.39281" lon="2.39443">
        <ele>65.800003051758</ele>
        <time>2024-04-07T07:50:49.000Z</time>
      </trkpt>
      <trkpt lat="48.39283" lon="2.39451">
        <ele>65.800003051758</ele>
        <time>2024-04-07T07:50:50.000Z</time>
      </trkpt>
      <trkpt lat="48.39287" lon="2.39465">
        <ele>65.800003051758</ele>
        <time>2024-04-07T07:50:52.000Z</time>
      </trkpt>
      <trkpt lat="48.39292" lon="2.39487">
        <ele>65.800003051758</ele>
        <time>2024-04-07T07:50:55.000Z</time>
      </trkpt>
      <trkpt lat="48.39298" lon="2.39509">
        <ele>66</ele>
        <time>2024-04-07T07:50:58.000Z</time>
      </trkpt>
      <trkpt lat="48.39296" lon="2.39524">
        <ele>66</ele>
        <time>2024-04-07T07:51:00.000Z</time>
      </trkpt>
      <trkpt lat="48.39289" lon="2.39529">
        <ele>66</ele>
        <time>2024-04-07T07:51:02.000Z</time>
      </trkpt>
      <trkpt lat="48.39277" lon="2.39521">
        <ele>66</ele>
        <time>2024-04-07T07:51:05.000Z</time>
      </trkpt>
      <trkpt lat="48.39262" lon="2.39502">
        <ele>66.199996948242</ele>
        <time>2024-04-07T07:51:10.000Z</time>
      </trkpt>
      <trkpt lat="48.3926" lon="2.39496">
        <ele>66.199996948242</ele>
        <time>2024-04-07T07:51:11.000Z</time>
      </trkpt>
      <trkpt lat="48.39249" lon="2.39471">
        <ele>66.199996948242</ele>
        <time>2024-04-07T07:51:16.000Z</time>
      </trkpt>
      <trkpt lat="48.39246" lon="2.39469">
        <ele>66.199996948242</ele>
        <time>2024-04-07T07:51:17.000Z</time>
      </trkpt>
      <trkpt lat="48.39236" lon="2.39469">
        <ele>66.599998474121</ele>
        <time>2024-04-07T07:51:22.000Z</time>
      </trkpt>
      <trkpt lat="48.39235" lon="2.39468">
        <ele>66.599998474121</ele>
        <time>2024-04-07T07:51:23.000Z</time>
      </trkpt>
      <trkpt lat="48.39231" lon="2.39464">
        <ele>66.800003051758</ele>
        <time>2024-04-07T07:51:26.000Z</time>
      </trkpt>
      <trkpt lat="48.39223" lon="2.39467">
        <ele>67.199996948242</ele>
        <time>2024-04-07T07:51:30.000Z</time>
      </trkpt>
      <trkpt lat="48.39214" lon="2.39478">
        <ele>67.800003051758</ele>
        <time>2024-04-07T07:51:35.000Z</time>
      </trkpt>
      <trkpt lat="48.39213" lon="2.39481">
        <ele>68</ele>
        <time>2024-04-07T07:51:36.000Z</time>
      </trkpt>
      <trkpt lat="48.3921" lon="2.39489">
        <ele>68.599998474121</ele>
        <time>2024-04-07T07:51:39.000Z</time>
      </trkpt>
      <trkpt lat="48.39207" lon="2.39494">
        <ele>69.800003051758</ele>
        <time>2024-04-07T07:51:42.000Z</time>
      </trkpt>
      <trkpt lat="48.39206" lon="2.39496">
        <ele>70.199996948242</ele>
        <time>2024-04-07T07:51:43.000Z</time>
      </trkpt>
      <trkpt lat="48.39205" lon="2.39499">
        <ele>70.599998474121</ele>
        <time>2024-04-07T07:51:44.000Z</time>
      </trkpt>
      <trkpt lat="48.39204" lon="2.39502">
        <ele>71</ele>
        <time>2024-04-07T07:51:45.000Z</time>
      </trkpt>
      <trkpt lat="48.39201" lon="2.3951">
        <ele>72</ele>
        <time>2024-04-07T07:51:48.000Z</time>
      </trkpt>
      <trkpt lat="48.39203" lon="2.39527">
        <ele>72.800003051758</ele>
        <time>2024-04-07T07:51:51.000Z</time>
      </trkpt>
      <trkpt lat="48.39209" lon="2.39538">
        <ele>72.599998474121</ele>
        <time>2024-04-07T07:51:53.000Z</time>
      </trkpt>
      <trkpt lat="48.39216" lon="2.39549">
        <ele>72.800003051758</ele>
        <time>2024-04-07T07:51:55.000Z</time>
      </trkpt>
      <trkpt lat="48.39227" lon="2.39564">
        <ele>72.800003051758</ele>
        <time>2024-04-07T07:51:58.000Z</time>
      </trkpt>
      <trkpt lat="48.39229" lon="2.3957">
        <ele>72.199996948242</ele>
        <time>2024-04-07T07:52:00.000Z</time>
      </trkpt>
      <trkpt lat="48.39235" lon="2.39587">
        <ele>70.800003051758</ele>
        <time>2024-04-07T07:52:06.000Z</time>
      </trkpt>
      <trkpt lat="48.39235" lon="2.3959">
        <ele>70.800003051758</ele>
        <time>2024-04-07T07:52:07.000Z</time>
      </trkpt>
      <trkpt lat="48.39235" lon="2.39603">
        <ele>70.800003051758</ele>
        <time>2024-04-07T07:52:11.000Z</time>
      </trkpt>
      <trkpt lat="48.39235" lon="2.39607">
        <ele>70.800003051758</ele>
        <time>2024-04-07T07:52:12.000Z</time>
      </trkpt>
      <trkpt lat="48.39233" lon="2.39616">
        <ele>71.800003051758</ele>
        <time>2024-04-07T07:52:15.000Z</time>
      </trkpt>
      <trkpt lat="48.39232" lon="2.39618">
        <ele>72.400001525879</ele>
        <time>2024-04-07T07:52:16.000Z</time>
      </trkpt>
      <trkpt lat="48.39231" lon="2.3962">
        <ele>73</ele>
        <time>2024-04-07T07:52:17.000Z</time>
      </trkpt>
      <trkpt lat="48.3923" lon="2.39626">
        <ele>73.400001525879</ele>
        <time>2024-04-07T07:52:20.000Z</time>
      </trkpt>
      <trkpt lat="48.39232" lon="2.39629">
        <ele>73.800003051758</ele>
        <time>2024-04-07T07:52:22.000Z</time>
      </trkpt>
      <trkpt lat="48.39234" lon="2.39635">
        <ele>74.400001525879</ele>
        <time>2024-04-07T07:52:24.000Z</time>
      </trkpt>
      <trkpt lat="48.39237" lon="2.3964">
        <ele>75.400001525879</ele>
        <time>2024-04-07T07:52:28.000Z</time>
      </trkpt>
      <trkpt lat="48.39237" lon="2.3964">
        <ele>75.599998474121</ele>
        <time>2024-04-07T07:52:29.000Z</time>
      </trkpt>
      <trkpt lat="48.39238" lon="2.3964">
        <ele>75.800003051758</ele>
        <time>2024-04-07T07:52:44.000Z</time>
      </trkpt>
      <trkpt lat="48.39239" lon="2.39648">
        <ele>75.800003051758</ele>
        <time>2024-04-07T07:52:50.000Z</time>
      </trkpt>
      <trkpt lat="48.39239" lon="2.3965">
        <ele>75.599998474121</ele>
        <time>2024-04-07T07:52:52.000Z</time>
      </trkpt>
      <trkpt lat="48.3924" lon="2.39654">
        <ele>75.599998474121</ele>
        <time>2024-04-07T07:52:54.000Z</time>
      </trkpt>
      <trkpt lat="48.39241" lon="2.39662">
        <ele>75.400001525879</ele>
        <time>2024-04-07T07:52:57.000Z</time>
      </trkpt>
      <trkpt lat="48.39243" lon="2.39671">
        <ele>75.199996948242</ele>
        <time>2024-04-07T07:52:59.000Z</time>
      </trkpt>
      <trkpt lat="48.39243" lon="2.39685">
        <ele>75.199996948242</ele>
        <time>2024-04-07T07:53:02.000Z</time>
      </trkpt>
      <trkpt lat="48.39241" lon="2.39693">
        <ele>75</ele>
        <time>2024-04-07T07:53:04.000Z</time>
      </trkpt>
      <trkpt lat="48.39241" lon="2.39717">
        <ele>74.800003051758</ele>
        <time>2024-04-07T07:53:10.000Z</time>
      </trkpt>
      <trkpt lat="48.39249" lon="2.39738">
        <ele>74.599998474121</ele>
        <time>2024-04-07T07:53:14.000Z</time>
      </trkpt>
      <trkpt lat="48.39249" lon="2.39761">
        <ele>74.400001525879</ele>
        <time>2024-04-07T07:53:18.000Z</time>
      </trkpt>
      <trkpt lat="48.39251" lon="2.39766">
        <ele>74.400001525879</ele>
        <time>2024-04-07T07:53:19.000Z</time>
      </trkpt>
      <trkpt lat="48.39255" lon="2.3978">
        <ele>74.400001525879</ele>
        <time>2024-04-07T07:53:21.000Z</time>
      </trkpt>
      <trkpt lat="48.39257" lon="2.39787">
        <ele>74.400001525879</ele>
        <time>2024-04-07T07:53:22.000Z</time>
      </trkpt>
      <trkpt lat="48.3926" lon="2.39812">
        <ele>74</ele>
        <time>2024-04-07T07:53:26.000Z</time>
      </trkpt>
      <trkpt lat="48.39256" lon="2.39818">
        <ele>73.400001525879</ele>
        <time>2024-04-07T07:53:28.000Z</time>
      </trkpt>
      <trkpt lat="48.39253" lon="2.3982">
        <ele>73.199996948242</ele>
        <time>2024-04-07T07:53:29.000Z</time>
      </trkpt>
      <trkpt lat="48.39244" lon="2.39835">
        <ele>73.199996948242</ele>
        <time>2024-04-07T07:53:33.000Z</time>
      </trkpt>
      <trkpt lat="48.3924" lon="2.39854">
        <ele>73.400001525879</ele>
        <time>2024-04-07T07:53:37.000Z</time>
      </trkpt>
      <trkpt lat="48.39239" lon="2.39863">
        <ele>73.800003051758</ele>
        <time>2024-04-07T07:53:39.000Z</time>
      </trkpt>
      <trkpt lat="48.39239" lon="2.39878">
        <ele>74.400001525879</ele>
        <time>2024-04-07T07:53:42.000Z</time>
      </trkpt>
      <trkpt lat="48.39237" lon="2.39895">
        <ele>74.800003051758</ele>
        <time>2024-04-07T07:53:45.000Z</time>
      </trkpt>
      <trkpt lat="48.39234" lon="2.39911">
        <ele>75.199996948242</ele>
        <time>2024-04-07T07:53:48.000Z</time>
      </trkpt>
      <trkpt lat="48.39232" lon="2.39928">
        <ele>75.800003051758</ele>
        <time>2024-04-07T07:53:51.000Z</time>
      </trkpt>
      <trkpt lat="48.39237" lon="2.39948">
        <ele>76.199996948242</ele>
        <time>2024-04-07T07:53:56.000Z</time>
      </trkpt>
      <trkpt lat="48.39251" lon="2.39945">
        <ele>76.400001525879</ele>
        <time>2024-04-07T07:54:00.000Z</time>
      </trkpt>
      <trkpt lat="48.3927" lon="2.39949">
        <ele>76</ele>
        <time>2024-04-07T07:54:05.000Z</time>
      </trkpt>
      <trkpt lat="48.39276" lon="2.39955">
        <ele>75.199996948242</ele>
        <time>2024-04-07T07:54:07.000Z</time>
      </trkpt>
      <trkpt lat="48.39285" lon="2.39959">
        <ele>74.400001525879</ele>
        <time>2024-04-07T07:54:10.000Z</time>
      </trkpt>
      <trkpt lat="48.39294" lon="2.39959">
        <ele>74.199996948242</ele>
        <time>2024-04-07T07:54:12.000Z</time>
      </trkpt>
      <trkpt lat="48.39298" lon="2.3996">
        <ele>74.199996948242</ele>
        <time>2024-04-07T07:54:13.000Z</time>
      </trkpt>
      <trkpt lat="48.39302" lon="2.39963">
        <ele>74</ele>
        <time>2024-04-07T07:54:14.000Z</time>
      </trkpt>
      <trkpt lat="48.39324" lon="2.39974">
        <ele>73.599998474121</ele>
        <time>2024-04-07T07:54:19.000Z</time>
      </trkpt>
      <trkpt lat="48.39329" lon="2.39977">
        <ele>73.599998474121</ele>
        <time>2024-04-07T07:54:20.000Z</time>
      </trkpt>
      <trkpt lat="48.39337" lon="2.39982">
        <ele>73.400001525879</ele>
        <time>2024-04-07T07:54:22.000Z</time>
      </trkpt>
      <trkpt lat="48.39344" lon="2.39985">
        <ele>73</ele>
        <time>2024-04-07T07:54:24.000Z</time>
      </trkpt>
      <trkpt lat="48.39347" lon="2.39985">
        <ele>72.800003051758</ele>
        <time>2024-04-07T07:54:25.000Z</time>
      </trkpt>
      <trkpt lat="48.3935" lon="2.39988">
        <ele>72.199996948242</ele>
        <time>2024-04-07T07:54:27.000Z</time>
      </trkpt>
      <trkpt lat="48.39351" lon="2.39989">
        <ele>72</ele>
        <time>2024-04-07T07:54:28.000Z</time>
      </trkpt>
      <trkpt lat="48.39353" lon="2.39989">
        <ele>71.800003051758</ele>
        <time>2024-04-07T07:54:30.000Z</time>
      </trkpt>
      <trkpt lat="48.39354" lon="2.3999">
        <ele>71</ele>
        <time>2024-04-07T07:54:34.000Z</time>
      </trkpt>
      <trkpt lat="48.39354" lon="2.39991">
        <ele>70.800003051758</ele>
        <time>2024-04-07T07:54:35.000Z</time>
      </trkpt>
      <trkpt lat="48.39354" lon="2.39991">
        <ele>70.800003051758</ele>
        <time>2024-04-07T07:54:38.000Z</time>
      </trkpt>
      <trkpt lat="48.39354" lon="2.39993">
        <ele>70.599998474121</ele>
        <time>2024-04-07T07:54:48.000Z</time>
      </trkpt>
      <trkpt lat="48.39353" lon="2.39993">
        <ele>70.599998474121</ele>
        <time>2024-04-07T07:54:52.000Z</time>
      </trkpt>
      <trkpt lat="48.39353" lon="2.39992">
        <ele>70.800003051758</ele>
        <time>2024-04-07T07:54:58.000Z</time>
      </trkpt>
      <trkpt lat="48.39354" lon="2.39991">
        <ele>70.800003051758</ele>
        <time>2024-04-07T07:55:04.000Z</time>
      </trkpt>
      <trkpt lat="48.39355" lon="2.39991">
        <ele>71</ele>
        <time>2024-04-07T07:55:13.000Z</time>
      </trkpt>
      <trkpt lat="48.39355" lon="2.39991">
        <ele>71.199996948242</ele>
        <time>2024-04-07T07:55:17.000Z</time>
      </trkpt>
      <trkpt lat="48.39356" lon="2.39993">
        <ele>71.199996948242</ele>
        <time>2024-04-07T07:55:22.000Z</time>
      </trkpt>
      <trkpt lat="48.39357" lon="2.39993">
        <ele>71.199996948242</ele>
        <time>2024-04-07T07:55:26.000Z</time>
      </trkpt>
      <trkpt lat="48.39357" lon="2.39997">
        <ele>71.199996948242</ele>
        <time>2024-04-07T07:55:29.000Z</time>
      </trkpt>
      <trkpt lat="48.39357" lon="2.39999">
        <ele>71.199996948242</ele>
        <time>2024-04-07T07:55:30.000Z</time>
      </trkpt>
      <trkpt lat="48.39359" lon="2.40016">
        <ele>71.199996948242</ele>
        <time>2024-04-07T07:55:35.000Z</time>
      </trkpt>
      <trkpt lat="48.3936" lon="2.40032">
        <ele>71.199996948242</ele>
        <time>2024-04-07T07:55:38.000Z</time>
      </trkpt>
      <trkpt lat="48.39362" lon="2.40046">
        <ele>71.199996948242</ele>
        <time>2024-04-07T07:55:41.000Z</time>
      </trkpt>
      <trkpt lat="48.39364" lon="2.40059">
        <ele>71.400001525879</ele>
        <time>2024-04-07T07:55:44.000Z</time>
      </trkpt>
      <trkpt lat="48.39364" lon="2.40065">
        <ele>71.800003051758</ele>
        <time>2024-04-07T07:55:46.000Z</time>
      </trkpt>
      <trkpt lat="48.39364" lon="2.40073">
        <ele>72</ele>
        <time>2024-04-07T07:55:48.000Z</time>
      </trkpt>
      <trkpt lat="48.39362" lon="2.40085">
        <ele>72.800003051758</ele>
        <time>2024-04-07T07:55:51.000Z</time>
      </trkpt>
      <trkpt lat="48.39359" lon="2.40098">
        <ele>73.400001525879</ele>
        <time>2024-04-07T07:55:54.000Z</time>
      </trkpt>
      <trkpt lat="48.39358" lon="2.40102">
        <ele>73.599998474121</ele>
        <time>2024-04-07T07:55:55.000Z</time>
      </trkpt>
      <trkpt lat="48.39357" lon="2.40104">
        <ele>74</ele>
        <time>2024-04-07T07:55:56.000Z</time>
      </trkpt>
      <trkpt lat="48.39349" lon="2.40113">
        <ele>75</ele>
        <time>2024-04-07T07:56:00.000Z</time>
      </trkpt>
      <trkpt lat="48.39347" lon="2.40116">
        <ele>75.199996948242</ele>
        <time>2024-04-07T07:56:01.000Z</time>
      </trkpt>
      <trkpt lat="48.39341" lon="2.40124">
        <ele>76.199996948242</ele>
        <time>2024-04-07T07:56:04.000Z</time>
      </trkpt>
      <trkpt lat="48.39339" lon="2.40126">
        <ele>76.400001525879</ele>
        <time>2024-04-07T07:56:05.000Z</time>
      </trkpt>
      <trkpt lat="48.39338" lon="2.40128">
        <ele>76.599998474121</ele>
        <time>2024-04-07T07:56:06.000Z</time>
      </trkpt>
      <trkpt lat="48.39335" lon="2.40131">
        <ele>77</ele>
        <time>2024-04-07T07:56:08.000Z</time>
      </trkpt>
      <trkpt lat="48.3933" lon="2.40136">
        <ele>77.599998474121</ele>
        <time>2024-04-07T07:56:11.000Z</time>
      </trkpt>
      <trkpt lat="48.39325" lon="2.40141">
        <ele>78.400001525879</ele>
        <time>2024-04-07T07:56:14.000Z</time>
      </trkpt>
      <trkpt lat="48.39324" lon="2.40143">
        <ele>79</ele>
        <time>2024-04-07T07:56:15.000Z</time>
      </trkpt>
      <trkpt lat="48.39322" lon="2.40147">
        <ele>79.800003051758</ele>
        <time>2024-04-07T07:56:17.000Z</time>
      </trkpt>
      <trkpt lat="48.39321" lon="2.40149">
        <ele>80.199996948242</ele>
        <time>2024-04-07T07:56:18.000Z</time>
      </trkpt>
      <trkpt lat="48.39319" lon="2.40154">
        <ele>80.800003051758</ele>
        <time>2024-04-07T07:56:20.000Z</time>
      </trkpt>
      <trkpt lat="48.39318" lon="2.40156">
        <ele>81.199996948242</ele>
        <time>2024-04-07T07:56:21.000Z</time>
      </trkpt>
      <trkpt lat="48.39314" lon="2.40162">
        <ele>82.400001525879</ele>
        <time>2024-04-07T07:56:24.000Z</time>
      </trkpt>
      <trkpt lat="48.3931" lon="2.40168">
        <ele>83.800003051758</ele>
        <time>2024-04-07T07:56:27.000Z</time>
      </trkpt>
      <trkpt lat="48.39305" lon="2.40174">
        <ele>85</ele>
        <time>2024-04-07T07:56:30.000Z</time>
      </trkpt>
      <trkpt lat="48.39302" lon="2.40178">
        <ele>85.800003051758</ele>
        <time>2024-04-07T07:56:32.000Z</time>
      </trkpt>
      <trkpt lat="48.39301" lon="2.40181">
        <ele>86</ele>
        <time>2024-04-07T07:56:33.000Z</time>
      </trkpt>
      <trkpt lat="48.39297" lon="2.40185">
        <ele>87.599998474121</ele>
        <time>2024-04-07T07:56:36.000Z</time>
      </trkpt>
      <trkpt lat="48.39292" lon="2.4019">
        <ele>88.800003051758</ele>
        <time>2024-04-07T07:56:39.000Z</time>
      </trkpt>
      <trkpt lat="48.39286" lon="2.40197">
        <ele>89.800003051758</ele>
        <time>2024-04-07T07:56:42.000Z</time>
      </trkpt>
      <trkpt lat="48.39283" lon="2.40203">
        <ele>90.599998474121</ele>
        <time>2024-04-07T07:56:45.000Z</time>
      </trkpt>
      <trkpt lat="48.39281" lon="2.40205">
        <ele>91.800003051758</ele>
        <time>2024-04-07T07:56:48.000Z</time>
      </trkpt>
      <trkpt lat="48.39279" lon="2.40209">
        <ele>93</ele>
        <time>2024-04-07T07:56:51.000Z</time>
      </trkpt>
      <trkpt lat="48.39275" lon="2.40217">
        <ele>94</ele>
        <time>2024-04-07T07:56:55.000Z</time>
      </trkpt>
      <trkpt lat="48.39274" lon="2.40219">
        <ele>94.199996948242</ele>
        <time>2024-04-07T07:56:56.000Z</time>
      </trkpt>
      <trkpt lat="48.39264" lon="2.40232">
        <ele>94.400001525879</ele>
        <time>2024-04-07T07:57:02.000Z</time>
      </trkpt>
      <trkpt lat="48.3926" lon="2.40238">
        <ele>95.400001525879</ele>
        <time>2024-04-07T07:57:05.000Z</time>
      </trkpt>
      <trkpt lat="48.39259" lon="2.40243">
        <ele>96</ele>
        <time>2024-04-07T07:57:07.000Z</time>
      </trkpt>
      <trkpt lat="48.39258" lon="2.40246">
        <ele>96.400001525879</ele>
        <time>2024-04-07T07:57:08.000Z</time>
      </trkpt>
      <trkpt lat="48.39258" lon="2.40248">
        <ele>96.599998474121</ele>
        <time>2024-04-07T07:57:09.000Z</time>
      </trkpt>
      <trkpt lat="48.39258" lon="2.40256">
        <ele>97.199996948242</ele>
        <time>2024-04-07T07:57:12.000Z</time>
      </trkpt>
      <trkpt lat="48.39258" lon="2.40259">
        <ele>97.599998474121</ele>
        <time>2024-04-07T07:57:13.000Z</time>
      </trkpt>
      <trkpt lat="48.39259" lon="2.40264">
        <ele>98</ele>
        <time>2024-04-07T07:57:15.000Z</time>
      </trkpt>
      <trkpt lat="48.3926" lon="2.40274">
        <ele>98.599998474121</ele>
        <time>2024-04-07T07:57:19.000Z</time>
      </trkpt>
      <trkpt lat="48.39261" lon="2.40279">
        <ele>98.599998474121</ele>
        <time>2024-04-07T07:57:21.000Z</time>
      </trkpt>
      <trkpt lat="48.39261" lon="2.40284">
        <ele>98.800003051758</ele>
        <time>2024-04-07T07:57:24.000Z</time>
      </trkpt>
      <trkpt lat="48.39261" lon="2.40289">
        <ele>98.800003051758</ele>
        <time>2024-04-07T07:57:27.000Z</time>
      </trkpt>
      <trkpt lat="48.39261" lon="2.40296">
        <ele>99</ele>
        <time>2024-04-07T07:57:30.000Z</time>
      </trkpt>
      <trkpt lat="48.39261" lon="2.40298">
        <ele>99</ele>
        <time>2024-04-07T07:57:31.000Z</time>
      </trkpt>
      <trkpt lat="48.39264" lon="2.40315">
        <ele>99.400001525879</ele>
        <time>2024-04-07T07:57:37.000Z</time>
      </trkpt>
      <trkpt lat="48.39264" lon="2.40318">
        <ele>99.599998474121</ele>
        <time>2024-04-07T07:57:38.000Z</time>
      </trkpt>
      <trkpt lat="48.39265" lon="2.40326">
        <ele>99.800003051758</ele>
        <time>2024-04-07T07:57:41.000Z</time>
      </trkpt>
      <trkpt lat="48.39267" lon="2.40334">
        <ele>99.800003051758</ele>
        <time>2024-04-07T07:57:44.000Z</time>
      </trkpt>
      <trkpt lat="48.3927" lon="2.40344">
        <ele>100</ele>
        <time>2024-04-07T07:57:47.000Z</time>
      </trkpt>
      <trkpt lat="48.39272" lon="2.40357">
        <ele>100.40000152588</ele>
        <time>2024-04-07T07:57:51.000Z</time>
      </trkpt>
      <trkpt lat="48.39274" lon="2.40372">
        <ele>100.80000305176</ele>
        <time>2024-04-07T07:57:55.000Z</time>
      </trkpt>
      <trkpt lat="48.39276" lon="2.40388">
        <ele>101</ele>
        <time>2024-04-07T07:57:59.000Z</time>
      </trkpt>
      <trkpt lat="48.39277" lon="2.40399">
        <ele>101.19999694824</ele>
        <time>2024-04-07T07:58:02.000Z</time>
      </trkpt>
      <trkpt lat="48.39278" lon="2.40411">
        <ele>101.40000152588</ele>
        <time>2024-04-07T07:58:05.000Z</time>
      </trkpt>
      <trkpt lat="48.3928" lon="2.40429">
        <ele>101.80000305176</ele>
        <time>2024-04-07T07:58:09.000Z</time>
      </trkpt>
      <trkpt lat="48.39282" lon="2.40454">
        <ele>102.19999694824</ele>
        <time>2024-04-07T07:58:14.000Z</time>
      </trkpt>
      <trkpt lat="48.3928" lon="2.40483">
        <ele>102.40000152588</ele>
        <time>2024-04-07T07:58:20.000Z</time>
      </trkpt>
      <trkpt lat="48.39279" lon="2.40494">
        <ele>102.59999847412</ele>
        <time>2024-04-07T07:58:22.000Z</time>
      </trkpt>
      <trkpt lat="48.39274" lon="2.40517">
        <ele>103.19999694824</ele>
        <time>2024-04-07T07:58:27.000Z</time>
      </trkpt>
      <trkpt lat="48.39268" lon="2.40534">
        <ele>103.80000305176</ele>
        <time>2024-04-07T07:58:31.000Z</time>
      </trkpt>
      <trkpt lat="48.39263" lon="2.40543">
        <ele>104</ele>
        <time>2024-04-07T07:58:33.000Z</time>
      </trkpt>
      <trkpt lat="48.39247" lon="2.4057">
        <ele>104.80000305176</ele>
        <time>2024-04-07T07:58:39.000Z</time>
      </trkpt>
      <trkpt lat="48.39245" lon="2.40574">
        <ele>105</ele>
        <time>2024-04-07T07:58:40.000Z</time>
      </trkpt>
      <trkpt lat="48.39232" lon="2.40597">
        <ele>106</ele>
        <time>2024-04-07T07:58:45.000Z</time>
      </trkpt>
      <trkpt lat="48.39226" lon="2.40605">
        <ele>106.40000152588</ele>
        <time>2024-04-07T07:58:47.000Z</time>
      </trkpt>
      <trkpt lat="48.39214" lon="2.40629">
        <ele>107</ele>
        <time>2024-04-07T07:58:52.000Z</time>
      </trkpt>
      <trkpt lat="48.39209" lon="2.40638">
        <ele>107.40000152588</ele>
        <time>2024-04-07T07:58:54.000Z</time>
      </trkpt>
      <trkpt lat="48.392" lon="2.40659">
        <ele>108</ele>
        <time>2024-04-07T07:58:58.000Z</time>
      </trkpt>
      <trkpt lat="48.39197" lon="2.40665">
        <ele>108.19999694824</ele>
        <time>2024-04-07T07:58:59.000Z</time>
      </trkpt>
      <trkpt lat="48.39194" lon="2.40676">
        <ele>108.59999847412</ele>
        <time>2024-04-07T07:59:01.000Z</time>
      </trkpt>
      <trkpt lat="48.3919" lon="2.40693">
        <ele>109.19999694824</ele>
        <time>2024-04-07T07:59:04.000Z</time>
      </trkpt>
      <trkpt lat="48.39188" lon="2.40711">
        <ele>109.59999847412</ele>
        <time>2024-04-07T07:59:07.000Z</time>
      </trkpt>
      <trkpt lat="48.39185" lon="2.40747">
        <ele>110.19999694824</ele>
        <time>2024-04-07T07:59:13.000Z</time>
      </trkpt>
      <trkpt lat="48.39184" lon="2.40752">
        <ele>110.40000152588</ele>
        <time>2024-04-07T07:59:14.000Z</time>
      </trkpt>
      <trkpt lat="48.39187" lon="2.40778">
        <ele>111.19999694824</ele>
        <time>2024-04-07T07:59:19.000Z</time>
      </trkpt>
      <trkpt lat="48.39188" lon="2.40784">
        <ele>111.40000152588</ele>
        <time>2024-04-07T07:59:20.000Z</time>
      </trkpt>
      <trkpt lat="48.39198" lon="2.40815">
        <ele>111.80000305176</ele>
        <time>2024-04-07T07:59:26.000Z</time>
      </trkpt>
      <trkpt lat="48.3921" lon="2.40842">
        <ele>112.19999694824</ele>
        <time>2024-04-07T07:59:31.000Z</time>
      </trkpt>
      <trkpt lat="48.39213" lon="2.40848">
        <ele>112.40000152588</ele>
        <time>2024-04-07T07:59:32.000Z</time>
      </trkpt>
      <trkpt lat="48.39222" lon="2.40871">
        <ele>113.40000152588</ele>
        <time>2024-04-07T07:59:36.000Z</time>
      </trkpt>
      <trkpt lat="48.39231" lon="2.40895">
        <ele>114.19999694824</ele>
        <time>2024-04-07T07:59:40.000Z</time>
      </trkpt>
      <trkpt lat="48.39236" lon="2.40906">
        <ele>114.59999847412</ele>
        <time>2024-04-07T07:59:42.000Z</time>
      </trkpt>
      <trkpt lat="48.39246" lon="2.40934">
        <ele>115.19999694824</ele>
        <time>2024-04-07T07:59:47.000Z</time>
      </trkpt>
      <trkpt lat="48.3925" lon="2.40944">
        <ele>115.59999847412</ele>
        <time>2024-04-07T07:59:49.000Z</time>
      </trkpt>
      <trkpt lat="48.39263" lon="2.4096">
        <ele>116.59999847412</ele>
        <time>2024-04-07T07:59:54.000Z</time>
      </trkpt>
      <trkpt lat="48.39275" lon="2.4098">
        <ele>117.80000305176</ele>
        <time>2024-04-07T07:59:59.000Z</time>
      </trkpt>
      <trkpt lat="48.39279" lon="2.40988">
        <ele>118.19999694824</ele>
        <time>2024-04-07T08:00:01.000Z</time>
      </trkpt>
      <trkpt lat="48.39284" lon="2.41003">
        <ele>118.80000305176</ele>
        <time>2024-04-07T08:00:04.000Z</time>
      </trkpt>
      <trkpt lat="48.39292" lon="2.41016">
        <ele>119.59999847412</ele>
        <time>2024-04-07T08:00:07.000Z</time>
      </trkpt>
      <trkpt lat="48.39294" lon="2.4102">
        <ele>120</ele>
        <time>2024-04-07T08:00:08.000Z</time>
      </trkpt>
      <trkpt lat="48.39303" lon="2.41032">
        <ele>120.80000305176</ele>
        <time>2024-04-07T08:00:12.000Z</time>
      </trkpt>
      <trkpt lat="48.39305" lon="2.41036">
        <ele>121</ele>
        <time>2024-04-07T08:00:13.000Z</time>
      </trkpt>
      <trkpt lat="48.3932" lon="2.41054">
        <ele>122</ele>
        <time>2024-04-07T08:00:19.000Z</time>
      </trkpt>
      <trkpt lat="48.3934" lon="2.41076">
        <ele>122.80000305176</ele>
        <time>2024-04-07T08:00:26.000Z</time>
      </trkpt>
      <trkpt lat="48.39358" lon="2.41097">
        <ele>123</ele>
        <time>2024-04-07T08:00:32.000Z</time>
      </trkpt>
      <trkpt lat="48.39361" lon="2.411">
        <ele>123.19999694824</ele>
        <time>2024-04-07T08:00:33.000Z</time>
      </trkpt>
      <trkpt lat="48.39379" lon="2.41116">
        <ele>123.59999847412</ele>
        <time>2024-04-07T08:00:39.000Z</time>
      </trkpt>
      <trkpt lat="48.39383" lon="2.41119">
        <ele>123.80000305176</ele>
        <time>2024-04-07T08:00:40.000Z</time>
      </trkpt>
      <trkpt lat="48.39397" lon="2.41136">
        <ele>124.19999694824</ele>
        <time>2024-04-07T08:00:44.000Z</time>
      </trkpt>
      <trkpt lat="48.394" lon="2.41141">
        <ele>124.19999694824</ele>
        <time>2024-04-07T08:00:45.000Z</time>
      </trkpt>
      <trkpt lat="48.39429" lon="2.41177">
        <ele>124.59999847412</ele>
        <time>2024-04-07T08:00:53.000Z</time>
      </trkpt>
      <trkpt lat="48.39462" lon="2.41211">
        <ele>124.80000305176</ele>
        <time>2024-04-07T08:01:01.000Z</time>
      </trkpt>
      <trkpt lat="48.39487" lon="2.4124">
        <ele>125</ele>
        <time>2024-04-07T08:01:07.000Z</time>
      </trkpt>
      <trkpt lat="48.39529" lon="2.41282">
        <ele>125</ele>
        <time>2024-04-07T08:01:16.000Z</time>
      </trkpt>
      <trkpt lat="48.39559" lon="2.41307">
        <ele>124.80000305176</ele>
        <time>2024-04-07T08:01:22.000Z</time>
      </trkpt>
      <trkpt lat="48.39569" lon="2.41314">
        <ele>124.80000305176</ele>
        <time>2024-04-07T08:01:24.000Z</time>
      </trkpt>
      <trkpt lat="48.39594" lon="2.41338">
        <ele>124.59999847412</ele>
        <time>2024-04-07T08:01:29.000Z</time>
      </trkpt>
      <trkpt lat="48.39598" lon="2.41345">
        <ele>124.40000152588</ele>
        <time>2024-04-07T08:01:30.000Z</time>
      </trkpt>
      <trkpt lat="48.39604" lon="2.41367">
        <ele>124.40000152588</ele>
        <time>2024-04-07T08:01:33.000Z</time>
      </trkpt>
      <trkpt lat="48.396" lon="2.41388">
        <ele>124</ele>
        <time>2024-04-07T08:01:36.000Z</time>
      </trkpt>
      <trkpt lat="48.39598" lon="2.41396">
        <ele>124.19999694824</ele>
        <time>2024-04-07T08:01:37.000Z</time>
      </trkpt>
      <trkpt lat="48.39592" lon="2.41434">
        <ele>124</ele>
        <time>2024-04-07T08:01:42.000Z</time>
      </trkpt>
      <trkpt lat="48.3959" lon="2.41457">
        <ele>124</ele>
        <time>2024-04-07T08:01:45.000Z</time>
      </trkpt>
      <trkpt lat="48.39592" lon="2.41504">
        <ele>124.19999694824</ele>
        <time>2024-04-07T08:01:51.000Z</time>
      </trkpt>
      <trkpt lat="48.39593" lon="2.41544">
        <ele>124.59999847412</ele>
        <time>2024-04-07T08:01:56.000Z</time>
      </trkpt>
      <trkpt lat="48.39594" lon="2.41559">
        <ele>124.80000305176</ele>
        <time>2024-04-07T08:01:58.000Z</time>
      </trkpt>
      <trkpt lat="48.39595" lon="2.41604">
        <ele>125.19999694824</ele>
        <time>2024-04-07T08:02:04.000Z</time>
      </trkpt>
      <trkpt lat="48.39595" lon="2.41619">
        <ele>125.40000152588</ele>
        <time>2024-04-07T08:02:06.000Z</time>
      </trkpt>
      <trkpt lat="48.39596" lon="2.4165">
        <ele>126</ele>
        <time>2024-04-07T08:02:10.000Z</time>
      </trkpt>
      <trkpt lat="48.39598" lon="2.41672">
        <ele>126.40000152588</ele>
        <time>2024-04-07T08:02:13.000Z</time>
      </trkpt>
      <trkpt lat="48.396" lon="2.41703">
        <ele>126.59999847412</ele>
        <time>2024-04-07T08:02:17.000Z</time>
      </trkpt>
      <trkpt lat="48.39603" lon="2.4175">
        <ele>127.19999694824</ele>
        <time>2024-04-07T08:02:23.000Z</time>
      </trkpt>
      <trkpt lat="48.39606" lon="2.41773">
        <ele>127.59999847412</ele>
        <time>2024-04-07T08:02:26.000Z</time>
      </trkpt>
      <trkpt lat="48.39608" lon="2.41802">
        <ele>128</ele>
        <time>2024-04-07T08:02:30.000Z</time>
      </trkpt>
      <trkpt lat="48.39609" lon="2.4181">
        <ele>128.19999694824</ele>
        <time>2024-04-07T08:02:31.000Z</time>
      </trkpt>
      <trkpt lat="48.3961" lon="2.41817">
        <ele>128.19999694824</ele>
        <time>2024-04-07T08:02:32.000Z</time>
      </trkpt>
      <trkpt lat="48.39614" lon="2.41855">
        <ele>128.60000610352</ele>
        <time>2024-04-07T08:02:37.000Z</time>
      </trkpt>
      <trkpt lat="48.3962" lon="2.41893">
        <ele>129.39999389648</ele>
        <time>2024-04-07T08:02:42.000Z</time>
      </trkpt>
      <trkpt lat="48.39623" lon="2.41917">
        <ele>129.80000305176</ele>
        <time>2024-04-07T08:02:45.000Z</time>
      </trkpt>
      <trkpt lat="48.39625" lon="2.41933">
        <ele>129.80000305176</ele>
        <time>2024-04-07T08:02:47.000Z</time>
      </trkpt>
      <trkpt lat="48.3963" lon="2.41966">
        <ele>129.80000305176</ele>
        <time>2024-04-07T08:02:51.000Z</time>
      </trkpt>
      <trkpt lat="48.3964" lon="2.42029">
        <ele>130</ele>
        <time>2024-04-07T08:02:59.000Z</time>
      </trkpt>
      <trkpt lat="48.39649" lon="2.42094">
        <ele>130</ele>
        <time>2024-04-07T08:03:07.000Z</time>
      </trkpt>
      <trkpt lat="48.39653" lon="2.42119">
        <ele>129.80000305176</ele>
        <time>2024-04-07T08:03:10.000Z</time>
      </trkpt>
      <trkpt lat="48.39661" lon="2.42179">
        <ele>129.60000610352</ele>
        <time>2024-04-07T08:03:18.000Z</time>
      </trkpt>
      <trkpt lat="48.39663" lon="2.42202">
        <ele>129.60000610352</ele>
        <time>2024-04-07T08:03:21.000Z</time>
      </trkpt>
      <trkpt lat="48.3966" lon="2.42216">
        <ele>129.60000610352</ele>
        <time>2024-04-07T08:03:23.000Z</time>
      </trkpt>
      <trkpt lat="48.39655" lon="2.42228">
        <ele>129.60000610352</ele>
        <time>2024-04-07T08:03:25.000Z</time>
      </trkpt>
      <trkpt lat="48.3965" lon="2.4224">
        <ele>129.60000610352</ele>
        <time>2024-04-07T08:03:27.000Z</time>
      </trkpt>
      <trkpt lat="48.39648" lon="2.42253">
        <ele>129.60000610352</ele>
        <time>2024-04-07T08:03:29.000Z</time>
      </trkpt>
      <trkpt lat="48.3965" lon="2.42268">
        <ele>129.60000610352</ele>
        <time>2024-04-07T08:03:32.000Z</time>
      </trkpt>
      <trkpt lat="48.39652" lon="2.42272">
        <ele>129.60000610352</ele>
        <time>2024-04-07T08:03:33.000Z</time>
      </trkpt>
      <trkpt lat="48.39657" lon="2.42278">
        <ele>129.60000610352</ele>
        <time>2024-04-07T08:03:36.000Z</time>
      </trkpt>
      <trkpt lat="48.39659" lon="2.42279">
        <ele>129.60000610352</ele>
        <time>2024-04-07T08:03:37.000Z</time>
      </trkpt>
      <trkpt lat="48.39662" lon="2.42279">
        <ele>129.60000610352</ele>
        <time>2024-04-07T08:03:38.000Z</time>
      </trkpt>
      <trkpt lat="48.39666" lon="2.42279">
        <ele>129.60000610352</ele>
        <time>2024-04-07T08:03:39.000Z</time>
      </trkpt>
      <trkpt lat="48.39675" lon="2.42279">
        <ele>129.60000610352</ele>
        <time>2024-04-07T08:03:41.000Z</time>
      </trkpt>
      <trkpt lat="48.39684" lon="2.42276">
        <ele>129.60000610352</ele>
        <time>2024-04-07T08:03:43.000Z</time>
      </trkpt>
      <trkpt lat="48.39694" lon="2.42268">
        <ele>129.60000610352</ele>
        <time>2024-04-07T08:03:45.000Z</time>
      </trkpt>
      <trkpt lat="48.39706" lon="2.42255">
        <ele>129.60000610352</ele>
        <time>2024-04-07T08:03:48.000Z</time>
      </trkpt>
      <trkpt lat="48.39716" lon="2.42251">
        <ele>129.39999389648</ele>
        <time>2024-04-07T08:03:50.000Z</time>
      </trkpt>
      <trkpt lat="48.3975" lon="2.42242">
        <ele>129.19999694824</ele>
        <time>2024-04-07T08:03:57.000Z</time>
      </trkpt>
      <trkpt lat="48.39784" lon="2.42237">
        <ele>129.19999694824</ele>
        <time>2024-04-07T08:04:04.000Z</time>
      </trkpt>
      <trkpt lat="48.39793" lon="2.42235">
        <ele>129.19999694824</ele>
        <time>2024-04-07T08:04:06.000Z</time>
      </trkpt>
      <trkpt lat="48.39809" lon="2.42231">
        <ele>129.19999694824</ele>
        <time>2024-04-07T08:04:10.000Z</time>
      </trkpt>
      <trkpt lat="48.39818" lon="2.42228">
        <ele>129.19999694824</ele>
        <time>2024-04-07T08:04:12.000Z</time>
      </trkpt>
      <trkpt lat="48.39841" lon="2.4222">
        <ele>129</ele>
        <time>2024-04-07T08:04:17.000Z</time>
      </trkpt>
      <trkpt lat="48.39875" lon="2.42207">
        <ele>128.80000305176</ele>
        <time>2024-04-07T08:04:24.000Z</time>
      </trkpt>
      <trkpt lat="48.3988" lon="2.42205">
        <ele>128.80000305176</ele>
        <time>2024-04-07T08:04:25.000Z</time>
      </trkpt>
      <trkpt lat="48.39884" lon="2.42202">
        <ele>128.60000610352</ele>
        <time>2024-04-07T08:04:26.000Z</time>
      </trkpt>
      <trkpt lat="48.39892" lon="2.42196">
        <ele>128.60000610352</ele>
        <time>2024-04-07T08:04:28.000Z</time>
      </trkpt>
      <trkpt lat="48.39903" lon="2.42185">
        <ele>128.39999389648</ele>
        <time>2024-04-07T08:04:31.000Z</time>
      </trkpt>
      <trkpt lat="48.39911" lon="2.42176">
        <ele>128.39999389648</ele>
        <time>2024-04-07T08:04:33.000Z</time>
      </trkpt>
      <trkpt lat="48.39925" lon="2.42159">
        <ele>128.39999389648</ele>
        <time>2024-04-07T08:04:37.000Z</time>
      </trkpt>
      <trkpt lat="48.39929" lon="2.42155">
        <ele>128.39999389648</ele>
        <time>2024-04-07T08:04:38.000Z</time>
      </trkpt>
      <trkpt lat="48.39933" lon="2.42151">
        <ele>128.39999389648</ele>
        <time>2024-04-07T08:04:39.000Z</time>
      </trkpt>
      <trkpt lat="48.3995" lon="2.42126">
        <ele>128.39999389648</ele>
        <time>2024-04-07T08:04:44.000Z</time>
      </trkpt>
      <trkpt lat="48.39962" lon="2.42104">
        <ele>128.39999389648</ele>
        <time>2024-04-07T08:04:48.000Z</time>
      </trkpt>
      <trkpt lat="48.39969" lon="2.42087">
        <ele>128.19999694824</ele>
        <time>2024-04-07T08:04:51.000Z</time>
      </trkpt>
      <trkpt lat="48.39976" lon="2.42062">
        <ele>128</ele>
        <time>2024-04-07T08:04:56.000Z</time>
      </trkpt>
      <trkpt lat="48.39982" lon="2.42027">
        <ele>128</ele>
        <time>2024-04-07T08:05:04.000Z</time>
      </trkpt>
      <trkpt lat="48.39985" lon="2.41983">
        <ele>128</ele>
        <time>2024-04-07T08:05:12.000Z</time>
      </trkpt>
      <trkpt lat="48.39987" lon="2.41936">
        <ele>127.80000305176</ele>
        <time>2024-04-07T08:05:20.000Z</time>
      </trkpt>
      <trkpt lat="48.39988" lon="2.41912">
        <ele>127.80000305176</ele>
        <time>2024-04-07T08:05:24.000Z</time>
      </trkpt>
      <trkpt lat="48.39988" lon="2.41889">
        <ele>127.59999847412</ele>
        <time>2024-04-07T08:05:28.000Z</time>
      </trkpt>
      <trkpt lat="48.39989" lon="2.41859">
        <ele>127</ele>
        <time>2024-04-07T08:05:33.000Z</time>
      </trkpt>
      <trkpt lat="48.39989" lon="2.41847">
        <ele>127</ele>
        <time>2024-04-07T08:05:35.000Z</time>
      </trkpt>
      <trkpt lat="48.3999" lon="2.41802">
        <ele>126.80000305176</ele>
        <time>2024-04-07T08:05:42.000Z</time>
      </trkpt>
      <trkpt lat="48.39992" lon="2.41773">
        <ele>126.59999847412</ele>
        <time>2024-04-07T08:05:46.000Z</time>
      </trkpt>
      <trkpt lat="48.39992" lon="2.41759">
        <ele>126.40000152588</ele>
        <time>2024-04-07T08:05:48.000Z</time>
      </trkpt>
      <trkpt lat="48.39992" lon="2.41752">
        <ele>126.40000152588</ele>
        <time>2024-04-07T08:05:49.000Z</time>
      </trkpt>
      <trkpt lat="48.39995" lon="2.41715">
        <ele>125.59999847412</ele>
        <time>2024-04-07T08:05:55.000Z</time>
      </trkpt>
      <trkpt lat="48.39997" lon="2.41711">
        <ele>125.40000152588</ele>
        <time>2024-04-07T08:05:56.000Z</time>
      </trkpt>
      <trkpt lat="48.40006" lon="2.41712">
        <ele>125.40000152588</ele>
        <time>2024-04-07T08:05:59.000Z</time>
      </trkpt>
      <trkpt lat="48.40009" lon="2.41713">
        <ele>125.40000152588</ele>
        <time>2024-04-07T08:06:00.000Z</time>
      </trkpt>
      <trkpt lat="48.40022" lon="2.41711">
        <ele>125.40000152588</ele>
        <time>2024-04-07T08:06:04.000Z</time>
      </trkpt>
      <trkpt lat="48.40053" lon="2.41708">
        <ele>125.40000152588</ele>
        <time>2024-04-07T08:06:11.000Z</time>
      </trkpt>
      <trkpt lat="48.40073" lon="2.41708">
        <ele>125</ele>
        <time>2024-04-07T08:06:15.000Z</time>
      </trkpt>
      <trkpt lat="48.40088" lon="2.41707">
        <ele>124.40000152588</ele>
        <time>2024-04-07T08:06:18.000Z</time>
      </trkpt>
      <trkpt lat="48.40116" lon="2.41705">
        <ele>124</ele>
        <time>2024-04-07T08:06:24.000Z</time>
      </trkpt>
      <trkpt lat="48.40121" lon="2.41706">
        <ele>124</ele>
        <time>2024-04-07T08:06:25.000Z</time>
      </trkpt>
      <trkpt lat="48.40142" lon="2.41705">
        <ele>123.59999847412</ele>
        <time>2024-04-07T08:06:29.000Z</time>
      </trkpt>
      <trkpt lat="48.40151" lon="2.41706">
        <ele>123.40000152588</ele>
        <time>2024-04-07T08:06:31.000Z</time>
      </trkpt>
      <trkpt lat="48.4016" lon="2.41706">
        <ele>123.40000152588</ele>
        <time>2024-04-07T08:06:33.000Z</time>
      </trkpt>
      <trkpt lat="48.40182" lon="2.41704">
        <ele>123.19999694824</ele>
        <time>2024-04-07T08:06:37.000Z</time>
      </trkpt>
      <trkpt lat="48.40223" lon="2.41699">
        <ele>122.80000305176</ele>
        <time>2024-04-07T08:06:44.000Z</time>
      </trkpt>
      <trkpt lat="48.40257" lon="2.41694">
        <ele>122.80000305176</ele>
        <time>2024-04-07T08:06:50.000Z</time>
      </trkpt>
      <trkpt lat="48.40274" lon="2.41692">
        <ele>122.80000305176</ele>
        <time>2024-04-07T08:06:53.000Z</time>
      </trkpt>
      <trkpt lat="48.40291" lon="2.4169">
        <ele>122.80000305176</ele>
        <time>2024-04-07T08:06:56.000Z</time>
      </trkpt>
      <trkpt lat="48.40308" lon="2.41683">
        <ele>123.40000152588</ele>
        <time>2024-04-07T08:07:00.000Z</time>
      </trkpt>
      <trkpt lat="48.4031" lon="2.41667">
        <ele>123.59999847412</ele>
        <time>2024-04-07T08:07:03.000Z</time>
      </trkpt>
      <trkpt lat="48.40312" lon="2.41662">
        <ele>123.80000305176</ele>
        <time>2024-04-07T08:07:04.000Z</time>
      </trkpt>
      <trkpt lat="48.40311" lon="2.41652">
        <ele>124</ele>
        <time>2024-04-07T08:07:06.000Z</time>
      </trkpt>
      <trkpt lat="48.40308" lon="2.41649">
        <ele>124.19999694824</ele>
        <time>2024-04-07T08:07:07.000Z</time>
      </trkpt>
      <trkpt lat="48.40298" lon="2.41637">
        <ele>124.40000152588</ele>
        <time>2024-04-07T08:07:10.000Z</time>
      </trkpt>
      <trkpt lat="48.40295" lon="2.41631">
        <ele>124.40000152588</ele>
        <time>2024-04-07T08:07:11.000Z</time>
      </trkpt>
      <trkpt lat="48.40293" lon="2.41625">
        <ele>124.40000152588</ele>
        <time>2024-04-07T08:07:12.000Z</time>
      </trkpt>
      <trkpt lat="48.40285" lon="2.41606">
        <ele>124.40000152588</ele>
        <time>2024-04-07T08:07:15.000Z</time>
      </trkpt>
      <trkpt lat="48.40276" lon="2.41583">
        <ele>124.19999694824</ele>
        <time>2024-04-07T08:07:18.000Z</time>
      </trkpt>
      <trkpt lat="48.40271" lon="2.4155">
        <ele>124</ele>
        <time>2024-04-07T08:07:22.000Z</time>
      </trkpt>
      <trkpt lat="48.40267" lon="2.41535">
        <ele>123.59999847412</ele>
        <time>2024-04-07T08:07:24.000Z</time>
      </trkpt>
      <trkpt lat="48.40265" lon="2.41528">
        <ele>123.19999694824</ele>
        <time>2024-04-07T08:07:25.000Z</time>
      </trkpt>
      <trkpt lat="48.4026" lon="2.41513">
        <ele>122.59999847412</ele>
        <time>2024-04-07T08:07:27.000Z</time>
      </trkpt>
      <trkpt lat="48.40258" lon="2.41504">
        <ele>122.40000152588</ele>
        <time>2024-04-07T08:07:28.000Z</time>
      </trkpt>
      <trkpt lat="48.40257" lon="2.41496">
        <ele>122.19999694824</ele>
        <time>2024-04-07T08:07:29.000Z</time>
      </trkpt>
      <trkpt lat="48.4026" lon="2.41481">
        <ele>122.19999694824</ele>
        <time>2024-04-07T08:07:31.000Z</time>
      </trkpt>
      <trkpt lat="48.40262" lon="2.41452">
        <ele>122</ele>
        <time>2024-04-07T08:07:35.000Z</time>
      </trkpt>
      <trkpt lat="48.40252" lon="2.41436">
        <ele>122</ele>
        <time>2024-04-07T08:07:38.000Z</time>
      </trkpt>
      <trkpt lat="48.40249" lon="2.41431">
        <ele>122</ele>
        <time>2024-04-07T08:07:39.000Z</time>
      </trkpt>
      <trkpt lat="48.40243" lon="2.414">
        <ele>122</ele>
        <time>2024-04-07T08:07:44.000Z</time>
      </trkpt>
      <trkpt lat="48.40237" lon="2.41369">
        <ele>122</ele>
        <time>2024-04-07T08:07:49.000Z</time>
      </trkpt>
      <trkpt lat="48.40225" lon="2.41346">
        <ele>122</ele>
        <time>2024-04-07T08:07:54.000Z</time>
      </trkpt>
      <trkpt lat="48.40212" lon="2.41331">
        <ele>121.80000305176</ele>
        <time>2024-04-07T08:07:59.000Z</time>
      </trkpt>
      <trkpt lat="48.40198" lon="2.41331">
        <ele>121.80000305176</ele>
        <time>2024-04-07T08:08:03.000Z</time>
      </trkpt>
      <trkpt lat="48.40195" lon="2.41331">
        <ele>122</ele>
        <time>2024-04-07T08:08:04.000Z</time>
      </trkpt>
      <trkpt lat="48.40179" lon="2.41328">
        <ele>121.80000305176</ele>
        <time>2024-04-07T08:08:08.000Z</time>
      </trkpt>
      <trkpt lat="48.40175" lon="2.41326">
        <ele>121.80000305176</ele>
        <time>2024-04-07T08:08:09.000Z</time>
      </trkpt>
      <trkpt lat="48.40168" lon="2.41326">
        <ele>121.80000305176</ele>
        <time>2024-04-07T08:08:11.000Z</time>
      </trkpt>
      <trkpt lat="48.40163" lon="2.41324">
        <ele>121.59999847412</ele>
        <time>2024-04-07T08:08:13.000Z</time>
      </trkpt>
      <trkpt lat="48.40157" lon="2.41316">
        <ele>121.40000152588</ele>
        <time>2024-04-07T08:08:16.000Z</time>
      </trkpt>
      <trkpt lat="48.40154" lon="2.41309">
        <ele>121</ele>
        <time>2024-04-07T08:08:18.000Z</time>
      </trkpt>
      <trkpt lat="48.40152" lon="2.41305">
        <ele>120.59999847412</ele>
        <time>2024-04-07T08:08:22.000Z</time>
      </trkpt>
      <trkpt lat="48.4015" lon="2.41302">
        <ele>120.19999694824</ele>
        <time>2024-04-07T08:08:25.000Z</time>
      </trkpt>
      <trkpt lat="48.40149" lon="2.41301">
        <ele>119</ele>
        <time>2024-04-07T08:08:26.000Z</time>
      </trkpt>
      <trkpt lat="48.40147" lon="2.41297">
        <ele>118.19999694824</ele>
        <time>2024-04-07T08:08:29.000Z</time>
      </trkpt>
      <trkpt lat="48.40146" lon="2.41295">
        <ele>118</ele>
        <time>2024-04-07T08:08:31.000Z</time>
      </trkpt>
      <trkpt lat="48.40145" lon="2.41293">
        <ele>118</ele>
        <time>2024-04-07T08:08:33.000Z</time>
      </trkpt>
      <trkpt lat="48.40144" lon="2.41291">
        <ele>117.59999847412</ele>
        <time>2024-04-07T08:08:39.000Z</time>
      </trkpt>
      <trkpt lat="48.40143" lon="2.41288">
        <ele>117.59999847412</ele>
        <time>2024-04-07T08:08:47.000Z</time>
      </trkpt>
      <trkpt lat="48.40143" lon="2.41287">
        <ele>117.40000152588</ele>
        <time>2024-04-07T08:08:48.000Z</time>
      </trkpt>
      <trkpt lat="48.40142" lon="2.41287">
        <ele>117.40000152588</ele>
        <time>2024-04-07T08:08:51.000Z</time>
      </trkpt>
      <trkpt lat="48.40141" lon="2.41285">
        <ele>116.59999847412</ele>
        <time>2024-04-07T08:08:55.000Z</time>
      </trkpt>
      <trkpt lat="48.40141" lon="2.41281">
        <ele>116</ele>
        <time>2024-04-07T08:09:00.000Z</time>
      </trkpt>
      <trkpt lat="48.40141" lon="2.41281">
        <ele>115.59999847412</ele>
        <time>2024-04-07T08:09:04.000Z</time>
      </trkpt>
      <trkpt lat="48.4014" lon="2.41277">
        <ele>114.80000305176</ele>
        <time>2024-04-07T08:09:10.000Z</time>
      </trkpt>
      <trkpt lat="48.40139" lon="2.41276">
        <ele>114.40000152588</ele>
        <time>2024-04-07T08:09:15.000Z</time>
      </trkpt>
      <trkpt lat="48.40139" lon="2.41276">
        <ele>113.40000152588</ele>
        <time>2024-04-07T08:09:19.000Z</time>
      </trkpt>
      <trkpt lat="48.40139" lon="2.41276">
        <ele>113.19999694824</ele>
        <time>2024-04-07T08:09:20.000Z</time>
      </trkpt>
      <trkpt lat="48.40139" lon="2.41276">
        <ele>112.19999694824</ele>
        <time>2024-04-07T08:09:28.000Z</time>
      </trkpt>
      <trkpt lat="48.40139" lon="2.41275">
        <ele>112</ele>
        <time>2024-04-07T08:09:30.000Z</time>
      </trkpt>
      <trkpt lat="48.40139" lon="2.41275">
        <ele>112</ele>
        <time>2024-04-07T08:09:34.000Z</time>
      </trkpt>
      <trkpt lat="48.40139" lon="2.41275">
        <ele>112</ele>
        <time>2024-04-07T08:09:35.000Z</time>
      </trkpt>
      <trkpt lat="48.40141" lon="2.41272">
        <ele>112</ele>
        <time>2024-04-07T08:09:43.000Z</time>
      </trkpt>
      <trkpt lat="48.4014" lon="2.41268">
        <ele>111.80000305176</ele>
        <time>2024-04-07T08:09:45.000Z</time>
      </trkpt>
      <trkpt lat="48.40136" lon="2.41262">
        <ele>111.80000305176</ele>
        <time>2024-04-07T08:09:50.000Z</time>
      </trkpt>
      <trkpt lat="48.40134" lon="2.41259">
        <ele>110.40000152588</ele>
        <time>2024-04-07T08:09:53.000Z</time>
      </trkpt>
      <trkpt lat="48.40134" lon="2.41257">
        <ele>108.80000305176</ele>
        <time>2024-04-07T08:09:55.000Z</time>
      </trkpt>
      <trkpt lat="48.40134" lon="2.41255">
        <ele>107.59999847412</ele>
        <time>2024-04-07T08:09:57.000Z</time>
      </trkpt>
      <trkpt lat="48.40134" lon="2.41254">
        <ele>107.40000152588</ele>
        <time>2024-04-07T08:09:58.000Z</time>
      </trkpt>
      <trkpt lat="48.40133" lon="2.41252">
        <ele>106.40000152588</ele>
        <time>2024-04-07T08:10:03.000Z</time>
      </trkpt>
      <trkpt lat="48.40133" lon="2.41251">
        <ele>105.40000152588</ele>
        <time>2024-04-07T08:10:10.000Z</time>
      </trkpt>
      <trkpt lat="48.40133" lon="2.41251">
        <ele>105.19999694824</ele>
        <time>2024-04-07T08:10:12.000Z</time>
      </trkpt>
      <trkpt lat="48.40133" lon="2.41251">
        <ele>105.19999694824</ele>
        <time>2024-04-07T08:10:13.000Z</time>
      </trkpt>
      <trkpt lat="48.40133" lon="2.4125">
        <ele>105.19999694824</ele>
        <time>2024-04-07T08:10:16.000Z</time>
      </trkpt>
      <trkpt lat="48.40132" lon="2.41245">
        <ele>105.19999694824</ele>
        <time>2024-04-07T08:10:18.000Z</time>
      </trkpt>
      <trkpt lat="48.40133" lon="2.41242">
        <ele>105.19999694824</ele>
        <time>2024-04-07T08:10:20.000Z</time>
      </trkpt>
      <trkpt lat="48.40134" lon="2.41237">
        <ele>105.19999694824</ele>
        <time>2024-04-07T08:10:22.000Z</time>
      </trkpt>
      <trkpt lat="48.40135" lon="2.41235">
        <ele>104.59999847412</ele>
        <time>2024-04-07T08:10:26.000Z</time>
      </trkpt>
      <trkpt lat="48.40136" lon="2.41235">
        <ele>104.19999694824</ele>
        <time>2024-04-07T08:10:27.000Z</time>
      </trkpt>
      <trkpt lat="48.40136" lon="2.41236">
        <ele>102.80000305176</ele>
        <time>2024-04-07T08:10:30.000Z</time>
      </trkpt>
      <trkpt lat="48.40137" lon="2.41236">
        <ele>102</ele>
        <time>2024-04-07T08:10:41.000Z</time>
      </trkpt>
      <trkpt lat="48.40137" lon="2.41236">
        <ele>102</ele>
        <time>2024-04-07T08:10:44.000Z</time>
      </trkpt>
      <trkpt lat="48.4014" lon="2.41232">
        <ele>102</ele>
        <time>2024-04-07T08:10:52.000Z</time>
      </trkpt>
      <trkpt lat="48.40139" lon="2.41228">
        <ele>101.40000152588</ele>
        <time>2024-04-07T08:10:56.000Z</time>
      </trkpt>
      <trkpt lat="48.40139" lon="2.41227">
        <ele>100.19999694824</ele>
        <time>2024-04-07T08:11:01.000Z</time>
      </trkpt>
      <trkpt lat="48.40139" lon="2.41227">
        <ele>99.199996948242</ele>
        <time>2024-04-07T08:11:04.000Z</time>
      </trkpt>
      <trkpt lat="48.40138" lon="2.41227">
        <ele>98.800003051758</ele>
        <time>2024-04-07T08:11:07.000Z</time>
      </trkpt>
      <trkpt lat="48.40134" lon="2.41226">
        <ele>98.599998474121</ele>
        <time>2024-04-07T08:11:15.000Z</time>
      </trkpt>
      <trkpt lat="48.40134" lon="2.41225">
        <ele>98.599998474121</ele>
        <time>2024-04-07T08:11:17.000Z</time>
      </trkpt>
      <trkpt lat="48.40134" lon="2.41224">
        <ele>98.800003051758</ele>
        <time>2024-04-07T08:11:23.000Z</time>
      </trkpt>
      <trkpt lat="48.40134" lon="2.41224">
        <ele>98.800003051758</ele>
        <time>2024-04-07T08:11:25.000Z</time>
      </trkpt>
      <trkpt lat="48.40134" lon="2.41225">
        <ele>98.800003051758</ele>
        <time>2024-04-07T08:11:29.000Z</time>
      </trkpt>
      <trkpt lat="48.40134" lon="2.41225">
        <ele>99</ele>
        <time>2024-04-07T08:11:31.000Z</time>
      </trkpt>
      <trkpt lat="48.40134" lon="2.41225">
        <ele>99</ele>
        <time>2024-04-07T08:11:35.000Z</time>
      </trkpt>
      <trkpt lat="48.40135" lon="2.41226">
        <ele>98.800003051758</ele>
        <time>2024-04-07T08:11:46.000Z</time>
      </trkpt>
      <trkpt lat="48.40135" lon="2.41226">
        <ele>98.800003051758</ele>
        <time>2024-04-07T08:11:52.000Z</time>
      </trkpt>
      <trkpt lat="48.40138" lon="2.4122">
        <ele>98.800003051758</ele>
        <time>2024-04-07T08:11:57.000Z</time>
      </trkpt>
      <trkpt lat="48.40139" lon="2.41219">
        <ele>98.800003051758</ele>
        <time>2024-04-07T08:11:58.000Z</time>
      </trkpt>
      <trkpt lat="48.40145" lon="2.41208">
        <ele>98.800003051758</ele>
        <time>2024-04-07T08:12:03.000Z</time>
      </trkpt>
      <trkpt lat="48.40146" lon="2.41202">
        <ele>97.599998474121</ele>
        <time>2024-04-07T08:12:06.000Z</time>
      </trkpt>
      <trkpt lat="48.40147" lon="2.41197">
        <ele>96.599998474121</ele>
        <time>2024-04-07T08:12:08.000Z</time>
      </trkpt>
      <trkpt lat="48.40146" lon="2.41194">
        <ele>95.400001525879</ele>
        <time>2024-04-07T08:12:11.000Z</time>
      </trkpt>
      <trkpt lat="48.40147" lon="2.41193">
        <ele>94</ele>
        <time>2024-04-07T08:12:13.000Z</time>
      </trkpt>
      <trkpt lat="48.40147" lon="2.41192">
        <ele>92.800003051758</ele>
        <time>2024-04-07T08:12:15.000Z</time>
      </trkpt>
      <trkpt lat="48.40146" lon="2.41192">
        <ele>91.599998474121</ele>
        <time>2024-04-07T08:12:18.000Z</time>
      </trkpt>
      <trkpt lat="48.40146" lon="2.41182">
        <ele>91.199996948242</ele>
        <time>2024-04-07T08:12:28.000Z</time>
      </trkpt>
      <trkpt lat="48.40143" lon="2.41165">
        <ele>91.199996948242</ele>
        <time>2024-04-07T08:12:32.000Z</time>
      </trkpt>
      <trkpt lat="48.40142" lon="2.41157">
        <ele>91</ele>
        <time>2024-04-07T08:12:33.000Z</time>
      </trkpt>
      <trkpt lat="48.40138" lon="2.41141">
        <ele>90.599998474121</ele>
        <time>2024-04-07T08:12:35.000Z</time>
      </trkpt>
      <trkpt lat="48.40135" lon="2.41127">
        <ele>89.800003051758</ele>
        <time>2024-04-07T08:12:37.000Z</time>
      </trkpt>
      <trkpt lat="48.40136" lon="2.41122">
        <ele>89.599998474121</ele>
        <time>2024-04-07T08:12:38.000Z</time>
      </trkpt>
      <trkpt lat="48.40138" lon="2.41118">
        <ele>89</ele>
        <time>2024-04-07T08:12:39.000Z</time>
      </trkpt>
      <trkpt lat="48.40141" lon="2.41114">
        <ele>88</ele>
        <time>2024-04-07T08:12:40.000Z</time>
      </trkpt>
      <trkpt lat="48.40144" lon="2.41112">
        <ele>86.400001525879</ele>
        <time>2024-04-07T08:12:41.000Z</time>
      </trkpt>
      <trkpt lat="48.40148" lon="2.41109">
        <ele>85.199996948242</ele>
        <time>2024-04-07T08:12:42.000Z</time>
      </trkpt>
      <trkpt lat="48.40151" lon="2.41105">
        <ele>83.800003051758</ele>
        <time>2024-04-07T08:12:43.000Z</time>
      </trkpt>
      <trkpt lat="48.40158" lon="2.41098">
        <ele>82.400001525879</ele>
        <time>2024-04-07T08:12:45.000Z</time>
      </trkpt>
      <trkpt lat="48.40167" lon="2.41089">
        <ele>80.400001525879</ele>
        <time>2024-04-07T08:12:48.000Z</time>
      </trkpt>
      <trkpt lat="48.40174" lon="2.41088">
        <ele>79.800003051758</ele>
        <time>2024-04-07T08:12:50.000Z</time>
      </trkpt>
      <trkpt lat="48.4018" lon="2.41088">
        <ele>79.400001525879</ele>
        <time>2024-04-07T08:12:52.000Z</time>
      </trkpt>
      <trkpt lat="48.40186" lon="2.41081">
        <ele>78.800003051758</ele>
        <time>2024-04-07T08:12:55.000Z</time>
      </trkpt>
      <trkpt lat="48.40201" lon="2.4107">
        <ele>78.199996948242</ele>
        <time>2024-04-07T08:13:00.000Z</time>
      </trkpt>
      <trkpt lat="48.4022" lon="2.41053">
        <ele>78.199996948242</ele>
        <time>2024-04-07T08:13:06.000Z</time>
      </trkpt>
      <trkpt lat="48.40236" lon="2.41043">
        <ele>78.199996948242</ele>
        <time>2024-04-07T08:13:11.000Z</time>
      </trkpt>
      <trkpt lat="48.40249" lon="2.41036">
        <ele>78</ele>
        <time>2024-04-07T08:13:15.000Z</time>
      </trkpt>
      <trkpt lat="48.40252" lon="2.41034">
        <ele>78</ele>
        <time>2024-04-07T08:13:16.000Z</time>
      </trkpt>
      <trkpt lat="48.40261" lon="2.41024">
        <ele>78</ele>
        <time>2024-04-07T08:13:20.000Z</time>
      </trkpt>
      <trkpt lat="48.40262" lon="2.41024">
        <ele>77.800003051758</ele>
        <time>2024-04-07T08:13:21.000Z</time>
      </trkpt>
      <trkpt lat="48.40264" lon="2.4102">
        <ele>77.199996948242</ele>
        <time>2024-04-07T08:13:27.000Z</time>
      </trkpt>
      <trkpt lat="48.40264" lon="2.41019">
        <ele>77</ele>
        <time>2024-04-07T08:13:30.000Z</time>
      </trkpt>
      <trkpt lat="48.40264" lon="2.41018">
        <ele>77</ele>
        <time>2024-04-07T08:13:38.000Z</time>
      </trkpt>
      <trkpt lat="48.40264" lon="2.41018">
        <ele>76.800003051758</ele>
        <time>2024-04-07T08:13:42.000Z</time>
      </trkpt>
      <trkpt lat="48.40264" lon="2.41018">
        <ele>76.599998474121</ele>
        <time>2024-04-07T08:13:50.000Z</time>
      </trkpt>
      <trkpt lat="48.40264" lon="2.41018">
        <ele>76.599998474121</ele>
        <time>2024-04-07T08:13:53.000Z</time>
      </trkpt>
      <trkpt lat="48.40264" lon="2.41018">
        <ele>76.599998474121</ele>
        <time>2024-04-07T08:13:54.000Z</time>
      </trkpt>
      <trkpt lat="48.40264" lon="2.41017">
        <ele>76.800003051758</ele>
        <time>2024-04-07T08:14:02.000Z</time>
      </trkpt>
      <trkpt lat="48.40264" lon="2.41017">
        <ele>76.800003051758</ele>
        <time>2024-04-07T08:14:07.000Z</time>
      </trkpt>
      <trkpt lat="48.40264" lon="2.41016">
        <ele>77</ele>
        <time>2024-04-07T08:14:09.000Z</time>
      </trkpt>
      <trkpt lat="48.40272" lon="2.41009">
        <ele>77.199996948242</ele>
        <time>2024-04-07T08:14:16.000Z</time>
      </trkpt>
      <trkpt lat="48.40283" lon="2.41002">
        <ele>77.199996948242</ele>
        <time>2024-04-07T08:14:21.000Z</time>
      </trkpt>
      <trkpt lat="48.40295" lon="2.40999">
        <ele>77</ele>
        <time>2024-04-07T08:14:25.000Z</time>
      </trkpt>
      <trkpt lat="48.40308" lon="2.41001">
        <ele>76.199996948242</ele>
        <time>2024-04-07T08:14:30.000Z</time>
      </trkpt>
      <trkpt lat="48.40324" lon="2.41">
        <ele>76</ele>
        <time>2024-04-07T08:14:34.000Z</time>
      </trkpt>
      <trkpt lat="48.40328" lon="2.40999">
        <ele>76</ele>
        <time>2024-04-07T08:14:35.000Z</time>
      </trkpt>
      <trkpt lat="48.40331" lon="2.41">
        <ele>75.800003051758</ele>
        <time>2024-04-07T08:14:36.000Z</time>
      </trkpt>
      <trkpt lat="48.40343" lon="2.41001">
        <ele>75.599998474121</ele>
        <time>2024-04-07T08:14:39.000Z</time>
      </trkpt>
      <trkpt lat="48.40361" lon="2.41003">
        <ele>75.400001525879</ele>
        <time>2024-04-07T08:14:43.000Z</time>
      </trkpt>
      <trkpt lat="48.40367" lon="2.41006">
        <ele>75</ele>
        <time>2024-04-07T08:14:44.000Z</time>
      </trkpt>
      <trkpt lat="48.40371" lon="2.4101">
        <ele>74.400001525879</ele>
        <time>2024-04-07T08:14:45.000Z</time>
      </trkpt>
      <trkpt lat="48.40378" lon="2.41017">
        <ele>73.199996948242</ele>
        <time>2024-04-07T08:14:47.000Z</time>
      </trkpt>
      <trkpt lat="48.40382" lon="2.41019">
        <ele>72.800003051758</ele>
        <time>2024-04-07T08:14:48.000Z</time>
      </trkpt>
      <trkpt lat="48.40387" lon="2.41021">
        <ele>72.199996948242</ele>
        <time>2024-04-07T08:14:49.000Z</time>
      </trkpt>
      <trkpt lat="48.40391" lon="2.41024">
        <ele>71.599998474121</ele>
        <time>2024-04-07T08:14:50.000Z</time>
      </trkpt>
      <trkpt lat="48.40398" lon="2.41029">
        <ele>71</ele>
        <time>2024-04-07T08:14:52.000Z</time>
      </trkpt>
      <trkpt lat="48.404" lon="2.41031">
        <ele>70.800003051758</ele>
        <time>2024-04-07T08:14:53.000Z</time>
      </trkpt>
      <trkpt lat="48.40412" lon="2.41042">
        <ele>70.400001525879</ele>
        <time>2024-04-07T08:14:58.000Z</time>
      </trkpt>
      <trkpt lat="48.40422" lon="2.41042">
        <ele>70.199996948242</ele>
        <time>2024-04-07T08:15:02.000Z</time>
      </trkpt>
      <trkpt lat="48.40424" lon="2.41044">
        <ele>70.199996948242</ele>
        <time>2024-04-07T08:15:03.000Z</time>
      </trkpt>
      <trkpt lat="48.40427" lon="2.41054">
        <ele>70</ele>
        <time>2024-04-07T08:15:06.000Z</time>
      </trkpt>
      <trkpt lat="48.40428" lon="2.41057">
        <ele>70</ele>
        <time>2024-04-07T08:15:07.000Z</time>
      </trkpt>
      <trkpt lat="48.40428" lon="2.4106">
        <ele>69.800003051758</ele>
        <time>2024-04-07T08:15:08.000Z</time>
      </trkpt>
      <trkpt lat="48.40431" lon="2.41082">
        <ele>69.800003051758</ele>
        <time>2024-04-07T08:15:14.000Z</time>
      </trkpt>
      <trkpt lat="48.40432" lon="2.41103">
        <ele>70</ele>
        <time>2024-04-07T08:15:20.000Z</time>
      </trkpt>
      <trkpt lat="48.40432" lon="2.41114">
        <ele>70.400001525879</ele>
        <time>2024-04-07T08:15:24.000Z</time>
      </trkpt>
      <trkpt lat="48.40432" lon="2.41119">
        <ele>70.800003051758</ele>
        <time>2024-04-07T08:15:26.000Z</time>
      </trkpt>
      <trkpt lat="48.40432" lon="2.41122">
        <ele>70.800003051758</ele>
        <time>2024-04-07T08:15:27.000Z</time>
      </trkpt>
      <trkpt lat="48.4043" lon="2.41136">
        <ele>71.599998474121</ele>
        <time>2024-04-07T08:15:31.000Z</time>
      </trkpt>
      <trkpt lat="48.4043" lon="2.41139">
        <ele>72</ele>
        <time>2024-04-07T08:15:32.000Z</time>
      </trkpt>
      <trkpt lat="48.4043" lon="2.41146">
        <ele>72.800003051758</ele>
        <time>2024-04-07T08:15:34.000Z</time>
      </trkpt>
      <trkpt lat="48.40429" lon="2.4115">
        <ele>73.199996948242</ele>
        <time>2024-04-07T08:15:35.000Z</time>
      </trkpt>
      <trkpt lat="48.40427" lon="2.41169">
        <ele>74</ele>
        <time>2024-04-07T08:15:40.000Z</time>
      </trkpt>
      <trkpt lat="48.40426" lon="2.41178">
        <ele>74.199996948242</ele>
        <time>2024-04-07T08:15:43.000Z</time>
      </trkpt>
      <trkpt lat="48.40425" lon="2.41189">
        <ele>74.599998474121</ele>
        <time>2024-04-07T08:15:46.000Z</time>
      </trkpt>
      <trkpt lat="48.40421" lon="2.41199">
        <ele>75</ele>
        <time>2024-04-07T08:15:51.000Z</time>
      </trkpt>
      <trkpt lat="48.40421" lon="2.412">
        <ele>75.199996948242</ele>
        <time>2024-04-07T08:15:52.000Z</time>
      </trkpt>
      <trkpt lat="48.4042" lon="2.41202">
        <ele>76.199996948242</ele>
        <time>2024-04-07T08:15:57.000Z</time>
      </trkpt>
      <trkpt lat="48.4042" lon="2.41204">
        <ele>76.199996948242</ele>
        <time>2024-04-07T08:16:11.000Z</time>
      </trkpt>
      <trkpt lat="48.4042" lon="2.41205">
        <ele>76.199996948242</ele>
        <time>2024-04-07T08:16:15.000Z</time>
      </trkpt>
      <trkpt lat="48.40421" lon="2.41205">
        <ele>76.199996948242</ele>
        <time>2024-04-07T08:16:20.000Z</time>
      </trkpt>
      <trkpt lat="48.40421" lon="2.41204">
        <ele>76.400001525879</ele>
        <time>2024-04-07T08:16:21.000Z</time>
      </trkpt>
      <trkpt lat="48.40422" lon="2.41206">
        <ele>76.800003051758</ele>
        <time>2024-04-07T08:16:39.000Z</time>
      </trkpt>
      <trkpt lat="48.40422" lon="2.41206">
        <ele>76.800003051758</ele>
        <time>2024-04-07T08:16:41.000Z</time>
      </trkpt>
      <trkpt lat="48.40422" lon="2.41208">
        <ele>76.800003051758</ele>
        <time>2024-04-07T08:16:46.000Z</time>
      </trkpt>
      <trkpt lat="48.40422" lon="2.41208">
        <ele>76.800003051758</ele>
        <time>2024-04-07T08:16:48.000Z</time>
      </trkpt>
      <trkpt lat="48.40422" lon="2.41208">
        <ele>76.800003051758</ele>
        <time>2024-04-07T08:16:49.000Z</time>
      </trkpt>
      <trkpt lat="48.40422" lon="2.41208">
        <ele>76.800003051758</ele>
        <time>2024-04-07T08:16:50.000Z</time>
      </trkpt>
      <trkpt lat="48.40422" lon="2.41208">
        <ele>76.800003051758</ele>
        <time>2024-04-07T08:16:52.000Z</time>
      </trkpt>
      <trkpt lat="48.40422" lon="2.41208">
        <ele>76.800003051758</ele>
        <time>2024-04-07T08:16:54.000Z</time>
      </trkpt>
      <trkpt lat="48.40422" lon="2.41208">
        <ele>76.800003051758</ele>
        <time>2024-04-07T08:16:55.000Z</time>
      </trkpt>
      <trkpt lat="48.40422" lon="2.41208">
        <ele>77</ele>
        <time>2024-04-07T08:16:58.000Z</time>
      </trkpt>
      <trkpt lat="48.40422" lon="2.41208">
        <ele>77</ele>
        <time>2024-04-07T08:17:00.000Z</time>
      </trkpt>
      <trkpt lat="48.40422" lon="2.4121">
        <ele>77</ele>
        <time>2024-04-07T08:17:13.000Z</time>
      </trkpt>
      <trkpt lat="48.40419" lon="2.4121">
        <ele>77.199996948242</ele>
        <time>2024-04-07T08:17:27.000Z</time>
      </trkpt>
      <trkpt lat="48.40419" lon="2.4121">
        <ele>77.199996948242</ele>
        <time>2024-04-07T08:17:28.000Z</time>
      </trkpt>
      <trkpt lat="48.40418" lon="2.4121">
        <ele>77.199996948242</ele>
        <time>2024-04-07T08:17:34.000Z</time>
      </trkpt>
      <trkpt lat="48.40418" lon="2.41208">
        <ele>77.199996948242</ele>
        <time>2024-04-07T08:17:42.000Z</time>
      </trkpt>
      <trkpt lat="48.40418" lon="2.41208">
        <ele>77.199996948242</ele>
        <time>2024-04-07T08:17:51.000Z</time>
      </trkpt>
      <trkpt lat="48.40418" lon="2.41208">
        <ele>77</ele>
        <time>2024-04-07T08:17:57.000Z</time>
      </trkpt>
      <trkpt lat="48.40418" lon="2.41208">
        <ele>77.199996948242</ele>
        <time>2024-04-07T08:18:00.000Z</time>
      </trkpt>
      <trkpt lat="48.40419" lon="2.4121">
        <ele>77</ele>
        <time>2024-04-07T08:18:11.000Z</time>
      </trkpt>
      <trkpt lat="48.4042" lon="2.4121">
        <ele>77</ele>
        <time>2024-04-07T08:18:15.000Z</time>
      </trkpt>
      <trkpt lat="48.40422" lon="2.41209">
        <ele>77</ele>
        <time>2024-04-07T08:18:20.000Z</time>
      </trkpt>
      <trkpt lat="48.40422" lon="2.41209">
        <ele>77</ele>
        <time>2024-04-07T08:18:27.000Z</time>
      </trkpt>
      <trkpt lat="48.40422" lon="2.41209">
        <ele>77</ele>
        <time>2024-04-07T08:18:30.000Z</time>
      </trkpt>
      <trkpt lat="48.40422" lon="2.41208">
        <ele>77</ele>
        <time>2024-04-07T08:18:43.000Z</time>
      </trkpt>
      <trkpt lat="48.40422" lon="2.41208">
        <ele>77</ele>
        <time>2024-04-07T08:18:47.000Z</time>
      </trkpt>
      <trkpt lat="48.40422" lon="2.41207">
        <ele>77</ele>
        <time>2024-04-07T08:18:49.000Z</time>
      </trkpt>
      <trkpt lat="48.40422" lon="2.41206">
        <ele>77</ele>
        <time>2024-04-07T08:19:01.000Z</time>
      </trkpt>
      <trkpt lat="48.40422" lon="2.41206">
        <ele>77</ele>
        <time>2024-04-07T08:19:05.000Z</time>
      </trkpt>
      <trkpt lat="48.40423" lon="2.41205">
        <ele>76.800003051758</ele>
        <time>2024-04-07T08:19:24.000Z</time>
      </trkpt>
      <trkpt lat="48.40423" lon="2.41204">
        <ele>76.800003051758</ele>
        <time>2024-04-07T08:19:29.000Z</time>
      </trkpt>
      <trkpt lat="48.40422" lon="2.41204">
        <ele>76.800003051758</ele>
        <time>2024-04-07T08:19:33.000Z</time>
      </trkpt>
      <trkpt lat="48.40422" lon="2.41204">
        <ele>76.800003051758</ele>
        <time>2024-04-07T08:19:38.000Z</time>
      </trkpt>
      <trkpt lat="48.40421" lon="2.41212">
        <ele>76.599998474121</ele>
        <time>2024-04-07T08:19:43.000Z</time>
      </trkpt>
      <trkpt lat="48.40421" lon="2.41213">
        <ele>76.599998474121</ele>
        <time>2024-04-07T08:19:44.000Z</time>
      </trkpt>
      <trkpt lat="48.40421" lon="2.41221">
        <ele>76.400001525879</ele>
        <time>2024-04-07T08:19:52.000Z</time>
      </trkpt>
      <trkpt lat="48.40419" lon="2.41235">
        <ele>76.400001525879</ele>
        <time>2024-04-07T08:19:58.000Z</time>
      </trkpt>
      <trkpt lat="48.4042" lon="2.41244">
        <ele>76.400001525879</ele>
        <time>2024-04-07T08:20:01.000Z</time>
      </trkpt>
      <trkpt lat="48.40419" lon="2.41259">
        <ele>76.400001525879</ele>
        <time>2024-04-07T08:20:05.000Z</time>
      </trkpt>
      <trkpt lat="48.40416" lon="2.4127">
        <ele>76.400001525879</ele>
        <time>2024-04-07T08:20:08.000Z</time>
      </trkpt>
      <trkpt lat="48.40412" lon="2.41276">
        <ele>76.599998474121</ele>
        <time>2024-04-07T08:20:11.000Z</time>
      </trkpt>
      <trkpt lat="48.40408" lon="2.41279">
        <ele>76.599998474121</ele>
        <time>2024-04-07T08:20:13.000Z</time>
      </trkpt>
      <trkpt lat="48.40406" lon="2.41283">
        <ele>76.599998474121</ele>
        <time>2024-04-07T08:20:15.000Z</time>
      </trkpt>
      <trkpt lat="48.40404" lon="2.41289">
        <ele>76.800003051758</ele>
        <time>2024-04-07T08:20:18.000Z</time>
      </trkpt>
      <trkpt lat="48.40401" lon="2.41289">
        <ele>77.400001525879</ele>
        <time>2024-04-07T08:20:21.000Z</time>
      </trkpt>
      <trkpt lat="48.40399" lon="2.41287">
        <ele>77.800003051758</ele>
        <time>2024-04-07T08:20:22.000Z</time>
      </trkpt>
      <trkpt lat="48.40397" lon="2.41287">
        <ele>78</ele>
        <time>2024-04-07T08:20:23.000Z</time>
      </trkpt>
      <trkpt lat="48.40394" lon="2.41287">
        <ele>78.199996948242</ele>
        <time>2024-04-07T08:20:24.000Z</time>
      </trkpt>
      <trkpt lat="48.40389" lon="2.41288">
        <ele>78.800003051758</ele>
        <time>2024-04-07T08:20:26.000Z</time>
      </trkpt>
      <trkpt lat="48.40387" lon="2.41289">
        <ele>79</ele>
        <time>2024-04-07T08:20:27.000Z</time>
      </trkpt>
      <trkpt lat="48.40383" lon="2.41289">
        <ele>79.400001525879</ele>
        <time>2024-04-07T08:20:29.000Z</time>
      </trkpt>
      <trkpt lat="48.40378" lon="2.41292">
        <ele>79.599998474121</ele>
        <time>2024-04-07T08:20:32.000Z</time>
      </trkpt>
      <trkpt lat="48.40377" lon="2.41295">
        <ele>80.199996948242</ele>
        <time>2024-04-07T08:20:34.000Z</time>
      </trkpt>
      <trkpt lat="48.40377" lon="2.41299">
        <ele>81.199996948242</ele>
        <time>2024-04-07T08:20:36.000Z</time>
      </trkpt>
      <trkpt lat="48.40378" lon="2.41307">
        <ele>81.800003051758</ele>
        <time>2024-04-07T08:20:39.000Z</time>
      </trkpt>
      <trkpt lat="48.40383" lon="2.41313">
        <ele>81.800003051758</ele>
        <time>2024-04-07T08:20:41.000Z</time>
      </trkpt>
      <trkpt lat="48.40385" lon="2.41316">
        <ele>81.800003051758</ele>
        <time>2024-04-07T08:20:42.000Z</time>
      </trkpt>
      <trkpt lat="48.40391" lon="2.41332">
        <ele>81.800003051758</ele>
        <time>2024-04-07T08:20:46.000Z</time>
      </trkpt>
      <trkpt lat="48.40405" lon="2.41346">
        <ele>80.800003051758</ele>
        <time>2024-04-07T08:20:50.000Z</time>
      </trkpt>
      <trkpt lat="48.40414" lon="2.41355">
        <ele>80.199996948242</ele>
        <time>2024-04-07T08:20:52.000Z</time>
      </trkpt>
      <trkpt lat="48.40417" lon="2.41357">
        <ele>80</ele>
        <time>2024-04-07T08:20:53.000Z</time>
      </trkpt>
      <trkpt lat="48.4042" lon="2.41356">
        <ele>79.599998474121</ele>
        <time>2024-04-07T08:20:54.000Z</time>
      </trkpt>
      <trkpt lat="48.40423" lon="2.4135">
        <ele>79.199996948242</ele>
        <time>2024-04-07T08:20:56.000Z</time>
      </trkpt>
      <trkpt lat="48.40428" lon="2.41347">
        <ele>78</ele>
        <time>2024-04-07T08:20:58.000Z</time>
      </trkpt>
      <trkpt lat="48.40432" lon="2.41353">
        <ele>76.599998474121</ele>
        <time>2024-04-07T08:21:01.000Z</time>
      </trkpt>
      <trkpt lat="48.40431" lon="2.41359">
        <ele>76.199996948242</ele>
        <time>2024-04-07T08:21:04.000Z</time>
      </trkpt>
      <trkpt lat="48.40431" lon="2.41359">
        <ele>75.800003051758</ele>
        <time>2024-04-07T08:21:06.000Z</time>
      </trkpt>
      <trkpt lat="48.40433" lon="2.4136">
        <ele>75.400001525879</ele>
        <time>2024-04-07T08:21:08.000Z</time>
      </trkpt>
      <trkpt lat="48.40435" lon="2.41361">
        <ele>75.199996948242</ele>
        <time>2024-04-07T08:21:11.000Z</time>
      </trkpt>
      <trkpt lat="48.40434" lon="2.41361">
        <ele>75</ele>
        <time>2024-04-07T08:21:15.000Z</time>
      </trkpt>
      <trkpt lat="48.40434" lon="2.41361">
        <ele>75</ele>
        <time>2024-04-07T08:21:19.000Z</time>
      </trkpt>
      <trkpt lat="48.40434" lon="2.41361">
        <ele>75</ele>
        <time>2024-04-07T08:21:22.000Z</time>
      </trkpt>
      <trkpt lat="48.40434" lon="2.41361">
        <ele>75</ele>
        <time>2024-04-07T08:21:24.000Z</time>
      </trkpt>
      <trkpt lat="48.40434" lon="2.41361">
        <ele>75</ele>
        <time>2024-04-07T08:21:26.000Z</time>
      </trkpt>
      <trkpt lat="48.40434" lon="2.41361">
        <ele>75</ele>
        <time>2024-04-07T08:21:27.000Z</time>
      </trkpt>
      <trkpt lat="48.40434" lon="2.41361">
        <ele>75</ele>
        <time>2024-04-07T08:21:29.000Z</time>
      </trkpt>
      <trkpt lat="48.40434" lon="2.41361">
        <ele>75</ele>
        <time>2024-04-07T08:21:32.000Z</time>
      </trkpt>
      <trkpt lat="48.40434" lon="2.41361">
        <ele>75</ele>
        <time>2024-04-07T08:21:35.000Z</time>
      </trkpt>
      <trkpt lat="48.40434" lon="2.41361">
        <ele>75</ele>
        <time>2024-04-07T08:21:38.000Z</time>
      </trkpt>
      <trkpt lat="48.40434" lon="2.41361">
        <ele>75</ele>
        <time>2024-04-07T08:21:39.000Z</time>
      </trkpt>
      <trkpt lat="48.40435" lon="2.41361">
        <ele>75</ele>
        <time>2024-04-07T08:21:51.000Z</time>
      </trkpt>
      <trkpt lat="48.40436" lon="2.41361">
        <ele>74.800003051758</ele>
        <time>2024-04-07T08:21:58.000Z</time>
      </trkpt>
      <trkpt lat="48.40436" lon="2.41361">
        <ele>74.800003051758</ele>
        <time>2024-04-07T08:21:59.000Z</time>
      </trkpt>
      <trkpt lat="48.40436" lon="2.41361">
        <ele>75.199996948242</ele>
        <time>2024-04-07T08:22:06.000Z</time>
      </trkpt>
      <trkpt lat="48.40436" lon="2.4136">
        <ele>75.199996948242</ele>
        <time>2024-04-07T08:22:09.000Z</time>
      </trkpt>
      <trkpt lat="48.40435" lon="2.4136">
        <ele>75.199996948242</ele>
        <time>2024-04-07T08:22:16.000Z</time>
      </trkpt>
      <trkpt lat="48.40435" lon="2.4136">
        <ele>75.199996948242</ele>
        <time>2024-04-07T08:22:29.000Z</time>
      </trkpt>
      <trkpt lat="48.40436" lon="2.41361">
        <ele>75.199996948242</ele>
        <time>2024-04-07T08:22:34.000Z</time>
      </trkpt>
      <trkpt lat="48.40436" lon="2.41361">
        <ele>75.199996948242</ele>
        <time>2024-04-07T08:22:37.000Z</time>
      </trkpt>
      <trkpt lat="48.40436" lon="2.41361">
        <ele>75.199996948242</ele>
        <time>2024-04-07T08:22:38.000Z</time>
      </trkpt>
      <trkpt lat="48.40436" lon="2.41361">
        <ele>75.199996948242</ele>
        <time>2024-04-07T08:22:39.000Z</time>
      </trkpt>
      <trkpt lat="48.40436" lon="2.41361">
        <ele>75.199996948242</ele>
        <time>2024-04-07T08:22:40.000Z</time>
      </trkpt>
      <trkpt lat="48.40436" lon="2.41366">
        <ele>75.199996948242</ele>
        <time>2024-04-07T08:22:51.000Z</time>
      </trkpt>
      <trkpt lat="48.40437" lon="2.41372">
        <ele>75.199996948242</ele>
        <time>2024-04-07T08:22:53.000Z</time>
      </trkpt>
      <trkpt lat="48.40435" lon="2.4138">
        <ele>75.199996948242</ele>
        <time>2024-04-07T08:22:56.000Z</time>
      </trkpt>
      <trkpt lat="48.40433" lon="2.41403">
        <ele>75.199996948242</ele>
        <time>2024-04-07T08:23:02.000Z</time>
      </trkpt>
      <trkpt lat="48.40432" lon="2.41415">
        <ele>75.199996948242</ele>
        <time>2024-04-07T08:23:05.000Z</time>
      </trkpt>
      <trkpt lat="48.40432" lon="2.41424">
        <ele>75</ele>
        <time>2024-04-07T08:23:07.000Z</time>
      </trkpt>
      <trkpt lat="48.40431" lon="2.41437">
        <ele>75.599998474121</ele>
        <time>2024-04-07T08:23:10.000Z</time>
      </trkpt>
      <trkpt lat="48.4043" lon="2.41452">
        <ele>76</ele>
        <time>2024-04-07T08:23:13.000Z</time>
      </trkpt>
      <trkpt lat="48.40428" lon="2.41462">
        <ele>76.400001525879</ele>
        <time>2024-04-07T08:23:15.000Z</time>
      </trkpt>
      <trkpt lat="48.40425" lon="2.41476">
        <ele>77</ele>
        <time>2024-04-07T08:23:18.000Z</time>
      </trkpt>
      <trkpt lat="48.40424" lon="2.4148">
        <ele>77.199996948242</ele>
        <time>2024-04-07T08:23:19.000Z</time>
      </trkpt>
      <trkpt lat="48.40424" lon="2.41484">
        <ele>77.400001525879</ele>
        <time>2024-04-07T08:23:20.000Z</time>
      </trkpt>
      <trkpt lat="48.40422" lon="2.41492">
        <ele>77.800003051758</ele>
        <time>2024-04-07T08:23:22.000Z</time>
      </trkpt>
      <trkpt lat="48.40419" lon="2.41502">
        <ele>78</ele>
        <time>2024-04-07T08:23:24.000Z</time>
      </trkpt>
      <trkpt lat="48.40417" lon="2.41507">
        <ele>78.400001525879</ele>
        <time>2024-04-07T08:23:25.000Z</time>
      </trkpt>
      <trkpt lat="48.40415" lon="2.4152">
        <ele>79.599998474121</ele>
        <time>2024-04-07T08:23:28.000Z</time>
      </trkpt>
      <trkpt lat="48.40414" lon="2.41523">
        <ele>79.800003051758</ele>
        <time>2024-04-07T08:23:29.000Z</time>
      </trkpt>
      <trkpt lat="48.40412" lon="2.4153">
        <ele>80.800003051758</ele>
        <time>2024-04-07T08:23:32.000Z</time>
      </trkpt>
      <trkpt lat="48.40411" lon="2.41536">
        <ele>81.400001525879</ele>
        <time>2024-04-07T08:23:34.000Z</time>
      </trkpt>
      <trkpt lat="48.40412" lon="2.41543">
        <ele>82</ele>
        <time>2024-04-07T08:23:36.000Z</time>
      </trkpt>
      <trkpt lat="48.40411" lon="2.41562">
        <ele>83.199996948242</ele>
        <time>2024-04-07T08:23:41.000Z</time>
      </trkpt>
      <trkpt lat="48.4041" lon="2.41565">
        <ele>83.599998474121</ele>
        <time>2024-04-07T08:23:42.000Z</time>
      </trkpt>
      <trkpt lat="48.40409" lon="2.41576">
        <ele>84.199996948242</ele>
        <time>2024-04-07T08:23:45.000Z</time>
      </trkpt>
      <trkpt lat="48.40412" lon="2.4158">
        <ele>84.800003051758</ele>
        <time>2024-04-07T08:23:47.000Z</time>
      </trkpt>
      <trkpt lat="48.40412" lon="2.41588">
        <ele>85.400001525879</ele>
        <time>2024-04-07T08:23:50.000Z</time>
      </trkpt>
      <trkpt lat="48.40411" lon="2.4159">
        <ele>85.599998474121</ele>
        <time>2024-04-07T08:23:51.000Z</time>
      </trkpt>
      <trkpt lat="48.40409" lon="2.41597">
        <ele>86.400001525879</ele>
        <time>2024-04-07T08:23:54.000Z</time>
      </trkpt>
      <trkpt lat="48.40407" lon="2.41608">
        <ele>87</ele>
        <time>2024-04-07T08:23:57.000Z</time>
      </trkpt>
      <trkpt lat="48.40407" lon="2.41615">
        <ele>87</ele>
        <time>2024-04-07T08:23:59.000Z</time>
      </trkpt>
      <trkpt lat="48.40405" lon="2.41622">
        <ele>88</ele>
        <time>2024-04-07T08:24:01.000Z</time>
      </trkpt>
      <trkpt lat="48.40403" lon="2.41631">
        <ele>88.599998474121</ele>
        <time>2024-04-07T08:24:04.000Z</time>
      </trkpt>
      <trkpt lat="48.40402" lon="2.41638">
        <ele>89.199996948242</ele>
        <time>2024-04-07T08:24:06.000Z</time>
      </trkpt>
      <trkpt lat="48.40401" lon="2.41652">
        <ele>90</ele>
        <time>2024-04-07T08:24:10.000Z</time>
      </trkpt>
      <trkpt lat="48.404" lon="2.41656">
        <ele>90.199996948242</ele>
        <time>2024-04-07T08:24:11.000Z</time>
      </trkpt>
      <trkpt lat="48.40399" lon="2.41666">
        <ele>91.400001525879</ele>
        <time>2024-04-07T08:24:14.000Z</time>
      </trkpt>
      <trkpt lat="48.40399" lon="2.41676">
        <ele>92.599998474121</ele>
        <time>2024-04-07T08:24:17.000Z</time>
      </trkpt>
      <trkpt lat="48.40399" lon="2.41679">
        <ele>93</ele>
        <time>2024-04-07T08:24:18.000Z</time>
      </trkpt>
      <trkpt lat="48.40399" lon="2.41688">
        <ele>93.800003051758</ele>
        <time>2024-04-07T08:24:21.000Z</time>
      </trkpt>
      <trkpt lat="48.40396" lon="2.41695">
        <ele>94.599998474121</ele>
        <time>2024-04-07T08:24:24.000Z</time>
      </trkpt>
      <trkpt lat="48.40395" lon="2.41697">
        <ele>94.800003051758</ele>
        <time>2024-04-07T08:24:25.000Z</time>
      </trkpt>
      <trkpt lat="48.40395" lon="2.41706">
        <ele>96</ele>
        <time>2024-04-07T08:24:28.000Z</time>
      </trkpt>
      <trkpt lat="48.40393" lon="2.41712">
        <ele>97</ele>
        <time>2024-04-07T08:24:30.000Z</time>
      </trkpt>
      <trkpt lat="48.40394" lon="2.4172">
        <ele>98.199996948242</ele>
        <time>2024-04-07T08:24:33.000Z</time>
      </trkpt>
      <trkpt lat="48.40393" lon="2.41724">
        <ele>98.800003051758</ele>
        <time>2024-04-07T08:24:35.000Z</time>
      </trkpt>
      <trkpt lat="48.40392" lon="2.41726">
        <ele>99</ele>
        <time>2024-04-07T08:24:36.000Z</time>
      </trkpt>
      <trkpt lat="48.40391" lon="2.41728">
        <ele>99.400001525879</ele>
        <time>2024-04-07T08:24:37.000Z</time>
      </trkpt>
      <trkpt lat="48.40388" lon="2.41735">
        <ele>100.59999847412</ele>
        <time>2024-04-07T08:24:41.000Z</time>
      </trkpt>
      <trkpt lat="48.40388" lon="2.41737">
        <ele>101</ele>
        <time>2024-04-07T08:24:42.000Z</time>
      </trkpt>
      <trkpt lat="48.40387" lon="2.41741">
        <ele>101.40000152588</ele>
        <time>2024-04-07T08:24:44.000Z</time>
      </trkpt>
      <trkpt lat="48.40386" lon="2.41744">
        <ele>101.80000305176</ele>
        <time>2024-04-07T08:24:45.000Z</time>
      </trkpt>
      <trkpt lat="48.40385" lon="2.41749">
        <ele>103.19999694824</ele>
        <time>2024-04-07T08:24:48.000Z</time>
      </trkpt>
      <trkpt lat="48.40383" lon="2.41753">
        <ele>104.19999694824</ele>
        <time>2024-04-07T08:24:51.000Z</time>
      </trkpt>
      <trkpt lat="48.40383" lon="2.41755">
        <ele>104.59999847412</ele>
        <time>2024-04-07T08:24:52.000Z</time>
      </trkpt>
      <trkpt lat="48.40383" lon="2.41764">
        <ele>105.19999694824</ele>
        <time>2024-04-07T08:24:57.000Z</time>
      </trkpt>
      <trkpt lat="48.40383" lon="2.41768">
        <ele>105.59999847412</ele>
        <time>2024-04-07T08:24:59.000Z</time>
      </trkpt>
      <trkpt lat="48.40382" lon="2.41771">
        <ele>106.40000152588</ele>
        <time>2024-04-07T08:25:01.000Z</time>
      </trkpt>
      <trkpt lat="48.40381" lon="2.41778">
        <ele>107.59999847412</ele>
        <time>2024-04-07T08:25:05.000Z</time>
      </trkpt>
      <trkpt lat="48.40379" lon="2.41787">
        <ele>108.80000305176</ele>
        <time>2024-04-07T08:25:09.000Z</time>
      </trkpt>
      <trkpt lat="48.4038" lon="2.4179">
        <ele>109.19999694824</ele>
        <time>2024-04-07T08:25:10.000Z</time>
      </trkpt>
      <trkpt lat="48.40378" lon="2.41798">
        <ele>110.19999694824</ele>
        <time>2024-04-07T08:25:13.000Z</time>
      </trkpt>
      <trkpt lat="48.40378" lon="2.41801">
        <ele>110.40000152588</ele>
        <time>2024-04-07T08:25:14.000Z</time>
      </trkpt>
      <trkpt lat="48.40377" lon="2.41803">
        <ele>110.80000305176</ele>
        <time>2024-04-07T08:25:15.000Z</time>
      </trkpt>
      <trkpt lat="48.40376" lon="2.41807">
        <ele>111.40000152588</ele>
        <time>2024-04-07T08:25:17.000Z</time>
      </trkpt>
      <trkpt lat="48.40376" lon="2.41808">
        <ele>111.80000305176</ele>
        <time>2024-04-07T08:25:18.000Z</time>
      </trkpt>
      <trkpt lat="48.40377" lon="2.41812">
        <ele>112.59999847412</ele>
        <time>2024-04-07T08:25:20.000Z</time>
      </trkpt>
      <trkpt lat="48.40378" lon="2.41815">
        <ele>113.59999847412</ele>
        <time>2024-04-07T08:25:22.000Z</time>
      </trkpt>
      <trkpt lat="48.40378" lon="2.41816">
        <ele>114.19999694824</ele>
        <time>2024-04-07T08:25:23.000Z</time>
      </trkpt>
      <trkpt lat="48.40377" lon="2.41817">
        <ele>115.40000152588</ele>
        <time>2024-04-07T08:25:25.000Z</time>
      </trkpt>
      <trkpt lat="48.40378" lon="2.41817">
        <ele>116.80000305176</ele>
        <time>2024-04-07T08:25:28.000Z</time>
      </trkpt>
      <trkpt lat="48.40377" lon="2.41818">
        <ele>118</ele>
        <time>2024-04-07T08:25:30.000Z</time>
      </trkpt>
      <trkpt lat="48.40378" lon="2.41818">
        <ele>118.80000305176</ele>
        <time>2024-04-07T08:25:41.000Z</time>
      </trkpt>
      <trkpt lat="48.40379" lon="2.41819">
        <ele>118.80000305176</ele>
        <time>2024-04-07T08:25:47.000Z</time>
      </trkpt>
      <trkpt lat="48.40379" lon="2.41819">
        <ele>118.80000305176</ele>
        <time>2024-04-07T08:25:51.000Z</time>
      </trkpt>
      <trkpt lat="48.40378" lon="2.41821">
        <ele>118.80000305176</ele>
        <time>2024-04-07T08:25:54.000Z</time>
      </trkpt>
      <trkpt lat="48.40377" lon="2.41824">
        <ele>118.80000305176</ele>
        <time>2024-04-07T08:25:57.000Z</time>
      </trkpt>
      <trkpt lat="48.40377" lon="2.41827">
        <ele>118.80000305176</ele>
        <time>2024-04-07T08:26:01.000Z</time>
      </trkpt>
      <trkpt lat="48.40375" lon="2.41832">
        <ele>119.40000152588</ele>
        <time>2024-04-07T08:26:05.000Z</time>
      </trkpt>
      <trkpt lat="48.40374" lon="2.41835">
        <ele>119.80000305176</ele>
        <time>2024-04-07T08:26:07.000Z</time>
      </trkpt>
      <trkpt lat="48.40373" lon="2.41838">
        <ele>120.40000152588</ele>
        <time>2024-04-07T08:26:09.000Z</time>
      </trkpt>
      <trkpt lat="48.40372" lon="2.41842">
        <ele>121.59999847412</ele>
        <time>2024-04-07T08:26:14.000Z</time>
      </trkpt>
      <trkpt lat="48.40372" lon="2.41843">
        <ele>123</ele>
        <time>2024-04-07T08:26:18.000Z</time>
      </trkpt>
      <trkpt lat="48.40372" lon="2.41844">
        <ele>123.19999694824</ele>
        <time>2024-04-07T08:26:19.000Z</time>
      </trkpt>
      <trkpt lat="48.40369" lon="2.4185">
        <ele>123.80000305176</ele>
        <time>2024-04-07T08:26:32.000Z</time>
      </trkpt>
      <trkpt lat="48.40369" lon="2.41852">
        <ele>123.80000305176</ele>
        <time>2024-04-07T08:26:35.000Z</time>
      </trkpt>
      <trkpt lat="48.40368" lon="2.41853">
        <ele>124</ele>
        <time>2024-04-07T08:26:36.000Z</time>
      </trkpt>
      <trkpt lat="48.40367" lon="2.41855">
        <ele>124.19999694824</ele>
        <time>2024-04-07T08:26:39.000Z</time>
      </trkpt>
      <trkpt lat="48.40367" lon="2.41856">
        <ele>124.19999694824</ele>
        <time>2024-04-07T08:26:41.000Z</time>
      </trkpt>
      <trkpt lat="48.40367" lon="2.41856">
        <ele>124.19999694824</ele>
        <time>2024-04-07T08:26:42.000Z</time>
      </trkpt>
      <trkpt lat="48.40367" lon="2.41856">
        <ele>124.19999694824</ele>
        <time>2024-04-07T08:26:44.000Z</time>
      </trkpt>
      <trkpt lat="48.40367" lon="2.41857">
        <ele>124.59999847412</ele>
        <time>2024-04-07T08:26:49.000Z</time>
      </trkpt>
      <trkpt lat="48.40367" lon="2.41857">
        <ele>124.80000305176</ele>
        <time>2024-04-07T08:26:53.000Z</time>
      </trkpt>
      <trkpt lat="48.40365" lon="2.41861">
        <ele>124.80000305176</ele>
        <time>2024-04-07T08:27:06.000Z</time>
      </trkpt>
      <trkpt lat="48.40364" lon="2.41865">
        <ele>124.80000305176</ele>
        <time>2024-04-07T08:27:09.000Z</time>
      </trkpt>
      <trkpt lat="48.4036" lon="2.41873">
        <ele>124.80000305176</ele>
        <time>2024-04-07T08:27:13.000Z</time>
      </trkpt>
      <trkpt lat="48.40359" lon="2.41874">
        <ele>124.80000305176</ele>
        <time>2024-04-07T08:27:14.000Z</time>
      </trkpt>
      <trkpt lat="48.40355" lon="2.41879">
        <ele>125</ele>
        <time>2024-04-07T08:27:18.000Z</time>
      </trkpt>
      <trkpt lat="48.40353" lon="2.41883">
        <ele>125.40000152588</ele>
        <time>2024-04-07T08:27:20.000Z</time>
      </trkpt>
      <trkpt lat="48.40349" lon="2.4189">
        <ele>125.59999847412</ele>
        <time>2024-04-07T08:27:23.000Z</time>
      </trkpt>
      <trkpt lat="48.40346" lon="2.41892">
        <ele>125.80000305176</ele>
        <time>2024-04-07T08:27:24.000Z</time>
      </trkpt>
      <trkpt lat="48.40342" lon="2.41905">
        <ele>126.19999694824</ele>
        <time>2024-04-07T08:27:29.000Z</time>
      </trkpt>
      <trkpt lat="48.40348" lon="2.41916">
        <ele>126.19999694824</ele>
        <time>2024-04-07T08:27:34.000Z</time>
      </trkpt>
      <trkpt lat="48.40352" lon="2.41922">
        <ele>126.40000152588</ele>
        <time>2024-04-07T08:27:36.000Z</time>
      </trkpt>
      <trkpt lat="48.40361" lon="2.41937">
        <ele>126.40000152588</ele>
        <time>2024-04-07T08:27:41.000Z</time>
      </trkpt>
      <trkpt lat="48.40373" lon="2.41953">
        <ele>126.40000152588</ele>
        <time>2024-04-07T08:27:46.000Z</time>
      </trkpt>
      <trkpt lat="48.40383" lon="2.41968">
        <ele>126.40000152588</ele>
        <time>2024-04-07T08:27:50.000Z</time>
      </trkpt>
      <trkpt lat="48.40388" lon="2.41976">
        <ele>126.40000152588</ele>
        <time>2024-04-07T08:27:52.000Z</time>
      </trkpt>
      <trkpt lat="48.40402" lon="2.41992">
        <ele>127</ele>
        <time>2024-04-07T08:27:57.000Z</time>
      </trkpt>
      <trkpt lat="48.40423" lon="2.41999">
        <ele>127.19999694824</ele>
        <time>2024-04-07T08:28:02.000Z</time>
      </trkpt>
      <trkpt lat="48.40432" lon="2.42002">
        <ele>127.19999694824</ele>
        <time>2024-04-07T08:28:04.000Z</time>
      </trkpt>
      <trkpt lat="48.40444" lon="2.42008">
        <ele>127.19999694824</ele>
        <time>2024-04-07T08:28:07.000Z</time>
      </trkpt>
      <trkpt lat="48.40461" lon="2.42016">
        <ele>127</ele>
        <time>2024-04-07T08:28:11.000Z</time>
      </trkpt>
      <trkpt lat="48.40471" lon="2.42014">
        <ele>126.59999847412</ele>
        <time>2024-04-07T08:28:13.000Z</time>
      </trkpt>
      <trkpt lat="48.4048" lon="2.42009">
        <ele>126.40000152588</ele>
        <time>2024-04-07T08:28:15.000Z</time>
      </trkpt>
      <trkpt lat="48.40491" lon="2.42005">
        <ele>126.19999694824</ele>
        <time>2024-04-07T08:28:17.000Z</time>
      </trkpt>
      <trkpt lat="48.40496" lon="2.42006">
        <ele>126</ele>
        <time>2024-04-07T08:28:18.000Z</time>
      </trkpt>
      <trkpt lat="48.40508" lon="2.42018">
        <ele>125.80000305176</ele>
        <time>2024-04-07T08:28:21.000Z</time>
      </trkpt>
      <trkpt lat="48.40513" lon="2.42037">
        <ele>125.40000152588</ele>
        <time>2024-04-07T08:28:24.000Z</time>
      </trkpt>
      <trkpt lat="48.40515" lon="2.42044">
        <ele>125.40000152588</ele>
        <time>2024-04-07T08:28:25.000Z</time>
      </trkpt>
      <trkpt lat="48.40521" lon="2.42067">
        <ele>125.19999694824</ele>
        <time>2024-04-07T08:28:28.000Z</time>
      </trkpt>
      <trkpt lat="48.40523" lon="2.42074">
        <ele>125.19999694824</ele>
        <time>2024-04-07T08:28:29.000Z</time>
      </trkpt>
      <trkpt lat="48.40523" lon="2.42082">
        <ele>125.19999694824</ele>
        <time>2024-04-07T08:28:30.000Z</time>
      </trkpt>
      <trkpt lat="48.40524" lon="2.4211">
        <ele>125</ele>
        <time>2024-04-07T08:28:34.000Z</time>
      </trkpt>
      <trkpt lat="48.40525" lon="2.42124">
        <ele>125</ele>
        <time>2024-04-07T08:28:36.000Z</time>
      </trkpt>
      <trkpt lat="48.40525" lon="2.42163">
        <ele>124.80000305176</ele>
        <time>2024-04-07T08:28:41.000Z</time>
      </trkpt>
      <trkpt lat="48.40528" lon="2.42173">
        <ele>124.80000305176</ele>
        <time>2024-04-07T08:28:43.000Z</time>
      </trkpt>
      <trkpt lat="48.40531" lon="2.4218">
        <ele>124.80000305176</ele>
        <time>2024-04-07T08:28:45.000Z</time>
      </trkpt>
      <trkpt lat="48.40539" lon="2.42194">
        <ele>125</ele>
        <time>2024-04-07T08:28:49.000Z</time>
      </trkpt>
      <trkpt lat="48.4055" lon="2.42216">
        <ele>125</ele>
        <time>2024-04-07T08:28:53.000Z</time>
      </trkpt>
      <trkpt lat="48.40553" lon="2.42222">
        <ele>125</ele>
        <time>2024-04-07T08:28:54.000Z</time>
      </trkpt>
      <trkpt lat="48.40566" lon="2.42244">
        <ele>125</ele>
        <time>2024-04-07T08:28:58.000Z</time>
      </trkpt>
      <trkpt lat="48.40571" lon="2.42255">
        <ele>124.80000305176</ele>
        <time>2024-04-07T08:29:00.000Z</time>
      </trkpt>
      <trkpt lat="48.40576" lon="2.42266">
        <ele>124.80000305176</ele>
        <time>2024-04-07T08:29:03.000Z</time>
      </trkpt>
      <trkpt lat="48.40577" lon="2.42267">
        <ele>124.80000305176</ele>
        <time>2024-04-07T08:29:04.000Z</time>
      </trkpt>
      <trkpt lat="48.40578" lon="2.42269">
        <ele>125</ele>
        <time>2024-04-07T08:29:10.000Z</time>
      </trkpt>
      <trkpt lat="48.40578" lon="2.42269">
        <ele>125.19999694824</ele>
        <time>2024-04-07T08:29:12.000Z</time>
      </trkpt>
      <trkpt lat="48.40578" lon="2.42269">
        <ele>125.59999847412</ele>
        <time>2024-04-07T08:29:19.000Z</time>
      </trkpt>
      <trkpt lat="48.40578" lon="2.42268">
        <ele>125.59999847412</ele>
        <time>2024-04-07T08:29:21.000Z</time>
      </trkpt>
      <trkpt lat="48.40578" lon="2.42268">
        <ele>125.59999847412</ele>
        <time>2024-04-07T08:29:25.000Z</time>
      </trkpt>
      <trkpt lat="48.40577" lon="2.42268">
        <ele>125.59999847412</ele>
        <time>2024-04-07T08:29:27.000Z</time>
      </trkpt>
      <trkpt lat="48.40576" lon="2.42264">
        <ele>125.59999847412</ele>
        <time>2024-04-07T08:29:32.000Z</time>
      </trkpt>
      <trkpt lat="48.40575" lon="2.42262">
        <ele>125.59999847412</ele>
        <time>2024-04-07T08:29:33.000Z</time>
      </trkpt>
      <trkpt lat="48.40567" lon="2.42243">
        <ele>125.59999847412</ele>
        <time>2024-04-07T08:29:39.000Z</time>
      </trkpt>
      <trkpt lat="48.40562" lon="2.42234">
        <ele>125.59999847412</ele>
        <time>2024-04-07T08:29:44.000Z</time>
      </trkpt>
      <trkpt lat="48.40561" lon="2.42233">
        <ele>125.59999847412</ele>
        <time>2024-04-07T08:29:46.000Z</time>
      </trkpt>
      <trkpt lat="48.40561" lon="2.42233">
        <ele>125.80000305176</ele>
        <time>2024-04-07T08:29:57.000Z</time>
      </trkpt>
      <trkpt lat="48.40561" lon="2.42233">
        <ele>125.80000305176</ele>
        <time>2024-04-07T08:30:01.000Z</time>
      </trkpt>
      <trkpt lat="48.40561" lon="2.42233">
        <ele>125.80000305176</ele>
        <time>2024-04-07T08:30:04.000Z</time>
      </trkpt>
      <trkpt lat="48.40561" lon="2.42234">
        <ele>125.80000305176</ele>
        <time>2024-04-07T08:30:20.000Z</time>
      </trkpt>
      <trkpt lat="48.40561" lon="2.42234">
        <ele>125.59999847412</ele>
        <time>2024-04-07T08:30:39.000Z</time>
      </trkpt>
      <trkpt lat="48.40561" lon="2.42235">
        <ele>125.59999847412</ele>
        <time>2024-04-07T08:30:59.000Z</time>
      </trkpt>
      <trkpt lat="48.40561" lon="2.42235">
        <ele>125.59999847412</ele>
        <time>2024-04-07T08:31:04.000Z</time>
      </trkpt>
      <trkpt lat="48.40562" lon="2.42234">
        <ele>125.80000305176</ele>
        <time>2024-04-07T08:31:16.000Z</time>
      </trkpt>
      <trkpt lat="48.40562" lon="2.42233">
        <ele>125.80000305176</ele>
        <time>2024-04-07T08:31:21.000Z</time>
      </trkpt>
      <trkpt lat="48.40562" lon="2.42233">
        <ele>126</ele>
        <time>2024-04-07T08:31:33.000Z</time>
      </trkpt>
      <trkpt lat="48.40561" lon="2.42233">
        <ele>125.80000305176</ele>
        <time>2024-04-07T08:31:41.000Z</time>
      </trkpt>
      <trkpt lat="48.40561" lon="2.42233">
        <ele>125.80000305176</ele>
        <time>2024-04-07T08:31:46.000Z</time>
      </trkpt>
      <trkpt lat="48.4056" lon="2.42233">
        <ele>125.80000305176</ele>
        <time>2024-04-07T08:31:49.000Z</time>
      </trkpt>
      <trkpt lat="48.4056" lon="2.42233">
        <ele>125.80000305176</ele>
        <time>2024-04-07T08:31:51.000Z</time>
      </trkpt>
      <trkpt lat="48.40561" lon="2.42233">
        <ele>125.80000305176</ele>
        <time>2024-04-07T08:32:06.000Z</time>
      </trkpt>
      <trkpt lat="48.40561" lon="2.42233">
        <ele>125.80000305176</ele>
        <time>2024-04-07T08:32:08.000Z</time>
      </trkpt>
      <trkpt lat="48.40561" lon="2.42234">
        <ele>125.59999847412</ele>
        <time>2024-04-07T08:32:21.000Z</time>
      </trkpt>
      <trkpt lat="48.40561" lon="2.42234">
        <ele>125.40000152588</ele>
        <time>2024-04-07T08:32:27.000Z</time>
      </trkpt>
      <trkpt lat="48.4056" lon="2.42234">
        <ele>125.40000152588</ele>
        <time>2024-04-07T08:32:42.000Z</time>
      </trkpt>
      <trkpt lat="48.4056" lon="2.42234">
        <ele>125.40000152588</ele>
        <time>2024-04-07T08:32:46.000Z</time>
      </trkpt>
      <trkpt lat="48.4056" lon="2.42234">
        <ele>125.40000152588</ele>
        <time>2024-04-07T08:32:49.000Z</time>
      </trkpt>
      <trkpt lat="48.4056" lon="2.42234">
        <ele>125.40000152588</ele>
        <time>2024-04-07T08:33:09.000Z</time>
      </trkpt>
      <trkpt lat="48.4056" lon="2.42234">
        <ele>125.59999847412</ele>
        <time>2024-04-07T08:33:16.000Z</time>
      </trkpt>
      <trkpt lat="48.4056" lon="2.42233">
        <ele>125.40000152588</ele>
        <time>2024-04-07T08:33:43.000Z</time>
      </trkpt>
      <trkpt lat="48.4056" lon="2.42233">
        <ele>125.40000152588</ele>
        <time>2024-04-07T08:33:45.000Z</time>
      </trkpt>
      <trkpt lat="48.4056" lon="2.42233">
        <ele>125.40000152588</ele>
        <time>2024-04-07T08:33:47.000Z</time>
      </trkpt>
      <trkpt lat="48.4056" lon="2.42233">
        <ele>125.19999694824</ele>
        <time>2024-04-07T08:34:00.000Z</time>
      </trkpt>
      <trkpt lat="48.4056" lon="2.42234">
        <ele>125.19999694824</ele>
        <time>2024-04-07T08:34:03.000Z</time>
      </trkpt>
      <trkpt lat="48.4056" lon="2.42234">
        <ele>125.19999694824</ele>
        <time>2024-04-07T08:34:06.000Z</time>
      </trkpt>
      <trkpt lat="48.4056" lon="2.42235">
        <ele>125.19999694824</ele>
        <time>2024-04-07T08:34:12.000Z</time>
      </trkpt>
      <trkpt lat="48.4056" lon="2.42235">
        <ele>125.19999694824</ele>
        <time>2024-04-07T08:34:17.000Z</time>
      </trkpt>
      <trkpt lat="48.40561" lon="2.42237">
        <ele>125.19999694824</ele>
        <time>2024-04-07T08:34:20.000Z</time>
      </trkpt>
      <trkpt lat="48.40561" lon="2.42239">
        <ele>125.19999694824</ele>
        <time>2024-04-07T08:34:22.000Z</time>
      </trkpt>
      <trkpt lat="48.40562" lon="2.42241">
        <ele>125.19999694824</ele>
        <time>2024-04-07T08:34:23.000Z</time>
      </trkpt>
      <trkpt lat="48.40569" lon="2.42258">
        <ele>125</ele>
        <time>2024-04-07T08:34:28.000Z</time>
      </trkpt>
      <trkpt lat="48.40576" lon="2.42273">
        <ele>125</ele>
        <time>2024-04-07T08:34:31.000Z</time>
      </trkpt>
      <trkpt lat="48.4058" lon="2.42277">
        <ele>125</ele>
        <time>2024-04-07T08:34:32.000Z</time>
      </trkpt>
      <trkpt lat="48.40584" lon="2.4228">
        <ele>125</ele>
        <time>2024-04-07T08:34:33.000Z</time>
      </trkpt>
      <trkpt lat="48.40592" lon="2.42285">
        <ele>124.80000305176</ele>
        <time>2024-04-07T08:34:35.000Z</time>
      </trkpt>
      <trkpt lat="48.40603" lon="2.42287">
        <ele>124.80000305176</ele>
        <time>2024-04-07T08:34:37.000Z</time>
      </trkpt>
      <trkpt lat="48.4061" lon="2.42287">
        <ele>124.80000305176</ele>
        <time>2024-04-07T08:34:38.000Z</time>
      </trkpt>
      <trkpt lat="48.40616" lon="2.42286">
        <ele>124.80000305176</ele>
        <time>2024-04-07T08:34:39.000Z</time>
      </trkpt>
      <trkpt lat="48.40627" lon="2.42282">
        <ele>124.59999847412</ele>
        <time>2024-04-07T08:34:41.000Z</time>
      </trkpt>
      <trkpt lat="48.40632" lon="2.42277">
        <ele>124.40000152588</ele>
        <time>2024-04-07T08:34:42.000Z</time>
      </trkpt>
      <trkpt lat="48.40636" lon="2.42272">
        <ele>124.40000152588</ele>
        <time>2024-04-07T08:34:43.000Z</time>
      </trkpt>
      <trkpt lat="48.4064" lon="2.42268">
        <ele>124.19999694824</ele>
        <time>2024-04-07T08:34:44.000Z</time>
      </trkpt>
      <trkpt lat="48.40649" lon="2.42267">
        <ele>124.19999694824</ele>
        <time>2024-04-07T08:34:46.000Z</time>
      </trkpt>
      <trkpt lat="48.40657" lon="2.42273">
        <ele>124</ele>
        <time>2024-04-07T08:34:48.000Z</time>
      </trkpt>
      <trkpt lat="48.4066" lon="2.42277">
        <ele>124</ele>
        <time>2024-04-07T08:34:49.000Z</time>
      </trkpt>
      <trkpt lat="48.40665" lon="2.42281">
        <ele>124</ele>
        <time>2024-04-07T08:34:50.000Z</time>
      </trkpt>
      <trkpt lat="48.40669" lon="2.42284">
        <ele>124</ele>
        <time>2024-04-07T08:34:51.000Z</time>
      </trkpt>
      <trkpt lat="48.40684" lon="2.4229">
        <ele>124</ele>
        <time>2024-04-07T08:34:54.000Z</time>
      </trkpt>
      <trkpt lat="48.40718" lon="2.42303">
        <ele>123.80000305176</ele>
        <time>2024-04-07T08:35:01.000Z</time>
      </trkpt>
      <trkpt lat="48.40735" lon="2.42307">
        <ele>123.80000305176</ele>
        <time>2024-04-07T08:35:05.000Z</time>
      </trkpt>
      <trkpt lat="48.40739" lon="2.42308">
        <ele>123.80000305176</ele>
        <time>2024-04-07T08:35:06.000Z</time>
      </trkpt>
      <trkpt lat="48.40764" lon="2.42318">
        <ele>123.80000305176</ele>
        <time>2024-04-07T08:35:12.000Z</time>
      </trkpt>
      <trkpt lat="48.40788" lon="2.42337">
        <ele>124.59999847412</ele>
        <time>2024-04-07T08:35:18.000Z</time>
      </trkpt>
      <trkpt lat="48.40801" lon="2.42346">
        <ele>124.80000305176</ele>
        <time>2024-04-07T08:35:21.000Z</time>
      </trkpt>
      <trkpt lat="48.40813" lon="2.42353">
        <ele>124.80000305176</ele>
        <time>2024-04-07T08:35:24.000Z</time>
      </trkpt>
      <trkpt lat="48.40836" lon="2.42366">
        <ele>124.80000305176</ele>
        <time>2024-04-07T08:35:29.000Z</time>
      </trkpt>
      <trkpt lat="48.40842" lon="2.42368">
        <ele>124.80000305176</ele>
        <time>2024-04-07T08:35:30.000Z</time>
      </trkpt>
      <trkpt lat="48.40858" lon="2.42371">
        <ele>124.80000305176</ele>
        <time>2024-04-07T08:35:33.000Z</time>
      </trkpt>
      <trkpt lat="48.40867" lon="2.42369">
        <ele>124.80000305176</ele>
        <time>2024-04-07T08:35:35.000Z</time>
      </trkpt>
      <trkpt lat="48.40871" lon="2.42357">
        <ele>124.59999847412</ele>
        <time>2024-04-07T08:35:38.000Z</time>
      </trkpt>
      <trkpt lat="48.40862" lon="2.42343">
        <ele>124.59999847412</ele>
        <time>2024-04-07T08:35:41.000Z</time>
      </trkpt>
      <trkpt lat="48.40859" lon="2.42339">
        <ele>124.59999847412</ele>
        <time>2024-04-07T08:35:42.000Z</time>
      </trkpt>
      <trkpt lat="48.40845" lon="2.42317">
        <ele>124.19999694824</ele>
        <time>2024-04-07T08:35:46.000Z</time>
      </trkpt>
      <trkpt lat="48.40841" lon="2.42306">
        <ele>124.40000152588</ele>
        <time>2024-04-07T08:35:48.000Z</time>
      </trkpt>
      <trkpt lat="48.40836" lon="2.42289">
        <ele>124.59999847412</ele>
        <time>2024-04-07T08:35:51.000Z</time>
      </trkpt>
      <trkpt lat="48.40839" lon="2.4227">
        <ele>124.80000305176</ele>
        <time>2024-04-07T08:35:55.000Z</time>
      </trkpt>
      <trkpt lat="48.40835" lon="2.42246">
        <ele>124.80000305176</ele>
        <time>2024-04-07T08:35:59.000Z</time>
      </trkpt>
      <trkpt lat="48.40826" lon="2.4222">
        <ele>124.80000305176</ele>
        <time>2024-04-07T08:36:03.000Z</time>
      </trkpt>
      <trkpt lat="48.40824" lon="2.42214">
        <ele>124.80000305176</ele>
        <time>2024-04-07T08:36:04.000Z</time>
      </trkpt>
      <trkpt lat="48.40814" lon="2.42197">
        <ele>124.80000305176</ele>
        <time>2024-04-07T08:36:07.000Z</time>
      </trkpt>
      <trkpt lat="48.40799" lon="2.42176">
        <ele>124.80000305176</ele>
        <time>2024-04-07T08:36:11.000Z</time>
      </trkpt>
      <trkpt lat="48.40796" lon="2.4217">
        <ele>124.59999847412</ele>
        <time>2024-04-07T08:36:12.000Z</time>
      </trkpt>
      <trkpt lat="48.40791" lon="2.42158">
        <ele>124.40000152588</ele>
        <time>2024-04-07T08:36:14.000Z</time>
      </trkpt>
      <trkpt lat="48.40786" lon="2.42144">
        <ele>124.40000152588</ele>
        <time>2024-04-07T08:36:16.000Z</time>
      </trkpt>
      <trkpt lat="48.40773" lon="2.42117">
        <ele>124.19999694824</ele>
        <time>2024-04-07T08:36:20.000Z</time>
      </trkpt>
      <trkpt lat="48.40766" lon="2.42105">
        <ele>124</ele>
        <time>2024-04-07T08:36:22.000Z</time>
      </trkpt>
      <trkpt lat="48.40753" lon="2.42088">
        <ele>124</ele>
        <time>2024-04-07T08:36:26.000Z</time>
      </trkpt>
      <trkpt lat="48.4075" lon="2.42088">
        <ele>124</ele>
        <time>2024-04-07T08:36:27.000Z</time>
      </trkpt>
      <trkpt lat="48.40742" lon="2.42088">
        <ele>124</ele>
        <time>2024-04-07T08:36:29.000Z</time>
      </trkpt>
      <trkpt lat="48.40738" lon="2.42087">
        <ele>124</ele>
        <time>2024-04-07T08:36:30.000Z</time>
      </trkpt>
      <trkpt lat="48.40727" lon="2.4209">
        <ele>123.59999847412</ele>
        <time>2024-04-07T08:36:33.000Z</time>
      </trkpt>
      <trkpt lat="48.40718" lon="2.4208">
        <ele>123.40000152588</ele>
        <time>2024-04-07T08:36:36.000Z</time>
      </trkpt>
      <trkpt lat="48.40717" lon="2.4207">
        <ele>122.19999694824</ele>
        <time>2024-04-07T08:36:38.000Z</time>
      </trkpt>
      <trkpt lat="48.40715" lon="2.42065">
        <ele>121</ele>
        <time>2024-04-07T08:36:39.000Z</time>
      </trkpt>
      <trkpt lat="48.40714" lon="2.42058">
        <ele>118</ele>
        <time>2024-04-07T08:36:40.000Z</time>
      </trkpt>
      <trkpt lat="48.40712" lon="2.42051">
        <ele>116</ele>
        <time>2024-04-07T08:36:41.000Z</time>
      </trkpt>
      <trkpt lat="48.4071" lon="2.42042">
        <ele>114.59999847412</ele>
        <time>2024-04-07T08:36:42.000Z</time>
      </trkpt>
      <trkpt lat="48.4071" lon="2.42032">
        <ele>113.19999694824</ele>
        <time>2024-04-07T08:36:43.000Z</time>
      </trkpt>
      <trkpt lat="48.40714" lon="2.42012">
        <ele>111.80000305176</ele>
        <time>2024-04-07T08:36:45.000Z</time>
      </trkpt>
      <trkpt lat="48.40717" lon="2.42003">
        <ele>111.59999847412</ele>
        <time>2024-04-07T08:36:46.000Z</time>
      </trkpt>
      <trkpt lat="48.4072" lon="2.41993">
        <ele>111.19999694824</ele>
        <time>2024-04-07T08:36:47.000Z</time>
      </trkpt>
      <trkpt lat="48.40722" lon="2.41984">
        <ele>110.59999847412</ele>
        <time>2024-04-07T08:36:48.000Z</time>
      </trkpt>
      <trkpt lat="48.40729" lon="2.41968">
        <ele>109.19999694824</ele>
        <time>2024-04-07T08:36:50.000Z</time>
      </trkpt>
      <trkpt lat="48.40731" lon="2.41959">
        <ele>108.19999694824</ele>
        <time>2024-04-07T08:36:51.000Z</time>
      </trkpt>
      <trkpt lat="48.40736" lon="2.41937">
        <ele>106.80000305176</ele>
        <time>2024-04-07T08:36:53.000Z</time>
      </trkpt>
      <trkpt lat="48.40738" lon="2.41924">
        <ele>106.19999694824</ele>
        <time>2024-04-07T08:36:54.000Z</time>
      </trkpt>
      <trkpt lat="48.4074" lon="2.41912">
        <ele>105.80000305176</ele>
        <time>2024-04-07T08:36:55.000Z</time>
      </trkpt>
      <trkpt lat="48.40743" lon="2.41908">
        <ele>105.40000152588</ele>
        <time>2024-04-07T08:36:56.000Z</time>
      </trkpt>
      <trkpt lat="48.40748" lon="2.41904">
        <ele>104.80000305176</ele>
        <time>2024-04-07T08:36:57.000Z</time>
      </trkpt>
      <trkpt lat="48.40752" lon="2.419">
        <ele>104</ele>
        <time>2024-04-07T08:36:58.000Z</time>
      </trkpt>
      <trkpt lat="48.40762" lon="2.41897">
        <ele>101.40000152588</ele>
        <time>2024-04-07T08:37:00.000Z</time>
      </trkpt>
      <trkpt lat="48.40768" lon="2.41896">
        <ele>99.199996948242</ele>
        <time>2024-04-07T08:37:01.000Z</time>
      </trkpt>
      <trkpt lat="48.40773" lon="2.41895">
        <ele>97</ele>
        <time>2024-04-07T08:37:02.000Z</time>
      </trkpt>
      <trkpt lat="48.40775" lon="2.4189">
        <ele>95.199996948242</ele>
        <time>2024-04-07T08:37:03.000Z</time>
      </trkpt>
      <trkpt lat="48.40776" lon="2.41885">
        <ele>94.199996948242</ele>
        <time>2024-04-07T08:37:04.000Z</time>
      </trkpt>
      <trkpt lat="48.40778" lon="2.41878">
        <ele>93.400001525879</ele>
        <time>2024-04-07T08:37:05.000Z</time>
      </trkpt>
      <trkpt lat="48.40787" lon="2.41863">
        <ele>92.199996948242</ele>
        <time>2024-04-07T08:37:07.000Z</time>
      </trkpt>
      <trkpt lat="48.40797" lon="2.41857">
        <ele>89</ele>
        <time>2024-04-07T08:37:09.000Z</time>
      </trkpt>
      <trkpt lat="48.40803" lon="2.41854">
        <ele>88.199996948242</ele>
        <time>2024-04-07T08:37:10.000Z</time>
      </trkpt>
      <trkpt lat="48.40808" lon="2.4185">
        <ele>87.599998474121</ele>
        <time>2024-04-07T08:37:11.000Z</time>
      </trkpt>
      <trkpt lat="48.40817" lon="2.41842">
        <ele>85.400001525879</ele>
        <time>2024-04-07T08:37:13.000Z</time>
      </trkpt>
      <trkpt lat="48.40821" lon="2.41836">
        <ele>83</ele>
        <time>2024-04-07T08:37:14.000Z</time>
      </trkpt>
      <trkpt lat="48.40824" lon="2.4183">
        <ele>81.400001525879</ele>
        <time>2024-04-07T08:37:15.000Z</time>
      </trkpt>
      <trkpt lat="48.40827" lon="2.41824">
        <ele>80.599998474121</ele>
        <time>2024-04-07T08:37:16.000Z</time>
      </trkpt>
      <trkpt lat="48.40829" lon="2.41816">
        <ele>79.800003051758</ele>
        <time>2024-04-07T08:37:17.000Z</time>
      </trkpt>
      <trkpt lat="48.4083" lon="2.41807">
        <ele>79.400001525879</ele>
        <time>2024-04-07T08:37:18.000Z</time>
      </trkpt>
      <trkpt lat="48.4083" lon="2.41793">
        <ele>78.599998474121</ele>
        <time>2024-04-07T08:37:20.000Z</time>
      </trkpt>
      <trkpt lat="48.40828" lon="2.41782">
        <ele>78</ele>
        <time>2024-04-07T08:37:22.000Z</time>
      </trkpt>
      <trkpt lat="48.40827" lon="2.41779">
        <ele>77.400001525879</ele>
        <time>2024-04-07T08:37:23.000Z</time>
      </trkpt>
      <trkpt lat="48.40824" lon="2.41772">
        <ele>76.599998474121</ele>
        <time>2024-04-07T08:37:25.000Z</time>
      </trkpt>
      <trkpt lat="48.40822" lon="2.41769">
        <ele>76.400001525879</ele>
        <time>2024-04-07T08:37:26.000Z</time>
      </trkpt>
      <trkpt lat="48.40814" lon="2.41759">
        <ele>76.199996948242</ele>
        <time>2024-04-07T08:37:31.000Z</time>
      </trkpt>
      <trkpt lat="48.40808" lon="2.41749">
        <ele>76.199996948242</ele>
        <time>2024-04-07T08:37:35.000Z</time>
      </trkpt>
      <trkpt lat="48.40802" lon="2.41739">
        <ele>76.400001525879</ele>
        <time>2024-04-07T08:37:38.000Z</time>
      </trkpt>
      <trkpt lat="48.40789" lon="2.41725">
        <ele>76.400001525879</ele>
        <time>2024-04-07T08:37:43.000Z</time>
      </trkpt>
      <trkpt lat="48.40779" lon="2.41713">
        <ele>76.199996948242</ele>
        <time>2024-04-07T08:37:47.000Z</time>
      </trkpt>
      <trkpt lat="48.40773" lon="2.41705">
        <ele>76</ele>
        <time>2024-04-07T08:37:49.000Z</time>
      </trkpt>
      <trkpt lat="48.40754" lon="2.4168">
        <ele>75.400001525879</ele>
        <time>2024-04-07T08:37:55.000Z</time>
      </trkpt>
      <trkpt lat="48.40747" lon="2.41669">
        <ele>75.199996948242</ele>
        <time>2024-04-07T08:37:57.000Z</time>
      </trkpt>
      <trkpt lat="48.40733" lon="2.41649">
        <ele>74.599998474121</ele>
        <time>2024-04-07T08:38:01.000Z</time>
      </trkpt>
      <trkpt lat="48.40729" lon="2.41644">
        <ele>74.199996948242</ele>
        <time>2024-04-07T08:38:02.000Z</time>
      </trkpt>
      <trkpt lat="48.40725" lon="2.41639">
        <ele>74</ele>
        <time>2024-04-07T08:38:03.000Z</time>
      </trkpt>
      <trkpt lat="48.40719" lon="2.41627">
        <ele>73.800003051758</ele>
        <time>2024-04-07T08:38:05.000Z</time>
      </trkpt>
      <trkpt lat="48.4072" lon="2.41616">
        <ele>73.599998474121</ele>
        <time>2024-04-07T08:38:07.000Z</time>
      </trkpt>
      <trkpt lat="48.40727" lon="2.41609">
        <ele>73.599998474121</ele>
        <time>2024-04-07T08:38:10.000Z</time>
      </trkpt>
      <trkpt lat="48.40741" lon="2.41601">
        <ele>73.599998474121</ele>
        <time>2024-04-07T08:38:14.000Z</time>
      </trkpt>
      <trkpt lat="48.40749" lon="2.41593">
        <ele>73.800003051758</ele>
        <time>2024-04-07T08:38:16.000Z</time>
      </trkpt>
      <trkpt lat="48.40764" lon="2.41578">
        <ele>74.199996948242</ele>
        <time>2024-04-07T08:38:20.000Z</time>
      </trkpt>
      <trkpt lat="48.40777" lon="2.41562">
        <ele>74.199996948242</ele>
        <time>2024-04-07T08:38:24.000Z</time>
      </trkpt>
      <trkpt lat="48.40798" lon="2.41546">
        <ele>74.800003051758</ele>
        <time>2024-04-07T08:38:30.000Z</time>
      </trkpt>
      <trkpt lat="48.40802" lon="2.41544">
        <ele>74.800003051758</ele>
        <time>2024-04-07T08:38:31.000Z</time>
      </trkpt>
      <trkpt lat="48.40806" lon="2.41543">
        <ele>75</ele>
        <time>2024-04-07T08:38:32.000Z</time>
      </trkpt>
      <trkpt lat="48.40816" lon="2.41537">
        <ele>75.199996948242</ele>
        <time>2024-04-07T08:38:35.000Z</time>
      </trkpt>
      <trkpt lat="48.40823" lon="2.41528">
        <ele>75.800003051758</ele>
        <time>2024-04-07T08:38:38.000Z</time>
      </trkpt>
      <trkpt lat="48.40823" lon="2.41523">
        <ele>75.800003051758</ele>
        <time>2024-04-07T08:38:39.000Z</time>
      </trkpt>
      <trkpt lat="48.40823" lon="2.41502">
        <ele>76.199996948242</ele>
        <time>2024-04-07T08:38:43.000Z</time>
      </trkpt>
      <trkpt lat="48.40818" lon="2.41482">
        <ele>76.599998474121</ele>
        <time>2024-04-07T08:38:47.000Z</time>
      </trkpt>
      <trkpt lat="48.40808" lon="2.41469">
        <ele>76.800003051758</ele>
        <time>2024-04-07T08:38:51.000Z</time>
      </trkpt>
      <trkpt lat="48.40802" lon="2.41462">
        <ele>77.199996948242</ele>
        <time>2024-04-07T08:38:53.000Z</time>
      </trkpt>
      <trkpt lat="48.40797" lon="2.41449">
        <ele>77.400001525879</ele>
        <time>2024-04-07T08:38:56.000Z</time>
      </trkpt>
      <trkpt lat="48.40795" lon="2.41444">
        <ele>77.599998474121</ele>
        <time>2024-04-07T08:38:57.000Z</time>
      </trkpt>
      <trkpt lat="48.40785" lon="2.41419">
        <ele>77.800003051758</ele>
        <time>2024-04-07T08:39:03.000Z</time>
      </trkpt>
      <trkpt lat="48.40784" lon="2.414">
        <ele>78.400001525879</ele>
        <time>2024-04-07T08:39:07.000Z</time>
      </trkpt>
      <trkpt lat="48.40785" lon="2.41397">
        <ele>78.400001525879</ele>
        <time>2024-04-07T08:39:08.000Z</time>
      </trkpt>
      <trkpt lat="48.40785" lon="2.41383">
        <ele>79</ele>
        <time>2024-04-07T08:39:12.000Z</time>
      </trkpt>
      <trkpt lat="48.40782" lon="2.41377">
        <ele>79.400001525879</ele>
        <time>2024-04-07T08:39:14.000Z</time>
      </trkpt>
      <trkpt lat="48.4078" lon="2.41373">
        <ele>79.800003051758</ele>
        <time>2024-04-07T08:39:15.000Z</time>
      </trkpt>
      <trkpt lat="48.40774" lon="2.41363">
        <ele>80.800003051758</ele>
        <time>2024-04-07T08:39:18.000Z</time>
      </trkpt>
      <trkpt lat="48.40773" lon="2.41359">
        <ele>81</ele>
        <time>2024-04-07T08:39:19.000Z</time>
      </trkpt>
      <trkpt lat="48.40771" lon="2.41342">
        <ele>81.199996948242</ele>
        <time>2024-04-07T08:39:22.000Z</time>
      </trkpt>
      <trkpt lat="48.40768" lon="2.4133">
        <ele>81.199996948242</ele>
        <time>2024-04-07T08:39:24.000Z</time>
      </trkpt>
      <trkpt lat="48.40763" lon="2.41321">
        <ele>81.199996948242</ele>
        <time>2024-04-07T08:39:26.000Z</time>
      </trkpt>
      <trkpt lat="48.40755" lon="2.41301">
        <ele>81.199996948242</ele>
        <time>2024-04-07T08:39:30.000Z</time>
      </trkpt>
      <trkpt lat="48.40762" lon="2.41297">
        <ele>81.199996948242</ele>
        <time>2024-04-07T08:39:33.000Z</time>
      </trkpt>
      <trkpt lat="48.40772" lon="2.41286">
        <ele>80.800003051758</ele>
        <time>2024-04-07T08:39:37.000Z</time>
      </trkpt>
      <trkpt lat="48.40772" lon="2.41264">
        <ele>80.599998474121</ele>
        <time>2024-04-07T08:39:41.000Z</time>
      </trkpt>
      <trkpt lat="48.4077" lon="2.41243">
        <ele>80.599998474121</ele>
        <time>2024-04-07T08:39:45.000Z</time>
      </trkpt>
      <trkpt lat="48.4077" lon="2.41222">
        <ele>80.599998474121</ele>
        <time>2024-04-07T08:39:49.000Z</time>
      </trkpt>
      <trkpt lat="48.40777" lon="2.41209">
        <ele>80.599998474121</ele>
        <time>2024-04-07T08:39:52.000Z</time>
      </trkpt>
      <trkpt lat="48.4078" lon="2.41204">
        <ele>80.599998474121</ele>
        <time>2024-04-07T08:39:53.000Z</time>
      </trkpt>
      <trkpt lat="48.40789" lon="2.41184">
        <ele>80.599998474121</ele>
        <time>2024-04-07T08:39:57.000Z</time>
      </trkpt>
      <trkpt lat="48.40799" lon="2.41177">
        <ele>80.599998474121</ele>
        <time>2024-04-07T08:40:00.000Z</time>
      </trkpt>
      <trkpt lat="48.40801" lon="2.41173">
        <ele>80.599998474121</ele>
        <time>2024-04-07T08:40:01.000Z</time>
      </trkpt>
      <trkpt lat="48.40805" lon="2.4115">
        <ele>81</ele>
        <time>2024-04-07T08:40:06.000Z</time>
      </trkpt>
      <trkpt lat="48.40794" lon="2.4113">
        <ele>81</ele>
        <time>2024-04-07T08:40:10.000Z</time>
      </trkpt>
      <trkpt lat="48.40787" lon="2.41117">
        <ele>81</ele>
        <time>2024-04-07T08:40:13.000Z</time>
      </trkpt>
      <trkpt lat="48.40792" lon="2.411">
        <ele>81.400001525879</ele>
        <time>2024-04-07T08:40:17.000Z</time>
      </trkpt>
      <trkpt lat="48.40801" lon="2.41086">
        <ele>81.800003051758</ele>
        <time>2024-04-07T08:40:21.000Z</time>
      </trkpt>
      <trkpt lat="48.40802" lon="2.41062">
        <ele>81.800003051758</ele>
        <time>2024-04-07T08:40:25.000Z</time>
      </trkpt>
      <trkpt lat="48.40807" lon="2.41041">
        <ele>81.800003051758</ele>
        <time>2024-04-07T08:40:29.000Z</time>
      </trkpt>
      <trkpt lat="48.40797" lon="2.41024">
        <ele>81.800003051758</ele>
        <time>2024-04-07T08:40:33.000Z</time>
      </trkpt>
      <trkpt lat="48.40792" lon="2.41008">
        <ele>81</ele>
        <time>2024-04-07T08:40:36.000Z</time>
      </trkpt>
      <trkpt lat="48.40791" lon="2.41002">
        <ele>80.800003051758</ele>
        <time>2024-04-07T08:40:37.000Z</time>
      </trkpt>
      <trkpt lat="48.40793" lon="2.4098">
        <ele>79.800003051758</ele>
        <time>2024-04-07T08:40:41.000Z</time>
      </trkpt>
      <trkpt lat="48.40795" lon="2.40976">
        <ele>79.599998474121</ele>
        <time>2024-04-07T08:40:42.000Z</time>
      </trkpt>
      <trkpt lat="48.40802" lon="2.40968">
        <ele>79.199996948242</ele>
        <time>2024-04-07T08:40:45.000Z</time>
      </trkpt>
      <trkpt lat="48.40811" lon="2.40955">
        <ele>79.199996948242</ele>
        <time>2024-04-07T08:40:49.000Z</time>
      </trkpt>
      <trkpt lat="48.4082" lon="2.40949">
        <ele>79.199996948242</ele>
        <time>2024-04-07T08:40:53.000Z</time>
      </trkpt>
      <trkpt lat="48.40821" lon="2.40947">
        <ele>79.199996948242</ele>
        <time>2024-04-07T08:40:54.000Z</time>
      </trkpt>
      <trkpt lat="48.40821" lon="2.40938">
        <ele>79.400001525879</ele>
        <time>2024-04-07T08:40:57.000Z</time>
      </trkpt>
      <trkpt lat="48.40819" lon="2.40931">
        <ele>79.599998474121</ele>
        <time>2024-04-07T08:40:59.000Z</time>
      </trkpt>
      <trkpt lat="48.40813" lon="2.40919">
        <ele>80.400001525879</ele>
        <time>2024-04-07T08:41:02.000Z</time>
      </trkpt>
      <trkpt lat="48.408" lon="2.40889">
        <ele>80.400001525879</ele>
        <time>2024-04-07T08:41:08.000Z</time>
      </trkpt>
      <trkpt lat="48.40782" lon="2.40851">
        <ele>80.199996948242</ele>
        <time>2024-04-07T08:41:15.000Z</time>
      </trkpt>
      <trkpt lat="48.40759" lon="2.40817">
        <ele>79.599998474121</ele>
        <time>2024-04-07T08:41:22.000Z</time>
      </trkpt>
      <trkpt lat="48.40735" lon="2.40788">
        <ele>79</ele>
        <time>2024-04-07T08:41:28.000Z</time>
      </trkpt>
      <trkpt lat="48.40731" lon="2.40783">
        <ele>79</ele>
        <time>2024-04-07T08:41:29.000Z</time>
      </trkpt>
      <trkpt lat="48.40704" lon="2.40753">
        <ele>78.800003051758</ele>
        <time>2024-04-07T08:41:35.000Z</time>
      </trkpt>
      <trkpt lat="48.40694" lon="2.40744">
        <ele>78.400001525879</ele>
        <time>2024-04-07T08:41:37.000Z</time>
      </trkpt>
      <trkpt lat="48.40678" lon="2.40728">
        <ele>77.400001525879</ele>
        <time>2024-04-07T08:41:40.000Z</time>
      </trkpt>
      <trkpt lat="48.40672" lon="2.40722">
        <ele>77</ele>
        <time>2024-04-07T08:41:41.000Z</time>
      </trkpt>
      <trkpt lat="48.40654" lon="2.40706">
        <ele>76</ele>
        <time>2024-04-07T08:41:44.000Z</time>
      </trkpt>
      <trkpt lat="48.40638" lon="2.4069">
        <ele>75</ele>
        <time>2024-04-07T08:41:47.000Z</time>
      </trkpt>
      <trkpt lat="48.40632" lon="2.40685">
        <ele>74.800003051758</ele>
        <time>2024-04-07T08:41:48.000Z</time>
      </trkpt>
      <trkpt lat="48.4061" lon="2.40666">
        <ele>73.599998474121</ele>
        <time>2024-04-07T08:41:52.000Z</time>
      </trkpt>
      <trkpt lat="48.40605" lon="2.4066">
        <ele>73.400001525879</ele>
        <time>2024-04-07T08:41:53.000Z</time>
      </trkpt>
      <trkpt lat="48.40584" lon="2.4064">
        <ele>72.400001525879</ele>
        <time>2024-04-07T08:41:57.000Z</time>
      </trkpt>
      <trkpt lat="48.40568" lon="2.40627">
        <ele>71.599998474121</ele>
        <time>2024-04-07T08:42:00.000Z</time>
      </trkpt>
      <trkpt lat="48.40557" lon="2.40619">
        <ele>71.199996948242</ele>
        <time>2024-04-07T08:42:02.000Z</time>
      </trkpt>
      <trkpt lat="48.40539" lon="2.40603">
        <ele>70.199996948242</ele>
        <time>2024-04-07T08:42:06.000Z</time>
      </trkpt>
      <trkpt lat="48.40538" lon="2.40599">
        <ele>70.199996948242</ele>
        <time>2024-04-07T08:42:07.000Z</time>
      </trkpt>
      <trkpt lat="48.40539" lon="2.40597">
        <ele>70</ele>
        <time>2024-04-07T08:42:08.000Z</time>
      </trkpt>
      <trkpt lat="48.40551" lon="2.40592">
        <ele>70</ele>
        <time>2024-04-07T08:42:12.000Z</time>
      </trkpt>
      <trkpt lat="48.40555" lon="2.40591">
        <ele>70</ele>
        <time>2024-04-07T08:42:13.000Z</time>
      </trkpt>
      <trkpt lat="48.4057" lon="2.40585">
        <ele>70.199996948242</ele>
        <time>2024-04-07T08:42:17.000Z</time>
      </trkpt>
      <trkpt lat="48.40578" lon="2.40582">
        <ele>70.400001525879</ele>
        <time>2024-04-07T08:42:19.000Z</time>
      </trkpt>
      <trkpt lat="48.40592" lon="2.40575">
        <ele>70.800003051758</ele>
        <time>2024-04-07T08:42:23.000Z</time>
      </trkpt>
      <trkpt lat="48.40603" lon="2.40568">
        <ele>71.199996948242</ele>
        <time>2024-04-07T08:42:26.000Z</time>
      </trkpt>
      <trkpt lat="48.40625" lon="2.40555">
        <ele>72.199996948242</ele>
        <time>2024-04-07T08:42:33.000Z</time>
      </trkpt>
      <trkpt lat="48.40628" lon="2.40553">
        <ele>72.400001525879</ele>
        <time>2024-04-07T08:42:34.000Z</time>
      </trkpt>
      <trkpt lat="48.40641" lon="2.40547">
        <ele>73</ele>
        <time>2024-04-07T08:42:38.000Z</time>
      </trkpt>
      <trkpt lat="48.40648" lon="2.40544">
        <ele>73.199996948242</ele>
        <time>2024-04-07T08:42:40.000Z</time>
      </trkpt>
      <trkpt lat="48.40655" lon="2.40541">
        <ele>73.400001525879</ele>
        <time>2024-04-07T08:42:42.000Z</time>
      </trkpt>
      <trkpt lat="48.40669" lon="2.40531">
        <ele>74.199996948242</ele>
        <time>2024-04-07T08:42:47.000Z</time>
      </trkpt>
      <trkpt lat="48.40672" lon="2.40529">
        <ele>74.599998474121</ele>
        <time>2024-04-07T08:42:48.000Z</time>
      </trkpt>
      <trkpt lat="48.40684" lon="2.40519">
        <ele>75.800003051758</ele>
        <time>2024-04-07T08:42:53.000Z</time>
      </trkpt>
      <trkpt lat="48.40697" lon="2.40511">
        <ele>76.800003051758</ele>
        <time>2024-04-07T08:42:58.000Z</time>
      </trkpt>
      <trkpt lat="48.40704" lon="2.40507">
        <ele>78</ele>
        <time>2024-04-07T08:43:01.000Z</time>
      </trkpt>
      <trkpt lat="48.40714" lon="2.40503">
        <ele>79</ele>
        <time>2024-04-07T08:43:05.000Z</time>
      </trkpt>
      <trkpt lat="48.40718" lon="2.405">
        <ele>79.800003051758</ele>
        <time>2024-04-07T08:43:07.000Z</time>
      </trkpt>
      <trkpt lat="48.40719" lon="2.40496">
        <ele>80.400001525879</ele>
        <time>2024-04-07T08:43:09.000Z</time>
      </trkpt>
      <trkpt lat="48.40721" lon="2.40496">
        <ele>80.800003051758</ele>
        <time>2024-04-07T08:43:11.000Z</time>
      </trkpt>
      <trkpt lat="48.40722" lon="2.40497">
        <ele>81.400001525879</ele>
        <time>2024-04-07T08:43:13.000Z</time>
      </trkpt>
      <trkpt lat="48.40726" lon="2.40496">
        <ele>82.599998474121</ele>
        <time>2024-04-07T08:43:16.000Z</time>
      </trkpt>
      <trkpt lat="48.40727" lon="2.40495">
        <ele>83</ele>
        <time>2024-04-07T08:43:17.000Z</time>
      </trkpt>
      <trkpt lat="48.40729" lon="2.40495">
        <ele>83.400001525879</ele>
        <time>2024-04-07T08:43:18.000Z</time>
      </trkpt>
      <trkpt lat="48.4073" lon="2.40494">
        <ele>83.599998474121</ele>
        <time>2024-04-07T08:43:19.000Z</time>
      </trkpt>
      <trkpt lat="48.40739" lon="2.40484">
        <ele>84.400001525879</ele>
        <time>2024-04-07T08:43:25.000Z</time>
      </trkpt>
      <trkpt lat="48.40741" lon="2.40482">
        <ele>84.599998474121</ele>
        <time>2024-04-07T08:43:26.000Z</time>
      </trkpt>
      <trkpt lat="48.40745" lon="2.40477">
        <ele>85.800003051758</ele>
        <time>2024-04-07T08:43:29.000Z</time>
      </trkpt>
      <trkpt lat="48.40749" lon="2.40474">
        <ele>86.599998474121</ele>
        <time>2024-04-07T08:43:32.000Z</time>
      </trkpt>
      <trkpt lat="48.4075" lon="2.40473">
        <ele>86.800003051758</ele>
        <time>2024-04-07T08:43:33.000Z</time>
      </trkpt>
      <trkpt lat="48.40753" lon="2.40472">
        <ele>87.599998474121</ele>
        <time>2024-04-07T08:43:35.000Z</time>
      </trkpt>
      <trkpt lat="48.40754" lon="2.4047">
        <ele>88</ele>
        <time>2024-04-07T08:43:36.000Z</time>
      </trkpt>
      <trkpt lat="48.40757" lon="2.40468">
        <ele>88.599998474121</ele>
        <time>2024-04-07T08:43:38.000Z</time>
      </trkpt>
      <trkpt lat="48.40758" lon="2.40468">
        <ele>89</ele>
        <time>2024-04-07T08:43:39.000Z</time>
      </trkpt>
      <trkpt lat="48.40763" lon="2.40469">
        <ele>90</ele>
        <time>2024-04-07T08:43:43.000Z</time>
      </trkpt>
      <trkpt lat="48.40765" lon="2.4047">
        <ele>90.199996948242</ele>
        <time>2024-04-07T08:43:44.000Z</time>
      </trkpt>
      <trkpt lat="48.4077" lon="2.40473">
        <ele>91</ele>
        <time>2024-04-07T08:43:48.000Z</time>
      </trkpt>
      <trkpt lat="48.40777" lon="2.40477">
        <ele>92.199996948242</ele>
        <time>2024-04-07T08:43:53.000Z</time>
      </trkpt>
      <trkpt lat="48.40782" lon="2.40478">
        <ele>93.400001525879</ele>
        <time>2024-04-07T08:43:57.000Z</time>
      </trkpt>
      <trkpt lat="48.40787" lon="2.40477">
        <ele>94.800003051758</ele>
        <time>2024-04-07T08:44:01.000Z</time>
      </trkpt>
      <trkpt lat="48.40789" lon="2.40477">
        <ele>95</ele>
        <time>2024-04-07T08:44:02.000Z</time>
      </trkpt>
      <trkpt lat="48.40794" lon="2.40474">
        <ele>96</ele>
        <time>2024-04-07T08:44:05.000Z</time>
      </trkpt>
      <trkpt lat="48.40799" lon="2.40471">
        <ele>96.800003051758</ele>
        <time>2024-04-07T08:44:09.000Z</time>
      </trkpt>
      <trkpt lat="48.408" lon="2.4047">
        <ele>97</ele>
        <time>2024-04-07T08:44:10.000Z</time>
      </trkpt>
      <trkpt lat="48.40805" lon="2.40466">
        <ele>98.199996948242</ele>
        <time>2024-04-07T08:44:14.000Z</time>
      </trkpt>
      <trkpt lat="48.40809" lon="2.40466">
        <ele>99.199996948242</ele>
        <time>2024-04-07T08:44:17.000Z</time>
      </trkpt>
      <trkpt lat="48.40813" lon="2.40467">
        <ele>100.19999694824</ele>
        <time>2024-04-07T08:44:20.000Z</time>
      </trkpt>
      <trkpt lat="48.40816" lon="2.40469">
        <ele>101.40000152588</ele>
        <time>2024-04-07T08:44:23.000Z</time>
      </trkpt>
      <trkpt lat="48.40817" lon="2.4047">
        <ele>101.80000305176</ele>
        <time>2024-04-07T08:44:24.000Z</time>
      </trkpt>
      <trkpt lat="48.40819" lon="2.40471">
        <ele>102.59999847412</ele>
        <time>2024-04-07T08:44:26.000Z</time>
      </trkpt>
      <trkpt lat="48.40822" lon="2.40474">
        <ele>103.59999847412</ele>
        <time>2024-04-07T08:44:29.000Z</time>
      </trkpt>
      <trkpt lat="48.40824" lon="2.40478">
        <ele>104.59999847412</ele>
        <time>2024-04-07T08:44:32.000Z</time>
      </trkpt>
      <trkpt lat="48.40825" lon="2.40479">
        <ele>104.80000305176</ele>
        <time>2024-04-07T08:44:33.000Z</time>
      </trkpt>
      <trkpt lat="48.40828" lon="2.40484">
        <ele>106</ele>
        <time>2024-04-07T08:44:36.000Z</time>
      </trkpt>
      <trkpt lat="48.4083" lon="2.40489">
        <ele>106.80000305176</ele>
        <time>2024-04-07T08:44:39.000Z</time>
      </trkpt>
      <trkpt lat="48.40831" lon="2.4049">
        <ele>106.80000305176</ele>
        <time>2024-04-07T08:44:40.000Z</time>
      </trkpt>
      <trkpt lat="48.40836" lon="2.40494">
        <ele>108</ele>
        <time>2024-04-07T08:44:44.000Z</time>
      </trkpt>
      <trkpt lat="48.40839" lon="2.40497">
        <ele>108.40000152588</ele>
        <time>2024-04-07T08:44:46.000Z</time>
      </trkpt>
      <trkpt lat="48.40844" lon="2.40502">
        <ele>109.19999694824</ele>
        <time>2024-04-07T08:44:49.000Z</time>
      </trkpt>
      <trkpt lat="48.4085" lon="2.40509">
        <ele>110.40000152588</ele>
        <time>2024-04-07T08:44:53.000Z</time>
      </trkpt>
      <trkpt lat="48.40852" lon="2.40511">
        <ele>110.59999847412</ele>
        <time>2024-04-07T08:44:54.000Z</time>
      </trkpt>
      <trkpt lat="48.40862" lon="2.40517">
        <ele>111.59999847412</ele>
        <time>2024-04-07T08:45:00.000Z</time>
      </trkpt>
      <trkpt lat="48.40873" lon="2.40516">
        <ele>112.59999847412</ele>
        <time>2024-04-07T08:45:07.000Z</time>
      </trkpt>
      <trkpt lat="48.40874" lon="2.40515">
        <ele>112.80000305176</ele>
        <time>2024-04-07T08:45:08.000Z</time>
      </trkpt>
      <trkpt lat="48.4088" lon="2.40511">
        <ele>113.59999847412</ele>
        <time>2024-04-07T08:45:12.000Z</time>
      </trkpt>
      <trkpt lat="48.40881" lon="2.40511">
        <ele>113.80000305176</ele>
        <time>2024-04-07T08:45:13.000Z</time>
      </trkpt>
      <trkpt lat="48.40882" lon="2.40511">
        <ele>114</ele>
        <time>2024-04-07T08:45:14.000Z</time>
      </trkpt>
      <trkpt lat="48.40886" lon="2.40515">
        <ele>115</ele>
        <time>2024-04-07T08:45:18.000Z</time>
      </trkpt>
      <trkpt lat="48.4089" lon="2.40514">
        <ele>115.59999847412</ele>
        <time>2024-04-07T08:45:20.000Z</time>
      </trkpt>
      <trkpt lat="48.40892" lon="2.40513">
        <ele>115.80000305176</ele>
        <time>2024-04-07T08:45:21.000Z</time>
      </trkpt>
      <trkpt lat="48.40896" lon="2.40512">
        <ele>116.19999694824</ele>
        <time>2024-04-07T08:45:23.000Z</time>
      </trkpt>
      <trkpt lat="48.40905" lon="2.40508">
        <ele>117.40000152588</ele>
        <time>2024-04-07T08:45:28.000Z</time>
      </trkpt>
      <trkpt lat="48.40912" lon="2.40505">
        <ele>118.40000152588</ele>
        <time>2024-04-07T08:45:32.000Z</time>
      </trkpt>
      <trkpt lat="48.40916" lon="2.40506">
        <ele>119.19999694824</ele>
        <time>2024-04-07T08:45:35.000Z</time>
      </trkpt>
      <trkpt lat="48.40917" lon="2.40507">
        <ele>119.40000152588</ele>
        <time>2024-04-07T08:45:36.000Z</time>
      </trkpt>
      <trkpt lat="48.40919" lon="2.40509">
        <ele>119.59999847412</ele>
        <time>2024-04-07T08:45:37.000Z</time>
      </trkpt>
      <trkpt lat="48.40923" lon="2.40514">
        <ele>120.80000305176</ele>
        <time>2024-04-07T08:45:40.000Z</time>
      </trkpt>
      <trkpt lat="48.40924" lon="2.40516">
        <ele>121.19999694824</ele>
        <time>2024-04-07T08:45:41.000Z</time>
      </trkpt>
      <trkpt lat="48.4093" lon="2.40518">
        <ele>121.80000305176</ele>
        <time>2024-04-07T08:45:44.000Z</time>
      </trkpt>
      <trkpt lat="48.40937" lon="2.40517">
        <ele>122.19999694824</ele>
        <time>2024-04-07T08:45:47.000Z</time>
      </trkpt>
      <trkpt lat="48.40944" lon="2.40517">
        <ele>123</ele>
        <time>2024-04-07T08:45:50.000Z</time>
      </trkpt>
      <trkpt lat="48.40946" lon="2.40517">
        <ele>123.19999694824</ele>
        <time>2024-04-07T08:45:52.000Z</time>
      </trkpt>
      <trkpt lat="48.40955" lon="2.40518">
        <ele>124</ele>
        <time>2024-04-07T08:45:57.000Z</time>
      </trkpt>
      <trkpt lat="48.40957" lon="2.40518">
        <ele>124</ele>
        <time>2024-04-07T08:45:58.000Z</time>
      </trkpt>
      <trkpt lat="48.40972" lon="2.40511">
        <ele>124.19999694824</ele>
        <time>2024-04-07T08:46:03.000Z</time>
      </trkpt>
      <trkpt lat="48.40992" lon="2.40492">
        <ele>124.19999694824</ele>
        <time>2024-04-07T08:46:10.000Z</time>
      </trkpt>
      <trkpt lat="48.41005" lon="2.40476">
        <ele>124.40000152588</ele>
        <time>2024-04-07T08:46:15.000Z</time>
      </trkpt>
      <trkpt lat="48.41008" lon="2.40472">
        <ele>124.40000152588</ele>
        <time>2024-04-07T08:46:16.000Z</time>
      </trkpt>
      <trkpt lat="48.4102" lon="2.4046">
        <ele>124.40000152588</ele>
        <time>2024-04-07T08:46:20.000Z</time>
      </trkpt>
      <trkpt lat="48.41034" lon="2.4044">
        <ele>124.59999847412</ele>
        <time>2024-04-07T08:46:26.000Z</time>
      </trkpt>
      <trkpt lat="48.41044" lon="2.40428">
        <ele>124.59999847412</ele>
        <time>2024-04-07T08:46:30.000Z</time>
      </trkpt>
      <trkpt lat="48.4105" lon="2.40428">
        <ele>124.59999847412</ele>
        <time>2024-04-07T08:46:32.000Z</time>
      </trkpt>
      <trkpt lat="48.41056" lon="2.40434">
        <ele>124.59999847412</ele>
        <time>2024-04-07T08:46:34.000Z</time>
      </trkpt>
      <trkpt lat="48.41066" lon="2.40444">
        <ele>124.59999847412</ele>
        <time>2024-04-07T08:46:37.000Z</time>
      </trkpt>
      <trkpt lat="48.41068" lon="2.40448">
        <ele>124.59999847412</ele>
        <time>2024-04-07T08:46:38.000Z</time>
      </trkpt>
      <trkpt lat="48.41074" lon="2.40474">
        <ele>123.40000152588</ele>
        <time>2024-04-07T08:46:43.000Z</time>
      </trkpt>
      <trkpt lat="48.41075" lon="2.40486">
        <ele>123</ele>
        <time>2024-04-07T08:46:45.000Z</time>
      </trkpt>
      <trkpt lat="48.41079" lon="2.40497">
        <ele>122.19999694824</ele>
        <time>2024-04-07T08:46:48.000Z</time>
      </trkpt>
      <trkpt lat="48.41085" lon="2.40507">
        <ele>122</ele>
        <time>2024-04-07T08:46:52.000Z</time>
      </trkpt>
      <trkpt lat="48.41088" lon="2.4051">
        <ele>121.80000305176</ele>
        <time>2024-04-07T08:46:53.000Z</time>
      </trkpt>
      <trkpt lat="48.41102" lon="2.40519">
        <ele>121.59999847412</ele>
        <time>2024-04-07T08:46:57.000Z</time>
      </trkpt>
      <trkpt lat="48.41109" lon="2.40528">
        <ele>121.40000152588</ele>
        <time>2024-04-07T08:47:01.000Z</time>
      </trkpt>
      <trkpt lat="48.41111" lon="2.40533">
        <ele>120.80000305176</ele>
        <time>2024-04-07T08:47:03.000Z</time>
      </trkpt>
      <trkpt lat="48.41113" lon="2.40538">
        <ele>119.40000152588</ele>
        <time>2024-04-07T08:47:05.000Z</time>
      </trkpt>
      <trkpt lat="48.41114" lon="2.4054">
        <ele>119.19999694824</ele>
        <time>2024-04-07T08:47:06.000Z</time>
      </trkpt>
      <trkpt lat="48.41115" lon="2.40541">
        <ele>119</ele>
        <time>2024-04-07T08:47:07.000Z</time>
      </trkpt>
      <trkpt lat="48.41119" lon="2.4054">
        <ele>118.59999847412</ele>
        <time>2024-04-07T08:47:11.000Z</time>
      </trkpt>
      <trkpt lat="48.4112" lon="2.4054">
        <ele>118.40000152588</ele>
        <time>2024-04-07T08:47:13.000Z</time>
      </trkpt>
      <trkpt lat="48.41124" lon="2.40535">
        <ele>118</ele>
        <time>2024-04-07T08:47:17.000Z</time>
      </trkpt>
      <trkpt lat="48.41127" lon="2.40532">
        <ele>117.80000305176</ele>
        <time>2024-04-07T08:47:19.000Z</time>
      </trkpt>
      <trkpt lat="48.41134" lon="2.40521">
        <ele>117.59999847412</ele>
        <time>2024-04-07T08:47:23.000Z</time>
      </trkpt>
      <trkpt lat="48.41142" lon="2.40508">
        <ele>117.19999694824</ele>
        <time>2024-04-07T08:47:27.000Z</time>
      </trkpt>
      <trkpt lat="48.41147" lon="2.40497">
        <ele>116</ele>
        <time>2024-04-07T08:47:29.000Z</time>
      </trkpt>
      <trkpt lat="48.41149" lon="2.40491">
        <ele>115.80000305176</ele>
        <time>2024-04-07T08:47:30.000Z</time>
      </trkpt>
      <trkpt lat="48.4115" lon="2.40486">
        <ele>115.19999694824</ele>
        <time>2024-04-07T08:47:31.000Z</time>
      </trkpt>
      <trkpt lat="48.41151" lon="2.40482">
        <ele>114.40000152588</ele>
        <time>2024-04-07T08:47:32.000Z</time>
      </trkpt>
      <trkpt lat="48.41153" lon="2.40475">
        <ele>113</ele>
        <time>2024-04-07T08:47:34.000Z</time>
      </trkpt>
      <trkpt lat="48.41154" lon="2.40471">
        <ele>112.40000152588</ele>
        <time>2024-04-07T08:47:35.000Z</time>
      </trkpt>
      <trkpt lat="48.41154" lon="2.40467">
        <ele>111.40000152588</ele>
        <time>2024-04-07T08:47:36.000Z</time>
      </trkpt>
      <trkpt lat="48.41155" lon="2.40466">
        <ele>110.19999694824</ele>
        <time>2024-04-07T08:47:37.000Z</time>
      </trkpt>
      <trkpt lat="48.41156" lon="2.40466">
        <ele>109.19999694824</ele>
        <time>2024-04-07T08:47:38.000Z</time>
      </trkpt>
      <trkpt lat="48.41157" lon="2.40467">
        <ele>108</ele>
        <time>2024-04-07T08:47:39.000Z</time>
      </trkpt>
      <trkpt lat="48.41158" lon="2.40468">
        <ele>107.19999694824</ele>
        <time>2024-04-07T08:47:40.000Z</time>
      </trkpt>
      <trkpt lat="48.4116" lon="2.4047">
        <ele>106.40000152588</ele>
        <time>2024-04-07T08:47:41.000Z</time>
      </trkpt>
      <trkpt lat="48.41162" lon="2.40472">
        <ele>104.80000305176</ele>
        <time>2024-04-07T08:47:43.000Z</time>
      </trkpt>
      <trkpt lat="48.41162" lon="2.40472">
        <ele>104</ele>
        <time>2024-04-07T08:47:44.000Z</time>
      </trkpt>
      <trkpt lat="48.41162" lon="2.40472">
        <ele>103.59999847412</ele>
        <time>2024-04-07T08:47:45.000Z</time>
      </trkpt>
      <trkpt lat="48.41163" lon="2.40471">
        <ele>102.40000152588</ele>
        <time>2024-04-07T08:47:49.000Z</time>
      </trkpt>
      <trkpt lat="48.41164" lon="2.40471">
        <ele>101.19999694824</ele>
        <time>2024-04-07T08:47:50.000Z</time>
      </trkpt>
      <trkpt lat="48.41164" lon="2.40471">
        <ele>100</ele>
        <time>2024-04-07T08:47:53.000Z</time>
      </trkpt>
      <trkpt lat="48.41164" lon="2.40472">
        <ele>99.800003051758</ele>
        <time>2024-04-07T08:47:54.000Z</time>
      </trkpt>
      <trkpt lat="48.41168" lon="2.4047">
        <ele>99.599998474121</ele>
        <time>2024-04-07T08:48:01.000Z</time>
      </trkpt>
      <trkpt lat="48.41169" lon="2.40469">
        <ele>99.599998474121</ele>
        <time>2024-04-07T08:48:02.000Z</time>
      </trkpt>
      <trkpt lat="48.41172" lon="2.40464">
        <ele>98.599998474121</ele>
        <time>2024-04-07T08:48:07.000Z</time>
      </trkpt>
      <trkpt lat="48.41172" lon="2.40463">
        <ele>98</ele>
        <time>2024-04-07T08:48:09.000Z</time>
      </trkpt>
      <trkpt lat="48.41172" lon="2.40463">
        <ele>97.400001525879</ele>
        <time>2024-04-07T08:48:11.000Z</time>
      </trkpt>
      <trkpt lat="48.41174" lon="2.40464">
        <ele>96.199996948242</ele>
        <time>2024-04-07T08:48:15.000Z</time>
      </trkpt>
      <trkpt lat="48.41174" lon="2.40464">
        <ele>95.800003051758</ele>
        <time>2024-04-07T08:48:21.000Z</time>
      </trkpt>
      <trkpt lat="48.41173" lon="2.40464">
        <ele>95.599998474121</ele>
        <time>2024-04-07T08:48:25.000Z</time>
      </trkpt>
      <trkpt lat="48.41173" lon="2.40464">
        <ele>95.599998474121</ele>
        <time>2024-04-07T08:48:29.000Z</time>
      </trkpt>
      <trkpt lat="48.41173" lon="2.40464">
        <ele>95.599998474121</ele>
        <time>2024-04-07T08:48:36.000Z</time>
      </trkpt>
      <trkpt lat="48.41173" lon="2.40464">
        <ele>95.800003051758</ele>
        <time>2024-04-07T08:48:40.000Z</time>
      </trkpt>
      <trkpt lat="48.41173" lon="2.40464">
        <ele>95.800003051758</ele>
        <time>2024-04-07T08:48:45.000Z</time>
      </trkpt>
      <trkpt lat="48.41173" lon="2.40465">
        <ele>95.800003051758</ele>
        <time>2024-04-07T08:48:50.000Z</time>
      </trkpt>
      <trkpt lat="48.41176" lon="2.40464">
        <ele>95.599998474121</ele>
        <time>2024-04-07T08:48:54.000Z</time>
      </trkpt>
      <trkpt lat="48.41176" lon="2.40464">
        <ele>95.599998474121</ele>
        <time>2024-04-07T08:48:55.000Z</time>
      </trkpt>
      <trkpt lat="48.41176" lon="2.40463">
        <ele>95.599998474121</ele>
        <time>2024-04-07T08:48:58.000Z</time>
      </trkpt>
      <trkpt lat="48.41176" lon="2.40463">
        <ele>95.599998474121</ele>
        <time>2024-04-07T08:49:00.000Z</time>
      </trkpt>
      <trkpt lat="48.41178" lon="2.40465">
        <ele>95</ele>
        <time>2024-04-07T08:49:02.000Z</time>
      </trkpt>
      <trkpt lat="48.4118" lon="2.40466">
        <ele>94.599998474121</ele>
        <time>2024-04-07T08:49:03.000Z</time>
      </trkpt>
      <trkpt lat="48.41186" lon="2.40465">
        <ele>94.400001525879</ele>
        <time>2024-04-07T08:49:07.000Z</time>
      </trkpt>
      <trkpt lat="48.41194" lon="2.4046">
        <ele>93.800003051758</ele>
        <time>2024-04-07T08:49:11.000Z</time>
      </trkpt>
      <trkpt lat="48.412" lon="2.40459">
        <ele>92.800003051758</ele>
        <time>2024-04-07T08:49:13.000Z</time>
      </trkpt>
      <trkpt lat="48.41206" lon="2.40457">
        <ele>91.599998474121</ele>
        <time>2024-04-07T08:49:15.000Z</time>
      </trkpt>
      <trkpt lat="48.41211" lon="2.40458">
        <ele>91</ele>
        <time>2024-04-07T08:49:17.000Z</time>
      </trkpt>
      <trkpt lat="48.41213" lon="2.4046">
        <ele>90.400001525879</ele>
        <time>2024-04-07T08:49:18.000Z</time>
      </trkpt>
      <trkpt lat="48.41214" lon="2.40464">
        <ele>87.599998474121</ele>
        <time>2024-04-07T08:49:20.000Z</time>
      </trkpt>
      <trkpt lat="48.41214" lon="2.40466">
        <ele>86.599998474121</ele>
        <time>2024-04-07T08:49:21.000Z</time>
      </trkpt>
      <trkpt lat="48.41214" lon="2.40467">
        <ele>84.599998474121</ele>
        <time>2024-04-07T08:49:23.000Z</time>
      </trkpt>
      <trkpt lat="48.41215" lon="2.40466">
        <ele>83.199996948242</ele>
        <time>2024-04-07T08:49:25.000Z</time>
      </trkpt>
      <trkpt lat="48.41218" lon="2.4047">
        <ele>82.800003051758</ele>
        <time>2024-04-07T08:49:36.000Z</time>
      </trkpt>
      <trkpt lat="48.41218" lon="2.40472">
        <ele>82.800003051758</ele>
        <time>2024-04-07T08:49:37.000Z</time>
      </trkpt>
      <trkpt lat="48.4122" lon="2.40483">
        <ele>82.800003051758</ele>
        <time>2024-04-07T08:49:40.000Z</time>
      </trkpt>
      <trkpt lat="48.41221" lon="2.40489">
        <ele>82.800003051758</ele>
        <time>2024-04-07T08:49:42.000Z</time>
      </trkpt>
      <trkpt lat="48.41226" lon="2.40504">
        <ele>83</ele>
        <time>2024-04-07T08:49:47.000Z</time>
      </trkpt>
      <trkpt lat="48.41241" lon="2.40514">
        <ele>83.599998474121</ele>
        <time>2024-04-07T08:49:53.000Z</time>
      </trkpt>
      <trkpt lat="48.41248" lon="2.40512">
        <ele>83.599998474121</ele>
        <time>2024-04-07T08:49:55.000Z</time>
      </trkpt>
      <trkpt lat="48.41259" lon="2.40508">
        <ele>83.599998474121</ele>
        <time>2024-04-07T08:49:57.000Z</time>
      </trkpt>
      <trkpt lat="48.41271" lon="2.40505">
        <ele>83.599998474121</ele>
        <time>2024-04-07T08:49:59.000Z</time>
      </trkpt>
      <trkpt lat="48.41277" lon="2.40509">
        <ele>83.599998474121</ele>
        <time>2024-04-07T08:50:00.000Z</time>
      </trkpt>
      <trkpt lat="48.41282" lon="2.40523">
        <ele>83.199996948242</ele>
        <time>2024-04-07T08:50:02.000Z</time>
      </trkpt>
      <trkpt lat="48.41285" lon="2.40545">
        <ele>81.599998474121</ele>
        <time>2024-04-07T08:50:05.000Z</time>
      </trkpt>
      <trkpt lat="48.41287" lon="2.40551">
        <ele>81</ele>
        <time>2024-04-07T08:50:06.000Z</time>
      </trkpt>
      <trkpt lat="48.4129" lon="2.40556">
        <ele>80.199996948242</ele>
        <time>2024-04-07T08:50:07.000Z</time>
      </trkpt>
      <trkpt lat="48.41296" lon="2.40566">
        <ele>79.599998474121</ele>
        <time>2024-04-07T08:50:09.000Z</time>
      </trkpt>
      <trkpt lat="48.413" lon="2.40576">
        <ele>79.400001525879</ele>
        <time>2024-04-07T08:50:11.000Z</time>
      </trkpt>
      <trkpt lat="48.4131" lon="2.40597">
        <ele>79.199996948242</ele>
        <time>2024-04-07T08:50:15.000Z</time>
      </trkpt>
      <trkpt lat="48.41316" lon="2.40615">
        <ele>78.800003051758</ele>
        <time>2024-04-07T08:50:18.000Z</time>
      </trkpt>
      <trkpt lat="48.4133" lon="2.40651">
        <ele>78.800003051758</ele>
        <time>2024-04-07T08:50:24.000Z</time>
      </trkpt>
      <trkpt lat="48.41332" lon="2.40663">
        <ele>78.800003051758</ele>
        <time>2024-04-07T08:50:26.000Z</time>
      </trkpt>
      <trkpt lat="48.41332" lon="2.40676">
        <ele>78.800003051758</ele>
        <time>2024-04-07T08:50:28.000Z</time>
      </trkpt>
      <trkpt lat="48.41337" lon="2.40696">
        <ele>78.800003051758</ele>
        <time>2024-04-07T08:50:32.000Z</time>
      </trkpt>
      <trkpt lat="48.41348" lon="2.40713">
        <ele>79.400001525879</ele>
        <time>2024-04-07T08:50:36.000Z</time>
      </trkpt>
      <trkpt lat="48.41358" lon="2.40727">
        <ele>80.199996948242</ele>
        <time>2024-04-07T08:50:39.000Z</time>
      </trkpt>
      <trkpt lat="48.41364" lon="2.40738">
        <ele>80.599998474121</ele>
        <time>2024-04-07T08:50:41.000Z</time>
      </trkpt>
      <trkpt lat="48.41375" lon="2.40757">
        <ele>81.199996948242</ele>
        <time>2024-04-07T08:50:45.000Z</time>
      </trkpt>
      <trkpt lat="48.41379" lon="2.40763">
        <ele>81.199996948242</ele>
        <time>2024-04-07T08:50:46.000Z</time>
      </trkpt>
      <trkpt lat="48.41382" lon="2.40768">
        <ele>81.199996948242</ele>
        <time>2024-04-07T08:50:47.000Z</time>
      </trkpt>
      <trkpt lat="48.4139" lon="2.40789">
        <ele>81.599998474121</ele>
        <time>2024-04-07T08:50:51.000Z</time>
      </trkpt>
      <trkpt lat="48.41393" lon="2.40794">
        <ele>81.599998474121</ele>
        <time>2024-04-07T08:50:52.000Z</time>
      </trkpt>
      <trkpt lat="48.41405" lon="2.40804">
        <ele>81.800003051758</ele>
        <time>2024-04-07T08:50:55.000Z</time>
      </trkpt>
      <trkpt lat="48.41409" lon="2.40809">
        <ele>81.800003051758</ele>
        <time>2024-04-07T08:50:56.000Z</time>
      </trkpt>
      <trkpt lat="48.4143" lon="2.40842">
        <ele>82</ele>
        <time>2024-04-07T08:51:02.000Z</time>
      </trkpt>
      <trkpt lat="48.41443" lon="2.40867">
        <ele>82</ele>
        <time>2024-04-07T08:51:06.000Z</time>
      </trkpt>
      <trkpt lat="48.41449" lon="2.40879">
        <ele>82</ele>
        <time>2024-04-07T08:51:08.000Z</time>
      </trkpt>
      <trkpt lat="48.41455" lon="2.40891">
        <ele>82</ele>
        <time>2024-04-07T08:51:10.000Z</time>
      </trkpt>
      <trkpt lat="48.41465" lon="2.40911">
        <ele>81.800003051758</ele>
        <time>2024-04-07T08:51:13.000Z</time>
      </trkpt>
      <trkpt lat="48.41473" lon="2.40924">
        <ele>81.599998474121</ele>
        <time>2024-04-07T08:51:15.000Z</time>
      </trkpt>
      <trkpt lat="48.41483" lon="2.40942">
        <ele>81.599998474121</ele>
        <time>2024-04-07T08:51:18.000Z</time>
      </trkpt>
      <trkpt lat="48.41493" lon="2.40959">
        <ele>81.599998474121</ele>
        <time>2024-04-07T08:51:21.000Z</time>
      </trkpt>
      <trkpt lat="48.41499" lon="2.40969">
        <ele>81.599998474121</ele>
        <time>2024-04-07T08:51:23.000Z</time>
      </trkpt>
      <trkpt lat="48.41515" lon="2.41002">
        <ele>81.599998474121</ele>
        <time>2024-04-07T08:51:29.000Z</time>
      </trkpt>
      <trkpt lat="48.4152" lon="2.41022">
        <ele>82.199996948242</ele>
        <time>2024-04-07T08:51:32.000Z</time>
      </trkpt>
      <trkpt lat="48.41524" lon="2.41036">
        <ele>82.800003051758</ele>
        <time>2024-04-07T08:51:34.000Z</time>
      </trkpt>
      <trkpt lat="48.41525" lon="2.41043">
        <ele>83</ele>
        <time>2024-04-07T08:51:35.000Z</time>
      </trkpt>
      <trkpt lat="48.41527" lon="2.41055">
        <ele>83.199996948242</ele>
        <time>2024-04-07T08:51:37.000Z</time>
      </trkpt>
      <trkpt lat="48.41532" lon="2.41071">
        <ele>83.800003051758</ele>
        <time>2024-04-07T08:51:40.000Z</time>
      </trkpt>
      <trkpt lat="48.41539" lon="2.41087">
        <ele>84.400001525879</ele>
        <time>2024-04-07T08:51:43.000Z</time>
      </trkpt>
      <trkpt lat="48.41541" lon="2.41092">
        <ele>84.599998474121</ele>
        <time>2024-04-07T08:51:44.000Z</time>
      </trkpt>
      <trkpt lat="48.41543" lon="2.41097">
        <ele>85</ele>
        <time>2024-04-07T08:51:45.000Z</time>
      </trkpt>
      <trkpt lat="48.41544" lon="2.41102">
        <ele>85.599998474121</ele>
        <time>2024-04-07T08:51:46.000Z</time>
      </trkpt>
      <trkpt lat="48.41547" lon="2.41115">
        <ele>86.599998474121</ele>
        <time>2024-04-07T08:51:49.000Z</time>
      </trkpt>
      <trkpt lat="48.41548" lon="2.41119">
        <ele>86.800003051758</ele>
        <time>2024-04-07T08:51:50.000Z</time>
      </trkpt>
      <trkpt lat="48.41548" lon="2.41123">
        <ele>87.199996948242</ele>
        <time>2024-04-07T08:51:51.000Z</time>
      </trkpt>
      <trkpt lat="48.4155" lon="2.41133">
        <ele>88.199996948242</ele>
        <time>2024-04-07T08:51:54.000Z</time>
      </trkpt>
      <trkpt lat="48.41552" lon="2.41138">
        <ele>88.800003051758</ele>
        <time>2024-04-07T08:51:56.000Z</time>
      </trkpt>
      <trkpt lat="48.41555" lon="2.41144">
        <ele>89.599998474121</ele>
        <time>2024-04-07T08:51:58.000Z</time>
      </trkpt>
      <trkpt lat="48.41557" lon="2.41149">
        <ele>90.599998474121</ele>
        <time>2024-04-07T08:52:00.000Z</time>
      </trkpt>
      <trkpt lat="48.41557" lon="2.41156">
        <ele>91.400001525879</ele>
        <time>2024-04-07T08:52:02.000Z</time>
      </trkpt>
      <trkpt lat="48.41558" lon="2.4116">
        <ele>91.800003051758</ele>
        <time>2024-04-07T08:52:03.000Z</time>
      </trkpt>
      <trkpt lat="48.41559" lon="2.41171">
        <ele>93</ele>
        <time>2024-04-07T08:52:06.000Z</time>
      </trkpt>
      <trkpt lat="48.4156" lon="2.41178">
        <ele>93.599998474121</ele>
        <time>2024-04-07T08:52:08.000Z</time>
      </trkpt>
      <trkpt lat="48.4156" lon="2.41185">
        <ele>94</ele>
        <time>2024-04-07T08:52:10.000Z</time>
      </trkpt>
      <trkpt lat="48.41562" lon="2.41199">
        <ele>95</ele>
        <time>2024-04-07T08:52:14.000Z</time>
      </trkpt>
      <trkpt lat="48.41563" lon="2.41202">
        <ele>95.199996948242</ele>
        <time>2024-04-07T08:52:15.000Z</time>
      </trkpt>
      <trkpt lat="48.41564" lon="2.41224">
        <ele>96.199996948242</ele>
        <time>2024-04-07T08:52:20.000Z</time>
      </trkpt>
      <trkpt lat="48.41565" lon="2.41234">
        <ele>96.599998474121</ele>
        <time>2024-04-07T08:52:22.000Z</time>
      </trkpt>
      <trkpt lat="48.41567" lon="2.41252">
        <ele>97.400001525879</ele>
        <time>2024-04-07T08:52:26.000Z</time>
      </trkpt>
      <trkpt lat="48.41569" lon="2.41269">
        <ele>98.199996948242</ele>
        <time>2024-04-07T08:52:30.000Z</time>
      </trkpt>
      <trkpt lat="48.41569" lon="2.41272">
        <ele>98.400001525879</ele>
        <time>2024-04-07T08:52:31.000Z</time>
      </trkpt>
      <trkpt lat="48.41569" lon="2.41283">
        <ele>100</ele>
        <time>2024-04-07T08:52:35.000Z</time>
      </trkpt>
      <trkpt lat="48.41568" lon="2.41288">
        <ele>100.80000305176</ele>
        <time>2024-04-07T08:52:37.000Z</time>
      </trkpt>
      <trkpt lat="48.41568" lon="2.41291">
        <ele>101.19999694824</ele>
        <time>2024-04-07T08:52:38.000Z</time>
      </trkpt>
      <trkpt lat="48.41569" lon="2.413">
        <ele>102.19999694824</ele>
        <time>2024-04-07T08:52:41.000Z</time>
      </trkpt>
      <trkpt lat="48.41569" lon="2.41305">
        <ele>103</ele>
        <time>2024-04-07T08:52:43.000Z</time>
      </trkpt>
      <trkpt lat="48.41568" lon="2.41307">
        <ele>103.40000152588</ele>
        <time>2024-04-07T08:52:44.000Z</time>
      </trkpt>
      <trkpt lat="48.41567" lon="2.41317">
        <ele>104.59999847412</ele>
        <time>2024-04-07T08:52:48.000Z</time>
      </trkpt>
      <trkpt lat="48.41567" lon="2.41323">
        <ele>105.19999694824</ele>
        <time>2024-04-07T08:52:50.000Z</time>
      </trkpt>
      <trkpt lat="48.41567" lon="2.4133">
        <ele>105.59999847412</ele>
        <time>2024-04-07T08:52:52.000Z</time>
      </trkpt>
      <trkpt lat="48.4157" lon="2.41347">
        <ele>106.40000152588</ele>
        <time>2024-04-07T08:52:57.000Z</time>
      </trkpt>
      <trkpt lat="48.4157" lon="2.41352">
        <ele>106.59999847412</ele>
        <time>2024-04-07T08:52:58.000Z</time>
      </trkpt>
      <trkpt lat="48.4157" lon="2.4137">
        <ele>107.80000305176</ele>
        <time>2024-04-07T08:53:03.000Z</time>
      </trkpt>
      <trkpt lat="48.41571" lon="2.41373">
        <ele>108.19999694824</ele>
        <time>2024-04-07T08:53:04.000Z</time>
      </trkpt>
      <trkpt lat="48.41571" lon="2.41383">
        <ele>109</ele>
        <time>2024-04-07T08:53:07.000Z</time>
      </trkpt>
      <trkpt lat="48.41573" lon="2.41396">
        <ele>110</ele>
        <time>2024-04-07T08:53:11.000Z</time>
      </trkpt>
      <trkpt lat="48.41576" lon="2.41403">
        <ele>111.19999694824</ele>
        <time>2024-04-07T08:53:14.000Z</time>
      </trkpt>
      <trkpt lat="48.41578" lon="2.41405">
        <ele>111.59999847412</ele>
        <time>2024-04-07T08:53:15.000Z</time>
      </trkpt>
      <trkpt lat="48.4158" lon="2.41405">
        <ele>112</ele>
        <time>2024-04-07T08:53:16.000Z</time>
      </trkpt>
      <trkpt lat="48.41581" lon="2.41405">
        <ele>112.19999694824</ele>
        <time>2024-04-07T08:53:17.000Z</time>
      </trkpt>
      <trkpt lat="48.41583" lon="2.41403">
        <ele>113.19999694824</ele>
        <time>2024-04-07T08:53:21.000Z</time>
      </trkpt>
      <trkpt lat="48.41583" lon="2.41403">
        <ele>113.40000152588</ele>
        <time>2024-04-07T08:53:22.000Z</time>
      </trkpt>
      <trkpt lat="48.41585" lon="2.41402">
        <ele>113.80000305176</ele>
        <time>2024-04-07T08:53:29.000Z</time>
      </trkpt>
      <trkpt lat="48.41585" lon="2.41402">
        <ele>113.59999847412</ele>
        <time>2024-04-07T08:53:35.000Z</time>
      </trkpt>
      <trkpt lat="48.41586" lon="2.41402">
        <ele>113.59999847412</ele>
        <time>2024-04-07T08:53:39.000Z</time>
      </trkpt>
      <trkpt lat="48.41586" lon="2.414">
        <ele>113.59999847412</ele>
        <time>2024-04-07T08:53:42.000Z</time>
      </trkpt>
      <trkpt lat="48.41588" lon="2.41396">
        <ele>113.59999847412</ele>
        <time>2024-04-07T08:53:44.000Z</time>
      </trkpt>
      <trkpt lat="48.41589" lon="2.41392">
        <ele>113.40000152588</ele>
        <time>2024-04-07T08:53:46.000Z</time>
      </trkpt>
      <trkpt lat="48.4159" lon="2.41391">
        <ele>113.59999847412</ele>
        <time>2024-04-07T08:53:50.000Z</time>
      </trkpt>
      <trkpt lat="48.41591" lon="2.41389">
        <ele>113.59999847412</ele>
        <time>2024-04-07T08:53:53.000Z</time>
      </trkpt>
      <trkpt lat="48.41592" lon="2.41384">
        <ele>113.80000305176</ele>
        <time>2024-04-07T08:53:56.000Z</time>
      </trkpt>
      <trkpt lat="48.4159" lon="2.41379">
        <ele>113.80000305176</ele>
        <time>2024-04-07T08:54:00.000Z</time>
      </trkpt>
      <trkpt lat="48.4159" lon="2.41378">
        <ele>113.59999847412</ele>
        <time>2024-04-07T08:54:01.000Z</time>
      </trkpt>
      <trkpt lat="48.41588" lon="2.41374">
        <ele>113.59999847412</ele>
        <time>2024-04-07T08:54:05.000Z</time>
      </trkpt>
      <trkpt lat="48.41586" lon="2.41366">
        <ele>113.59999847412</ele>
        <time>2024-04-07T08:54:10.000Z</time>
      </trkpt>
      <trkpt lat="48.41585" lon="2.41364">
        <ele>113.59999847412</ele>
        <time>2024-04-07T08:54:11.000Z</time>
      </trkpt>
      <trkpt lat="48.4158" lon="2.41352">
        <ele>113.19999694824</ele>
        <time>2024-04-07T08:54:15.000Z</time>
      </trkpt>
      <trkpt lat="48.41581" lon="2.41349">
        <ele>113.19999694824</ele>
        <time>2024-04-07T08:54:16.000Z</time>
      </trkpt>
      <trkpt lat="48.41583" lon="2.41341">
        <ele>112.59999847412</ele>
        <time>2024-04-07T08:54:19.000Z</time>
      </trkpt>
      <trkpt lat="48.41584" lon="2.41339">
        <ele>112.40000152588</ele>
        <time>2024-04-07T08:54:20.000Z</time>
      </trkpt>
      <trkpt lat="48.41585" lon="2.41337">
        <ele>112.19999694824</ele>
        <time>2024-04-07T08:54:21.000Z</time>
      </trkpt>
      <trkpt lat="48.41583" lon="2.41334">
        <ele>111.59999847412</ele>
        <time>2024-04-07T08:54:23.000Z</time>
      </trkpt>
      <trkpt lat="48.41582" lon="2.41329">
        <ele>111.40000152588</ele>
        <time>2024-04-07T08:54:25.000Z</time>
      </trkpt>
      <trkpt lat="48.41584" lon="2.41318">
        <ele>111.19999694824</ele>
        <time>2024-04-07T08:54:29.000Z</time>
      </trkpt>
      <trkpt lat="48.41585" lon="2.41315">
        <ele>111</ele>
        <time>2024-04-07T08:54:30.000Z</time>
      </trkpt>
      <trkpt lat="48.41587" lon="2.41313">
        <ele>111</ele>
        <time>2024-04-07T08:54:31.000Z</time>
      </trkpt>
      <trkpt lat="48.4159" lon="2.41303">
        <ele>110.40000152588</ele>
        <time>2024-04-07T08:54:36.000Z</time>
      </trkpt>
      <trkpt lat="48.4159" lon="2.41299">
        <ele>110.19999694824</ele>
        <time>2024-04-07T08:54:40.000Z</time>
      </trkpt>
      <trkpt lat="48.4159" lon="2.41297">
        <ele>110.19999694824</ele>
        <time>2024-04-07T08:54:43.000Z</time>
      </trkpt>
      <trkpt lat="48.4159" lon="2.41295">
        <ele>110.19999694824</ele>
        <time>2024-04-07T08:54:45.000Z</time>
      </trkpt>
      <trkpt lat="48.41589" lon="2.41289">
        <ele>110.19999694824</ele>
        <time>2024-04-07T08:54:48.000Z</time>
      </trkpt>
      <trkpt lat="48.4159" lon="2.41282">
        <ele>110.19999694824</ele>
        <time>2024-04-07T08:54:50.000Z</time>
      </trkpt>
      <trkpt lat="48.41588" lon="2.41277">
        <ele>110.19999694824</ele>
        <time>2024-04-07T08:54:53.000Z</time>
      </trkpt>
      <trkpt lat="48.41583" lon="2.41269">
        <ele>109.59999847412</ele>
        <time>2024-04-07T08:54:57.000Z</time>
      </trkpt>
      <trkpt lat="48.4158" lon="2.41244">
        <ele>108.59999847412</ele>
        <time>2024-04-07T08:55:02.000Z</time>
      </trkpt>
      <trkpt lat="48.4158" lon="2.41229">
        <ele>107.19999694824</ele>
        <time>2024-04-07T08:55:04.000Z</time>
      </trkpt>
      <trkpt lat="48.41578" lon="2.41213">
        <ele>105.80000305176</ele>
        <time>2024-04-07T08:55:06.000Z</time>
      </trkpt>
      <trkpt lat="48.41577" lon="2.41205">
        <ele>105.40000152588</ele>
        <time>2024-04-07T08:55:07.000Z</time>
      </trkpt>
      <trkpt lat="48.41577" lon="2.4119">
        <ele>104.19999694824</ele>
        <time>2024-04-07T08:55:09.000Z</time>
      </trkpt>
      <trkpt lat="48.41577" lon="2.41183">
        <ele>102.40000152588</ele>
        <time>2024-04-07T08:55:10.000Z</time>
      </trkpt>
      <trkpt lat="48.41576" lon="2.41169">
        <ele>101.80000305176</ele>
        <time>2024-04-07T08:55:12.000Z</time>
      </trkpt>
      <trkpt lat="48.41576" lon="2.41161">
        <ele>101.19999694824</ele>
        <time>2024-04-07T08:55:13.000Z</time>
      </trkpt>
      <trkpt lat="48.41577" lon="2.41146">
        <ele>99.599998474121</ele>
        <time>2024-04-07T08:55:15.000Z</time>
      </trkpt>
      <trkpt lat="48.41578" lon="2.4114">
        <ele>99</ele>
        <time>2024-04-07T08:55:16.000Z</time>
      </trkpt>
      <trkpt lat="48.41579" lon="2.4113">
        <ele>98.400001525879</ele>
        <time>2024-04-07T08:55:18.000Z</time>
      </trkpt>
      <trkpt lat="48.41577" lon="2.41117">
        <ele>98</ele>
        <time>2024-04-07T08:55:21.000Z</time>
      </trkpt>
      <trkpt lat="48.41573" lon="2.41108">
        <ele>97.800003051758</ele>
        <time>2024-04-07T08:55:23.000Z</time>
      </trkpt>
      <trkpt lat="48.41574" lon="2.41103">
        <ele>97.800003051758</ele>
        <time>2024-04-07T08:55:24.000Z</time>
      </trkpt>
      <trkpt lat="48.4158" lon="2.41097">
        <ele>97.599998474121</ele>
        <time>2024-04-07T08:55:27.000Z</time>
      </trkpt>
      <trkpt lat="48.41581" lon="2.41095">
        <ele>97.400001525879</ele>
        <time>2024-04-07T08:55:28.000Z</time>
      </trkpt>
      <trkpt lat="48.41586" lon="2.4109">
        <ele>97</ele>
        <time>2024-04-07T08:55:30.000Z</time>
      </trkpt>
      <trkpt lat="48.41589" lon="2.41085">
        <ele>96.400001525879</ele>
        <time>2024-04-07T08:55:32.000Z</time>
      </trkpt>
      <trkpt lat="48.41591" lon="2.41081">
        <ele>96.199996948242</ele>
        <time>2024-04-07T08:55:34.000Z</time>
      </trkpt>
      <trkpt lat="48.41589" lon="2.41077">
        <ele>96</ele>
        <time>2024-04-07T08:55:36.000Z</time>
      </trkpt>
      <trkpt lat="48.41587" lon="2.41073">
        <ele>95.800003051758</ele>
        <time>2024-04-07T08:55:37.000Z</time>
      </trkpt>
      <trkpt lat="48.41587" lon="2.41063">
        <ele>95.400001525879</ele>
        <time>2024-04-07T08:55:39.000Z</time>
      </trkpt>
      <trkpt lat="48.41595" lon="2.41051">
        <ele>95.199996948242</ele>
        <time>2024-04-07T08:55:43.000Z</time>
      </trkpt>
      <trkpt lat="48.41597" lon="2.41045">
        <ele>95.400001525879</ele>
        <time>2024-04-07T08:55:45.000Z</time>
      </trkpt>
      <trkpt lat="48.41602" lon="2.41037">
        <ele>96.199996948242</ele>
        <time>2024-04-07T08:55:49.000Z</time>
      </trkpt>
      <trkpt lat="48.41608" lon="2.41031">
        <ele>96.199996948242</ele>
        <time>2024-04-07T08:55:53.000Z</time>
      </trkpt>
      <trkpt lat="48.41614" lon="2.41026">
        <ele>96.800003051758</ele>
        <time>2024-04-07T08:55:56.000Z</time>
      </trkpt>
      <trkpt lat="48.41616" lon="2.41024">
        <ele>96.800003051758</ele>
        <time>2024-04-07T08:55:57.000Z</time>
      </trkpt>
      <trkpt lat="48.41621" lon="2.4102">
        <ele>97.400001525879</ele>
        <time>2024-04-07T08:56:01.000Z</time>
      </trkpt>
      <trkpt lat="48.41621" lon="2.41019">
        <ele>97.800003051758</ele>
        <time>2024-04-07T08:56:03.000Z</time>
      </trkpt>
      <trkpt lat="48.41622" lon="2.41014">
        <ele>98.599998474121</ele>
        <time>2024-04-07T08:56:11.000Z</time>
      </trkpt>
      <trkpt lat="48.41623" lon="2.41011">
        <ele>98.599998474121</ele>
        <time>2024-04-07T08:56:12.000Z</time>
      </trkpt>
      <trkpt lat="48.41629" lon="2.41002">
        <ele>98.599998474121</ele>
        <time>2024-04-07T08:56:15.000Z</time>
      </trkpt>
      <trkpt lat="48.41632" lon="2.40997">
        <ele>98.599998474121</ele>
        <time>2024-04-07T08:56:16.000Z</time>
      </trkpt>
      <trkpt lat="48.41641" lon="2.40986">
        <ele>98.400001525879</ele>
        <time>2024-04-07T08:56:19.000Z</time>
      </trkpt>
      <trkpt lat="48.41652" lon="2.40975">
        <ele>98</ele>
        <time>2024-04-07T08:56:24.000Z</time>
      </trkpt>
      <trkpt lat="48.4166" lon="2.40968">
        <ele>98</ele>
        <time>2024-04-07T08:56:27.000Z</time>
      </trkpt>
      <trkpt lat="48.41661" lon="2.40964">
        <ele>98</ele>
        <time>2024-04-07T08:56:28.000Z</time>
      </trkpt>
      <trkpt lat="48.41654" lon="2.40946">
        <ele>97.400001525879</ele>
        <time>2024-04-07T08:56:31.000Z</time>
      </trkpt>
      <trkpt lat="48.41653" lon="2.40937">
        <ele>97.199996948242</ele>
        <time>2024-04-07T08:56:32.000Z</time>
      </trkpt>
      <trkpt lat="48.41654" lon="2.40929">
        <ele>97</ele>
        <time>2024-04-07T08:56:33.000Z</time>
      </trkpt>
      <trkpt lat="48.41655" lon="2.40921">
        <ele>96.800003051758</ele>
        <time>2024-04-07T08:56:34.000Z</time>
      </trkpt>
      <trkpt lat="48.41653" lon="2.40894">
        <ele>96.800003051758</ele>
        <time>2024-04-07T08:56:37.000Z</time>
      </trkpt>
      <trkpt lat="48.41655" lon="2.40877">
        <ele>94.599998474121</ele>
        <time>2024-04-07T08:56:39.000Z</time>
      </trkpt>
      <trkpt lat="48.41657" lon="2.40868">
        <ele>93.400001525879</ele>
        <time>2024-04-07T08:56:40.000Z</time>
      </trkpt>
      <trkpt lat="48.41659" lon="2.40858">
        <ele>92.400001525879</ele>
        <time>2024-04-07T08:56:41.000Z</time>
      </trkpt>
      <trkpt lat="48.41661" lon="2.40848">
        <ele>91.800003051758</ele>
        <time>2024-04-07T08:56:42.000Z</time>
      </trkpt>
      <trkpt lat="48.41666" lon="2.40828">
        <ele>90</ele>
        <time>2024-04-07T08:56:44.000Z</time>
      </trkpt>
      <trkpt lat="48.4167" lon="2.40819">
        <ele>89</ele>
        <time>2024-04-07T08:56:45.000Z</time>
      </trkpt>
      <trkpt lat="48.41673" lon="2.4081">
        <ele>88</ele>
        <time>2024-04-07T08:56:46.000Z</time>
      </trkpt>
      <trkpt lat="48.41677" lon="2.40803">
        <ele>87.400001525879</ele>
        <time>2024-04-07T08:56:47.000Z</time>
      </trkpt>
      <trkpt lat="48.41686" lon="2.40803">
        <ele>85.800003051758</ele>
        <time>2024-04-07T08:56:49.000Z</time>
      </trkpt>
      <trkpt lat="48.41691" lon="2.40809">
        <ele>83.599998474121</ele>
        <time>2024-04-07T08:56:51.000Z</time>
      </trkpt>
      <trkpt lat="48.41694" lon="2.40813">
        <ele>82.599998474121</ele>
        <time>2024-04-07T08:56:52.000Z</time>
      </trkpt>
      <trkpt lat="48.41695" lon="2.40817">
        <ele>81.800003051758</ele>
        <time>2024-04-07T08:56:53.000Z</time>
      </trkpt>
      <trkpt lat="48.41697" lon="2.40822">
        <ele>81.400001525879</ele>
        <time>2024-04-07T08:56:54.000Z</time>
      </trkpt>
      <trkpt lat="48.41698" lon="2.40834">
        <ele>81</ele>
        <time>2024-04-07T08:56:57.000Z</time>
      </trkpt>
      <trkpt lat="48.41701" lon="2.40848">
        <ele>81</ele>
        <time>2024-04-07T08:57:03.000Z</time>
      </trkpt>
      <trkpt lat="48.417" lon="2.40854">
        <ele>81.800003051758</ele>
        <time>2024-04-07T08:57:05.000Z</time>
      </trkpt>
      <trkpt lat="48.41701" lon="2.40859">
        <ele>83.400001525879</ele>
        <time>2024-04-07T08:57:07.000Z</time>
      </trkpt>
      <trkpt lat="48.417" lon="2.40864">
        <ele>84.400001525879</ele>
        <time>2024-04-07T08:57:09.000Z</time>
      </trkpt>
      <trkpt lat="48.41702" lon="2.40866">
        <ele>84.800003051758</ele>
        <time>2024-04-07T08:57:10.000Z</time>
      </trkpt>
      <trkpt lat="48.41705" lon="2.40869">
        <ele>85.599998474121</ele>
        <time>2024-04-07T08:57:13.000Z</time>
      </trkpt>
      <trkpt lat="48.41706" lon="2.40871">
        <ele>86</ele>
        <time>2024-04-07T08:57:14.000Z</time>
      </trkpt>
      <trkpt lat="48.4171" lon="2.40877">
        <ele>87.199996948242</ele>
        <time>2024-04-07T08:57:17.000Z</time>
      </trkpt>
      <trkpt lat="48.41713" lon="2.40881">
        <ele>87.800003051758</ele>
        <time>2024-04-07T08:57:19.000Z</time>
      </trkpt>
      <trkpt lat="48.41715" lon="2.40882">
        <ele>88</ele>
        <time>2024-04-07T08:57:20.000Z</time>
      </trkpt>
      <trkpt lat="48.4172" lon="2.40887">
        <ele>88.400001525879</ele>
        <time>2024-04-07T08:57:24.000Z</time>
      </trkpt>
      <trkpt lat="48.41723" lon="2.4089">
        <ele>88.599998474121</ele>
        <time>2024-04-07T08:57:26.000Z</time>
      </trkpt>
      <trkpt lat="48.41727" lon="2.40895">
        <ele>89.599998474121</ele>
        <time>2024-04-07T08:57:29.000Z</time>
      </trkpt>
      <trkpt lat="48.41732" lon="2.40901">
        <ele>90.800003051758</ele>
        <time>2024-04-07T08:57:33.000Z</time>
      </trkpt>
      <trkpt lat="48.41733" lon="2.40902">
        <ele>91</ele>
        <time>2024-04-07T08:57:34.000Z</time>
      </trkpt>
      <trkpt lat="48.41735" lon="2.40905">
        <ele>91.800003051758</ele>
        <time>2024-04-07T08:57:36.000Z</time>
      </trkpt>
      <trkpt lat="48.41739" lon="2.40909">
        <ele>93</ele>
        <time>2024-04-07T08:57:39.000Z</time>
      </trkpt>
      <trkpt lat="48.41741" lon="2.4091">
        <ele>93.599998474121</ele>
        <time>2024-04-07T08:57:40.000Z</time>
      </trkpt>
      <trkpt lat="48.41744" lon="2.40912">
        <ele>94.199996948242</ele>
        <time>2024-04-07T08:57:42.000Z</time>
      </trkpt>
      <trkpt lat="48.41749" lon="2.40913">
        <ele>95.199996948242</ele>
        <time>2024-04-07T08:57:46.000Z</time>
      </trkpt>
      <trkpt lat="48.4175" lon="2.40914">
        <ele>95.400001525879</ele>
        <time>2024-04-07T08:57:47.000Z</time>
      </trkpt>
      <trkpt lat="48.41756" lon="2.40913">
        <ele>96.400001525879</ele>
        <time>2024-04-07T08:57:51.000Z</time>
      </trkpt>
      <trkpt lat="48.41759" lon="2.40913">
        <ele>96.800003051758</ele>
        <time>2024-04-07T08:57:53.000Z</time>
      </trkpt>
      <trkpt lat="48.41762" lon="2.40915">
        <ele>97.400001525879</ele>
        <time>2024-04-07T08:57:55.000Z</time>
      </trkpt>
      <trkpt lat="48.41773" lon="2.40916">
        <ele>98.400001525879</ele>
        <time>2024-04-07T08:58:00.000Z</time>
      </trkpt>
      <trkpt lat="48.41777" lon="2.40918">
        <ele>98.400001525879</ele>
        <time>2024-04-07T08:58:01.000Z</time>
      </trkpt>
      <trkpt lat="48.4178" lon="2.40923">
        <ele>98.400001525879</ele>
        <time>2024-04-07T08:58:02.000Z</time>
      </trkpt>
      <trkpt lat="48.41781" lon="2.40929">
        <ele>98.400001525879</ele>
        <time>2024-04-07T08:58:03.000Z</time>
      </trkpt>
      <trkpt lat="48.41787" lon="2.40948">
        <ele>98.400001525879</ele>
        <time>2024-04-07T08:58:07.000Z</time>
      </trkpt>
      <trkpt lat="48.41791" lon="2.40956">
        <ele>97.199996948242</ele>
        <time>2024-04-07T08:58:09.000Z</time>
      </trkpt>
      <trkpt lat="48.41796" lon="2.40968">
        <ele>96.800003051758</ele>
        <time>2024-04-07T08:58:13.000Z</time>
      </trkpt>
      <trkpt lat="48.41806" lon="2.40984">
        <ele>96.599998474121</ele>
        <time>2024-04-07T08:58:18.000Z</time>
      </trkpt>
      <trkpt lat="48.41817" lon="2.40993">
        <ele>97</ele>
        <time>2024-04-07T08:58:23.000Z</time>
      </trkpt>
      <trkpt lat="48.4183" lon="2.4099">
        <ele>97.199996948242</ele>
        <time>2024-04-07T08:58:27.000Z</time>
      </trkpt>
      <trkpt lat="48.41833" lon="2.40989">
        <ele>97.199996948242</ele>
        <time>2024-04-07T08:58:28.000Z</time>
      </trkpt>
      <trkpt lat="48.41852" lon="2.40988">
        <ele>97.199996948242</ele>
        <time>2024-04-07T08:58:33.000Z</time>
      </trkpt>
      <trkpt lat="48.41863" lon="2.40991">
        <ele>97.400001525879</ele>
        <time>2024-04-07T08:58:37.000Z</time>
      </trkpt>
      <trkpt lat="48.41866" lon="2.40992">
        <ele>97.400001525879</ele>
        <time>2024-04-07T08:58:38.000Z</time>
      </trkpt>
      <trkpt lat="48.41879" lon="2.40988">
        <ele>98.199996948242</ele>
        <time>2024-04-07T08:58:44.000Z</time>
      </trkpt>
      <trkpt lat="48.41881" lon="2.40988">
        <ele>98.400001525879</ele>
        <time>2024-04-07T08:58:45.000Z</time>
      </trkpt>
      <trkpt lat="48.41892" lon="2.40986">
        <ele>99.400001525879</ele>
        <time>2024-04-07T08:58:50.000Z</time>
      </trkpt>
      <trkpt lat="48.41899" lon="2.40984">
        <ele>100.40000152588</ele>
        <time>2024-04-07T08:58:54.000Z</time>
      </trkpt>
      <trkpt lat="48.41904" lon="2.40982">
        <ele>101</ele>
        <time>2024-04-07T08:58:57.000Z</time>
      </trkpt>
      <trkpt lat="48.41906" lon="2.40981">
        <ele>101.40000152588</ele>
        <time>2024-04-07T08:58:58.000Z</time>
      </trkpt>
      <trkpt lat="48.41913" lon="2.40978">
        <ele>102.59999847412</ele>
        <time>2024-04-07T08:59:01.000Z</time>
      </trkpt>
      <trkpt lat="48.41918" lon="2.40976">
        <ele>103.80000305176</ele>
        <time>2024-04-07T08:59:04.000Z</time>
      </trkpt>
      <trkpt lat="48.41926" lon="2.40973">
        <ele>105</ele>
        <time>2024-04-07T08:59:08.000Z</time>
      </trkpt>
      <trkpt lat="48.4193" lon="2.4097">
        <ele>105.19999694824</ele>
        <time>2024-04-07T08:59:10.000Z</time>
      </trkpt>
      <trkpt lat="48.41939" lon="2.40962">
        <ele>106</ele>
        <time>2024-04-07T08:59:15.000Z</time>
      </trkpt>
      <trkpt lat="48.41941" lon="2.40962">
        <ele>106.19999694824</ele>
        <time>2024-04-07T08:59:19.000Z</time>
      </trkpt>
      <trkpt lat="48.41941" lon="2.40963">
        <ele>106.19999694824</ele>
        <time>2024-04-07T08:59:31.000Z</time>
      </trkpt>
      <trkpt lat="48.41941" lon="2.40964">
        <ele>106.19999694824</ele>
        <time>2024-04-07T08:59:36.000Z</time>
      </trkpt>
      <trkpt lat="48.41941" lon="2.40964">
        <ele>106.19999694824</ele>
        <time>2024-04-07T08:59:40.000Z</time>
      </trkpt>
      <trkpt lat="48.41941" lon="2.40963">
        <ele>106.19999694824</ele>
        <time>2024-04-07T08:59:46.000Z</time>
      </trkpt>
      <trkpt lat="48.41941" lon="2.40963">
        <ele>106.19999694824</ele>
        <time>2024-04-07T08:59:47.000Z</time>
      </trkpt>
      <trkpt lat="48.41941" lon="2.40963">
        <ele>106.19999694824</ele>
        <time>2024-04-07T08:59:50.000Z</time>
      </trkpt>
      <trkpt lat="48.41942" lon="2.40963">
        <ele>106</ele>
        <time>2024-04-07T08:59:55.000Z</time>
      </trkpt>
      <trkpt lat="48.41942" lon="2.40963">
        <ele>106</ele>
        <time>2024-04-07T09:00:00.000Z</time>
      </trkpt>
      <trkpt lat="48.41942" lon="2.40963">
        <ele>105.80000305176</ele>
        <time>2024-04-07T09:00:02.000Z</time>
      </trkpt>
      <trkpt lat="48.41942" lon="2.40963">
        <ele>105.80000305176</ele>
        <time>2024-04-07T09:00:22.000Z</time>
      </trkpt>
      <trkpt lat="48.41942" lon="2.40966">
        <ele>105.80000305176</ele>
        <time>2024-04-07T09:00:34.000Z</time>
      </trkpt>
      <trkpt lat="48.4194" lon="2.40966">
        <ele>105.80000305176</ele>
        <time>2024-04-07T09:00:38.000Z</time>
      </trkpt>
      <trkpt lat="48.4194" lon="2.40966">
        <ele>105.80000305176</ele>
        <time>2024-04-07T09:00:42.000Z</time>
      </trkpt>
      <trkpt lat="48.4194" lon="2.40966">
        <ele>105.80000305176</ele>
        <time>2024-04-07T09:00:45.000Z</time>
      </trkpt>
      <trkpt lat="48.41942" lon="2.40964">
        <ele>105.80000305176</ele>
        <time>2024-04-07T09:00:58.000Z</time>
      </trkpt>
      <trkpt lat="48.41942" lon="2.40964">
        <ele>105.80000305176</ele>
        <time>2024-04-07T09:01:01.000Z</time>
      </trkpt>
      <trkpt lat="48.41944" lon="2.40962">
        <ele>105.80000305176</ele>
        <time>2024-04-07T09:01:09.000Z</time>
      </trkpt>
      <trkpt lat="48.41944" lon="2.40962">
        <ele>105.80000305176</ele>
        <time>2024-04-07T09:01:12.000Z</time>
      </trkpt>
      <trkpt lat="48.41944" lon="2.40962">
        <ele>105.80000305176</ele>
        <time>2024-04-07T09:01:16.000Z</time>
      </trkpt>
      <trkpt lat="48.41945" lon="2.40962">
        <ele>105.80000305176</ele>
        <time>2024-04-07T09:01:18.000Z</time>
      </trkpt>
      <trkpt lat="48.41944" lon="2.40961">
        <ele>105.80000305176</ele>
        <time>2024-04-07T09:01:27.000Z</time>
      </trkpt>
      <trkpt lat="48.41946" lon="2.40962">
        <ele>106</ele>
        <time>2024-04-07T09:01:31.000Z</time>
      </trkpt>
      <trkpt lat="48.41946" lon="2.40962">
        <ele>106</ele>
        <time>2024-04-07T09:01:36.000Z</time>
      </trkpt>
      <trkpt lat="48.41946" lon="2.40962">
        <ele>106</ele>
        <time>2024-04-07T09:01:43.000Z</time>
      </trkpt>
      <trkpt lat="48.41946" lon="2.40961">
        <ele>106</ele>
        <time>2024-04-07T09:01:46.000Z</time>
      </trkpt>
      <trkpt lat="48.41948" lon="2.40961">
        <ele>106</ele>
        <time>2024-04-07T09:01:50.000Z</time>
      </trkpt>
      <trkpt lat="48.41951" lon="2.40961">
        <ele>106.19999694824</ele>
        <time>2024-04-07T09:01:54.000Z</time>
      </trkpt>
      <trkpt lat="48.41952" lon="2.40961">
        <ele>106.19999694824</ele>
        <time>2024-04-07T09:01:57.000Z</time>
      </trkpt>
      <trkpt lat="48.41952" lon="2.40962">
        <ele>106.40000152588</ele>
        <time>2024-04-07T09:02:02.000Z</time>
      </trkpt>
      <trkpt lat="48.41952" lon="2.40962">
        <ele>106.40000152588</ele>
        <time>2024-04-07T09:02:06.000Z</time>
      </trkpt>
      <trkpt lat="48.41953" lon="2.40963">
        <ele>106.40000152588</ele>
        <time>2024-04-07T09:02:10.000Z</time>
      </trkpt>
      <trkpt lat="48.41953" lon="2.40963">
        <ele>106.40000152588</ele>
        <time>2024-04-07T09:02:11.000Z</time>
      </trkpt>
      <trkpt lat="48.41953" lon="2.40962">
        <ele>106.40000152588</ele>
        <time>2024-04-07T09:02:13.000Z</time>
      </trkpt>
      <trkpt lat="48.41953" lon="2.40961">
        <ele>106.59999847412</ele>
        <time>2024-04-07T09:02:18.000Z</time>
      </trkpt>
      <trkpt lat="48.41953" lon="2.40961">
        <ele>106.59999847412</ele>
        <time>2024-04-07T09:02:21.000Z</time>
      </trkpt>
      <trkpt lat="48.41953" lon="2.40961">
        <ele>106.59999847412</ele>
        <time>2024-04-07T09:02:26.000Z</time>
      </trkpt>
      <trkpt lat="48.41952" lon="2.40961">
        <ele>106.59999847412</ele>
        <time>2024-04-07T09:02:30.000Z</time>
      </trkpt>
      <trkpt lat="48.41956" lon="2.40957">
        <ele>106.59999847412</ele>
        <time>2024-04-07T09:02:34.000Z</time>
      </trkpt>
      <trkpt lat="48.4196" lon="2.40955">
        <ele>106.59999847412</ele>
        <time>2024-04-07T09:02:36.000Z</time>
      </trkpt>
      <trkpt lat="48.41966" lon="2.4095">
        <ele>106.80000305176</ele>
        <time>2024-04-07T09:02:41.000Z</time>
      </trkpt>
      <trkpt lat="48.41968" lon="2.40948">
        <ele>106.80000305176</ele>
        <time>2024-04-07T09:02:42.000Z</time>
      </trkpt>
      <trkpt lat="48.4197" lon="2.40945">
        <ele>106.80000305176</ele>
        <time>2024-04-07T09:02:44.000Z</time>
      </trkpt>
      <trkpt lat="48.41975" lon="2.4094">
        <ele>106.80000305176</ele>
        <time>2024-04-07T09:02:47.000Z</time>
      </trkpt>
      <trkpt lat="48.41978" lon="2.40936">
        <ele>107.19999694824</ele>
        <time>2024-04-07T09:02:49.000Z</time>
      </trkpt>
      <trkpt lat="48.41983" lon="2.40929">
        <ele>107.40000152588</ele>
        <time>2024-04-07T09:02:52.000Z</time>
      </trkpt>
      <trkpt lat="48.41988" lon="2.40926">
        <ele>107.40000152588</ele>
        <time>2024-04-07T09:02:54.000Z</time>
      </trkpt>
      <trkpt lat="48.42004" lon="2.40914">
        <ele>107.40000152588</ele>
        <time>2024-04-07T09:03:00.000Z</time>
      </trkpt>
      <trkpt lat="48.42015" lon="2.40907">
        <ele>107.19999694824</ele>
        <time>2024-04-07T09:03:04.000Z</time>
      </trkpt>
      <trkpt lat="48.42023" lon="2.40903">
        <ele>107</ele>
        <time>2024-04-07T09:03:05.000Z</time>
      </trkpt>
      <trkpt lat="48.42035" lon="2.40886">
        <ele>106.80000305176</ele>
        <time>2024-04-07T09:03:08.000Z</time>
      </trkpt>
      <trkpt lat="48.42037" lon="2.40874">
        <ele>106.59999847412</ele>
        <time>2024-04-07T09:03:10.000Z</time>
      </trkpt>
      <trkpt lat="48.42038" lon="2.40871">
        <ele>106</ele>
        <time>2024-04-07T09:03:11.000Z</time>
      </trkpt>
      <trkpt lat="48.4204" lon="2.40871">
        <ele>104.19999694824</ele>
        <time>2024-04-07T09:03:12.000Z</time>
      </trkpt>
      <trkpt lat="48.42042" lon="2.4087">
        <ele>101.80000305176</ele>
        <time>2024-04-07T09:03:13.000Z</time>
      </trkpt>
      <trkpt lat="48.42044" lon="2.4087">
        <ele>99.599998474121</ele>
        <time>2024-04-07T09:03:14.000Z</time>
      </trkpt>
      <trkpt lat="48.42047" lon="2.40871">
        <ele>98.199996948242</ele>
        <time>2024-04-07T09:03:15.000Z</time>
      </trkpt>
      <trkpt lat="48.42052" lon="2.40874">
        <ele>97</ele>
        <time>2024-04-07T09:03:17.000Z</time>
      </trkpt>
      <trkpt lat="48.42055" lon="2.40876">
        <ele>96.199996948242</ele>
        <time>2024-04-07T09:03:18.000Z</time>
      </trkpt>
      <trkpt lat="48.42058" lon="2.40878">
        <ele>95.599998474121</ele>
        <time>2024-04-07T09:03:19.000Z</time>
      </trkpt>
      <trkpt lat="48.42071" lon="2.40894">
        <ele>95</ele>
        <time>2024-04-07T09:03:24.000Z</time>
      </trkpt>
      <trkpt lat="48.42079" lon="2.40903">
        <ele>95</ele>
        <time>2024-04-07T09:03:28.000Z</time>
      </trkpt>
      <trkpt lat="48.42083" lon="2.4091">
        <ele>95.199996948242</ele>
        <time>2024-04-07T09:03:31.000Z</time>
      </trkpt>
      <trkpt lat="48.42092" lon="2.40917">
        <ele>97</ele>
        <time>2024-04-07T09:03:35.000Z</time>
      </trkpt>
      <trkpt lat="48.42097" lon="2.40918">
        <ele>98</ele>
        <time>2024-04-07T09:03:37.000Z</time>
      </trkpt>
      <trkpt lat="48.42099" lon="2.40918">
        <ele>98.400001525879</ele>
        <time>2024-04-07T09:03:38.000Z</time>
      </trkpt>
      <trkpt lat="48.42102" lon="2.40917">
        <ele>99</ele>
        <time>2024-04-07T09:03:40.000Z</time>
      </trkpt>
      <trkpt lat="48.42103" lon="2.40915">
        <ele>99.400001525879</ele>
        <time>2024-04-07T09:03:41.000Z</time>
      </trkpt>
      <trkpt lat="48.42104" lon="2.40913">
        <ele>99.800003051758</ele>
        <time>2024-04-07T09:03:42.000Z</time>
      </trkpt>
      <trkpt lat="48.42104" lon="2.40906">
        <ele>100.19999694824</ele>
        <time>2024-04-07T09:03:45.000Z</time>
      </trkpt>
      <trkpt lat="48.42104" lon="2.40904">
        <ele>100.80000305176</ele>
        <time>2024-04-07T09:03:46.000Z</time>
      </trkpt>
      <trkpt lat="48.42106" lon="2.40902">
        <ele>101.40000152588</ele>
        <time>2024-04-07T09:03:47.000Z</time>
      </trkpt>
      <trkpt lat="48.42106" lon="2.40899">
        <ele>101.80000305176</ele>
        <time>2024-04-07T09:03:48.000Z</time>
      </trkpt>
      <trkpt lat="48.42106" lon="2.40892">
        <ele>102.40000152588</ele>
        <time>2024-04-07T09:03:50.000Z</time>
      </trkpt>
      <trkpt lat="48.42106" lon="2.40885">
        <ele>102.40000152588</ele>
        <time>2024-04-07T09:03:52.000Z</time>
      </trkpt>
      <trkpt lat="48.42105" lon="2.40877">
        <ele>102.59999847412</ele>
        <time>2024-04-07T09:03:55.000Z</time>
      </trkpt>
      <trkpt lat="48.42102" lon="2.40872">
        <ele>102.59999847412</ele>
        <time>2024-04-07T09:03:57.000Z</time>
      </trkpt>
      <trkpt lat="48.42097" lon="2.40863">
        <ele>102.59999847412</ele>
        <time>2024-04-07T09:03:59.000Z</time>
      </trkpt>
      <trkpt lat="48.42093" lon="2.40857">
        <ele>102.59999847412</ele>
        <time>2024-04-07T09:04:00.000Z</time>
      </trkpt>
      <trkpt lat="48.42091" lon="2.4085">
        <ele>102.59999847412</ele>
        <time>2024-04-07T09:04:01.000Z</time>
      </trkpt>
      <trkpt lat="48.42087" lon="2.40818">
        <ele>102</ele>
        <time>2024-04-07T09:04:04.000Z</time>
      </trkpt>
      <trkpt lat="48.42091" lon="2.40793">
        <ele>101.59999847412</ele>
        <time>2024-04-07T09:04:06.000Z</time>
      </trkpt>
      <trkpt lat="48.42092" lon="2.40781">
        <ele>100.59999847412</ele>
        <time>2024-04-07T09:04:07.000Z</time>
      </trkpt>
      <trkpt lat="48.42093" lon="2.4077">
        <ele>99.400001525879</ele>
        <time>2024-04-07T09:04:08.000Z</time>
      </trkpt>
      <trkpt lat="48.42094" lon="2.40758">
        <ele>98.400001525879</ele>
        <time>2024-04-07T09:04:09.000Z</time>
      </trkpt>
      <trkpt lat="48.42096" lon="2.40748">
        <ele>97.199996948242</ele>
        <time>2024-04-07T09:04:10.000Z</time>
      </trkpt>
      <trkpt lat="48.42097" lon="2.40738">
        <ele>96.199996948242</ele>
        <time>2024-04-07T09:04:11.000Z</time>
      </trkpt>
      <trkpt lat="48.421" lon="2.40728">
        <ele>94.599998474121</ele>
        <time>2024-04-07T09:04:12.000Z</time>
      </trkpt>
      <trkpt lat="48.42101" lon="2.4072">
        <ele>92.800003051758</ele>
        <time>2024-04-07T09:04:13.000Z</time>
      </trkpt>
      <trkpt lat="48.42101" lon="2.40712">
        <ele>91.599998474121</ele>
        <time>2024-04-07T09:04:14.000Z</time>
      </trkpt>
      <trkpt lat="48.42097" lon="2.40696">
        <ele>90</ele>
        <time>2024-04-07T09:04:16.000Z</time>
      </trkpt>
      <trkpt lat="48.42094" lon="2.40688">
        <ele>88.800003051758</ele>
        <time>2024-04-07T09:04:17.000Z</time>
      </trkpt>
      <trkpt lat="48.42092" lon="2.40681">
        <ele>87.599998474121</ele>
        <time>2024-04-07T09:04:18.000Z</time>
      </trkpt>
      <trkpt lat="48.42092" lon="2.40668">
        <ele>85.599998474121</ele>
        <time>2024-04-07T09:04:20.000Z</time>
      </trkpt>
      <trkpt lat="48.42095" lon="2.40662">
        <ele>84.400001525879</ele>
        <time>2024-04-07T09:04:21.000Z</time>
      </trkpt>
      <trkpt lat="48.42101" lon="2.40649">
        <ele>83.199996948242</ele>
        <time>2024-04-07T09:04:23.000Z</time>
      </trkpt>
      <trkpt lat="48.42107" lon="2.40634">
        <ele>81.800003051758</ele>
        <time>2024-04-07T09:04:25.000Z</time>
      </trkpt>
      <trkpt lat="48.42112" lon="2.40613">
        <ele>81</ele>
        <time>2024-04-07T09:04:28.000Z</time>
      </trkpt>
      <trkpt lat="48.4211" lon="2.40595">
        <ele>80.800003051758</ele>
        <time>2024-04-07T09:04:30.000Z</time>
      </trkpt>
      <trkpt lat="48.4211" lon="2.40587">
        <ele>80.400001525879</ele>
        <time>2024-04-07T09:04:31.000Z</time>
      </trkpt>
      <trkpt lat="48.4211" lon="2.4058">
        <ele>80</ele>
        <time>2024-04-07T09:04:32.000Z</time>
      </trkpt>
      <trkpt lat="48.42111" lon="2.40575">
        <ele>79.400001525879</ele>
        <time>2024-04-07T09:04:33.000Z</time>
      </trkpt>
      <trkpt lat="48.42113" lon="2.4057">
        <ele>78.800003051758</ele>
        <time>2024-04-07T09:04:34.000Z</time>
      </trkpt>
      <trkpt lat="48.42118" lon="2.40564">
        <ele>78.400001525879</ele>
        <time>2024-04-07T09:04:36.000Z</time>
      </trkpt>
      <trkpt lat="48.42121" lon="2.40558">
        <ele>78.199996948242</ele>
        <time>2024-04-07T09:04:38.000Z</time>
      </trkpt>
      <trkpt lat="48.42132" lon="2.4054">
        <ele>78.400001525879</ele>
        <time>2024-04-07T09:04:45.000Z</time>
      </trkpt>
      <trkpt lat="48.42136" lon="2.40534">
        <ele>79.400001525879</ele>
        <time>2024-04-07T09:04:47.000Z</time>
      </trkpt>
      <trkpt lat="48.42141" lon="2.40525">
        <ele>80</ele>
        <time>2024-04-07T09:04:49.000Z</time>
      </trkpt>
      <trkpt lat="48.42149" lon="2.40506">
        <ele>80.199996948242</ele>
        <time>2024-04-07T09:04:52.000Z</time>
      </trkpt>
      <trkpt lat="48.42154" lon="2.40492">
        <ele>80.199996948242</ele>
        <time>2024-04-07T09:04:54.000Z</time>
      </trkpt>
      <trkpt lat="48.42153" lon="2.40477">
        <ele>80.199996948242</ele>
        <time>2024-04-07T09:04:56.000Z</time>
      </trkpt>
      <trkpt lat="48.42153" lon="2.4047">
        <ele>80</ele>
        <time>2024-04-07T09:04:57.000Z</time>
      </trkpt>
      <trkpt lat="48.42154" lon="2.40464">
        <ele>80</ele>
        <time>2024-04-07T09:04:58.000Z</time>
      </trkpt>
      <trkpt lat="48.42164" lon="2.40455">
        <ele>78.599998474121</ele>
        <time>2024-04-07T09:05:01.000Z</time>
      </trkpt>
      <trkpt lat="48.42167" lon="2.40452">
        <ele>78.400001525879</ele>
        <time>2024-04-07T09:05:02.000Z</time>
      </trkpt>
      <trkpt lat="48.42179" lon="2.40434">
        <ele>78</ele>
        <time>2024-04-07T09:05:06.000Z</time>
      </trkpt>
      <trkpt lat="48.42182" lon="2.40429">
        <ele>78</ele>
        <time>2024-04-07T09:05:07.000Z</time>
      </trkpt>
      <trkpt lat="48.42193" lon="2.40408">
        <ele>78</ele>
        <time>2024-04-07T09:05:11.000Z</time>
      </trkpt>
      <trkpt lat="48.42208" lon="2.40386">
        <ele>78</ele>
        <time>2024-04-07T09:05:16.000Z</time>
      </trkpt>
      <trkpt lat="48.42212" lon="2.40395">
        <ele>78</ele>
        <time>2024-04-07T09:05:19.000Z</time>
      </trkpt>
      <trkpt lat="48.42217" lon="2.40417">
        <ele>78.199996948242</ele>
        <time>2024-04-07T09:05:25.000Z</time>
      </trkpt>
      <trkpt lat="48.42227" lon="2.40439">
        <ele>79.199996948242</ele>
        <time>2024-04-07T09:05:32.000Z</time>
      </trkpt>
      <trkpt lat="48.4223" lon="2.40446">
        <ele>79.400001525879</ele>
        <time>2024-04-07T09:05:34.000Z</time>
      </trkpt>
      <trkpt lat="48.42235" lon="2.40458">
        <ele>80.599998474121</ele>
        <time>2024-04-07T09:05:38.000Z</time>
      </trkpt>
      <trkpt lat="48.42241" lon="2.40471">
        <ele>81.599998474121</ele>
        <time>2024-04-07T09:05:42.000Z</time>
      </trkpt>
      <trkpt lat="48.42247" lon="2.40484">
        <ele>82.400001525879</ele>
        <time>2024-04-07T09:05:46.000Z</time>
      </trkpt>
      <trkpt lat="48.42248" lon="2.40487">
        <ele>82.599998474121</ele>
        <time>2024-04-07T09:05:47.000Z</time>
      </trkpt>
      <trkpt lat="48.42255" lon="2.40509">
        <ele>83.800003051758</ele>
        <time>2024-04-07T09:05:53.000Z</time>
      </trkpt>
      <trkpt lat="48.42261" lon="2.40526">
        <ele>85.199996948242</ele>
        <time>2024-04-07T09:05:58.000Z</time>
      </trkpt>
      <trkpt lat="48.42263" lon="2.40528">
        <ele>85.400001525879</ele>
        <time>2024-04-07T09:05:59.000Z</time>
      </trkpt>
      <trkpt lat="48.42264" lon="2.40532">
        <ele>85.599998474121</ele>
        <time>2024-04-07T09:06:00.000Z</time>
      </trkpt>
      <trkpt lat="48.42272" lon="2.40549">
        <ele>86</ele>
        <time>2024-04-07T09:06:04.000Z</time>
      </trkpt>
      <trkpt lat="48.42272" lon="2.40552">
        <ele>86.199996948242</ele>
        <time>2024-04-07T09:06:05.000Z</time>
      </trkpt>
      <trkpt lat="48.42274" lon="2.40559">
        <ele>86.400001525879</ele>
        <time>2024-04-07T09:06:07.000Z</time>
      </trkpt>
      <trkpt lat="48.42275" lon="2.40563">
        <ele>86.800003051758</ele>
        <time>2024-04-07T09:06:08.000Z</time>
      </trkpt>
      <trkpt lat="48.42275" lon="2.40571">
        <ele>87.199996948242</ele>
        <time>2024-04-07T09:06:10.000Z</time>
      </trkpt>
      <trkpt lat="48.42275" lon="2.4058">
        <ele>88</ele>
        <time>2024-04-07T09:06:13.000Z</time>
      </trkpt>
      <trkpt lat="48.42275" lon="2.40583">
        <ele>88.199996948242</ele>
        <time>2024-04-07T09:06:14.000Z</time>
      </trkpt>
      <trkpt lat="48.42275" lon="2.40586">
        <ele>88.400001525879</ele>
        <time>2024-04-07T09:06:15.000Z</time>
      </trkpt>
      <trkpt lat="48.42278" lon="2.40598">
        <ele>89.400001525879</ele>
        <time>2024-04-07T09:06:19.000Z</time>
      </trkpt>
      <trkpt lat="48.42281" lon="2.40604">
        <ele>90</ele>
        <time>2024-04-07T09:06:21.000Z</time>
      </trkpt>
      <trkpt lat="48.42284" lon="2.4061">
        <ele>90.800003051758</ele>
        <time>2024-04-07T09:06:23.000Z</time>
      </trkpt>
      <trkpt lat="48.42294" lon="2.40628">
        <ele>92</ele>
        <time>2024-04-07T09:06:29.000Z</time>
      </trkpt>
      <trkpt lat="48.42303" lon="2.40642">
        <ele>93</ele>
        <time>2024-04-07T09:06:34.000Z</time>
      </trkpt>
      <trkpt lat="48.42309" lon="2.40652">
        <ele>94</ele>
        <time>2024-04-07T09:06:37.000Z</time>
      </trkpt>
      <trkpt lat="48.42311" lon="2.40654">
        <ele>94.199996948242</ele>
        <time>2024-04-07T09:06:38.000Z</time>
      </trkpt>
      <trkpt lat="48.42317" lon="2.40665">
        <ele>95.400001525879</ele>
        <time>2024-04-07T09:06:42.000Z</time>
      </trkpt>
      <trkpt lat="48.42319" lon="2.40671">
        <ele>95.800003051758</ele>
        <time>2024-04-07T09:06:44.000Z</time>
      </trkpt>
      <trkpt lat="48.42324" lon="2.40681">
        <ele>96.400001525879</ele>
        <time>2024-04-07T09:06:48.000Z</time>
      </trkpt>
      <trkpt lat="48.42327" lon="2.40691">
        <ele>97.599998474121</ele>
        <time>2024-04-07T09:06:52.000Z</time>
      </trkpt>
      <trkpt lat="48.42332" lon="2.407">
        <ele>98.800003051758</ele>
        <time>2024-04-07T09:06:56.000Z</time>
      </trkpt>
      <trkpt lat="48.42335" lon="2.40704">
        <ele>99.400001525879</ele>
        <time>2024-04-07T09:06:58.000Z</time>
      </trkpt>
      <trkpt lat="48.42341" lon="2.40712">
        <ele>99.800003051758</ele>
        <time>2024-04-07T09:07:01.000Z</time>
      </trkpt>
      <trkpt lat="48.42347" lon="2.40722">
        <ele>100.19999694824</ele>
        <time>2024-04-07T09:07:05.000Z</time>
      </trkpt>
      <trkpt lat="48.42359" lon="2.40739">
        <ele>100.80000305176</ele>
        <time>2024-04-07T09:07:13.000Z</time>
      </trkpt>
      <trkpt lat="48.4236" lon="2.4074">
        <ele>101</ele>
        <time>2024-04-07T09:07:14.000Z</time>
      </trkpt>
      <trkpt lat="48.42368" lon="2.40751">
        <ele>101.80000305176</ele>
        <time>2024-04-07T09:07:19.000Z</time>
      </trkpt>
      <trkpt lat="48.4237" lon="2.40754">
        <ele>102.19999694824</ele>
        <time>2024-04-07T09:07:20.000Z</time>
      </trkpt>
      <trkpt lat="48.42379" lon="2.40765">
        <ele>103.40000152588</ele>
        <time>2024-04-07T09:07:24.000Z</time>
      </trkpt>
      <trkpt lat="48.42382" lon="2.40768">
        <ele>103.59999847412</ele>
        <time>2024-04-07T09:07:25.000Z</time>
      </trkpt>
      <trkpt lat="48.42385" lon="2.40775">
        <ele>104.19999694824</ele>
        <time>2024-04-07T09:07:27.000Z</time>
      </trkpt>
      <trkpt lat="48.42385" lon="2.40778">
        <ele>104.40000152588</ele>
        <time>2024-04-07T09:07:28.000Z</time>
      </trkpt>
      <trkpt lat="48.42386" lon="2.40781">
        <ele>104.80000305176</ele>
        <time>2024-04-07T09:07:29.000Z</time>
      </trkpt>
      <trkpt lat="48.4239" lon="2.40792">
        <ele>105.40000152588</ele>
        <time>2024-04-07T09:07:33.000Z</time>
      </trkpt>
      <trkpt lat="48.4239" lon="2.40794">
        <ele>105.80000305176</ele>
        <time>2024-04-07T09:07:34.000Z</time>
      </trkpt>
      <trkpt lat="48.42393" lon="2.40801">
        <ele>106.59999847412</ele>
        <time>2024-04-07T09:07:37.000Z</time>
      </trkpt>
      <trkpt lat="48.42396" lon="2.40812">
        <ele>107.40000152588</ele>
        <time>2024-04-07T09:07:41.000Z</time>
      </trkpt>
      <trkpt lat="48.42398" lon="2.40816">
        <ele>107.80000305176</ele>
        <time>2024-04-07T09:07:43.000Z</time>
      </trkpt>
      <trkpt lat="48.424" lon="2.40817">
        <ele>108.19999694824</ele>
        <time>2024-04-07T09:07:44.000Z</time>
      </trkpt>
      <trkpt lat="48.42403" lon="2.4082">
        <ele>108.80000305176</ele>
        <time>2024-04-07T09:07:46.000Z</time>
      </trkpt>
      <trkpt lat="48.42405" lon="2.40821">
        <ele>109</ele>
        <time>2024-04-07T09:07:47.000Z</time>
      </trkpt>
      <trkpt lat="48.42409" lon="2.40824">
        <ele>110.59999847412</ele>
        <time>2024-04-07T09:07:50.000Z</time>
      </trkpt>
      <trkpt lat="48.4241" lon="2.40825">
        <ele>110.80000305176</ele>
        <time>2024-04-07T09:07:51.000Z</time>
      </trkpt>
      <trkpt lat="48.42415" lon="2.40832">
        <ele>111.59999847412</ele>
        <time>2024-04-07T09:07:54.000Z</time>
      </trkpt>
      <trkpt lat="48.4242" lon="2.4084">
        <ele>112.80000305176</ele>
        <time>2024-04-07T09:07:59.000Z</time>
      </trkpt>
      <trkpt lat="48.4242" lon="2.40844">
        <ele>113.19999694824</ele>
        <time>2024-04-07T09:08:01.000Z</time>
      </trkpt>
      <trkpt lat="48.42423" lon="2.4085">
        <ele>114</ele>
        <time>2024-04-07T09:08:04.000Z</time>
      </trkpt>
      <trkpt lat="48.42426" lon="2.40857">
        <ele>115.40000152588</ele>
        <time>2024-04-07T09:08:08.000Z</time>
      </trkpt>
      <trkpt lat="48.42428" lon="2.40863">
        <ele>116.40000152588</ele>
        <time>2024-04-07T09:08:11.000Z</time>
      </trkpt>
      <trkpt lat="48.4243" lon="2.40871">
        <ele>117.40000152588</ele>
        <time>2024-04-07T09:08:15.000Z</time>
      </trkpt>
      <trkpt lat="48.42431" lon="2.4088">
        <ele>118.80000305176</ele>
        <time>2024-04-07T09:08:19.000Z</time>
      </trkpt>
      <trkpt lat="48.42431" lon="2.40883">
        <ele>119.19999694824</ele>
        <time>2024-04-07T09:08:20.000Z</time>
      </trkpt>
      <trkpt lat="48.4243" lon="2.40889">
        <ele>120</ele>
        <time>2024-04-07T09:08:23.000Z</time>
      </trkpt>
      <trkpt lat="48.42429" lon="2.40899">
        <ele>121.19999694824</ele>
        <time>2024-04-07T09:08:28.000Z</time>
      </trkpt>
      <trkpt lat="48.42429" lon="2.40904">
        <ele>121.59999847412</ele>
        <time>2024-04-07T09:08:30.000Z</time>
      </trkpt>
      <trkpt lat="48.42429" lon="2.40911">
        <ele>122.19999694824</ele>
        <time>2024-04-07T09:08:33.000Z</time>
      </trkpt>
      <trkpt lat="48.42427" lon="2.40919">
        <ele>123.40000152588</ele>
        <time>2024-04-07T09:08:37.000Z</time>
      </trkpt>
      <trkpt lat="48.42427" lon="2.40929">
        <ele>124.40000152588</ele>
        <time>2024-04-07T09:08:41.000Z</time>
      </trkpt>
      <trkpt lat="48.42427" lon="2.4093">
        <ele>124.59999847412</ele>
        <time>2024-04-07T09:08:42.000Z</time>
      </trkpt>
      <trkpt lat="48.42421" lon="2.4093">
        <ele>125.80000305176</ele>
        <time>2024-04-07T09:08:47.000Z</time>
      </trkpt>
      <trkpt lat="48.42418" lon="2.40928">
        <ele>126</ele>
        <time>2024-04-07T09:08:48.000Z</time>
      </trkpt>
      <trkpt lat="48.42409" lon="2.40925">
        <ele>126</ele>
        <time>2024-04-07T09:08:51.000Z</time>
      </trkpt>
      <trkpt lat="48.42407" lon="2.40924">
        <ele>126</ele>
        <time>2024-04-07T09:08:52.000Z</time>
      </trkpt>
      <trkpt lat="48.42404" lon="2.40925">
        <ele>126</ele>
        <time>2024-04-07T09:08:53.000Z</time>
      </trkpt>
      <trkpt lat="48.42394" lon="2.4093">
        <ele>125.59999847412</ele>
        <time>2024-04-07T09:08:57.000Z</time>
      </trkpt>
      <trkpt lat="48.42382" lon="2.40924">
        <ele>124.59999847412</ele>
        <time>2024-04-07T09:09:01.000Z</time>
      </trkpt>
      <trkpt lat="48.42378" lon="2.4092">
        <ele>124.59999847412</ele>
        <time>2024-04-07T09:09:02.000Z</time>
      </trkpt>
      <trkpt lat="48.42373" lon="2.40917">
        <ele>124.40000152588</ele>
        <time>2024-04-07T09:09:03.000Z</time>
      </trkpt>
      <trkpt lat="48.42361" lon="2.40912">
        <ele>124</ele>
        <time>2024-04-07T09:09:05.000Z</time>
      </trkpt>
      <trkpt lat="48.42348" lon="2.40906">
        <ele>123.40000152588</ele>
        <time>2024-04-07T09:09:08.000Z</time>
      </trkpt>
      <trkpt lat="48.42344" lon="2.40906">
        <ele>123</ele>
        <time>2024-04-07T09:09:09.000Z</time>
      </trkpt>
      <trkpt lat="48.4234" lon="2.40905">
        <ele>122.19999694824</ele>
        <time>2024-04-07T09:09:10.000Z</time>
      </trkpt>
      <trkpt lat="48.42325" lon="2.409">
        <ele>121.59999847412</ele>
        <time>2024-04-07T09:09:15.000Z</time>
      </trkpt>
      <trkpt lat="48.42316" lon="2.40888">
        <ele>121.59999847412</ele>
        <time>2024-04-07T09:09:20.000Z</time>
      </trkpt>
      <trkpt lat="48.42314" lon="2.40881">
        <ele>122</ele>
        <time>2024-04-07T09:09:23.000Z</time>
      </trkpt>
      <trkpt lat="48.42311" lon="2.40881">
        <ele>122.40000152588</ele>
        <time>2024-04-07T09:09:25.000Z</time>
      </trkpt>
      <trkpt lat="48.42305" lon="2.4088">
        <ele>122.59999847412</ele>
        <time>2024-04-07T09:09:30.000Z</time>
      </trkpt>
      <trkpt lat="48.42302" lon="2.40878">
        <ele>122.80000305176</ele>
        <time>2024-04-07T09:09:33.000Z</time>
      </trkpt>
      <trkpt lat="48.42294" lon="2.40874">
        <ele>122.59999847412</ele>
        <time>2024-04-07T09:09:36.000Z</time>
      </trkpt>
      <trkpt lat="48.42288" lon="2.40865">
        <ele>122.40000152588</ele>
        <time>2024-04-07T09:09:40.000Z</time>
      </trkpt>
      <trkpt lat="48.42285" lon="2.40863">
        <ele>122.40000152588</ele>
        <time>2024-04-07T09:09:41.000Z</time>
      </trkpt>
      <trkpt lat="48.4228" lon="2.4086">
        <ele>121</ele>
        <time>2024-04-07T09:09:44.000Z</time>
      </trkpt>
      <trkpt lat="48.42278" lon="2.40859">
        <ele>119.59999847412</ele>
        <time>2024-04-07T09:09:45.000Z</time>
      </trkpt>
      <trkpt lat="48.42273" lon="2.40858">
        <ele>117.40000152588</ele>
        <time>2024-04-07T09:09:47.000Z</time>
      </trkpt>
      <trkpt lat="48.42267" lon="2.40851">
        <ele>116</ele>
        <time>2024-04-07T09:09:50.000Z</time>
      </trkpt>
      <trkpt lat="48.42263" lon="2.40852">
        <ele>114.59999847412</ele>
        <time>2024-04-07T09:09:52.000Z</time>
      </trkpt>
      <trkpt lat="48.42258" lon="2.4085">
        <ele>112.59999847412</ele>
        <time>2024-04-07T09:09:54.000Z</time>
      </trkpt>
      <trkpt lat="48.42255" lon="2.40848">
        <ele>111.40000152588</ele>
        <time>2024-04-07T09:09:55.000Z</time>
      </trkpt>
      <trkpt lat="48.42252" lon="2.40845">
        <ele>110.40000152588</ele>
        <time>2024-04-07T09:09:56.000Z</time>
      </trkpt>
      <trkpt lat="48.4225" lon="2.40844">
        <ele>109.19999694824</ele>
        <time>2024-04-07T09:09:57.000Z</time>
      </trkpt>
      <trkpt lat="48.42248" lon="2.40845">
        <ele>108</ele>
        <time>2024-04-07T09:09:58.000Z</time>
      </trkpt>
      <trkpt lat="48.42247" lon="2.40848">
        <ele>107</ele>
        <time>2024-04-07T09:09:59.000Z</time>
      </trkpt>
      <trkpt lat="48.42245" lon="2.40855">
        <ele>105.80000305176</ele>
        <time>2024-04-07T09:10:01.000Z</time>
      </trkpt>
      <trkpt lat="48.42245" lon="2.40858">
        <ele>104.80000305176</ele>
        <time>2024-04-07T09:10:02.000Z</time>
      </trkpt>
      <trkpt lat="48.42244" lon="2.40861">
        <ele>103.59999847412</ele>
        <time>2024-04-07T09:10:03.000Z</time>
      </trkpt>
      <trkpt lat="48.42244" lon="2.40865">
        <ele>102.19999694824</ele>
        <time>2024-04-07T09:10:04.000Z</time>
      </trkpt>
      <trkpt lat="48.42243" lon="2.40869">
        <ele>101.19999694824</ele>
        <time>2024-04-07T09:10:05.000Z</time>
      </trkpt>
      <trkpt lat="48.42241" lon="2.40871">
        <ele>100.19999694824</ele>
        <time>2024-04-07T09:10:06.000Z</time>
      </trkpt>
      <trkpt lat="48.42239" lon="2.40872">
        <ele>99.199996948242</ele>
        <time>2024-04-07T09:10:07.000Z</time>
      </trkpt>
      <trkpt lat="48.42237" lon="2.40872">
        <ele>98</ele>
        <time>2024-04-07T09:10:08.000Z</time>
      </trkpt>
      <trkpt lat="48.42235" lon="2.40873">
        <ele>96.400001525879</ele>
        <time>2024-04-07T09:10:10.000Z</time>
      </trkpt>
      <trkpt lat="48.42234" lon="2.40873">
        <ele>95</ele>
        <time>2024-04-07T09:10:13.000Z</time>
      </trkpt>
      <trkpt lat="48.42234" lon="2.40873">
        <ele>94.599998474121</ele>
        <time>2024-04-07T09:10:14.000Z</time>
      </trkpt>
      <trkpt lat="48.42231" lon="2.40875">
        <ele>94.400001525879</ele>
        <time>2024-04-07T09:10:17.000Z</time>
      </trkpt>
      <trkpt lat="48.42232" lon="2.40877">
        <ele>94</ele>
        <time>2024-04-07T09:10:27.000Z</time>
      </trkpt>
      <trkpt lat="48.42235" lon="2.40875">
        <ele>94.199996948242</ele>
        <time>2024-04-07T09:10:45.000Z</time>
      </trkpt>
      <trkpt lat="48.42235" lon="2.40876">
        <ele>94</ele>
        <time>2024-04-07T09:10:57.000Z</time>
      </trkpt>
      <trkpt lat="48.42234" lon="2.40876">
        <ele>93.800003051758</ele>
        <time>2024-04-07T09:11:03.000Z</time>
      </trkpt>
      <trkpt lat="48.42234" lon="2.40876">
        <ele>93.800003051758</ele>
        <time>2024-04-07T09:11:06.000Z</time>
      </trkpt>
      <trkpt lat="48.42234" lon="2.40876">
        <ele>93.800003051758</ele>
        <time>2024-04-07T09:11:14.000Z</time>
      </trkpt>
      <trkpt lat="48.42233" lon="2.40877">
        <ele>94</ele>
        <time>2024-04-07T09:11:20.000Z</time>
      </trkpt>
      <trkpt lat="48.42233" lon="2.40877">
        <ele>94</ele>
        <time>2024-04-07T09:11:30.000Z</time>
      </trkpt>
      <trkpt lat="48.42233" lon="2.40877">
        <ele>94</ele>
        <time>2024-04-07T09:11:35.000Z</time>
      </trkpt>
      <trkpt lat="48.42233" lon="2.40878">
        <ele>94</ele>
        <time>2024-04-07T09:11:54.000Z</time>
      </trkpt>
      <trkpt lat="48.42233" lon="2.40876">
        <ele>94</ele>
        <time>2024-04-07T09:12:03.000Z</time>
      </trkpt>
      <trkpt lat="48.42233" lon="2.4087">
        <ele>94</ele>
        <time>2024-04-07T09:12:05.000Z</time>
      </trkpt>
      <trkpt lat="48.42232" lon="2.40866">
        <ele>94</ele>
        <time>2024-04-07T09:12:06.000Z</time>
      </trkpt>
      <trkpt lat="48.42225" lon="2.40841">
        <ele>94</ele>
        <time>2024-04-07T09:12:10.000Z</time>
      </trkpt>
      <trkpt lat="48.42221" lon="2.40834">
        <ele>94</ele>
        <time>2024-04-07T09:12:11.000Z</time>
      </trkpt>
      <trkpt lat="48.42216" lon="2.40819">
        <ele>93.599998474121</ele>
        <time>2024-04-07T09:12:13.000Z</time>
      </trkpt>
      <trkpt lat="48.42215" lon="2.40812">
        <ele>92</ele>
        <time>2024-04-07T09:12:14.000Z</time>
      </trkpt>
      <trkpt lat="48.42215" lon="2.40794">
        <ele>90.199996948242</ele>
        <time>2024-04-07T09:12:16.000Z</time>
      </trkpt>
      <trkpt lat="48.42213" lon="2.40788">
        <ele>89.800003051758</ele>
        <time>2024-04-07T09:12:17.000Z</time>
      </trkpt>
      <trkpt lat="48.42208" lon="2.40777">
        <ele>88.800003051758</ele>
        <time>2024-04-07T09:12:19.000Z</time>
      </trkpt>
      <trkpt lat="48.42202" lon="2.40774">
        <ele>87.400001525879</ele>
        <time>2024-04-07T09:12:21.000Z</time>
      </trkpt>
      <trkpt lat="48.42194" lon="2.40777">
        <ele>86.800003051758</ele>
        <time>2024-04-07T09:12:24.000Z</time>
      </trkpt>
      <trkpt lat="48.42192" lon="2.40783">
        <ele>86.599998474121</ele>
        <time>2024-04-07T09:12:26.000Z</time>
      </trkpt>
      <trkpt lat="48.42191" lon="2.40788">
        <ele>86.599998474121</ele>
        <time>2024-04-07T09:12:28.000Z</time>
      </trkpt>
      <trkpt lat="48.42191" lon="2.40791">
        <ele>86.599998474121</ele>
        <time>2024-04-07T09:12:29.000Z</time>
      </trkpt>
      <trkpt lat="48.42188" lon="2.40793">
        <ele>86.599998474121</ele>
        <time>2024-04-07T09:12:31.000Z</time>
      </trkpt>
      <trkpt lat="48.42186" lon="2.40793">
        <ele>86.599998474121</ele>
        <time>2024-04-07T09:12:32.000Z</time>
      </trkpt>
      <trkpt lat="48.42182" lon="2.40791">
        <ele>87</ele>
        <time>2024-04-07T09:12:34.000Z</time>
      </trkpt>
      <trkpt lat="48.4218" lon="2.4079">
        <ele>87.599998474121</ele>
        <time>2024-04-07T09:12:35.000Z</time>
      </trkpt>
      <trkpt lat="48.42177" lon="2.40787">
        <ele>89.199996948242</ele>
        <time>2024-04-07T09:12:37.000Z</time>
      </trkpt>
      <trkpt lat="48.42174" lon="2.40783">
        <ele>90.800003051758</ele>
        <time>2024-04-07T09:12:39.000Z</time>
      </trkpt>
      <trkpt lat="48.42169" lon="2.4078">
        <ele>91.599998474121</ele>
        <time>2024-04-07T09:12:41.000Z</time>
      </trkpt>
      <trkpt lat="48.42166" lon="2.40779">
        <ele>92</ele>
        <time>2024-04-07T09:12:43.000Z</time>
      </trkpt>
      <trkpt lat="48.42165" lon="2.40781">
        <ele>92</ele>
        <time>2024-04-07T09:12:45.000Z</time>
      </trkpt>
      <trkpt lat="48.42165" lon="2.40782">
        <ele>92.199996948242</ele>
        <time>2024-04-07T09:12:46.000Z</time>
      </trkpt>
      <trkpt lat="48.42166" lon="2.40788">
        <ele>92.400001525879</ele>
        <time>2024-04-07T09:12:50.000Z</time>
      </trkpt>
      <trkpt lat="48.42166" lon="2.40789">
        <ele>92.400001525879</ele>
        <time>2024-04-07T09:12:51.000Z</time>
      </trkpt>
      <trkpt lat="48.42166" lon="2.40789">
        <ele>93</ele>
        <time>2024-04-07T09:12:54.000Z</time>
      </trkpt>
      <trkpt lat="48.42167" lon="2.4079">
        <ele>93.599998474121</ele>
        <time>2024-04-07T09:12:56.000Z</time>
      </trkpt>
      <trkpt lat="48.42168" lon="2.40791">
        <ele>94.199996948242</ele>
        <time>2024-04-07T09:12:58.000Z</time>
      </trkpt>
      <trkpt lat="48.42169" lon="2.40794">
        <ele>95.199996948242</ele>
        <time>2024-04-07T09:13:02.000Z</time>
      </trkpt>
      <trkpt lat="48.42171" lon="2.408">
        <ele>95.599998474121</ele>
        <time>2024-04-07T09:13:08.000Z</time>
      </trkpt>
      <trkpt lat="48.42171" lon="2.40804">
        <ele>96.400001525879</ele>
        <time>2024-04-07T09:13:12.000Z</time>
      </trkpt>
      <trkpt lat="48.4217" lon="2.40809">
        <ele>97.199996948242</ele>
        <time>2024-04-07T09:13:18.000Z</time>
      </trkpt>
      <trkpt lat="48.4217" lon="2.4081">
        <ele>97.599998474121</ele>
        <time>2024-04-07T09:13:20.000Z</time>
      </trkpt>
      <trkpt lat="48.4217" lon="2.40814">
        <ele>97.800003051758</ele>
        <time>2024-04-07T09:13:25.000Z</time>
      </trkpt>
      <trkpt lat="48.42172" lon="2.40818">
        <ele>97.800003051758</ele>
        <time>2024-04-07T09:13:27.000Z</time>
      </trkpt>
      <trkpt lat="48.42172" lon="2.40821">
        <ele>97.800003051758</ele>
        <time>2024-04-07T09:13:28.000Z</time>
      </trkpt>
      <trkpt lat="48.42172" lon="2.40837">
        <ele>98</ele>
        <time>2024-04-07T09:13:34.000Z</time>
      </trkpt>
      <trkpt lat="48.42172" lon="2.40849">
        <ele>98.800003051758</ele>
        <time>2024-04-07T09:13:39.000Z</time>
      </trkpt>
      <trkpt lat="48.42173" lon="2.40853">
        <ele>99.800003051758</ele>
        <time>2024-04-07T09:13:41.000Z</time>
      </trkpt>
      <trkpt lat="48.42173" lon="2.40855">
        <ele>100.59999847412</ele>
        <time>2024-04-07T09:13:42.000Z</time>
      </trkpt>
      <trkpt lat="48.42177" lon="2.40865">
        <ele>101.80000305176</ele>
        <time>2024-04-07T09:13:46.000Z</time>
      </trkpt>
      <trkpt lat="48.42178" lon="2.40868">
        <ele>102.19999694824</ele>
        <time>2024-04-07T09:13:47.000Z</time>
      </trkpt>
      <trkpt lat="48.42182" lon="2.40881">
        <ele>103</ele>
        <time>2024-04-07T09:13:52.000Z</time>
      </trkpt>
      <trkpt lat="48.42184" lon="2.40885">
        <ele>103</ele>
        <time>2024-04-07T09:13:54.000Z</time>
      </trkpt>
      <trkpt lat="48.42184" lon="2.40896">
        <ele>103.19999694824</ele>
        <time>2024-04-07T09:13:58.000Z</time>
      </trkpt>
      <trkpt lat="48.42184" lon="2.40898">
        <ele>103.40000152588</ele>
        <time>2024-04-07T09:13:59.000Z</time>
      </trkpt>
      <trkpt lat="48.42186" lon="2.40909">
        <ele>103.59999847412</ele>
        <time>2024-04-07T09:14:03.000Z</time>
      </trkpt>
      <trkpt lat="48.42185" lon="2.40914">
        <ele>104</ele>
        <time>2024-04-07T09:14:05.000Z</time>
      </trkpt>
      <trkpt lat="48.42184" lon="2.40919">
        <ele>104.80000305176</ele>
        <time>2024-04-07T09:14:08.000Z</time>
      </trkpt>
      <trkpt lat="48.42182" lon="2.40924">
        <ele>105.19999694824</ele>
        <time>2024-04-07T09:14:11.000Z</time>
      </trkpt>
      <trkpt lat="48.42182" lon="2.40926">
        <ele>105.40000152588</ele>
        <time>2024-04-07T09:14:13.000Z</time>
      </trkpt>
      <trkpt lat="48.42181" lon="2.40928">
        <ele>106.40000152588</ele>
        <time>2024-04-07T09:14:15.000Z</time>
      </trkpt>
      <trkpt lat="48.4218" lon="2.40929">
        <ele>106.80000305176</ele>
        <time>2024-04-07T09:14:16.000Z</time>
      </trkpt>
      <trkpt lat="48.42176" lon="2.40931">
        <ele>107.59999847412</ele>
        <time>2024-04-07T09:14:18.000Z</time>
      </trkpt>
      <trkpt lat="48.42173" lon="2.40935">
        <ele>108.40000152588</ele>
        <time>2024-04-07T09:14:20.000Z</time>
      </trkpt>
      <trkpt lat="48.42171" lon="2.40937">
        <ele>109</ele>
        <time>2024-04-07T09:14:22.000Z</time>
      </trkpt>
      <trkpt lat="48.42169" lon="2.40938">
        <ele>109.19999694824</ele>
        <time>2024-04-07T09:14:23.000Z</time>
      </trkpt>
      <trkpt lat="48.42161" lon="2.40943">
        <ele>110</ele>
        <time>2024-04-07T09:14:28.000Z</time>
      </trkpt>
      <trkpt lat="48.42159" lon="2.40944">
        <ele>110.19999694824</ele>
        <time>2024-04-07T09:14:30.000Z</time>
      </trkpt>
      <trkpt lat="48.42157" lon="2.40944">
        <ele>110.19999694824</ele>
        <time>2024-04-07T09:14:31.000Z</time>
      </trkpt>
      <trkpt lat="48.42152" lon="2.40945">
        <ele>110.40000152588</ele>
        <time>2024-04-07T09:14:34.000Z</time>
      </trkpt>
      <trkpt lat="48.42142" lon="2.40956">
        <ele>110.59999847412</ele>
        <time>2024-04-07T09:14:39.000Z</time>
      </trkpt>
      <trkpt lat="48.42131" lon="2.40966">
        <ele>111.19999694824</ele>
        <time>2024-04-07T09:14:43.000Z</time>
      </trkpt>
      <trkpt lat="48.4213" lon="2.40967">
        <ele>111.40000152588</ele>
        <time>2024-04-07T09:14:44.000Z</time>
      </trkpt>
      <trkpt lat="48.4212" lon="2.40969">
        <ele>112.19999694824</ele>
        <time>2024-04-07T09:14:49.000Z</time>
      </trkpt>
      <trkpt lat="48.42115" lon="2.40969">
        <ele>112.40000152588</ele>
        <time>2024-04-07T09:14:51.000Z</time>
      </trkpt>
      <trkpt lat="48.42102" lon="2.4097">
        <ele>113.19999694824</ele>
        <time>2024-04-07T09:14:56.000Z</time>
      </trkpt>
      <trkpt lat="48.42095" lon="2.40969">
        <ele>113.40000152588</ele>
        <time>2024-04-07T09:14:59.000Z</time>
      </trkpt>
      <trkpt lat="48.42092" lon="2.40967">
        <ele>113.59999847412</ele>
        <time>2024-04-07T09:15:01.000Z</time>
      </trkpt>
      <trkpt lat="48.42081" lon="2.40965">
        <ele>114.40000152588</ele>
        <time>2024-04-07T09:15:06.000Z</time>
      </trkpt>
      <trkpt lat="48.42079" lon="2.40966">
        <ele>114.40000152588</ele>
        <time>2024-04-07T09:15:07.000Z</time>
      </trkpt>
      <trkpt lat="48.42076" lon="2.40969">
        <ele>115.19999694824</ele>
        <time>2024-04-07T09:15:11.000Z</time>
      </trkpt>
      <trkpt lat="48.42073" lon="2.40973">
        <ele>115.59999847412</ele>
        <time>2024-04-07T09:15:14.000Z</time>
      </trkpt>
      <trkpt lat="48.4207" lon="2.40975">
        <ele>116.80000305176</ele>
        <time>2024-04-07T09:15:16.000Z</time>
      </trkpt>
      <trkpt lat="48.42067" lon="2.40977">
        <ele>118.19999694824</ele>
        <time>2024-04-07T09:15:18.000Z</time>
      </trkpt>
      <trkpt lat="48.42065" lon="2.40979">
        <ele>119.19999694824</ele>
        <time>2024-04-07T09:15:20.000Z</time>
      </trkpt>
      <trkpt lat="48.42063" lon="2.40979">
        <ele>119.59999847412</ele>
        <time>2024-04-07T09:15:21.000Z</time>
      </trkpt>
      <trkpt lat="48.42061" lon="2.4098">
        <ele>120.19999694824</ele>
        <time>2024-04-07T09:15:23.000Z</time>
      </trkpt>
      <trkpt lat="48.42058" lon="2.40982">
        <ele>121.19999694824</ele>
        <time>2024-04-07T09:15:28.000Z</time>
      </trkpt>
      <trkpt lat="48.42057" lon="2.40982">
        <ele>122</ele>
        <time>2024-04-07T09:15:31.000Z</time>
      </trkpt>
      <trkpt lat="48.42057" lon="2.4098">
        <ele>122.40000152588</ele>
        <time>2024-04-07T09:15:40.000Z</time>
      </trkpt>
      <trkpt lat="48.42055" lon="2.4098">
        <ele>122.40000152588</ele>
        <time>2024-04-07T09:15:44.000Z</time>
      </trkpt>
      <trkpt lat="48.42055" lon="2.40981">
        <ele>122.40000152588</ele>
        <time>2024-04-07T09:15:45.000Z</time>
      </trkpt>
      <trkpt lat="48.42054" lon="2.40982">
        <ele>122.40000152588</ele>
        <time>2024-04-07T09:15:48.000Z</time>
      </trkpt>
      <trkpt lat="48.42053" lon="2.40983">
        <ele>122.40000152588</ele>
        <time>2024-04-07T09:15:50.000Z</time>
      </trkpt>
      <trkpt lat="48.42053" lon="2.40984">
        <ele>122.40000152588</ele>
        <time>2024-04-07T09:15:51.000Z</time>
      </trkpt>
      <trkpt lat="48.42052" lon="2.40986">
        <ele>122.40000152588</ele>
        <time>2024-04-07T09:15:53.000Z</time>
      </trkpt>
      <trkpt lat="48.4205" lon="2.40989">
        <ele>122.40000152588</ele>
        <time>2024-04-07T09:15:55.000Z</time>
      </trkpt>
      <trkpt lat="48.42048" lon="2.40991">
        <ele>122.40000152588</ele>
        <time>2024-04-07T09:15:57.000Z</time>
      </trkpt>
      <trkpt lat="48.42045" lon="2.40993">
        <ele>122.40000152588</ele>
        <time>2024-04-07T09:16:00.000Z</time>
      </trkpt>
      <trkpt lat="48.4204" lon="2.40997">
        <ele>122.40000152588</ele>
        <time>2024-04-07T09:16:03.000Z</time>
      </trkpt>
      <trkpt lat="48.42034" lon="2.41004">
        <ele>122.19999694824</ele>
        <time>2024-04-07T09:16:06.000Z</time>
      </trkpt>
      <trkpt lat="48.42031" lon="2.41012">
        <ele>122.19999694824</ele>
        <time>2024-04-07T09:16:08.000Z</time>
      </trkpt>
      <trkpt lat="48.42025" lon="2.41024">
        <ele>121</ele>
        <time>2024-04-07T09:16:11.000Z</time>
      </trkpt>
      <trkpt lat="48.42024" lon="2.4103">
        <ele>120</ele>
        <time>2024-04-07T09:16:12.000Z</time>
      </trkpt>
      <trkpt lat="48.42023" lon="2.4104">
        <ele>118.40000152588</ele>
        <time>2024-04-07T09:16:14.000Z</time>
      </trkpt>
      <trkpt lat="48.42022" lon="2.41047">
        <ele>117</ele>
        <time>2024-04-07T09:16:16.000Z</time>
      </trkpt>
      <trkpt lat="48.42018" lon="2.41069">
        <ele>116</ele>
        <time>2024-04-07T09:16:22.000Z</time>
      </trkpt>
      <trkpt lat="48.42017" lon="2.41075">
        <ele>116</ele>
        <time>2024-04-07T09:16:24.000Z</time>
      </trkpt>
      <trkpt lat="48.42017" lon="2.41086">
        <ele>116</ele>
        <time>2024-04-07T09:16:28.000Z</time>
      </trkpt>
      <trkpt lat="48.42015" lon="2.41093">
        <ele>117.19999694824</ele>
        <time>2024-04-07T09:16:31.000Z</time>
      </trkpt>
      <trkpt lat="48.42015" lon="2.41095">
        <ele>118</ele>
        <time>2024-04-07T09:16:34.000Z</time>
      </trkpt>
      <trkpt lat="48.42015" lon="2.41096">
        <ele>118.19999694824</ele>
        <time>2024-04-07T09:16:35.000Z</time>
      </trkpt>
      <trkpt lat="48.42014" lon="2.41098">
        <ele>119.40000152588</ele>
        <time>2024-04-07T09:16:39.000Z</time>
      </trkpt>
      <trkpt lat="48.42015" lon="2.41104">
        <ele>120.59999847412</ele>
        <time>2024-04-07T09:16:44.000Z</time>
      </trkpt>
      <trkpt lat="48.42014" lon="2.41108">
        <ele>120.59999847412</ele>
        <time>2024-04-07T09:16:46.000Z</time>
      </trkpt>
      <trkpt lat="48.42014" lon="2.41112">
        <ele>120.59999847412</ele>
        <time>2024-04-07T09:16:48.000Z</time>
      </trkpt>
      <trkpt lat="48.42013" lon="2.4112">
        <ele>120.80000305176</ele>
        <time>2024-04-07T09:16:51.000Z</time>
      </trkpt>
      <trkpt lat="48.42012" lon="2.41126">
        <ele>121.19999694824</ele>
        <time>2024-04-07T09:16:54.000Z</time>
      </trkpt>
      <trkpt lat="48.42011" lon="2.41128">
        <ele>121.40000152588</ele>
        <time>2024-04-07T09:16:55.000Z</time>
      </trkpt>
      <trkpt lat="48.42009" lon="2.41133">
        <ele>121.80000305176</ele>
        <time>2024-04-07T09:16:57.000Z</time>
      </trkpt>
      <trkpt lat="48.42009" lon="2.41135">
        <ele>122</ele>
        <time>2024-04-07T09:16:58.000Z</time>
      </trkpt>
      <trkpt lat="48.42009" lon="2.41143">
        <ele>123</ele>
        <time>2024-04-07T09:17:01.000Z</time>
      </trkpt>
      <trkpt lat="48.42011" lon="2.41149">
        <ele>124.40000152588</ele>
        <time>2024-04-07T09:17:04.000Z</time>
      </trkpt>
      <trkpt lat="48.42012" lon="2.41153">
        <ele>125</ele>
        <time>2024-04-07T09:17:06.000Z</time>
      </trkpt>
      <trkpt lat="48.42012" lon="2.41156">
        <ele>125.40000152588</ele>
        <time>2024-04-07T09:17:07.000Z</time>
      </trkpt>
      <trkpt lat="48.4201" lon="2.41164">
        <ele>125.80000305176</ele>
        <time>2024-04-07T09:17:09.000Z</time>
      </trkpt>
      <trkpt lat="48.4201" lon="2.41171">
        <ele>126</ele>
        <time>2024-04-07T09:17:11.000Z</time>
      </trkpt>
      <trkpt lat="48.42013" lon="2.41199">
        <ele>126.19999694824</ele>
        <time>2024-04-07T09:17:17.000Z</time>
      </trkpt>
      <trkpt lat="48.42014" lon="2.41221">
        <ele>126.19999694824</ele>
        <time>2024-04-07T09:17:20.000Z</time>
      </trkpt>
      <trkpt lat="48.42014" lon="2.4123">
        <ele>126.19999694824</ele>
        <time>2024-04-07T09:17:21.000Z</time>
      </trkpt>
      <trkpt lat="48.4201" lon="2.4126">
        <ele>126.19999694824</ele>
        <time>2024-04-07T09:17:24.000Z</time>
      </trkpt>
      <trkpt lat="48.41998" lon="2.41273">
        <ele>125.80000305176</ele>
        <time>2024-04-07T09:17:26.000Z</time>
      </trkpt>
      <trkpt lat="48.41982" lon="2.41276">
        <ele>124.40000152588</ele>
        <time>2024-04-07T09:17:28.000Z</time>
      </trkpt>
      <trkpt lat="48.41974" lon="2.41276">
        <ele>123</ele>
        <time>2024-04-07T09:17:29.000Z</time>
      </trkpt>
      <trkpt lat="48.41964" lon="2.41278">
        <ele>121.80000305176</ele>
        <time>2024-04-07T09:17:30.000Z</time>
      </trkpt>
      <trkpt lat="48.41956" lon="2.4128">
        <ele>120.59999847412</ele>
        <time>2024-04-07T09:17:31.000Z</time>
      </trkpt>
      <trkpt lat="48.41948" lon="2.41284">
        <ele>119</ele>
        <time>2024-04-07T09:17:32.000Z</time>
      </trkpt>
      <trkpt lat="48.41941" lon="2.41288">
        <ele>117.59999847412</ele>
        <time>2024-04-07T09:17:33.000Z</time>
      </trkpt>
      <trkpt lat="48.41934" lon="2.41293">
        <ele>116.19999694824</ele>
        <time>2024-04-07T09:17:34.000Z</time>
      </trkpt>
      <trkpt lat="48.41927" lon="2.41298">
        <ele>114.80000305176</ele>
        <time>2024-04-07T09:17:35.000Z</time>
      </trkpt>
      <trkpt lat="48.41921" lon="2.41303">
        <ele>112.80000305176</ele>
        <time>2024-04-07T09:17:36.000Z</time>
      </trkpt>
      <trkpt lat="48.41912" lon="2.41308">
        <ele>112</ele>
        <time>2024-04-07T09:17:38.000Z</time>
      </trkpt>
      <trkpt lat="48.41906" lon="2.41305">
        <ele>111.80000305176</ele>
        <time>2024-04-07T09:17:41.000Z</time>
      </trkpt>
      <trkpt lat="48.41904" lon="2.41304">
        <ele>111.59999847412</ele>
        <time>2024-04-07T09:17:42.000Z</time>
      </trkpt>
      <trkpt lat="48.41894" lon="2.41296">
        <ele>113.19999694824</ele>
        <time>2024-04-07T09:17:47.000Z</time>
      </trkpt>
      <trkpt lat="48.41893" lon="2.41296">
        <ele>114.40000152588</ele>
        <time>2024-04-07T09:17:49.000Z</time>
      </trkpt>
      <trkpt lat="48.41892" lon="2.41298">
        <ele>114.59999847412</ele>
        <time>2024-04-07T09:17:50.000Z</time>
      </trkpt>
      <trkpt lat="48.41891" lon="2.413">
        <ele>114.80000305176</ele>
        <time>2024-04-07T09:17:51.000Z</time>
      </trkpt>
      <trkpt lat="48.4189" lon="2.41303">
        <ele>115.19999694824</ele>
        <time>2024-04-07T09:17:53.000Z</time>
      </trkpt>
      <trkpt lat="48.4189" lon="2.41307">
        <ele>115.40000152588</ele>
        <time>2024-04-07T09:17:55.000Z</time>
      </trkpt>
      <trkpt lat="48.41891" lon="2.41309">
        <ele>115.59999847412</ele>
        <time>2024-04-07T09:17:56.000Z</time>
      </trkpt>
      <trkpt lat="48.41891" lon="2.41311">
        <ele>115.80000305176</ele>
        <time>2024-04-07T09:17:57.000Z</time>
      </trkpt>
      <trkpt lat="48.41891" lon="2.41312">
        <ele>116.19999694824</ele>
        <time>2024-04-07T09:17:58.000Z</time>
      </trkpt>
      <trkpt lat="48.41891" lon="2.41315">
        <ele>116.40000152588</ele>
        <time>2024-04-07T09:17:59.000Z</time>
      </trkpt>
      <trkpt lat="48.41891" lon="2.41322">
        <ele>117.59999847412</ele>
        <time>2024-04-07T09:18:02.000Z</time>
      </trkpt>
      <trkpt lat="48.41891" lon="2.41327">
        <ele>118.59999847412</ele>
        <time>2024-04-07T09:18:05.000Z</time>
      </trkpt>
      <trkpt lat="48.41892" lon="2.41333">
        <ele>119.59999847412</ele>
        <time>2024-04-07T09:18:08.000Z</time>
      </trkpt>
      <trkpt lat="48.41893" lon="2.41334">
        <ele>119.80000305176</ele>
        <time>2024-04-07T09:18:09.000Z</time>
      </trkpt>
      <trkpt lat="48.41898" lon="2.41336">
        <ele>121.19999694824</ele>
        <time>2024-04-07T09:18:12.000Z</time>
      </trkpt>
      <trkpt lat="48.419" lon="2.41338">
        <ele>121.80000305176</ele>
        <time>2024-04-07T09:18:14.000Z</time>
      </trkpt>
      <trkpt lat="48.419" lon="2.4134">
        <ele>122.19999694824</ele>
        <time>2024-04-07T09:18:15.000Z</time>
      </trkpt>
      <trkpt lat="48.41903" lon="2.41343">
        <ele>123</ele>
        <time>2024-04-07T09:18:18.000Z</time>
      </trkpt>
      <trkpt lat="48.41905" lon="2.41342">
        <ele>123</ele>
        <time>2024-04-07T09:18:19.000Z</time>
      </trkpt>
      <trkpt lat="48.41917" lon="2.41354">
        <ele>123.19999694824</ele>
        <time>2024-04-07T09:18:23.000Z</time>
      </trkpt>
      <trkpt lat="48.41925" lon="2.4137">
        <ele>123</ele>
        <time>2024-04-07T09:18:27.000Z</time>
      </trkpt>
      <trkpt lat="48.41926" lon="2.41375">
        <ele>121</ele>
        <time>2024-04-07T09:18:29.000Z</time>
      </trkpt>
      <trkpt lat="48.41928" lon="2.41379">
        <ele>120</ele>
        <time>2024-04-07T09:18:31.000Z</time>
      </trkpt>
      <trkpt lat="48.41929" lon="2.41381">
        <ele>119.80000305176</ele>
        <time>2024-04-07T09:18:32.000Z</time>
      </trkpt>
      <trkpt lat="48.41931" lon="2.41384">
        <ele>119.59999847412</ele>
        <time>2024-04-07T09:18:34.000Z</time>
      </trkpt>
      <trkpt lat="48.41933" lon="2.41389">
        <ele>119.40000152588</ele>
        <time>2024-04-07T09:18:37.000Z</time>
      </trkpt>
      <trkpt lat="48.41934" lon="2.41391">
        <ele>119.40000152588</ele>
        <time>2024-04-07T09:18:38.000Z</time>
      </trkpt>
      <trkpt lat="48.41936" lon="2.41398">
        <ele>121</ele>
        <time>2024-04-07T09:18:43.000Z</time>
      </trkpt>
      <trkpt lat="48.41938" lon="2.41404">
        <ele>122</ele>
        <time>2024-04-07T09:18:46.000Z</time>
      </trkpt>
      <trkpt lat="48.4194" lon="2.4141">
        <ele>123</ele>
        <time>2024-04-07T09:18:49.000Z</time>
      </trkpt>
      <trkpt lat="48.41941" lon="2.41412">
        <ele>123.40000152588</ele>
        <time>2024-04-07T09:18:50.000Z</time>
      </trkpt>
      <trkpt lat="48.41943" lon="2.41416">
        <ele>123.59999847412</ele>
        <time>2024-04-07T09:18:52.000Z</time>
      </trkpt>
      <trkpt lat="48.41945" lon="2.41433">
        <ele>124</ele>
        <time>2024-04-07T09:18:59.000Z</time>
      </trkpt>
      <trkpt lat="48.41945" lon="2.41436">
        <ele>124.19999694824</ele>
        <time>2024-04-07T09:19:00.000Z</time>
      </trkpt>
      <trkpt lat="48.41945" lon="2.41438">
        <ele>124.19999694824</ele>
        <time>2024-04-07T09:19:01.000Z</time>
      </trkpt>
      <trkpt lat="48.41945" lon="2.41446">
        <ele>125</ele>
        <time>2024-04-07T09:19:05.000Z</time>
      </trkpt>
      <trkpt lat="48.41945" lon="2.41448">
        <ele>125</ele>
        <time>2024-04-07T09:19:06.000Z</time>
      </trkpt>
      <trkpt lat="48.41944" lon="2.4145">
        <ele>125.19999694824</ele>
        <time>2024-04-07T09:19:07.000Z</time>
      </trkpt>
      <trkpt lat="48.41943" lon="2.41452">
        <ele>125.59999847412</ele>
        <time>2024-04-07T09:19:09.000Z</time>
      </trkpt>
      <trkpt lat="48.41942" lon="2.41457">
        <ele>125.80000305176</ele>
        <time>2024-04-07T09:19:12.000Z</time>
      </trkpt>
      <trkpt lat="48.41941" lon="2.41465">
        <ele>126</ele>
        <time>2024-04-07T09:19:15.000Z</time>
      </trkpt>
      <trkpt lat="48.41941" lon="2.41467">
        <ele>126</ele>
        <time>2024-04-07T09:19:16.000Z</time>
      </trkpt>
      <trkpt lat="48.41934" lon="2.41475">
        <ele>126.40000152588</ele>
        <time>2024-04-07T09:19:21.000Z</time>
      </trkpt>
      <trkpt lat="48.41932" lon="2.41477">
        <ele>126.40000152588</ele>
        <time>2024-04-07T09:19:22.000Z</time>
      </trkpt>
      <trkpt lat="48.41923" lon="2.41488">
        <ele>127.40000152588</ele>
        <time>2024-04-07T09:19:28.000Z</time>
      </trkpt>
      <trkpt lat="48.41922" lon="2.4149">
        <ele>127.40000152588</ele>
        <time>2024-04-07T09:19:29.000Z</time>
      </trkpt>
      <trkpt lat="48.41918" lon="2.41495">
        <ele>127.59999847412</ele>
        <time>2024-04-07T09:19:32.000Z</time>
      </trkpt>
      <trkpt lat="48.41913" lon="2.41496">
        <ele>127.59999847412</ele>
        <time>2024-04-07T09:19:35.000Z</time>
      </trkpt>
      <trkpt lat="48.41908" lon="2.41494">
        <ele>127.59999847412</ele>
        <time>2024-04-07T09:19:38.000Z</time>
      </trkpt>
      <trkpt lat="48.41896" lon="2.41496">
        <ele>127.80000305176</ele>
        <time>2024-04-07T09:19:43.000Z</time>
      </trkpt>
      <trkpt lat="48.41889" lon="2.41497">
        <ele>128</ele>
        <time>2024-04-07T09:19:47.000Z</time>
      </trkpt>
      <trkpt lat="48.41887" lon="2.41498">
        <ele>128</ele>
        <time>2024-04-07T09:19:49.000Z</time>
      </trkpt>
      <trkpt lat="48.41885" lon="2.415">
        <ele>128</ele>
        <time>2024-04-07T09:19:53.000Z</time>
      </trkpt>
      <trkpt lat="48.41881" lon="2.41497">
        <ele>128.19999694824</ele>
        <time>2024-04-07T09:20:00.000Z</time>
      </trkpt>
      <trkpt lat="48.41879" lon="2.41496">
        <ele>128.19999694824</ele>
        <time>2024-04-07T09:20:01.000Z</time>
      </trkpt>
      <trkpt lat="48.41871" lon="2.41492">
        <ele>128.19999694824</ele>
        <time>2024-04-07T09:20:05.000Z</time>
      </trkpt>
      <trkpt lat="48.41868" lon="2.41492">
        <ele>128.19999694824</ele>
        <time>2024-04-07T09:20:06.000Z</time>
      </trkpt>
      <trkpt lat="48.41858" lon="2.41492">
        <ele>127.80000305176</ele>
        <time>2024-04-07T09:20:11.000Z</time>
      </trkpt>
      <trkpt lat="48.41848" lon="2.4149">
        <ele>127.80000305176</ele>
        <time>2024-04-07T09:20:15.000Z</time>
      </trkpt>
      <trkpt lat="48.41845" lon="2.41492">
        <ele>127.80000305176</ele>
        <time>2024-04-07T09:20:16.000Z</time>
      </trkpt>
      <trkpt lat="48.41839" lon="2.41495">
        <ele>127.59999847412</ele>
        <time>2024-04-07T09:20:19.000Z</time>
      </trkpt>
      <trkpt lat="48.41838" lon="2.41497">
        <ele>127.59999847412</ele>
        <time>2024-04-07T09:20:20.000Z</time>
      </trkpt>
      <trkpt lat="48.41836" lon="2.41498">
        <ele>127.40000152588</ele>
        <time>2024-04-07T09:20:21.000Z</time>
      </trkpt>
      <trkpt lat="48.41833" lon="2.41499">
        <ele>127.19999694824</ele>
        <time>2024-04-07T09:20:23.000Z</time>
      </trkpt>
      <trkpt lat="48.41828" lon="2.41501">
        <ele>127.19999694824</ele>
        <time>2024-04-07T09:20:25.000Z</time>
      </trkpt>
      <trkpt lat="48.41816" lon="2.41517">
        <ele>127</ele>
        <time>2024-04-07T09:20:30.000Z</time>
      </trkpt>
      <trkpt lat="48.41811" lon="2.41539">
        <ele>127</ele>
        <time>2024-04-07T09:20:35.000Z</time>
      </trkpt>
      <trkpt lat="48.41805" lon="2.41574">
        <ele>126.80000305176</ele>
        <time>2024-04-07T09:20:41.000Z</time>
      </trkpt>
      <trkpt lat="48.41805" lon="2.41611">
        <ele>126.80000305176</ele>
        <time>2024-04-07T09:20:48.000Z</time>
      </trkpt>
      <trkpt lat="48.41805" lon="2.41651">
        <ele>126.80000305176</ele>
        <time>2024-04-07T09:20:54.000Z</time>
      </trkpt>
      <trkpt lat="48.41806" lon="2.41678">
        <ele>126.80000305176</ele>
        <time>2024-04-07T09:20:58.000Z</time>
      </trkpt>
      <trkpt lat="48.41808" lon="2.41694">
        <ele>126.59999847412</ele>
        <time>2024-04-07T09:21:00.000Z</time>
      </trkpt>
      <trkpt lat="48.41811" lon="2.41724">
        <ele>126.59999847412</ele>
        <time>2024-04-07T09:21:04.000Z</time>
      </trkpt>
      <trkpt lat="48.41814" lon="2.41733">
        <ele>126.59999847412</ele>
        <time>2024-04-07T09:21:05.000Z</time>
      </trkpt>
      <trkpt lat="48.41816" lon="2.41748">
        <ele>126.40000152588</ele>
        <time>2024-04-07T09:21:07.000Z</time>
      </trkpt>
      <trkpt lat="48.41819" lon="2.4177">
        <ele>126.40000152588</ele>
        <time>2024-04-07T09:21:10.000Z</time>
      </trkpt>
      <trkpt lat="48.41822" lon="2.41783">
        <ele>126.59999847412</ele>
        <time>2024-04-07T09:21:12.000Z</time>
      </trkpt>
      <trkpt lat="48.41829" lon="2.41804">
        <ele>126.59999847412</ele>
        <time>2024-04-07T09:21:16.000Z</time>
      </trkpt>
      <trkpt lat="48.41844" lon="2.41823">
        <ele>126.80000305176</ele>
        <time>2024-04-07T09:21:20.000Z</time>
      </trkpt>
      <trkpt lat="48.41853" lon="2.41854">
        <ele>127</ele>
        <time>2024-04-07T09:21:25.000Z</time>
      </trkpt>
      <trkpt lat="48.4186" lon="2.41873">
        <ele>127.19999694824</ele>
        <time>2024-04-07T09:21:28.000Z</time>
      </trkpt>
      <trkpt lat="48.41869" lon="2.4189">
        <ele>127.19999694824</ele>
        <time>2024-04-07T09:21:31.000Z</time>
      </trkpt>
      <trkpt lat="48.41889" lon="2.41922">
        <ele>127.19999694824</ele>
        <time>2024-04-07T09:21:36.000Z</time>
      </trkpt>
      <trkpt lat="48.41893" lon="2.41928">
        <ele>127.19999694824</ele>
        <time>2024-04-07T09:21:37.000Z</time>
      </trkpt>
      <trkpt lat="48.41894" lon="2.41934">
        <ele>127.19999694824</ele>
        <time>2024-04-07T09:21:38.000Z</time>
      </trkpt>
      <trkpt lat="48.41895" lon="2.41947">
        <ele>127.40000152588</ele>
        <time>2024-04-07T09:21:41.000Z</time>
      </trkpt>
      <trkpt lat="48.41885" lon="2.41949">
        <ele>127.40000152588</ele>
        <time>2024-04-07T09:21:44.000Z</time>
      </trkpt>
      <trkpt lat="48.41879" lon="2.41949">
        <ele>127.40000152588</ele>
        <time>2024-04-07T09:21:46.000Z</time>
      </trkpt>
      <trkpt lat="48.41865" lon="2.41946">
        <ele>127.40000152588</ele>
        <time>2024-04-07T09:21:50.000Z</time>
      </trkpt>
      <trkpt lat="48.41838" lon="2.41937">
        <ele>127.40000152588</ele>
        <time>2024-04-07T09:21:57.000Z</time>
      </trkpt>
      <trkpt lat="48.41832" lon="2.41936">
        <ele>127.40000152588</ele>
        <time>2024-04-07T09:21:58.000Z</time>
      </trkpt>
      <trkpt lat="48.41819" lon="2.41929">
        <ele>127.19999694824</ele>
        <time>2024-04-07T09:22:01.000Z</time>
      </trkpt>
      <trkpt lat="48.41814" lon="2.41925">
        <ele>127.19999694824</ele>
        <time>2024-04-07T09:22:02.000Z</time>
      </trkpt>
      <trkpt lat="48.41793" lon="2.41904">
        <ele>127</ele>
        <time>2024-04-07T09:22:06.000Z</time>
      </trkpt>
      <trkpt lat="48.41789" lon="2.41897">
        <ele>127</ele>
        <time>2024-04-07T09:22:07.000Z</time>
      </trkpt>
      <trkpt lat="48.41767" lon="2.41867">
        <ele>126.80000305176</ele>
        <time>2024-04-07T09:22:12.000Z</time>
      </trkpt>
      <trkpt lat="48.41763" lon="2.41862">
        <ele>126.59999847412</ele>
        <time>2024-04-07T09:22:13.000Z</time>
      </trkpt>
      <trkpt lat="48.41753" lon="2.41847">
        <ele>126.40000152588</ele>
        <time>2024-04-07T09:22:16.000Z</time>
      </trkpt>
      <trkpt lat="48.41744" lon="2.41837">
        <ele>126</ele>
        <time>2024-04-07T09:22:18.000Z</time>
      </trkpt>
      <trkpt lat="48.41717" lon="2.41804">
        <ele>125.59999847412</ele>
        <time>2024-04-07T09:22:24.000Z</time>
      </trkpt>
      <trkpt lat="48.41695" lon="2.41778">
        <ele>125.40000152588</ele>
        <time>2024-04-07T09:22:29.000Z</time>
      </trkpt>
      <trkpt lat="48.41685" lon="2.41768">
        <ele>125.19999694824</ele>
        <time>2024-04-07T09:22:31.000Z</time>
      </trkpt>
      <trkpt lat="48.41679" lon="2.41764">
        <ele>125</ele>
        <time>2024-04-07T09:22:32.000Z</time>
      </trkpt>
      <trkpt lat="48.41673" lon="2.41759">
        <ele>125</ele>
        <time>2024-04-07T09:22:33.000Z</time>
      </trkpt>
      <trkpt lat="48.41655" lon="2.41741">
        <ele>124.59999847412</ele>
        <time>2024-04-07T09:22:37.000Z</time>
      </trkpt>
      <trkpt lat="48.41627" lon="2.41718">
        <ele>124.19999694824</ele>
        <time>2024-04-07T09:22:42.000Z</time>
      </trkpt>
      <trkpt lat="48.41602" lon="2.41696">
        <ele>124.19999694824</ele>
        <time>2024-04-07T09:22:47.000Z</time>
      </trkpt>
      <trkpt lat="48.41588" lon="2.41689">
        <ele>124.19999694824</ele>
        <time>2024-04-07T09:22:51.000Z</time>
      </trkpt>
      <trkpt lat="48.41582" lon="2.41693">
        <ele>124.59999847412</ele>
        <time>2024-04-07T09:22:55.000Z</time>
      </trkpt>
      <trkpt lat="48.41579" lon="2.41696">
        <ele>124.59999847412</ele>
        <time>2024-04-07T09:22:56.000Z</time>
      </trkpt>
      <trkpt lat="48.41572" lon="2.41714">
        <ele>125.80000305176</ele>
        <time>2024-04-07T09:23:01.000Z</time>
      </trkpt>
      <trkpt lat="48.41565" lon="2.41731">
        <ele>126</ele>
        <time>2024-04-07T09:23:07.000Z</time>
      </trkpt>
      <trkpt lat="48.41559" lon="2.41752">
        <ele>126.19999694824</ele>
        <time>2024-04-07T09:23:12.000Z</time>
      </trkpt>
      <trkpt lat="48.41558" lon="2.41757">
        <ele>126.19999694824</ele>
        <time>2024-04-07T09:23:13.000Z</time>
      </trkpt>
      <trkpt lat="48.41551" lon="2.41787">
        <ele>126.19999694824</ele>
        <time>2024-04-07T09:23:19.000Z</time>
      </trkpt>
      <trkpt lat="48.41544" lon="2.41822">
        <ele>126.40000152588</ele>
        <time>2024-04-07T09:23:26.000Z</time>
      </trkpt>
      <trkpt lat="48.41539" lon="2.41863">
        <ele>126.40000152588</ele>
        <time>2024-04-07T09:23:33.000Z</time>
      </trkpt>
      <trkpt lat="48.41532" lon="2.41891">
        <ele>126.40000152588</ele>
        <time>2024-04-07T09:23:38.000Z</time>
      </trkpt>
      <trkpt lat="48.41524" lon="2.41934">
        <ele>126.19999694824</ele>
        <time>2024-04-07T09:23:44.000Z</time>
      </trkpt>
      <trkpt lat="48.41521" lon="2.41985">
        <ele>126</ele>
        <time>2024-04-07T09:23:50.000Z</time>
      </trkpt>
      <trkpt lat="48.41522" lon="2.42011">
        <ele>126</ele>
        <time>2024-04-07T09:23:53.000Z</time>
      </trkpt>
      <trkpt lat="48.41519" lon="2.42036">
        <ele>126</ele>
        <time>2024-04-07T09:23:56.000Z</time>
      </trkpt>
      <trkpt lat="48.41517" lon="2.42044">
        <ele>126</ele>
        <time>2024-04-07T09:23:57.000Z</time>
      </trkpt>
      <trkpt lat="48.41515" lon="2.42053">
        <ele>126</ele>
        <time>2024-04-07T09:23:58.000Z</time>
      </trkpt>
      <trkpt lat="48.41512" lon="2.42077">
        <ele>126</ele>
        <time>2024-04-07T09:24:01.000Z</time>
      </trkpt>
      <trkpt lat="48.41511" lon="2.42084">
        <ele>126</ele>
        <time>2024-04-07T09:24:02.000Z</time>
      </trkpt>
      <trkpt lat="48.4151" lon="2.42092">
        <ele>125.80000305176</ele>
        <time>2024-04-07T09:24:03.000Z</time>
      </trkpt>
      <trkpt lat="48.41509" lon="2.42112">
        <ele>125.80000305176</ele>
        <time>2024-04-07T09:24:06.000Z</time>
      </trkpt>
      <trkpt lat="48.41516" lon="2.42143">
        <ele>125.59999847412</ele>
        <time>2024-04-07T09:24:11.000Z</time>
      </trkpt>
      <trkpt lat="48.41524" lon="2.42174">
        <ele>125.59999847412</ele>
        <time>2024-04-07T09:24:16.000Z</time>
      </trkpt>
      <trkpt lat="48.41529" lon="2.42206">
        <ele>125.59999847412</ele>
        <time>2024-04-07T09:24:21.000Z</time>
      </trkpt>
      <trkpt lat="48.41529" lon="2.42212">
        <ele>125.59999847412</ele>
        <time>2024-04-07T09:24:22.000Z</time>
      </trkpt>
      <trkpt lat="48.41528" lon="2.42233">
        <ele>125.59999847412</ele>
        <time>2024-04-07T09:24:25.000Z</time>
      </trkpt>
      <trkpt lat="48.41527" lon="2.42241">
        <ele>125.59999847412</ele>
        <time>2024-04-07T09:24:26.000Z</time>
      </trkpt>
      <trkpt lat="48.41529" lon="2.42248">
        <ele>125.59999847412</ele>
        <time>2024-04-07T09:24:27.000Z</time>
      </trkpt>
      <trkpt lat="48.41529" lon="2.42271">
        <ele>125.59999847412</ele>
        <time>2024-04-07T09:24:30.000Z</time>
      </trkpt>
      <trkpt lat="48.4153" lon="2.42279">
        <ele>125.59999847412</ele>
        <time>2024-04-07T09:24:31.000Z</time>
      </trkpt>
      <trkpt lat="48.4153" lon="2.42318">
        <ele>125</ele>
        <time>2024-04-07T09:24:36.000Z</time>
      </trkpt>
      <trkpt lat="48.41529" lon="2.42326">
        <ele>125</ele>
        <time>2024-04-07T09:24:37.000Z</time>
      </trkpt>
      <trkpt lat="48.41531" lon="2.42348">
        <ele>124.59999847412</ele>
        <time>2024-04-07T09:24:40.000Z</time>
      </trkpt>
      <trkpt lat="48.41533" lon="2.42362">
        <ele>124.59999847412</ele>
        <time>2024-04-07T09:24:42.000Z</time>
      </trkpt>
      <trkpt lat="48.41543" lon="2.42407">
        <ele>124.19999694824</ele>
        <time>2024-04-07T09:24:48.000Z</time>
      </trkpt>
      <trkpt lat="48.4155" lon="2.42432">
        <ele>123.59999847412</ele>
        <time>2024-04-07T09:24:51.000Z</time>
      </trkpt>
      <trkpt lat="48.41551" lon="2.42441">
        <ele>123.59999847412</ele>
        <time>2024-04-07T09:24:52.000Z</time>
      </trkpt>
      <trkpt lat="48.41552" lon="2.42449">
        <ele>123.40000152588</ele>
        <time>2024-04-07T09:24:53.000Z</time>
      </trkpt>
      <trkpt lat="48.41546" lon="2.42478">
        <ele>123.19999694824</ele>
        <time>2024-04-07T09:24:57.000Z</time>
      </trkpt>
      <trkpt lat="48.41543" lon="2.42484">
        <ele>123.19999694824</ele>
        <time>2024-04-07T09:24:58.000Z</time>
      </trkpt>
      <trkpt lat="48.41534" lon="2.42505">
        <ele>123.19999694824</ele>
        <time>2024-04-07T09:25:01.000Z</time>
      </trkpt>
      <trkpt lat="48.41532" lon="2.42512">
        <ele>123.19999694824</ele>
        <time>2024-04-07T09:25:02.000Z</time>
      </trkpt>
      <trkpt lat="48.41528" lon="2.42527">
        <ele>123.19999694824</ele>
        <time>2024-04-07T09:25:04.000Z</time>
      </trkpt>
      <trkpt lat="48.41523" lon="2.42549">
        <ele>124.19999694824</ele>
        <time>2024-04-07T09:25:07.000Z</time>
      </trkpt>
      <trkpt lat="48.41519" lon="2.42564">
        <ele>124.80000305176</ele>
        <time>2024-04-07T09:25:09.000Z</time>
      </trkpt>
      <trkpt lat="48.41517" lon="2.4258">
        <ele>125</ele>
        <time>2024-04-07T09:25:11.000Z</time>
      </trkpt>
      <trkpt lat="48.41516" lon="2.42587">
        <ele>125</ele>
        <time>2024-04-07T09:25:12.000Z</time>
      </trkpt>
      <trkpt lat="48.41513" lon="2.42609">
        <ele>125.19999694824</ele>
        <time>2024-04-07T09:25:15.000Z</time>
      </trkpt>
      <trkpt lat="48.4151" lon="2.42646">
        <ele>125.59999847412</ele>
        <time>2024-04-07T09:25:20.000Z</time>
      </trkpt>
      <trkpt lat="48.41509" lon="2.42652">
        <ele>125.59999847412</ele>
        <time>2024-04-07T09:25:21.000Z</time>
      </trkpt>
      <trkpt lat="48.41505" lon="2.42674">
        <ele>125.80000305176</ele>
        <time>2024-04-07T09:25:25.000Z</time>
      </trkpt>
      <trkpt lat="48.41504" lon="2.42684">
        <ele>125.80000305176</ele>
        <time>2024-04-07T09:25:27.000Z</time>
      </trkpt>
      <trkpt lat="48.41501" lon="2.42706">
        <ele>126.19999694824</ele>
        <time>2024-04-07T09:25:31.000Z</time>
      </trkpt>
      <trkpt lat="48.41496" lon="2.42741">
        <ele>126.59999847412</ele>
        <time>2024-04-07T09:25:37.000Z</time>
      </trkpt>
      <trkpt lat="48.41492" lon="2.42774">
        <ele>126.80000305176</ele>
        <time>2024-04-07T09:25:43.000Z</time>
      </trkpt>
      <trkpt lat="48.4149" lon="2.42811">
        <ele>126.80000305176</ele>
        <time>2024-04-07T09:25:49.000Z</time>
      </trkpt>
      <trkpt lat="48.41488" lon="2.4284">
        <ele>126.80000305176</ele>
        <time>2024-04-07T09:25:54.000Z</time>
      </trkpt>
      <trkpt lat="48.41483" lon="2.42862">
        <ele>126.80000305176</ele>
        <time>2024-04-07T09:25:58.000Z</time>
      </trkpt>
      <trkpt lat="48.4148" lon="2.42873">
        <ele>126.59999847412</ele>
        <time>2024-04-07T09:25:59.000Z</time>
      </trkpt>
      <trkpt lat="48.41476" lon="2.4289">
        <ele>126.59999847412</ele>
        <time>2024-04-07T09:26:01.000Z</time>
      </trkpt>
      <trkpt lat="48.41475" lon="2.42899">
        <ele>126.59999847412</ele>
        <time>2024-04-07T09:26:03.000Z</time>
      </trkpt>
      <trkpt lat="48.41475" lon="2.42915">
        <ele>124.59999847412</ele>
        <time>2024-04-07T09:26:06.000Z</time>
      </trkpt>
      <trkpt lat="48.41474" lon="2.42922">
        <ele>123.40000152588</ele>
        <time>2024-04-07T09:26:07.000Z</time>
      </trkpt>
      <trkpt lat="48.41473" lon="2.4293">
        <ele>122</ele>
        <time>2024-04-07T09:26:08.000Z</time>
      </trkpt>
      <trkpt lat="48.41472" lon="2.42938">
        <ele>120.59999847412</ele>
        <time>2024-04-07T09:26:09.000Z</time>
      </trkpt>
      <trkpt lat="48.41471" lon="2.42954">
        <ele>119.59999847412</ele>
        <time>2024-04-07T09:26:11.000Z</time>
      </trkpt>
      <trkpt lat="48.41477" lon="2.42971">
        <ele>118</ele>
        <time>2024-04-07T09:26:14.000Z</time>
      </trkpt>
      <trkpt lat="48.41475" lon="2.42986">
        <ele>115.80000305176</ele>
        <time>2024-04-07T09:26:16.000Z</time>
      </trkpt>
      <trkpt lat="48.41474" lon="2.42995">
        <ele>114.59999847412</ele>
        <time>2024-04-07T09:26:17.000Z</time>
      </trkpt>
      <trkpt lat="48.41473" lon="2.43004">
        <ele>111.59999847412</ele>
        <time>2024-04-07T09:26:18.000Z</time>
      </trkpt>
      <trkpt lat="48.4147" lon="2.43021">
        <ele>109.80000305176</ele>
        <time>2024-04-07T09:26:20.000Z</time>
      </trkpt>
      <trkpt lat="48.41467" lon="2.43038">
        <ele>108.40000152588</ele>
        <time>2024-04-07T09:26:22.000Z</time>
      </trkpt>
      <trkpt lat="48.41463" lon="2.43056">
        <ele>107.19999694824</ele>
        <time>2024-04-07T09:26:24.000Z</time>
      </trkpt>
      <trkpt lat="48.4146" lon="2.43075">
        <ele>105.40000152588</ele>
        <time>2024-04-07T09:26:26.000Z</time>
      </trkpt>
      <trkpt lat="48.41457" lon="2.43085">
        <ele>104.40000152588</ele>
        <time>2024-04-07T09:26:27.000Z</time>
      </trkpt>
      <trkpt lat="48.41453" lon="2.43095">
        <ele>103.59999847412</ele>
        <time>2024-04-07T09:26:28.000Z</time>
      </trkpt>
      <trkpt lat="48.4145" lon="2.43105">
        <ele>103</ele>
        <time>2024-04-07T09:26:29.000Z</time>
      </trkpt>
      <trkpt lat="48.41443" lon="2.43125">
        <ele>101.59999847412</ele>
        <time>2024-04-07T09:26:31.000Z</time>
      </trkpt>
      <trkpt lat="48.41436" lon="2.43146">
        <ele>99.800003051758</ele>
        <time>2024-04-07T09:26:33.000Z</time>
      </trkpt>
      <trkpt lat="48.41433" lon="2.43157">
        <ele>98.800003051758</ele>
        <time>2024-04-07T09:26:34.000Z</time>
      </trkpt>
      <trkpt lat="48.41427" lon="2.4318">
        <ele>97.199996948242</ele>
        <time>2024-04-07T09:26:36.000Z</time>
      </trkpt>
      <trkpt lat="48.41425" lon="2.43192">
        <ele>96.199996948242</ele>
        <time>2024-04-07T09:26:37.000Z</time>
      </trkpt>
      <trkpt lat="48.41423" lon="2.43203">
        <ele>95.400001525879</ele>
        <time>2024-04-07T09:26:38.000Z</time>
      </trkpt>
      <trkpt lat="48.4142" lon="2.43214">
        <ele>94.800003051758</ele>
        <time>2024-04-07T09:26:39.000Z</time>
      </trkpt>
      <trkpt lat="48.41417" lon="2.43224">
        <ele>94</ele>
        <time>2024-04-07T09:26:40.000Z</time>
      </trkpt>
      <trkpt lat="48.41407" lon="2.43239">
        <ele>92.599998474121</ele>
        <time>2024-04-07T09:26:42.000Z</time>
      </trkpt>
      <trkpt lat="48.41398" lon="2.43255">
        <ele>91.199996948242</ele>
        <time>2024-04-07T09:26:44.000Z</time>
      </trkpt>
      <trkpt lat="48.4139" lon="2.43273">
        <ele>90.599998474121</ele>
        <time>2024-04-07T09:26:46.000Z</time>
      </trkpt>
      <trkpt lat="48.41386" lon="2.43281">
        <ele>89.400001525879</ele>
        <time>2024-04-07T09:26:47.000Z</time>
      </trkpt>
      <trkpt lat="48.41379" lon="2.43299">
        <ele>88.400001525879</ele>
        <time>2024-04-07T09:26:49.000Z</time>
      </trkpt>
      <trkpt lat="48.41376" lon="2.43307">
        <ele>87.599998474121</ele>
        <time>2024-04-07T09:26:50.000Z</time>
      </trkpt>
      <trkpt lat="48.41373" lon="2.43316">
        <ele>87</ele>
        <time>2024-04-07T09:26:51.000Z</time>
      </trkpt>
      <trkpt lat="48.41369" lon="2.4333">
        <ele>85.400001525879</ele>
        <time>2024-04-07T09:26:53.000Z</time>
      </trkpt>
      <trkpt lat="48.41367" lon="2.43338">
        <ele>85</ele>
        <time>2024-04-07T09:26:54.000Z</time>
      </trkpt>
      <trkpt lat="48.41364" lon="2.43353">
        <ele>84.199996948242</ele>
        <time>2024-04-07T09:26:56.000Z</time>
      </trkpt>
      <trkpt lat="48.41357" lon="2.43369">
        <ele>83.199996948242</ele>
        <time>2024-04-07T09:26:58.000Z</time>
      </trkpt>
      <trkpt lat="48.41351" lon="2.43384">
        <ele>82.199996948242</ele>
        <time>2024-04-07T09:27:00.000Z</time>
      </trkpt>
      <trkpt lat="48.41348" lon="2.43389">
        <ele>81.599998474121</ele>
        <time>2024-04-07T09:27:01.000Z</time>
      </trkpt>
      <trkpt lat="48.4134" lon="2.43401">
        <ele>80.800003051758</ele>
        <time>2024-04-07T09:27:03.000Z</time>
      </trkpt>
      <trkpt lat="48.41333" lon="2.43414">
        <ele>80.199996948242</ele>
        <time>2024-04-07T09:27:05.000Z</time>
      </trkpt>
      <trkpt lat="48.4133" lon="2.43419">
        <ele>79.400001525879</ele>
        <time>2024-04-07T09:27:06.000Z</time>
      </trkpt>
      <trkpt lat="48.41327" lon="2.43423">
        <ele>79</ele>
        <time>2024-04-07T09:27:07.000Z</time>
      </trkpt>
      <trkpt lat="48.41323" lon="2.43423">
        <ele>78.599998474121</ele>
        <time>2024-04-07T09:27:08.000Z</time>
      </trkpt>
      <trkpt lat="48.41314" lon="2.4342">
        <ele>77.400001525879</ele>
        <time>2024-04-07T09:27:10.000Z</time>
      </trkpt>
      <trkpt lat="48.41309" lon="2.43416">
        <ele>76.599998474121</ele>
        <time>2024-04-07T09:27:12.000Z</time>
      </trkpt>
      <trkpt lat="48.41306" lon="2.43413">
        <ele>76.199996948242</ele>
        <time>2024-04-07T09:27:13.000Z</time>
      </trkpt>
      <trkpt lat="48.41304" lon="2.4341">
        <ele>76</ele>
        <time>2024-04-07T09:27:14.000Z</time>
      </trkpt>
      <trkpt lat="48.41292" lon="2.43402">
        <ele>75.400001525879</ele>
        <time>2024-04-07T09:27:18.000Z</time>
      </trkpt>
      <trkpt lat="48.41269" lon="2.43388">
        <ele>75.599998474121</ele>
        <time>2024-04-07T09:27:26.000Z</time>
      </trkpt>
      <trkpt lat="48.41247" lon="2.43374">
        <ele>76</ele>
        <time>2024-04-07T09:27:32.000Z</time>
      </trkpt>
      <trkpt lat="48.41224" lon="2.43362">
        <ele>76.199996948242</ele>
        <time>2024-04-07T09:27:38.000Z</time>
      </trkpt>
      <trkpt lat="48.41204" lon="2.43359">
        <ele>76.400001525879</ele>
        <time>2024-04-07T09:27:44.000Z</time>
      </trkpt>
      <trkpt lat="48.41181" lon="2.43353">
        <ele>76.599998474121</ele>
        <time>2024-04-07T09:27:50.000Z</time>
      </trkpt>
      <trkpt lat="48.41158" lon="2.43343">
        <ele>76.599998474121</ele>
        <time>2024-04-07T09:27:55.000Z</time>
      </trkpt>
      <trkpt lat="48.41127" lon="2.43339">
        <ele>75.800003051758</ele>
        <time>2024-04-07T09:28:01.000Z</time>
      </trkpt>
      <trkpt lat="48.41118" lon="2.43336">
        <ele>75.599998474121</ele>
        <time>2024-04-07T09:28:03.000Z</time>
      </trkpt>
      <trkpt lat="48.4111" lon="2.43328">
        <ele>75.599998474121</ele>
        <time>2024-04-07T09:28:05.000Z</time>
      </trkpt>
      <trkpt lat="48.41102" lon="2.43312">
        <ele>75.599998474121</ele>
        <time>2024-04-07T09:28:08.000Z</time>
      </trkpt>
      <trkpt lat="48.41097" lon="2.43303">
        <ele>75.599998474121</ele>
        <time>2024-04-07T09:28:10.000Z</time>
      </trkpt>
      <trkpt lat="48.41089" lon="2.43273">
        <ele>76.199996948242</ele>
        <time>2024-04-07T09:28:16.000Z</time>
      </trkpt>
      <trkpt lat="48.41088" lon="2.43248">
        <ele>76.800003051758</ele>
        <time>2024-04-07T09:28:22.000Z</time>
      </trkpt>
      <trkpt lat="48.41086" lon="2.43234">
        <ele>77.400001525879</ele>
        <time>2024-04-07T09:28:25.000Z</time>
      </trkpt>
      <trkpt lat="48.41085" lon="2.4322">
        <ele>78.199996948242</ele>
        <time>2024-04-07T09:28:28.000Z</time>
      </trkpt>
      <trkpt lat="48.41085" lon="2.43211">
        <ele>78.400001525879</ele>
        <time>2024-04-07T09:28:30.000Z</time>
      </trkpt>
      <trkpt lat="48.41086" lon="2.43191">
        <ele>78.800003051758</ele>
        <time>2024-04-07T09:28:34.000Z</time>
      </trkpt>
      <trkpt lat="48.41087" lon="2.43187">
        <ele>79</ele>
        <time>2024-04-07T09:28:35.000Z</time>
      </trkpt>
      <trkpt lat="48.4109" lon="2.43168">
        <ele>79.400001525879</ele>
        <time>2024-04-07T09:28:39.000Z</time>
      </trkpt>
      <trkpt lat="48.41091" lon="2.43164">
        <ele>79.599998474121</ele>
        <time>2024-04-07T09:28:40.000Z</time>
      </trkpt>
      <trkpt lat="48.4109" lon="2.43155">
        <ele>79.800003051758</ele>
        <time>2024-04-07T09:28:42.000Z</time>
      </trkpt>
      <trkpt lat="48.4109" lon="2.43148">
        <ele>80</ele>
        <time>2024-04-07T09:28:44.000Z</time>
      </trkpt>
      <trkpt lat="48.41091" lon="2.43134">
        <ele>80.400001525879</ele>
        <time>2024-04-07T09:28:47.000Z</time>
      </trkpt>
      <trkpt lat="48.4109" lon="2.43131">
        <ele>80.599998474121</ele>
        <time>2024-04-07T09:28:48.000Z</time>
      </trkpt>
      <trkpt lat="48.41087" lon="2.43118">
        <ele>80.800003051758</ele>
        <time>2024-04-07T09:28:51.000Z</time>
      </trkpt>
      <trkpt lat="48.41084" lon="2.4311">
        <ele>81.199996948242</ele>
        <time>2024-04-07T09:28:53.000Z</time>
      </trkpt>
      <trkpt lat="48.41082" lon="2.43101">
        <ele>81.599998474121</ele>
        <time>2024-04-07T09:28:55.000Z</time>
      </trkpt>
      <trkpt lat="48.41072" lon="2.43082">
        <ele>82.400001525879</ele>
        <time>2024-04-07T09:28:59.000Z</time>
      </trkpt>
      <trkpt lat="48.4107" lon="2.43078">
        <ele>82.599998474121</ele>
        <time>2024-04-07T09:29:00.000Z</time>
      </trkpt>
      <trkpt lat="48.41068" lon="2.43074">
        <ele>83</ele>
        <time>2024-04-07T09:29:01.000Z</time>
      </trkpt>
      <trkpt lat="48.41061" lon="2.43059">
        <ele>84</ele>
        <time>2024-04-07T09:29:05.000Z</time>
      </trkpt>
      <trkpt lat="48.41058" lon="2.43051">
        <ele>84.400001525879</ele>
        <time>2024-04-07T09:29:07.000Z</time>
      </trkpt>
      <trkpt lat="48.41051" lon="2.43037">
        <ele>85.199996948242</ele>
        <time>2024-04-07T09:29:11.000Z</time>
      </trkpt>
      <trkpt lat="48.41048" lon="2.4303">
        <ele>86.400001525879</ele>
        <time>2024-04-07T09:29:14.000Z</time>
      </trkpt>
      <trkpt lat="48.4104" lon="2.43021">
        <ele>87.800003051758</ele>
        <time>2024-04-07T09:29:19.000Z</time>
      </trkpt>
      <trkpt lat="48.41035" lon="2.43012">
        <ele>89.199996948242</ele>
        <time>2024-04-07T09:29:23.000Z</time>
      </trkpt>
      <trkpt lat="48.41031" lon="2.43008">
        <ele>89.599998474121</ele>
        <time>2024-04-07T09:29:25.000Z</time>
      </trkpt>
      <trkpt lat="48.41027" lon="2.43001">
        <ele>90.400001525879</ele>
        <time>2024-04-07T09:29:28.000Z</time>
      </trkpt>
      <trkpt lat="48.41022" lon="2.42991">
        <ele>91</ele>
        <time>2024-04-07T09:29:31.000Z</time>
      </trkpt>
      <trkpt lat="48.41021" lon="2.42984">
        <ele>91.400001525879</ele>
        <time>2024-04-07T09:29:33.000Z</time>
      </trkpt>
      <trkpt lat="48.4102" lon="2.42972">
        <ele>92</ele>
        <time>2024-04-07T09:29:37.000Z</time>
      </trkpt>
      <trkpt lat="48.41019" lon="2.42961">
        <ele>92.599998474121</ele>
        <time>2024-04-07T09:29:40.000Z</time>
      </trkpt>
      <trkpt lat="48.41018" lon="2.42945">
        <ele>93.400001525879</ele>
        <time>2024-04-07T09:29:44.000Z</time>
      </trkpt>
      <trkpt lat="48.41017" lon="2.42938">
        <ele>93.599998474121</ele>
        <time>2024-04-07T09:29:46.000Z</time>
      </trkpt>
      <trkpt lat="48.41019" lon="2.42922">
        <ele>93.800003051758</ele>
        <time>2024-04-07T09:29:50.000Z</time>
      </trkpt>
      <trkpt lat="48.41017" lon="2.42907">
        <ele>94.199996948242</ele>
        <time>2024-04-07T09:29:55.000Z</time>
      </trkpt>
      <trkpt lat="48.41013" lon="2.42893">
        <ele>94.599998474121</ele>
        <time>2024-04-07T09:30:00.000Z</time>
      </trkpt>
      <trkpt lat="48.41011" lon="2.4289">
        <ele>94.800003051758</ele>
        <time>2024-04-07T09:30:01.000Z</time>
      </trkpt>
      <trkpt lat="48.41008" lon="2.42881">
        <ele>95.599998474121</ele>
        <time>2024-04-07T09:30:04.000Z</time>
      </trkpt>
      <trkpt lat="48.41005" lon="2.42871">
        <ele>96</ele>
        <time>2024-04-07T09:30:07.000Z</time>
      </trkpt>
      <trkpt lat="48.41005" lon="2.42864">
        <ele>96.800003051758</ele>
        <time>2024-04-07T09:30:09.000Z</time>
      </trkpt>
      <trkpt lat="48.41003" lon="2.42852">
        <ele>97.800003051758</ele>
        <time>2024-04-07T09:30:13.000Z</time>
      </trkpt>
      <trkpt lat="48.41003" lon="2.4285">
        <ele>98</ele>
        <time>2024-04-07T09:30:14.000Z</time>
      </trkpt>
      <trkpt lat="48.41001" lon="2.42847">
        <ele>98.199996948242</ele>
        <time>2024-04-07T09:30:15.000Z</time>
      </trkpt>
      <trkpt lat="48.40998" lon="2.42844">
        <ele>98.599998474121</ele>
        <time>2024-04-07T09:30:17.000Z</time>
      </trkpt>
      <trkpt lat="48.4099" lon="2.42837">
        <ele>99</ele>
        <time>2024-04-07T09:30:22.000Z</time>
      </trkpt>
      <trkpt lat="48.40989" lon="2.42836">
        <ele>99.199996948242</ele>
        <time>2024-04-07T09:30:23.000Z</time>
      </trkpt>
      <trkpt lat="48.40987" lon="2.42836">
        <ele>99.599998474121</ele>
        <time>2024-04-07T09:30:24.000Z</time>
      </trkpt>
      <trkpt lat="48.40984" lon="2.42834">
        <ele>100</ele>
        <time>2024-04-07T09:30:26.000Z</time>
      </trkpt>
      <trkpt lat="48.40978" lon="2.42831">
        <ele>100.80000305176</ele>
        <time>2024-04-07T09:30:30.000Z</time>
      </trkpt>
      <trkpt lat="48.40976" lon="2.42831">
        <ele>101.19999694824</ele>
        <time>2024-04-07T09:30:31.000Z</time>
      </trkpt>
      <trkpt lat="48.40971" lon="2.42829">
        <ele>102.19999694824</ele>
        <time>2024-04-07T09:30:34.000Z</time>
      </trkpt>
      <trkpt lat="48.40967" lon="2.42827">
        <ele>103.19999694824</ele>
        <time>2024-04-07T09:30:37.000Z</time>
      </trkpt>
      <trkpt lat="48.40965" lon="2.42826">
        <ele>103.40000152588</ele>
        <time>2024-04-07T09:30:38.000Z</time>
      </trkpt>
      <trkpt lat="48.40964" lon="2.42826">
        <ele>104.40000152588</ele>
        <time>2024-04-07T09:30:39.000Z</time>
      </trkpt>
      <trkpt lat="48.40958" lon="2.42823">
        <ele>105.59999847412</ele>
        <time>2024-04-07T09:30:43.000Z</time>
      </trkpt>
      <trkpt lat="48.40956" lon="2.42823">
        <ele>105.80000305176</ele>
        <time>2024-04-07T09:30:44.000Z</time>
      </trkpt>
      <trkpt lat="48.40951" lon="2.42821">
        <ele>106.59999847412</ele>
        <time>2024-04-07T09:30:48.000Z</time>
      </trkpt>
      <trkpt lat="48.4095" lon="2.42818">
        <ele>107.40000152588</ele>
        <time>2024-04-07T09:30:50.000Z</time>
      </trkpt>
      <trkpt lat="48.40949" lon="2.42817">
        <ele>107.80000305176</ele>
        <time>2024-04-07T09:30:51.000Z</time>
      </trkpt>
      <trkpt lat="48.40948" lon="2.42814">
        <ele>108.40000152588</ele>
        <time>2024-04-07T09:30:53.000Z</time>
      </trkpt>
      <trkpt lat="48.40948" lon="2.42812">
        <ele>108.80000305176</ele>
        <time>2024-04-07T09:30:54.000Z</time>
      </trkpt>
      <trkpt lat="48.40948" lon="2.42807">
        <ele>109.80000305176</ele>
        <time>2024-04-07T09:30:57.000Z</time>
      </trkpt>
      <trkpt lat="48.40948" lon="2.42806">
        <ele>110</ele>
        <time>2024-04-07T09:30:58.000Z</time>
      </trkpt>
      <trkpt lat="48.40946" lon="2.42801">
        <ele>111.40000152588</ele>
        <time>2024-04-07T09:31:02.000Z</time>
      </trkpt>
      <trkpt lat="48.40946" lon="2.42801">
        <ele>112</ele>
        <time>2024-04-07T09:31:03.000Z</time>
      </trkpt>
      <trkpt lat="48.40946" lon="2.42801">
        <ele>112.59999847412</ele>
        <time>2024-04-07T09:31:05.000Z</time>
      </trkpt>
      <trkpt lat="48.40943" lon="2.428">
        <ele>113.80000305176</ele>
        <time>2024-04-07T09:31:08.000Z</time>
      </trkpt>
      <trkpt lat="48.40942" lon="2.42797">
        <ele>114.59999847412</ele>
        <time>2024-04-07T09:31:10.000Z</time>
      </trkpt>
      <trkpt lat="48.4094" lon="2.42793">
        <ele>115</ele>
        <time>2024-04-07T09:31:13.000Z</time>
      </trkpt>
      <trkpt lat="48.40938" lon="2.42788">
        <ele>115</ele>
        <time>2024-04-07T09:31:16.000Z</time>
      </trkpt>
      <trkpt lat="48.40937" lon="2.42782">
        <ele>115.80000305176</ele>
        <time>2024-04-07T09:31:21.000Z</time>
      </trkpt>
      <trkpt lat="48.40937" lon="2.42781">
        <ele>116</ele>
        <time>2024-04-07T09:31:22.000Z</time>
      </trkpt>
      <trkpt lat="48.40935" lon="2.42779">
        <ele>117.40000152588</ele>
        <time>2024-04-07T09:31:28.000Z</time>
      </trkpt>
      <trkpt lat="48.40935" lon="2.42777">
        <ele>117.59999847412</ele>
        <time>2024-04-07T09:31:29.000Z</time>
      </trkpt>
      <trkpt lat="48.40934" lon="2.42768">
        <ele>117.80000305176</ele>
        <time>2024-04-07T09:31:34.000Z</time>
      </trkpt>
      <trkpt lat="48.40932" lon="2.42756">
        <ele>118.40000152588</ele>
        <time>2024-04-07T09:31:40.000Z</time>
      </trkpt>
      <trkpt lat="48.40926" lon="2.42746">
        <ele>119.40000152588</ele>
        <time>2024-04-07T09:31:46.000Z</time>
      </trkpt>
      <trkpt lat="48.4092" lon="2.42736">
        <ele>120.59999847412</ele>
        <time>2024-04-07T09:31:50.000Z</time>
      </trkpt>
      <trkpt lat="48.40917" lon="2.42733">
        <ele>120.80000305176</ele>
        <time>2024-04-07T09:31:51.000Z</time>
      </trkpt>
      <trkpt lat="48.40911" lon="2.42724">
        <ele>121.80000305176</ele>
        <time>2024-04-07T09:31:54.000Z</time>
      </trkpt>
      <trkpt lat="48.40909" lon="2.4272">
        <ele>122</ele>
        <time>2024-04-07T09:31:55.000Z</time>
      </trkpt>
      <trkpt lat="48.409" lon="2.42708">
        <ele>122.80000305176</ele>
        <time>2024-04-07T09:31:59.000Z</time>
      </trkpt>
      <trkpt lat="48.40895" lon="2.427">
        <ele>123</ele>
        <time>2024-04-07T09:32:01.000Z</time>
      </trkpt>
      <trkpt lat="48.40881" lon="2.42674">
        <ele>123.80000305176</ele>
        <time>2024-04-07T09:32:08.000Z</time>
      </trkpt>
      <trkpt lat="48.40876" lon="2.42664">
        <ele>124.19999694824</ele>
        <time>2024-04-07T09:32:11.000Z</time>
      </trkpt>
      <trkpt lat="48.4087" lon="2.42651">
        <ele>124.59999847412</ele>
        <time>2024-04-07T09:32:15.000Z</time>
      </trkpt>
      <trkpt lat="48.4086" lon="2.42632">
        <ele>125</ele>
        <time>2024-04-07T09:32:20.000Z</time>
      </trkpt>
      <trkpt lat="48.40854" lon="2.4262">
        <ele>125</ele>
        <time>2024-04-07T09:32:23.000Z</time>
      </trkpt>
      <trkpt lat="48.40851" lon="2.42616">
        <ele>125</ele>
        <time>2024-04-07T09:32:24.000Z</time>
      </trkpt>
      <trkpt lat="48.40844" lon="2.42607">
        <ele>125</ele>
        <time>2024-04-07T09:32:27.000Z</time>
      </trkpt>
      <trkpt lat="48.40837" lon="2.42596">
        <ele>125</ele>
        <time>2024-04-07T09:32:30.000Z</time>
      </trkpt>
      <trkpt lat="48.40825" lon="2.42575">
        <ele>125</ele>
        <time>2024-04-07T09:32:35.000Z</time>
      </trkpt>
      <trkpt lat="48.40823" lon="2.42571">
        <ele>125</ele>
        <time>2024-04-07T09:32:36.000Z</time>
      </trkpt>
      <trkpt lat="48.40811" lon="2.42553">
        <ele>125</ele>
        <time>2024-04-07T09:32:41.000Z</time>
      </trkpt>
      <trkpt lat="48.40808" lon="2.42551">
        <ele>125</ele>
        <time>2024-04-07T09:32:42.000Z</time>
      </trkpt>
      <trkpt lat="48.40805" lon="2.42551">
        <ele>125</ele>
        <time>2024-04-07T09:32:43.000Z</time>
      </trkpt>
      <trkpt lat="48.408" lon="2.42556">
        <ele>124.80000305176</ele>
        <time>2024-04-07T09:32:45.000Z</time>
      </trkpt>
      <trkpt lat="48.40796" lon="2.42562">
        <ele>124.80000305176</ele>
        <time>2024-04-07T09:32:47.000Z</time>
      </trkpt>
      <trkpt lat="48.40786" lon="2.42574">
        <ele>124.80000305176</ele>
        <time>2024-04-07T09:32:50.000Z</time>
      </trkpt>
      <trkpt lat="48.40774" lon="2.42593">
        <ele>124.19999694824</ele>
        <time>2024-04-07T09:32:55.000Z</time>
      </trkpt>
      <trkpt lat="48.40774" lon="2.42596">
        <ele>124.19999694824</ele>
        <time>2024-04-07T09:32:56.000Z</time>
      </trkpt>
      <trkpt lat="48.40779" lon="2.42604">
        <ele>124</ele>
        <time>2024-04-07T09:32:59.000Z</time>
      </trkpt>
      <trkpt lat="48.40781" lon="2.42606">
        <ele>124</ele>
        <time>2024-04-07T09:33:00.000Z</time>
      </trkpt>
      <trkpt lat="48.40788" lon="2.42621">
        <ele>124</ele>
        <time>2024-04-07T09:33:04.000Z</time>
      </trkpt>
      <trkpt lat="48.40792" lon="2.42658">
        <ele>124</ele>
        <time>2024-04-07T09:33:10.000Z</time>
      </trkpt>
      <trkpt lat="48.40793" lon="2.42665">
        <ele>124</ele>
        <time>2024-04-07T09:33:11.000Z</time>
      </trkpt>
      <trkpt lat="48.40803" lon="2.42676">
        <ele>123.80000305176</ele>
        <time>2024-04-07T09:33:14.000Z</time>
      </trkpt>
      <trkpt lat="48.40806" lon="2.42681">
        <ele>123.40000152588</ele>
        <time>2024-04-07T09:33:15.000Z</time>
      </trkpt>
      <trkpt lat="48.4081" lon="2.42695">
        <ele>123.19999694824</ele>
        <time>2024-04-07T09:33:17.000Z</time>
      </trkpt>
      <trkpt lat="48.4081" lon="2.42718">
        <ele>123.19999694824</ele>
        <time>2024-04-07T09:33:20.000Z</time>
      </trkpt>
      <trkpt lat="48.4081" lon="2.42724">
        <ele>123</ele>
        <time>2024-04-07T09:33:21.000Z</time>
      </trkpt>
      <trkpt lat="48.40813" lon="2.4276">
        <ele>123</ele>
        <time>2024-04-07T09:33:26.000Z</time>
      </trkpt>
      <trkpt lat="48.40815" lon="2.42766">
        <ele>123</ele>
        <time>2024-04-07T09:33:27.000Z</time>
      </trkpt>
      <trkpt lat="48.40825" lon="2.42783">
        <ele>122.80000305176</ele>
        <time>2024-04-07T09:33:30.000Z</time>
      </trkpt>
      <trkpt lat="48.40833" lon="2.4281">
        <ele>122.59999847412</ele>
        <time>2024-04-07T09:33:34.000Z</time>
      </trkpt>
      <trkpt lat="48.40831" lon="2.42835">
        <ele>122.59999847412</ele>
        <time>2024-04-07T09:33:38.000Z</time>
      </trkpt>
      <trkpt lat="48.40828" lon="2.42846">
        <ele>122.59999847412</ele>
        <time>2024-04-07T09:33:40.000Z</time>
      </trkpt>
      <trkpt lat="48.40823" lon="2.42864">
        <ele>122.59999847412</ele>
        <time>2024-04-07T09:33:44.000Z</time>
      </trkpt>
      <trkpt lat="48.40809" lon="2.42891">
        <ele>123.19999694824</ele>
        <time>2024-04-07T09:33:50.000Z</time>
      </trkpt>
      <trkpt lat="48.40799" lon="2.42908">
        <ele>123.59999847412</ele>
        <time>2024-04-07T09:33:53.000Z</time>
      </trkpt>
      <trkpt lat="48.40796" lon="2.42921">
        <ele>123.59999847412</ele>
        <time>2024-04-07T09:33:55.000Z</time>
      </trkpt>
      <trkpt lat="48.40794" lon="2.42936">
        <ele>123.59999847412</ele>
        <time>2024-04-07T09:33:57.000Z</time>
      </trkpt>
      <trkpt lat="48.40794" lon="2.42944">
        <ele>123.59999847412</ele>
        <time>2024-04-07T09:33:58.000Z</time>
      </trkpt>
      <trkpt lat="48.40793" lon="2.42959">
        <ele>123.59999847412</ele>
        <time>2024-04-07T09:34:00.000Z</time>
      </trkpt>
      <trkpt lat="48.40793" lon="2.42994">
        <ele>122.40000152588</ele>
        <time>2024-04-07T09:34:05.000Z</time>
      </trkpt>
      <trkpt lat="48.40794" lon="2.43">
        <ele>122.19999694824</ele>
        <time>2024-04-07T09:34:06.000Z</time>
      </trkpt>
      <trkpt lat="48.40794" lon="2.43006">
        <ele>122.19999694824</ele>
        <time>2024-04-07T09:34:07.000Z</time>
      </trkpt>
      <trkpt lat="48.40794" lon="2.43017">
        <ele>121.80000305176</ele>
        <time>2024-04-07T09:34:09.000Z</time>
      </trkpt>
      <trkpt lat="48.40792" lon="2.4302">
        <ele>121.80000305176</ele>
        <time>2024-04-07T09:34:10.000Z</time>
      </trkpt>
      <trkpt lat="48.40789" lon="2.43021">
        <ele>121.59999847412</ele>
        <time>2024-04-07T09:34:11.000Z</time>
      </trkpt>
      <trkpt lat="48.40778" lon="2.43016">
        <ele>121.19999694824</ele>
        <time>2024-04-07T09:34:14.000Z</time>
      </trkpt>
      <trkpt lat="48.40768" lon="2.43006">
        <ele>121</ele>
        <time>2024-04-07T09:34:17.000Z</time>
      </trkpt>
      <trkpt lat="48.40762" lon="2.42998">
        <ele>120.40000152588</ele>
        <time>2024-04-07T09:34:19.000Z</time>
      </trkpt>
      <trkpt lat="48.40758" lon="2.42994">
        <ele>120.19999694824</ele>
        <time>2024-04-07T09:34:20.000Z</time>
      </trkpt>
      <trkpt lat="48.40752" lon="2.42984">
        <ele>119.80000305176</ele>
        <time>2024-04-07T09:34:22.000Z</time>
      </trkpt>
      <trkpt lat="48.40743" lon="2.42966">
        <ele>119.19999694824</ele>
        <time>2024-04-07T09:34:25.000Z</time>
      </trkpt>
      <trkpt lat="48.40737" lon="2.42953">
        <ele>119</ele>
        <time>2024-04-07T09:34:27.000Z</time>
      </trkpt>
      <trkpt lat="48.40734" lon="2.42946">
        <ele>118.59999847412</ele>
        <time>2024-04-07T09:34:28.000Z</time>
      </trkpt>
      <trkpt lat="48.40729" lon="2.42925">
        <ele>118.19999694824</ele>
        <time>2024-04-07T09:34:31.000Z</time>
      </trkpt>
      <trkpt lat="48.40726" lon="2.42909">
        <ele>117.80000305176</ele>
        <time>2024-04-07T09:34:33.000Z</time>
      </trkpt>
      <trkpt lat="48.40724" lon="2.42902">
        <ele>117.59999847412</ele>
        <time>2024-04-07T09:34:34.000Z</time>
      </trkpt>
      <trkpt lat="48.4072" lon="2.42895">
        <ele>117.19999694824</ele>
        <time>2024-04-07T09:34:35.000Z</time>
      </trkpt>
      <trkpt lat="48.40712" lon="2.42883">
        <ele>116.59999847412</ele>
        <time>2024-04-07T09:34:37.000Z</time>
      </trkpt>
      <trkpt lat="48.40698" lon="2.42865">
        <ele>116</ele>
        <time>2024-04-07T09:34:40.000Z</time>
      </trkpt>
      <trkpt lat="48.4068" lon="2.42846">
        <ele>115.80000305176</ele>
        <time>2024-04-07T09:34:44.000Z</time>
      </trkpt>
      <trkpt lat="48.40675" lon="2.42843">
        <ele>115.40000152588</ele>
        <time>2024-04-07T09:34:45.000Z</time>
      </trkpt>
      <trkpt lat="48.40665" lon="2.42836">
        <ele>114.19999694824</ele>
        <time>2024-04-07T09:34:47.000Z</time>
      </trkpt>
      <trkpt lat="48.40644" lon="2.42823">
        <ele>113.19999694824</ele>
        <time>2024-04-07T09:34:51.000Z</time>
      </trkpt>
      <trkpt lat="48.40638" lon="2.42821">
        <ele>113</ele>
        <time>2024-04-07T09:34:52.000Z</time>
      </trkpt>
      <trkpt lat="48.40611" lon="2.42811">
        <ele>112.59999847412</ele>
        <time>2024-04-07T09:34:57.000Z</time>
      </trkpt>
      <trkpt lat="48.40606" lon="2.42809">
        <ele>112.59999847412</ele>
        <time>2024-04-07T09:34:58.000Z</time>
      </trkpt>
      <trkpt lat="48.40594" lon="2.42798">
        <ele>112.19999694824</ele>
        <time>2024-04-07T09:35:01.000Z</time>
      </trkpt>
      <trkpt lat="48.40592" lon="2.42794">
        <ele>112.19999694824</ele>
        <time>2024-04-07T09:35:02.000Z</time>
      </trkpt>
      <trkpt lat="48.40588" lon="2.42792">
        <ele>112.19999694824</ele>
        <time>2024-04-07T09:35:03.000Z</time>
      </trkpt>
      <trkpt lat="48.40578" lon="2.42785">
        <ele>112</ele>
        <time>2024-04-07T09:35:06.000Z</time>
      </trkpt>
      <trkpt lat="48.40565" lon="2.42771">
        <ele>112</ele>
        <time>2024-04-07T09:35:11.000Z</time>
      </trkpt>
      <trkpt lat="48.40551" lon="2.42751">
        <ele>112.59999847412</ele>
        <time>2024-04-07T09:35:17.000Z</time>
      </trkpt>
      <trkpt lat="48.40544" lon="2.42742">
        <ele>113</ele>
        <time>2024-04-07T09:35:20.000Z</time>
      </trkpt>
      <trkpt lat="48.4054" lon="2.42734">
        <ele>113.19999694824</ele>
        <time>2024-04-07T09:35:22.000Z</time>
      </trkpt>
      <trkpt lat="48.40538" lon="2.4273">
        <ele>113.19999694824</ele>
        <time>2024-04-07T09:35:23.000Z</time>
      </trkpt>
      <trkpt lat="48.40536" lon="2.42728">
        <ele>113.40000152588</ele>
        <time>2024-04-07T09:35:24.000Z</time>
      </trkpt>
      <trkpt lat="48.40531" lon="2.42725">
        <ele>114</ele>
        <time>2024-04-07T09:35:26.000Z</time>
      </trkpt>
      <trkpt lat="48.40524" lon="2.42721">
        <ele>114.40000152588</ele>
        <time>2024-04-07T09:35:28.000Z</time>
      </trkpt>
      <trkpt lat="48.40522" lon="2.4272">
        <ele>114.40000152588</ele>
        <time>2024-04-07T09:35:29.000Z</time>
      </trkpt>
      <trkpt lat="48.40518" lon="2.42717">
        <ele>114.40000152588</ele>
        <time>2024-04-07T09:35:31.000Z</time>
      </trkpt>
      <trkpt lat="48.40515" lon="2.42716">
        <ele>114.40000152588</ele>
        <time>2024-04-07T09:35:32.000Z</time>
      </trkpt>
      <trkpt lat="48.40506" lon="2.42716">
        <ele>114.40000152588</ele>
        <time>2024-04-07T09:35:35.000Z</time>
      </trkpt>
      <trkpt lat="48.40493" lon="2.42727">
        <ele>114</ele>
        <time>2024-04-07T09:35:39.000Z</time>
      </trkpt>
      <trkpt lat="48.40477" lon="2.4273">
        <ele>113.59999847412</ele>
        <time>2024-04-07T09:35:43.000Z</time>
      </trkpt>
      <trkpt lat="48.40472" lon="2.42729">
        <ele>113.59999847412</ele>
        <time>2024-04-07T09:35:44.000Z</time>
      </trkpt>
      <trkpt lat="48.40466" lon="2.42728">
        <ele>113.19999694824</ele>
        <time>2024-04-07T09:35:45.000Z</time>
      </trkpt>
      <trkpt lat="48.40456" lon="2.42724">
        <ele>111.80000305176</ele>
        <time>2024-04-07T09:35:47.000Z</time>
      </trkpt>
      <trkpt lat="48.40452" lon="2.42724">
        <ele>110.80000305176</ele>
        <time>2024-04-07T09:35:48.000Z</time>
      </trkpt>
      <trkpt lat="48.40442" lon="2.42724">
        <ele>109.40000152588</ele>
        <time>2024-04-07T09:35:50.000Z</time>
      </trkpt>
      <trkpt lat="48.40437" lon="2.42721">
        <ele>109</ele>
        <time>2024-04-07T09:35:51.000Z</time>
      </trkpt>
      <trkpt lat="48.40433" lon="2.42717">
        <ele>108.19999694824</ele>
        <time>2024-04-07T09:35:52.000Z</time>
      </trkpt>
      <trkpt lat="48.4043" lon="2.42713">
        <ele>107</ele>
        <time>2024-04-07T09:35:53.000Z</time>
      </trkpt>
      <trkpt lat="48.40423" lon="2.42705">
        <ele>105.59999847412</ele>
        <time>2024-04-07T09:35:55.000Z</time>
      </trkpt>
      <trkpt lat="48.40415" lon="2.42693">
        <ele>104.80000305176</ele>
        <time>2024-04-07T09:35:59.000Z</time>
      </trkpt>
      <trkpt lat="48.40413" lon="2.4269">
        <ele>104.80000305176</ele>
        <time>2024-04-07T09:36:00.000Z</time>
      </trkpt>
      <trkpt lat="48.40408" lon="2.42682">
        <ele>104.80000305176</ele>
        <time>2024-04-07T09:36:03.000Z</time>
      </trkpt>
      <trkpt lat="48.40405" lon="2.42676">
        <ele>105.19999694824</ele>
        <time>2024-04-07T09:36:05.000Z</time>
      </trkpt>
      <trkpt lat="48.404" lon="2.42666">
        <ele>106.40000152588</ele>
        <time>2024-04-07T09:36:09.000Z</time>
      </trkpt>
      <trkpt lat="48.40399" lon="2.42664">
        <ele>106.80000305176</ele>
        <time>2024-04-07T09:36:10.000Z</time>
      </trkpt>
      <trkpt lat="48.40398" lon="2.42661">
        <ele>107.19999694824</ele>
        <time>2024-04-07T09:36:11.000Z</time>
      </trkpt>
      <trkpt lat="48.40397" lon="2.42656">
        <ele>108.19999694824</ele>
        <time>2024-04-07T09:36:13.000Z</time>
      </trkpt>
      <trkpt lat="48.40394" lon="2.42645">
        <ele>109.59999847412</ele>
        <time>2024-04-07T09:36:17.000Z</time>
      </trkpt>
      <trkpt lat="48.40391" lon="2.4264">
        <ele>110.80000305176</ele>
        <time>2024-04-07T09:36:20.000Z</time>
      </trkpt>
      <trkpt lat="48.4039" lon="2.42635">
        <ele>111.80000305176</ele>
        <time>2024-04-07T09:36:22.000Z</time>
      </trkpt>
      <trkpt lat="48.4039" lon="2.42632">
        <ele>112.19999694824</ele>
        <time>2024-04-07T09:36:23.000Z</time>
      </trkpt>
      <trkpt lat="48.40391" lon="2.42628">
        <ele>113</ele>
        <time>2024-04-07T09:36:25.000Z</time>
      </trkpt>
      <trkpt lat="48.40394" lon="2.42625">
        <ele>114.40000152588</ele>
        <time>2024-04-07T09:36:27.000Z</time>
      </trkpt>
      <trkpt lat="48.40397" lon="2.42618">
        <ele>115.40000152588</ele>
        <time>2024-04-07T09:36:30.000Z</time>
      </trkpt>
      <trkpt lat="48.40398" lon="2.42616">
        <ele>115.59999847412</ele>
        <time>2024-04-07T09:36:31.000Z</time>
      </trkpt>
      <trkpt lat="48.40402" lon="2.42608">
        <ele>116.80000305176</ele>
        <time>2024-04-07T09:36:35.000Z</time>
      </trkpt>
      <trkpt lat="48.40403" lon="2.42604">
        <ele>117.40000152588</ele>
        <time>2024-04-07T09:36:37.000Z</time>
      </trkpt>
      <trkpt lat="48.40403" lon="2.42595">
        <ele>118</ele>
        <time>2024-04-07T09:36:40.000Z</time>
      </trkpt>
      <trkpt lat="48.40403" lon="2.42588">
        <ele>118.80000305176</ele>
        <time>2024-04-07T09:36:42.000Z</time>
      </trkpt>
      <trkpt lat="48.40403" lon="2.42584">
        <ele>119</ele>
        <time>2024-04-07T09:36:43.000Z</time>
      </trkpt>
      <trkpt lat="48.40404" lon="2.42569">
        <ele>120.19999694824</ele>
        <time>2024-04-07T09:36:48.000Z</time>
      </trkpt>
      <trkpt lat="48.40405" lon="2.42566">
        <ele>120.40000152588</ele>
        <time>2024-04-07T09:36:49.000Z</time>
      </trkpt>
      <trkpt lat="48.40404" lon="2.42556">
        <ele>121.19999694824</ele>
        <time>2024-04-07T09:36:53.000Z</time>
      </trkpt>
      <trkpt lat="48.40403" lon="2.42549">
        <ele>121.80000305176</ele>
        <time>2024-04-07T09:36:55.000Z</time>
      </trkpt>
      <trkpt lat="48.40402" lon="2.42531">
        <ele>122.19999694824</ele>
        <time>2024-04-07T09:36:59.000Z</time>
      </trkpt>
      <trkpt lat="48.40402" lon="2.42524">
        <ele>122.80000305176</ele>
        <time>2024-04-07T09:37:01.000Z</time>
      </trkpt>
      <trkpt lat="48.40393" lon="2.42516">
        <ele>123.40000152588</ele>
        <time>2024-04-07T09:37:06.000Z</time>
      </trkpt>
      <trkpt lat="48.40391" lon="2.42514">
        <ele>123.40000152588</ele>
        <time>2024-04-07T09:37:07.000Z</time>
      </trkpt>
      <trkpt lat="48.40389" lon="2.425">
        <ele>123.80000305176</ele>
        <time>2024-04-07T09:37:10.000Z</time>
      </trkpt>
      <trkpt lat="48.40393" lon="2.42467">
        <ele>124</ele>
        <time>2024-04-07T09:37:16.000Z</time>
      </trkpt>
      <trkpt lat="48.404" lon="2.42443">
        <ele>124</ele>
        <time>2024-04-07T09:37:21.000Z</time>
      </trkpt>
      <trkpt lat="48.40411" lon="2.42423">
        <ele>124</ele>
        <time>2024-04-07T09:37:26.000Z</time>
      </trkpt>
      <trkpt lat="48.40415" lon="2.42402">
        <ele>124.40000152588</ele>
        <time>2024-04-07T09:37:30.000Z</time>
      </trkpt>
      <trkpt lat="48.40415" lon="2.42396">
        <ele>124.40000152588</ele>
        <time>2024-04-07T09:37:31.000Z</time>
      </trkpt>
      <trkpt lat="48.40416" lon="2.42359">
        <ele>124.59999847412</ele>
        <time>2024-04-07T09:37:38.000Z</time>
      </trkpt>
      <trkpt lat="48.40414" lon="2.42317">
        <ele>124.80000305176</ele>
        <time>2024-04-07T09:37:45.000Z</time>
      </trkpt>
      <trkpt lat="48.4041" lon="2.42288">
        <ele>125</ele>
        <time>2024-04-07T09:37:50.000Z</time>
      </trkpt>
      <trkpt lat="48.40407" lon="2.42262">
        <ele>125.59999847412</ele>
        <time>2024-04-07T09:37:54.000Z</time>
      </trkpt>
      <trkpt lat="48.40404" lon="2.4224">
        <ele>125.80000305176</ele>
        <time>2024-04-07T09:37:57.000Z</time>
      </trkpt>
      <trkpt lat="48.40398" lon="2.42199">
        <ele>125.80000305176</ele>
        <time>2024-04-07T09:38:03.000Z</time>
      </trkpt>
      <trkpt lat="48.40396" lon="2.42194">
        <ele>125.80000305176</ele>
        <time>2024-04-07T09:38:04.000Z</time>
      </trkpt>
      <trkpt lat="48.4039" lon="2.42187">
        <ele>125.80000305176</ele>
        <time>2024-04-07T09:38:06.000Z</time>
      </trkpt>
      <trkpt lat="48.40378" lon="2.42189">
        <ele>126</ele>
        <time>2024-04-07T09:38:09.000Z</time>
      </trkpt>
      <trkpt lat="48.40357" lon="2.42195">
        <ele>126.19999694824</ele>
        <time>2024-04-07T09:38:14.000Z</time>
      </trkpt>
      <trkpt lat="48.40343" lon="2.42198">
        <ele>126.19999694824</ele>
        <time>2024-04-07T09:38:17.000Z</time>
      </trkpt>
      <trkpt lat="48.40337" lon="2.42196">
        <ele>126.19999694824</ele>
        <time>2024-04-07T09:38:18.000Z</time>
      </trkpt>
      <trkpt lat="48.40317" lon="2.42182">
        <ele>126.40000152588</ele>
        <time>2024-04-07T09:38:22.000Z</time>
      </trkpt>
      <trkpt lat="48.40313" lon="2.4218">
        <ele>126.40000152588</ele>
        <time>2024-04-07T09:38:23.000Z</time>
      </trkpt>
      <trkpt lat="48.40303" lon="2.4218">
        <ele>126.40000152588</ele>
        <time>2024-04-07T09:38:25.000Z</time>
      </trkpt>
      <trkpt lat="48.40292" lon="2.42182">
        <ele>126.40000152588</ele>
        <time>2024-04-07T09:38:27.000Z</time>
      </trkpt>
      <trkpt lat="48.40287" lon="2.42183">
        <ele>126.59999847412</ele>
        <time>2024-04-07T09:38:28.000Z</time>
      </trkpt>
      <trkpt lat="48.40269" lon="2.42187">
        <ele>126.59999847412</ele>
        <time>2024-04-07T09:38:32.000Z</time>
      </trkpt>
      <trkpt lat="48.40245" lon="2.42186">
        <ele>126.80000305176</ele>
        <time>2024-04-07T09:38:37.000Z</time>
      </trkpt>
      <trkpt lat="48.40234" lon="2.42163">
        <ele>127</ele>
        <time>2024-04-07T09:38:41.000Z</time>
      </trkpt>
      <trkpt lat="48.40231" lon="2.42157">
        <ele>127</ele>
        <time>2024-04-07T09:38:42.000Z</time>
      </trkpt>
      <trkpt lat="48.4022" lon="2.42141">
        <ele>127</ele>
        <time>2024-04-07T09:38:45.000Z</time>
      </trkpt>
      <trkpt lat="48.40204" lon="2.42133">
        <ele>126.80000305176</ele>
        <time>2024-04-07T09:38:49.000Z</time>
      </trkpt>
      <trkpt lat="48.40198" lon="2.42132">
        <ele>126.80000305176</ele>
        <time>2024-04-07T09:38:50.000Z</time>
      </trkpt>
      <trkpt lat="48.40177" lon="2.42127">
        <ele>126.59999847412</ele>
        <time>2024-04-07T09:38:54.000Z</time>
      </trkpt>
      <trkpt lat="48.40141" lon="2.42116">
        <ele>126.40000152588</ele>
        <time>2024-04-07T09:39:00.000Z</time>
      </trkpt>
      <trkpt lat="48.40112" lon="2.42108">
        <ele>126.19999694824</ele>
        <time>2024-04-07T09:39:05.000Z</time>
      </trkpt>
      <trkpt lat="48.40086" lon="2.42099">
        <ele>126.19999694824</ele>
        <time>2024-04-07T09:39:10.000Z</time>
      </trkpt>
      <trkpt lat="48.40049" lon="2.42084">
        <ele>126.19999694824</ele>
        <time>2024-04-07T09:39:17.000Z</time>
      </trkpt>
      <trkpt lat="48.40033" lon="2.42077">
        <ele>126.19999694824</ele>
        <time>2024-04-07T09:39:20.000Z</time>
      </trkpt>
      <trkpt lat="48.40021" lon="2.42073">
        <ele>126.19999694824</ele>
        <time>2024-04-07T09:39:22.000Z</time>
      </trkpt>
      <trkpt lat="48.40002" lon="2.42068">
        <ele>126</ele>
        <time>2024-04-07T09:39:25.000Z</time>
      </trkpt>
      <trkpt lat="48.39996" lon="2.42071">
        <ele>126</ele>
        <time>2024-04-07T09:39:26.000Z</time>
      </trkpt>
      <trkpt lat="48.39977" lon="2.42088">
        <ele>126.40000152588</ele>
        <time>2024-04-07T09:39:30.000Z</time>
      </trkpt>
      <trkpt lat="48.39954" lon="2.42125">
        <ele>126.80000305176</ele>
        <time>2024-04-07T09:39:36.000Z</time>
      </trkpt>
      <trkpt lat="48.39941" lon="2.42141">
        <ele>127</ele>
        <time>2024-04-07T09:39:39.000Z</time>
      </trkpt>
      <trkpt lat="48.39924" lon="2.4216">
        <ele>127</ele>
        <time>2024-04-07T09:39:43.000Z</time>
      </trkpt>
      <trkpt lat="48.39897" lon="2.42188">
        <ele>127</ele>
        <time>2024-04-07T09:39:49.000Z</time>
      </trkpt>
      <trkpt lat="48.39887" lon="2.42195">
        <ele>127</ele>
        <time>2024-04-07T09:39:51.000Z</time>
      </trkpt>
      <trkpt lat="48.3985" lon="2.42212">
        <ele>126.80000305176</ele>
        <time>2024-04-07T09:39:58.000Z</time>
      </trkpt>
      <trkpt lat="48.39823" lon="2.42221">
        <ele>127</ele>
        <time>2024-04-07T09:40:04.000Z</time>
      </trkpt>
      <trkpt lat="48.3981" lon="2.42224">
        <ele>127</ele>
        <time>2024-04-07T09:40:08.000Z</time>
      </trkpt>
      <trkpt lat="48.39803" lon="2.42228">
        <ele>127.19999694824</ele>
        <time>2024-04-07T09:40:10.000Z</time>
      </trkpt>
      <trkpt lat="48.39799" lon="2.4223">
        <ele>127.40000152588</ele>
        <time>2024-04-07T09:40:11.000Z</time>
      </trkpt>
      <trkpt lat="48.39781" lon="2.42232">
        <ele>127.59999847412</ele>
        <time>2024-04-07T09:40:15.000Z</time>
      </trkpt>
      <trkpt lat="48.39756" lon="2.42232">
        <ele>128.19999694824</ele>
        <time>2024-04-07T09:40:20.000Z</time>
      </trkpt>
      <trkpt lat="48.39742" lon="2.42233">
        <ele>128.39999389648</ele>
        <time>2024-04-07T09:40:23.000Z</time>
      </trkpt>
      <trkpt lat="48.39719" lon="2.42236">
        <ele>128.19999694824</ele>
        <time>2024-04-07T09:40:29.000Z</time>
      </trkpt>
      <trkpt lat="48.39712" lon="2.42237">
        <ele>128.39999389648</ele>
        <time>2024-04-07T09:40:32.000Z</time>
      </trkpt>
      <trkpt lat="48.3971" lon="2.42237">
        <ele>128.60000610352</ele>
        <time>2024-04-07T09:40:34.000Z</time>
      </trkpt>
      <trkpt lat="48.39699" lon="2.42232">
        <ele>129.19999694824</ele>
        <time>2024-04-07T09:40:38.000Z</time>
      </trkpt>
      <trkpt lat="48.39691" lon="2.42226">
        <ele>129.80000305176</ele>
        <time>2024-04-07T09:40:40.000Z</time>
      </trkpt>
      <trkpt lat="48.39682" lon="2.42219">
        <ele>129.80000305176</ele>
        <time>2024-04-07T09:40:42.000Z</time>
      </trkpt>
      <trkpt lat="48.39677" lon="2.42219">
        <ele>129.80000305176</ele>
        <time>2024-04-07T09:40:43.000Z</time>
      </trkpt>
      <trkpt lat="48.39664" lon="2.42228">
        <ele>129.80000305176</ele>
        <time>2024-04-07T09:40:46.000Z</time>
      </trkpt>
      <trkpt lat="48.39655" lon="2.42256">
        <ele>129.39999389648</ele>
        <time>2024-04-07T09:40:50.000Z</time>
      </trkpt>
      <trkpt lat="48.39653" lon="2.42263">
        <ele>129.19999694824</ele>
        <time>2024-04-07T09:40:51.000Z</time>
      </trkpt>
      <trkpt lat="48.39656" lon="2.42276">
        <ele>129</ele>
        <time>2024-04-07T09:40:53.000Z</time>
      </trkpt>
      <trkpt lat="48.39662" lon="2.42284">
        <ele>129</ele>
        <time>2024-04-07T09:40:55.000Z</time>
      </trkpt>
      <trkpt lat="48.39668" lon="2.42293">
        <ele>129</ele>
        <time>2024-04-07T09:40:57.000Z</time>
      </trkpt>
      <trkpt lat="48.39674" lon="2.42321">
        <ele>129</ele>
        <time>2024-04-07T09:41:01.000Z</time>
      </trkpt>
      <trkpt lat="48.39681" lon="2.42388">
        <ele>129</ele>
        <time>2024-04-07T09:41:09.000Z</time>
      </trkpt>
      <trkpt lat="48.39684" lon="2.4242">
        <ele>128.60000610352</ele>
        <time>2024-04-07T09:41:13.000Z</time>
      </trkpt>
      <trkpt lat="48.39688" lon="2.4246">
        <ele>128.60000610352</ele>
        <time>2024-04-07T09:41:18.000Z</time>
      </trkpt>
      <trkpt lat="48.39691" lon="2.42508">
        <ele>128.60000610352</ele>
        <time>2024-04-07T09:41:24.000Z</time>
      </trkpt>
      <trkpt lat="48.39692" lon="2.42525">
        <ele>128.60000610352</ele>
        <time>2024-04-07T09:41:26.000Z</time>
      </trkpt>
      <trkpt lat="48.39694" lon="2.42558">
        <ele>128.39999389648</ele>
        <time>2024-04-07T09:41:30.000Z</time>
      </trkpt>
      <trkpt lat="48.39697" lon="2.42609">
        <ele>128.19999694824</ele>
        <time>2024-04-07T09:41:36.000Z</time>
      </trkpt>
      <trkpt lat="48.397" lon="2.4266">
        <ele>128</ele>
        <time>2024-04-07T09:41:42.000Z</time>
      </trkpt>
      <trkpt lat="48.39702" lon="2.42693">
        <ele>127.80000305176</ele>
        <time>2024-04-07T09:41:46.000Z</time>
      </trkpt>
      <trkpt lat="48.39703" lon="2.4271">
        <ele>127.80000305176</ele>
        <time>2024-04-07T09:41:48.000Z</time>
      </trkpt>
      <trkpt lat="48.39708" lon="2.42788">
        <ele>127.59999847412</ele>
        <time>2024-04-07T09:41:57.000Z</time>
      </trkpt>
      <trkpt lat="48.39707" lon="2.4285">
        <ele>127.19999694824</ele>
        <time>2024-04-07T09:42:04.000Z</time>
      </trkpt>
      <trkpt lat="48.39706" lon="2.42859">
        <ele>127.19999694824</ele>
        <time>2024-04-07T09:42:05.000Z</time>
      </trkpt>
      <trkpt lat="48.39703" lon="2.42885">
        <ele>126.80000305176</ele>
        <time>2024-04-07T09:42:08.000Z</time>
      </trkpt>
      <trkpt lat="48.39695" lon="2.42929">
        <ele>126.40000152588</ele>
        <time>2024-04-07T09:42:13.000Z</time>
      </trkpt>
      <trkpt lat="48.39683" lon="2.42972">
        <ele>125.80000305176</ele>
        <time>2024-04-07T09:42:18.000Z</time>
      </trkpt>
      <trkpt lat="48.39677" lon="2.42989">
        <ele>125.59999847412</ele>
        <time>2024-04-07T09:42:20.000Z</time>
      </trkpt>
      <trkpt lat="48.39653" lon="2.43044">
        <ele>124.80000305176</ele>
        <time>2024-04-07T09:42:27.000Z</time>
      </trkpt>
      <trkpt lat="48.39649" lon="2.43051">
        <ele>124.40000152588</ele>
        <time>2024-04-07T09:42:28.000Z</time>
      </trkpt>
      <trkpt lat="48.39624" lon="2.43106">
        <ele>124.19999694824</ele>
        <time>2024-04-07T09:42:35.000Z</time>
      </trkpt>
      <trkpt lat="48.3961" lon="2.43143">
        <ele>123.59999847412</ele>
        <time>2024-04-07T09:42:40.000Z</time>
      </trkpt>
      <trkpt lat="48.39607" lon="2.4315">
        <ele>123.59999847412</ele>
        <time>2024-04-07T09:42:41.000Z</time>
      </trkpt>
      <trkpt lat="48.39603" lon="2.43155">
        <ele>123.59999847412</ele>
        <time>2024-04-07T09:42:42.000Z</time>
      </trkpt>
      <trkpt lat="48.39588" lon="2.43161">
        <ele>123.59999847412</ele>
        <time>2024-04-07T09:42:45.000Z</time>
      </trkpt>
      <trkpt lat="48.39582" lon="2.43161">
        <ele>123.59999847412</ele>
        <time>2024-04-07T09:42:46.000Z</time>
      </trkpt>
      <trkpt lat="48.39571" lon="2.43158">
        <ele>123.59999847412</ele>
        <time>2024-04-07T09:42:48.000Z</time>
      </trkpt>
      <trkpt lat="48.39555" lon="2.43152">
        <ele>123.40000152588</ele>
        <time>2024-04-07T09:42:51.000Z</time>
      </trkpt>
      <trkpt lat="48.39515" lon="2.43126">
        <ele>123.40000152588</ele>
        <time>2024-04-07T09:42:59.000Z</time>
      </trkpt>
      <trkpt lat="48.39496" lon="2.43108">
        <ele>123</ele>
        <time>2024-04-07T09:43:03.000Z</time>
      </trkpt>
      <trkpt lat="48.39489" lon="2.43094">
        <ele>123</ele>
        <time>2024-04-07T09:43:05.000Z</time>
      </trkpt>
      <trkpt lat="48.39483" lon="2.43078">
        <ele>123</ele>
        <time>2024-04-07T09:43:07.000Z</time>
      </trkpt>
      <trkpt lat="48.39481" lon="2.4307">
        <ele>122.80000305176</ele>
        <time>2024-04-07T09:43:08.000Z</time>
      </trkpt>
      <trkpt lat="48.39476" lon="2.43053">
        <ele>122.40000152588</ele>
        <time>2024-04-07T09:43:10.000Z</time>
      </trkpt>
      <trkpt lat="48.39463" lon="2.43048">
        <ele>122.19999694824</ele>
        <time>2024-04-07T09:43:13.000Z</time>
      </trkpt>
      <trkpt lat="48.39461" lon="2.43071">
        <ele>121.80000305176</ele>
        <time>2024-04-07T09:43:16.000Z</time>
      </trkpt>
      <trkpt lat="48.39462" lon="2.43089">
        <ele>121.59999847412</ele>
        <time>2024-04-07T09:43:18.000Z</time>
      </trkpt>
      <trkpt lat="48.39465" lon="2.43128">
        <ele>120.59999847412</ele>
        <time>2024-04-07T09:43:22.000Z</time>
      </trkpt>
      <trkpt lat="48.39466" lon="2.43139">
        <ele>120.40000152588</ele>
        <time>2024-04-07T09:43:23.000Z</time>
      </trkpt>
      <trkpt lat="48.39468" lon="2.4317">
        <ele>119.40000152588</ele>
        <time>2024-04-07T09:43:26.000Z</time>
      </trkpt>
      <trkpt lat="48.3947" lon="2.43204">
        <ele>118.19999694824</ele>
        <time>2024-04-07T09:43:29.000Z</time>
      </trkpt>
      <trkpt lat="48.39474" lon="2.43249">
        <ele>117</ele>
        <time>2024-04-07T09:43:33.000Z</time>
      </trkpt>
      <trkpt lat="48.3948" lon="2.43284">
        <ele>116</ele>
        <time>2024-04-07T09:43:36.000Z</time>
      </trkpt>
      <trkpt lat="48.39482" lon="2.43296">
        <ele>115.59999847412</ele>
        <time>2024-04-07T09:43:37.000Z</time>
      </trkpt>
      <trkpt lat="48.39491" lon="2.43329">
        <ele>114.40000152588</ele>
        <time>2024-04-07T09:43:40.000Z</time>
      </trkpt>
      <trkpt lat="48.39496" lon="2.43349">
        <ele>113.59999847412</ele>
        <time>2024-04-07T09:43:42.000Z</time>
      </trkpt>
      <trkpt lat="48.39505" lon="2.43381">
        <ele>113.19999694824</ele>
        <time>2024-04-07T09:43:45.000Z</time>
      </trkpt>
      <trkpt lat="48.39514" lon="2.43412">
        <ele>112.19999694824</ele>
        <time>2024-04-07T09:43:48.000Z</time>
      </trkpt>
      <trkpt lat="48.3952" lon="2.43434">
        <ele>112</ele>
        <time>2024-04-07T09:43:50.000Z</time>
      </trkpt>
      <trkpt lat="48.39532" lon="2.4348">
        <ele>110.80000305176</ele>
        <time>2024-04-07T09:43:54.000Z</time>
      </trkpt>
      <trkpt lat="48.39546" lon="2.43526">
        <ele>109.59999847412</ele>
        <time>2024-04-07T09:43:58.000Z</time>
      </trkpt>
      <trkpt lat="48.39555" lon="2.43549">
        <ele>108.80000305176</ele>
        <time>2024-04-07T09:44:00.000Z</time>
      </trkpt>
      <trkpt lat="48.3956" lon="2.43559">
        <ele>108.40000152588</ele>
        <time>2024-04-07T09:44:01.000Z</time>
      </trkpt>
      <trkpt lat="48.39572" lon="2.43578">
        <ele>107.80000305176</ele>
        <time>2024-04-07T09:44:03.000Z</time>
      </trkpt>
      <trkpt lat="48.39578" lon="2.43586">
        <ele>107.40000152588</ele>
        <time>2024-04-07T09:44:04.000Z</time>
      </trkpt>
      <trkpt lat="48.39584" lon="2.43593">
        <ele>107</ele>
        <time>2024-04-07T09:44:05.000Z</time>
      </trkpt>
      <trkpt lat="48.39607" lon="2.43609">
        <ele>106.19999694824</ele>
        <time>2024-04-07T09:44:08.000Z</time>
      </trkpt>
      <trkpt lat="48.39614" lon="2.43614">
        <ele>106</ele>
        <time>2024-04-07T09:44:09.000Z</time>
      </trkpt>
      <trkpt lat="48.39652" lon="2.43646">
        <ele>105.19999694824</ele>
        <time>2024-04-07T09:44:14.000Z</time>
      </trkpt>
      <trkpt lat="48.39665" lon="2.43663">
        <ele>105</ele>
        <time>2024-04-07T09:44:16.000Z</time>
      </trkpt>
      <trkpt lat="48.39675" lon="2.43687">
        <ele>104.40000152588</ele>
        <time>2024-04-07T09:44:18.000Z</time>
      </trkpt>
      <trkpt lat="48.3968" lon="2.43716">
        <ele>103.40000152588</ele>
        <time>2024-04-07T09:44:20.000Z</time>
      </trkpt>
      <trkpt lat="48.39681" lon="2.43731">
        <ele>103.19999694824</ele>
        <time>2024-04-07T09:44:21.000Z</time>
      </trkpt>
      <trkpt lat="48.39683" lon="2.43747">
        <ele>102.80000305176</ele>
        <time>2024-04-07T09:44:22.000Z</time>
      </trkpt>
      <trkpt lat="48.39685" lon="2.43762">
        <ele>102.19999694824</ele>
        <time>2024-04-07T09:44:23.000Z</time>
      </trkpt>
      <trkpt lat="48.39687" lon="2.43793">
        <ele>100.80000305176</ele>
        <time>2024-04-07T09:44:25.000Z</time>
      </trkpt>
      <trkpt lat="48.39691" lon="2.43825">
        <ele>99.599998474121</ele>
        <time>2024-04-07T09:44:27.000Z</time>
      </trkpt>
      <trkpt lat="48.39693" lon="2.4384">
        <ele>99</ele>
        <time>2024-04-07T09:44:28.000Z</time>
      </trkpt>
      <trkpt lat="48.39705" lon="2.43884">
        <ele>97.800003051758</ele>
        <time>2024-04-07T09:44:31.000Z</time>
      </trkpt>
      <trkpt lat="48.39724" lon="2.43922">
        <ele>96.599998474121</ele>
        <time>2024-04-07T09:44:34.000Z</time>
      </trkpt>
      <trkpt lat="48.39731" lon="2.43935">
        <ele>96.199996948242</ele>
        <time>2024-04-07T09:44:35.000Z</time>
      </trkpt>
      <trkpt lat="48.39753" lon="2.43968">
        <ele>95.400001525879</ele>
        <time>2024-04-07T09:44:38.000Z</time>
      </trkpt>
      <trkpt lat="48.39769" lon="2.4399">
        <ele>94</ele>
        <time>2024-04-07T09:44:40.000Z</time>
      </trkpt>
      <trkpt lat="48.39783" lon="2.44013">
        <ele>93.800003051758</ele>
        <time>2024-04-07T09:44:42.000Z</time>
      </trkpt>
      <trkpt lat="48.39803" lon="2.44046">
        <ele>93</ele>
        <time>2024-04-07T09:44:45.000Z</time>
      </trkpt>
      <trkpt lat="48.39817" lon="2.44085">
        <ele>91.800003051758</ele>
        <time>2024-04-07T09:44:48.000Z</time>
      </trkpt>
      <trkpt lat="48.3982" lon="2.44098">
        <ele>91.400001525879</ele>
        <time>2024-04-07T09:44:49.000Z</time>
      </trkpt>
      <trkpt lat="48.39822" lon="2.44112">
        <ele>90.800003051758</ele>
        <time>2024-04-07T09:44:50.000Z</time>
      </trkpt>
      <trkpt lat="48.39823" lon="2.44125">
        <ele>90.400001525879</ele>
        <time>2024-04-07T09:44:51.000Z</time>
      </trkpt>
      <trkpt lat="48.39826" lon="2.44151">
        <ele>89.199996948242</ele>
        <time>2024-04-07T09:44:53.000Z</time>
      </trkpt>
      <trkpt lat="48.39826" lon="2.44189">
        <ele>88</ele>
        <time>2024-04-07T09:44:56.000Z</time>
      </trkpt>
      <trkpt lat="48.39826" lon="2.44227">
        <ele>87</ele>
        <time>2024-04-07T09:44:59.000Z</time>
      </trkpt>
      <trkpt lat="48.39826" lon="2.44279">
        <ele>85.800003051758</ele>
        <time>2024-04-07T09:45:03.000Z</time>
      </trkpt>
      <trkpt lat="48.39828" lon="2.44304">
        <ele>85.199996948242</ele>
        <time>2024-04-07T09:45:05.000Z</time>
      </trkpt>
      <trkpt lat="48.39828" lon="2.44331">
        <ele>84.400001525879</ele>
        <time>2024-04-07T09:45:07.000Z</time>
      </trkpt>
      <trkpt lat="48.39829" lon="2.44372">
        <ele>83.199996948242</ele>
        <time>2024-04-07T09:45:10.000Z</time>
      </trkpt>
      <trkpt lat="48.3983" lon="2.44386">
        <ele>83</ele>
        <time>2024-04-07T09:45:11.000Z</time>
      </trkpt>
      <trkpt lat="48.39832" lon="2.44427">
        <ele>82</ele>
        <time>2024-04-07T09:45:14.000Z</time>
      </trkpt>
      <trkpt lat="48.39838" lon="2.44467">
        <ele>80.599998474121</ele>
        <time>2024-04-07T09:45:17.000Z</time>
      </trkpt>
      <trkpt lat="48.39839" lon="2.44495">
        <ele>79.599998474121</ele>
        <time>2024-04-07T09:45:19.000Z</time>
      </trkpt>
      <trkpt lat="48.39841" lon="2.44508">
        <ele>79.400001525879</ele>
        <time>2024-04-07T09:45:20.000Z</time>
      </trkpt>
      <trkpt lat="48.39851" lon="2.44562">
        <ele>78.400001525879</ele>
        <time>2024-04-07T09:45:24.000Z</time>
      </trkpt>
      <trkpt lat="48.39856" lon="2.44576">
        <ele>78.199996948242</ele>
        <time>2024-04-07T09:45:25.000Z</time>
      </trkpt>
      <trkpt lat="48.39873" lon="2.44612">
        <ele>77</ele>
        <time>2024-04-07T09:45:28.000Z</time>
      </trkpt>
      <trkpt lat="48.39891" lon="2.44647">
        <ele>76</ele>
        <time>2024-04-07T09:45:31.000Z</time>
      </trkpt>
      <trkpt lat="48.39902" lon="2.44668">
        <ele>75.400001525879</ele>
        <time>2024-04-07T09:45:33.000Z</time>
      </trkpt>
      <trkpt lat="48.39914" lon="2.4469">
        <ele>74.800003051758</ele>
        <time>2024-04-07T09:45:35.000Z</time>
      </trkpt>
      <trkpt lat="48.39925" lon="2.44713">
        <ele>73.199996948242</ele>
        <time>2024-04-07T09:45:37.000Z</time>
      </trkpt>
      <trkpt lat="48.39937" lon="2.44736">
        <ele>72.599998474121</ele>
        <time>2024-04-07T09:45:39.000Z</time>
      </trkpt>
      <trkpt lat="48.39955" lon="2.44771">
        <ele>71.800003051758</ele>
        <time>2024-04-07T09:45:42.000Z</time>
      </trkpt>
      <trkpt lat="48.39977" lon="2.44817">
        <ele>70.800003051758</ele>
        <time>2024-04-07T09:45:46.000Z</time>
      </trkpt>
      <trkpt lat="48.39988" lon="2.44838">
        <ele>70.199996948242</ele>
        <time>2024-04-07T09:45:48.000Z</time>
      </trkpt>
      <trkpt lat="48.39994" lon="2.44849">
        <ele>69.800003051758</ele>
        <time>2024-04-07T09:45:49.000Z</time>
      </trkpt>
      <trkpt lat="48.40017" lon="2.44892">
        <ele>68.599998474121</ele>
        <time>2024-04-07T09:45:53.000Z</time>
      </trkpt>
      <trkpt lat="48.40027" lon="2.44911">
        <ele>68.199996948242</ele>
        <time>2024-04-07T09:45:55.000Z</time>
      </trkpt>
      <trkpt lat="48.40031" lon="2.44922">
        <ele>68.199996948242</ele>
        <time>2024-04-07T09:45:56.000Z</time>
      </trkpt>
      <trkpt lat="48.40041" lon="2.44956">
        <ele>68.199996948242</ele>
        <time>2024-04-07T09:45:59.000Z</time>
      </trkpt>
      <trkpt lat="48.40046" lon="2.44966">
        <ele>68</ele>
        <time>2024-04-07T09:46:00.000Z</time>
      </trkpt>
      <trkpt lat="48.40061" lon="2.44994">
        <ele>67.800003051758</ele>
        <time>2024-04-07T09:46:03.000Z</time>
      </trkpt>
      <trkpt lat="48.40075" lon="2.4502">
        <ele>67.800003051758</ele>
        <time>2024-04-07T09:46:06.000Z</time>
      </trkpt>
      <trkpt lat="48.40083" lon="2.45036">
        <ele>67.800003051758</ele>
        <time>2024-04-07T09:46:08.000Z</time>
      </trkpt>
      <trkpt lat="48.40087" lon="2.45063">
        <ele>68</ele>
        <time>2024-04-07T09:46:11.000Z</time>
      </trkpt>
      <trkpt lat="48.40079" lon="2.45098">
        <ele>68.400001525879</ele>
        <time>2024-04-07T09:46:15.000Z</time>
      </trkpt>
      <trkpt lat="48.40081" lon="2.45126">
        <ele>68.800003051758</ele>
        <time>2024-04-07T09:46:18.000Z</time>
      </trkpt>
      <trkpt lat="48.40093" lon="2.45152">
        <ele>69</ele>
        <time>2024-04-07T09:46:21.000Z</time>
      </trkpt>
      <trkpt lat="48.401" lon="2.4517">
        <ele>69</ele>
        <time>2024-04-07T09:46:23.000Z</time>
      </trkpt>
      <trkpt lat="48.40105" lon="2.4519">
        <ele>69</ele>
        <time>2024-04-07T09:46:25.000Z</time>
      </trkpt>
      <trkpt lat="48.4012" lon="2.4527">
        <ele>68</ele>
        <time>2024-04-07T09:46:33.000Z</time>
      </trkpt>
      <trkpt lat="48.4012" lon="2.45281">
        <ele>67.599998474121</ele>
        <time>2024-04-07T09:46:34.000Z</time>
      </trkpt>
      <trkpt lat="48.40121" lon="2.45328">
        <ele>66.800003051758</ele>
        <time>2024-04-07T09:46:39.000Z</time>
      </trkpt>
      <trkpt lat="48.40119" lon="2.45389">
        <ele>66.599998474121</ele>
        <time>2024-04-07T09:46:46.000Z</time>
      </trkpt>
      <trkpt lat="48.40118" lon="2.45397">
        <ele>66.599998474121</ele>
        <time>2024-04-07T09:46:47.000Z</time>
      </trkpt>
      <trkpt lat="48.40113" lon="2.45407">
        <ele>66.599998474121</ele>
        <time>2024-04-07T09:46:49.000Z</time>
      </trkpt>
      <trkpt lat="48.40109" lon="2.45405">
        <ele>66.599998474121</ele>
        <time>2024-04-07T09:46:50.000Z</time>
      </trkpt>
      <trkpt lat="48.40105" lon="2.45402">
        <ele>66.599998474121</ele>
        <time>2024-04-07T09:46:51.000Z</time>
      </trkpt>
      <trkpt lat="48.40101" lon="2.45397">
        <ele>66.599998474121</ele>
        <time>2024-04-07T09:46:52.000Z</time>
      </trkpt>
      <trkpt lat="48.40091" lon="2.4539">
        <ele>66.599998474121</ele>
        <time>2024-04-07T09:46:54.000Z</time>
      </trkpt>
      <trkpt lat="48.4008" lon="2.45387">
        <ele>66.599998474121</ele>
        <time>2024-04-07T09:46:56.000Z</time>
      </trkpt>
      <trkpt lat="48.40038" lon="2.4538">
        <ele>67.199996948242</ele>
        <time>2024-04-07T09:47:04.000Z</time>
      </trkpt>
      <trkpt lat="48.40032" lon="2.45378">
        <ele>67.400001525879</ele>
        <time>2024-04-07T09:47:07.000Z</time>
      </trkpt>
      <trkpt lat="48.40031" lon="2.45378">
        <ele>67.599998474121</ele>
        <time>2024-04-07T09:47:08.000Z</time>
      </trkpt>
      <trkpt lat="48.40032" lon="2.45377">
        <ele>69</ele>
        <time>2024-04-07T09:47:15.000Z</time>
      </trkpt>
      <trkpt lat="48.40032" lon="2.45377">
        <ele>69.599998474121</ele>
        <time>2024-04-07T09:47:18.000Z</time>
      </trkpt>
      <trkpt lat="48.40032" lon="2.45376">
        <ele>69.800003051758</ele>
        <time>2024-04-07T09:47:36.000Z</time>
      </trkpt>
      <trkpt lat="48.40033" lon="2.45376">
        <ele>69.800003051758</ele>
        <time>2024-04-07T09:47:41.000Z</time>
      </trkpt>
      <trkpt lat="48.40033" lon="2.45376">
        <ele>69.800003051758</ele>
        <time>2024-04-07T09:47:42.000Z</time>
      </trkpt>
      <trkpt lat="48.40033" lon="2.45377">
        <ele>69.800003051758</ele>
        <time>2024-04-07T09:47:51.000Z</time>
      </trkpt>
      <trkpt lat="48.40032" lon="2.45376">
        <ele>69.599998474121</ele>
        <time>2024-04-07T09:48:00.000Z</time>
      </trkpt>
      <trkpt lat="48.4003" lon="2.45377">
        <ele>69.800003051758</ele>
        <time>2024-04-07T09:48:05.000Z</time>
      </trkpt>
      <trkpt lat="48.40021" lon="2.45376">
        <ele>69.800003051758</ele>
        <time>2024-04-07T09:48:10.000Z</time>
      </trkpt>
      <trkpt lat="48.40008" lon="2.45377">
        <ele>69.599998474121</ele>
        <time>2024-04-07T09:48:13.000Z</time>
      </trkpt>
      <trkpt lat="48.39998" lon="2.45377">
        <ele>69.599998474121</ele>
        <time>2024-04-07T09:48:15.000Z</time>
      </trkpt>
      <trkpt lat="48.39971" lon="2.45374">
        <ele>69</ele>
        <time>2024-04-07T09:48:21.000Z</time>
      </trkpt>
      <trkpt lat="48.39967" lon="2.45374">
        <ele>69</ele>
        <time>2024-04-07T09:48:22.000Z</time>
      </trkpt>
      <trkpt lat="48.3995" lon="2.45372">
        <ele>69</ele>
        <time>2024-04-07T09:48:28.000Z</time>
      </trkpt>
      <trkpt lat="48.39949" lon="2.45373">
        <ele>69.400001525879</ele>
        <time>2024-04-07T09:48:34.000Z</time>
      </trkpt>
      <trkpt lat="48.39949" lon="2.45373">
        <ele>70.199996948242</ele>
        <time>2024-04-07T09:48:48.000Z</time>
      </trkpt>
      <trkpt lat="48.39949" lon="2.45373">
        <ele>70.199996948242</ele>
        <time>2024-04-07T09:48:51.000Z</time>
      </trkpt>
      <trkpt lat="48.39949" lon="2.45374">
        <ele>70</ele>
        <time>2024-04-07T09:48:55.000Z</time>
      </trkpt>
      <trkpt lat="48.39947" lon="2.45377">
        <ele>69.800003051758</ele>
        <time>2024-04-07T09:49:08.000Z</time>
      </trkpt>
      <trkpt lat="48.39954" lon="2.45379">
        <ele>69.800003051758</ele>
        <time>2024-04-07T09:49:11.000Z</time>
      </trkpt>
      <trkpt lat="48.3996" lon="2.4538">
        <ele>69.800003051758</ele>
        <time>2024-04-07T09:49:13.000Z</time>
      </trkpt>
      <trkpt lat="48.39974" lon="2.4538">
        <ele>69.599998474121</ele>
        <time>2024-04-07T09:49:18.000Z</time>
      </trkpt>
      <trkpt lat="48.39984" lon="2.45381">
        <ele>69.599998474121</ele>
        <time>2024-04-07T09:49:21.000Z</time>
      </trkpt>
      <trkpt lat="48.39998" lon="2.45381">
        <ele>69.400001525879</ele>
        <time>2024-04-07T09:49:25.000Z</time>
      </trkpt>
      <trkpt lat="48.40007" lon="2.45381">
        <ele>69.599998474121</ele>
        <time>2024-04-07T09:49:27.000Z</time>
      </trkpt>
      <trkpt lat="48.4002" lon="2.45382">
        <ele>69.400001525879</ele>
        <time>2024-04-07T09:49:30.000Z</time>
      </trkpt>
      <trkpt lat="48.40026" lon="2.45383">
        <ele>69.400001525879</ele>
        <time>2024-04-07T09:49:32.000Z</time>
      </trkpt>
      <trkpt lat="48.4003" lon="2.45382">
        <ele>69.400001525879</ele>
        <time>2024-04-07T09:49:34.000Z</time>
      </trkpt>
      <trkpt lat="48.4003" lon="2.4538">
        <ele>69.400001525879</ele>
        <time>2024-04-07T09:49:38.000Z</time>
      </trkpt>
      <trkpt lat="48.4003" lon="2.4538">
        <ele>69.199996948242</ele>
        <time>2024-04-07T09:49:43.000Z</time>
      </trkpt>
      <trkpt lat="48.4003" lon="2.4538">
        <ele>69.199996948242</ele>
        <time>2024-04-07T09:49:46.000Z</time>
      </trkpt>
      <trkpt lat="48.4003" lon="2.4538">
        <ele>69</ele>
        <time>2024-04-07T09:50:02.000Z</time>
      </trkpt>
      <trkpt lat="48.40031" lon="2.4538">
        <ele>69</ele>
        <time>2024-04-07T09:50:11.000Z</time>
      </trkpt>
      <trkpt lat="48.40031" lon="2.4538">
        <ele>69</ele>
        <time>2024-04-07T09:50:13.000Z</time>
      </trkpt>
      <trkpt lat="48.40031" lon="2.4538">
        <ele>69.199996948242</ele>
        <time>2024-04-07T09:50:16.000Z</time>
      </trkpt>
      <trkpt lat="48.40031" lon="2.4538">
        <ele>69.199996948242</ele>
        <time>2024-04-07T09:50:19.000Z</time>
      </trkpt>
      <trkpt lat="48.40031" lon="2.45379">
        <ele>69.400001525879</ele>
        <time>2024-04-07T09:50:23.000Z</time>
      </trkpt>
      <trkpt lat="48.40031" lon="2.45379">
        <ele>69.400001525879</ele>
        <time>2024-04-07T09:50:36.000Z</time>
      </trkpt>
      <trkpt lat="48.40031" lon="2.4538">
        <ele>69</ele>
        <time>2024-04-07T09:50:53.000Z</time>
      </trkpt>
      <trkpt lat="48.40031" lon="2.45379">
        <ele>69.199996948242</ele>
        <time>2024-04-07T09:51:10.000Z</time>
      </trkpt>
      <trkpt lat="48.40031" lon="2.45379">
        <ele>69.199996948242</ele>
        <time>2024-04-07T09:51:15.000Z</time>
      </trkpt>
      <trkpt lat="48.40031" lon="2.45379">
        <ele>69.400001525879</ele>
        <time>2024-04-07T09:51:18.000Z</time>
      </trkpt>
      <trkpt lat="48.40031" lon="2.4538">
        <ele>69.400001525879</ele>
        <time>2024-04-07T09:51:27.000Z</time>
      </trkpt>
      <trkpt lat="48.40031" lon="2.45379">
        <ele>69.400001525879</ele>
        <time>2024-04-07T09:51:40.000Z</time>
      </trkpt>
      <trkpt lat="48.40031" lon="2.45379">
        <ele>69.400001525879</ele>
        <time>2024-04-07T09:51:48.000Z</time>
      </trkpt>
      <trkpt lat="48.40031" lon="2.45379">
        <ele>69.599998474121</ele>
        <time>2024-04-07T09:51:50.000Z</time>
      </trkpt>
      <trkpt lat="48.40031" lon="2.4538">
        <ele>69.400001525879</ele>
        <time>2024-04-07T09:52:10.000Z</time>
      </trkpt>
      <trkpt lat="48.40031" lon="2.4538">
        <ele>69.400001525879</ele>
        <time>2024-04-07T09:52:15.000Z</time>
      </trkpt>
      <trkpt lat="48.40031" lon="2.4538">
        <ele>69.400001525879</ele>
        <time>2024-04-07T09:52:17.000Z</time>
      </trkpt>
      <trkpt lat="48.40031" lon="2.4538">
        <ele>69.599998474121</ele>
        <time>2024-04-07T09:52:21.000Z</time>
      </trkpt>
      <trkpt lat="48.40031" lon="2.45379">
        <ele>69.599998474121</ele>
        <time>2024-04-07T09:52:26.000Z</time>
      </trkpt>
      <trkpt lat="48.40031" lon="2.4538">
        <ele>69.599998474121</ele>
        <time>2024-04-07T09:52:35.000Z</time>
      </trkpt>
      <trkpt lat="48.40027" lon="2.4538">
        <ele>69.599998474121</ele>
        <time>2024-04-07T09:52:38.000Z</time>
      </trkpt>
      <trkpt lat="48.40025" lon="2.4538">
        <ele>69.599998474121</ele>
        <time>2024-04-07T09:52:39.000Z</time>
      </trkpt>
      <trkpt lat="48.40001" lon="2.45377">
        <ele>69.199996948242</ele>
        <time>2024-04-07T09:52:46.000Z</time>
      </trkpt>
      <trkpt lat="48.39977" lon="2.45376">
        <ele>69.199996948242</ele>
        <time>2024-04-07T09:52:52.000Z</time>
      </trkpt>
      <trkpt lat="48.39946" lon="2.45382">
        <ele>69</ele>
        <time>2024-04-07T09:52:59.000Z</time>
      </trkpt>
      <trkpt lat="48.39941" lon="2.45384">
        <ele>69</ele>
        <time>2024-04-07T09:53:00.000Z</time>
      </trkpt>
      <trkpt lat="48.39906" lon="2.45396">
        <ele>68.800003051758</ele>
        <time>2024-04-07T09:53:08.000Z</time>
      </trkpt>
      <trkpt lat="48.39886" lon="2.45402">
        <ele>68.599998474121</ele>
        <time>2024-04-07T09:53:12.000Z</time>
      </trkpt>
      <trkpt lat="48.39873" lon="2.45405">
        <ele>68.599998474121</ele>
        <time>2024-04-07T09:53:15.000Z</time>
      </trkpt>
      <trkpt lat="48.39864" lon="2.45407">
        <ele>68.800003051758</ele>
        <time>2024-04-07T09:53:17.000Z</time>
      </trkpt>
      <trkpt lat="48.39846" lon="2.45408">
        <ele>68.800003051758</ele>
        <time>2024-04-07T09:53:21.000Z</time>
      </trkpt>
      <trkpt lat="48.3982" lon="2.45411">
        <ele>69.400001525879</ele>
        <time>2024-04-07T09:53:26.000Z</time>
      </trkpt>
      <trkpt lat="48.39805" lon="2.45414">
        <ele>69.599998474121</ele>
        <time>2024-04-07T09:53:29.000Z</time>
      </trkpt>
      <trkpt lat="48.39784" lon="2.45419">
        <ele>69.599998474121</ele>
        <time>2024-04-07T09:53:33.000Z</time>
      </trkpt>
      <trkpt lat="48.39758" lon="2.45426">
        <ele>69.599998474121</ele>
        <time>2024-04-07T09:53:38.000Z</time>
      </trkpt>
      <trkpt lat="48.39715" lon="2.4544">
        <ele>69.599998474121</ele>
        <time>2024-04-07T09:53:46.000Z</time>
      </trkpt>
      <trkpt lat="48.3971" lon="2.45442">
        <ele>69.599998474121</ele>
        <time>2024-04-07T09:53:47.000Z</time>
      </trkpt>
      <trkpt lat="48.39669" lon="2.4545">
        <ele>69.800003051758</ele>
        <time>2024-04-07T09:53:55.000Z</time>
      </trkpt>
      <trkpt lat="48.39647" lon="2.45453">
        <ele>70.199996948242</ele>
        <time>2024-04-07T09:54:00.000Z</time>
      </trkpt>
      <trkpt lat="48.39639" lon="2.45455">
        <ele>70.599998474121</ele>
        <time>2024-04-07T09:54:02.000Z</time>
      </trkpt>
      <trkpt lat="48.39621" lon="2.4545">
        <ele>70.800003051758</ele>
        <time>2024-04-07T09:54:06.000Z</time>
      </trkpt>
      <trkpt lat="48.39577" lon="2.45434">
        <ele>71.199996948242</ele>
        <time>2024-04-07T09:54:15.000Z</time>
      </trkpt>
      <trkpt lat="48.39568" lon="2.45431">
        <ele>71.199996948242</ele>
        <time>2024-04-07T09:54:17.000Z</time>
      </trkpt>
      <trkpt lat="48.39539" lon="2.45419">
        <ele>71.800003051758</ele>
        <time>2024-04-07T09:54:23.000Z</time>
      </trkpt>
      <trkpt lat="48.39501" lon="2.45404">
        <ele>72.199996948242</ele>
        <time>2024-04-07T09:54:31.000Z</time>
      </trkpt>
      <trkpt lat="48.39497" lon="2.45405">
        <ele>72.400001525879</ele>
        <time>2024-04-07T09:54:32.000Z</time>
      </trkpt>
      <trkpt lat="48.3949" lon="2.45414">
        <ele>72.599998474121</ele>
        <time>2024-04-07T09:54:34.000Z</time>
      </trkpt>
      <trkpt lat="48.39487" lon="2.45443">
        <ele>72.800003051758</ele>
        <time>2024-04-07T09:54:38.000Z</time>
      </trkpt>
      <trkpt lat="48.39488" lon="2.4545">
        <ele>72.800003051758</ele>
        <time>2024-04-07T09:54:39.000Z</time>
      </trkpt>
      <trkpt lat="48.39494" lon="2.45498">
        <ele>72.800003051758</ele>
        <time>2024-04-07T09:54:45.000Z</time>
      </trkpt>
      <trkpt lat="48.395" lon="2.45544">
        <ele>72.599998474121</ele>
        <time>2024-04-07T09:54:51.000Z</time>
      </trkpt>
      <trkpt lat="48.39514" lon="2.45594">
        <ele>72.599998474121</ele>
        <time>2024-04-07T09:54:58.000Z</time>
      </trkpt>
      <trkpt lat="48.39522" lon="2.45614">
        <ele>72.599998474121</ele>
        <time>2024-04-07T09:55:01.000Z</time>
      </trkpt>
      <trkpt lat="48.39536" lon="2.45638">
        <ele>72.599998474121</ele>
        <time>2024-04-07T09:55:04.000Z</time>
      </trkpt>
      <trkpt lat="48.39556" lon="2.45676">
        <ele>72.599998474121</ele>
        <time>2024-04-07T09:55:09.000Z</time>
      </trkpt>
      <trkpt lat="48.39558" lon="2.45684">
        <ele>72.599998474121</ele>
        <time>2024-04-07T09:55:10.000Z</time>
      </trkpt>
      <trkpt lat="48.39558" lon="2.457">
        <ele>72.400001525879</ele>
        <time>2024-04-07T09:55:13.000Z</time>
      </trkpt>
      <trkpt lat="48.3955" lon="2.45708">
        <ele>72.800003051758</ele>
        <time>2024-04-07T09:55:17.000Z</time>
      </trkpt>
      <trkpt lat="48.39545" lon="2.45711">
        <ele>72.800003051758</ele>
        <time>2024-04-07T09:55:19.000Z</time>
      </trkpt>
      <trkpt lat="48.3954" lon="2.45714">
        <ele>73.800003051758</ele>
        <time>2024-04-07T09:55:21.000Z</time>
      </trkpt>
      <trkpt lat="48.39538" lon="2.45715">
        <ele>74.199996948242</ele>
        <time>2024-04-07T09:55:22.000Z</time>
      </trkpt>
      <trkpt lat="48.39534" lon="2.45719">
        <ele>75</ele>
        <time>2024-04-07T09:55:24.000Z</time>
      </trkpt>
      <trkpt lat="48.39528" lon="2.45725">
        <ele>76.400001525879</ele>
        <time>2024-04-07T09:55:27.000Z</time>
      </trkpt>
      <trkpt lat="48.39526" lon="2.45727">
        <ele>76.599998474121</ele>
        <time>2024-04-07T09:55:28.000Z</time>
      </trkpt>
      <trkpt lat="48.39522" lon="2.4573">
        <ele>77.599998474121</ele>
        <time>2024-04-07T09:55:30.000Z</time>
      </trkpt>
      <trkpt lat="48.39515" lon="2.45736">
        <ele>78.599998474121</ele>
        <time>2024-04-07T09:55:34.000Z</time>
      </trkpt>
      <trkpt lat="48.39511" lon="2.45738">
        <ele>78.800003051758</ele>
        <time>2024-04-07T09:55:36.000Z</time>
      </trkpt>
      <trkpt lat="48.39501" lon="2.4574">
        <ele>79.800003051758</ele>
        <time>2024-04-07T09:55:40.000Z</time>
      </trkpt>
      <trkpt lat="48.39498" lon="2.45742">
        <ele>80.199996948242</ele>
        <time>2024-04-07T09:55:41.000Z</time>
      </trkpt>
      <trkpt lat="48.39492" lon="2.45743">
        <ele>81</ele>
        <time>2024-04-07T09:55:44.000Z</time>
      </trkpt>
      <trkpt lat="48.39487" lon="2.45744">
        <ele>81.599998474121</ele>
        <time>2024-04-07T09:55:46.000Z</time>
      </trkpt>
      <trkpt lat="48.39479" lon="2.45752">
        <ele>82</ele>
        <time>2024-04-07T09:55:50.000Z</time>
      </trkpt>
      <trkpt lat="48.39475" lon="2.45759">
        <ele>82.800003051758</ele>
        <time>2024-04-07T09:55:52.000Z</time>
      </trkpt>
      <trkpt lat="48.39473" lon="2.45762">
        <ele>83.199996948242</ele>
        <time>2024-04-07T09:55:53.000Z</time>
      </trkpt>
      <trkpt lat="48.39463" lon="2.45782">
        <ele>84.199996948242</ele>
        <time>2024-04-07T09:55:59.000Z</time>
      </trkpt>
      <trkpt lat="48.39463" lon="2.45785">
        <ele>84.599998474121</ele>
        <time>2024-04-07T09:56:00.000Z</time>
      </trkpt>
      <trkpt lat="48.39465" lon="2.45791">
        <ele>85.400001525879</ele>
        <time>2024-04-07T09:56:02.000Z</time>
      </trkpt>
      <trkpt lat="48.39474" lon="2.45799">
        <ele>85.800003051758</ele>
        <time>2024-04-07T09:56:06.000Z</time>
      </trkpt>
      <trkpt lat="48.39479" lon="2.45814">
        <ele>86</ele>
        <time>2024-04-07T09:56:09.000Z</time>
      </trkpt>
      <trkpt lat="48.39483" lon="2.45846">
        <ele>86</ele>
        <time>2024-04-07T09:56:13.000Z</time>
      </trkpt>
      <trkpt lat="48.39486" lon="2.45879">
        <ele>85</ele>
        <time>2024-04-07T09:56:16.000Z</time>
      </trkpt>
      <trkpt lat="48.39485" lon="2.45891">
        <ele>84.599998474121</ele>
        <time>2024-04-07T09:56:17.000Z</time>
      </trkpt>
      <trkpt lat="48.39484" lon="2.45903">
        <ele>84.199996948242</ele>
        <time>2024-04-07T09:56:18.000Z</time>
      </trkpt>
      <trkpt lat="48.39483" lon="2.45925">
        <ele>82.599998474121</ele>
        <time>2024-04-07T09:56:20.000Z</time>
      </trkpt>
      <trkpt lat="48.39483" lon="2.45937">
        <ele>81.199996948242</ele>
        <time>2024-04-07T09:56:21.000Z</time>
      </trkpt>
      <trkpt lat="48.39483" lon="2.45947">
        <ele>79.599998474121</ele>
        <time>2024-04-07T09:56:22.000Z</time>
      </trkpt>
      <trkpt lat="48.39481" lon="2.45957">
        <ele>77.800003051758</ele>
        <time>2024-04-07T09:56:23.000Z</time>
      </trkpt>
      <trkpt lat="48.3948" lon="2.45965">
        <ele>76.599998474121</ele>
        <time>2024-04-07T09:56:24.000Z</time>
      </trkpt>
      <trkpt lat="48.39475" lon="2.4598">
        <ele>75.800003051758</ele>
        <time>2024-04-07T09:56:26.000Z</time>
      </trkpt>
      <trkpt lat="48.39472" lon="2.45987">
        <ele>75.400001525879</ele>
        <time>2024-04-07T09:56:27.000Z</time>
      </trkpt>
      <trkpt lat="48.3946" lon="2.45996">
        <ele>75.199996948242</ele>
        <time>2024-04-07T09:56:30.000Z</time>
      </trkpt>
      <trkpt lat="48.39454" lon="2.46002">
        <ele>75.199996948242</ele>
        <time>2024-04-07T09:56:33.000Z</time>
      </trkpt>
      <trkpt lat="48.39453" lon="2.46004">
        <ele>75.199996948242</ele>
        <time>2024-04-07T09:56:34.000Z</time>
      </trkpt>
      <trkpt lat="48.3945" lon="2.46008">
        <ele>75.400001525879</ele>
        <time>2024-04-07T09:56:36.000Z</time>
      </trkpt>
      <trkpt lat="48.39447" lon="2.46011">
        <ele>75.599998474121</ele>
        <time>2024-04-07T09:56:38.000Z</time>
      </trkpt>
      <trkpt lat="48.39444" lon="2.46015">
        <ele>76.800003051758</ele>
        <time>2024-04-07T09:56:41.000Z</time>
      </trkpt>
      <trkpt lat="48.39443" lon="2.46017">
        <ele>77.199996948242</ele>
        <time>2024-04-07T09:56:44.000Z</time>
      </trkpt>
      <trkpt lat="48.39442" lon="2.46018">
        <ele>77.599998474121</ele>
        <time>2024-04-07T09:56:47.000Z</time>
      </trkpt>
      <trkpt lat="48.39443" lon="2.46019">
        <ele>78</ele>
        <time>2024-04-07T09:56:49.000Z</time>
      </trkpt>
      <trkpt lat="48.39442" lon="2.4602">
        <ele>78</ele>
        <time>2024-04-07T09:56:50.000Z</time>
      </trkpt>
      <trkpt lat="48.39438" lon="2.46029">
        <ele>78.199996948242</ele>
        <time>2024-04-07T09:56:56.000Z</time>
      </trkpt>
      <trkpt lat="48.39436" lon="2.46032">
        <ele>78.199996948242</ele>
        <time>2024-04-07T09:56:59.000Z</time>
      </trkpt>
      <trkpt lat="48.39424" lon="2.46047">
        <ele>78.400001525879</ele>
        <time>2024-04-07T09:57:07.000Z</time>
      </trkpt>
      <trkpt lat="48.39421" lon="2.46049">
        <ele>78.400001525879</ele>
        <time>2024-04-07T09:57:08.000Z</time>
      </trkpt>
      <trkpt lat="48.39413" lon="2.46049">
        <ele>78.400001525879</ele>
        <time>2024-04-07T09:57:11.000Z</time>
      </trkpt>
      <trkpt lat="48.39403" lon="2.46038">
        <ele>78.199996948242</ele>
        <time>2024-04-07T09:57:16.000Z</time>
      </trkpt>
      <trkpt lat="48.39396" lon="2.46031">
        <ele>78.199996948242</ele>
        <time>2024-04-07T09:57:20.000Z</time>
      </trkpt>
      <trkpt lat="48.39394" lon="2.46029">
        <ele>78.199996948242</ele>
        <time>2024-04-07T09:57:21.000Z</time>
      </trkpt>
      <trkpt lat="48.39387" lon="2.46024">
        <ele>79.199996948242</ele>
        <time>2024-04-07T09:57:25.000Z</time>
      </trkpt>
      <trkpt lat="48.39384" lon="2.46023">
        <ele>80</ele>
        <time>2024-04-07T09:57:27.000Z</time>
      </trkpt>
      <trkpt lat="48.39382" lon="2.46023">
        <ele>80.400001525879</ele>
        <time>2024-04-07T09:57:28.000Z</time>
      </trkpt>
      <trkpt lat="48.39376" lon="2.4603">
        <ele>81.199996948242</ele>
        <time>2024-04-07T09:57:31.000Z</time>
      </trkpt>
      <trkpt lat="48.39374" lon="2.46033">
        <ele>81.599998474121</ele>
        <time>2024-04-07T09:57:32.000Z</time>
      </trkpt>
      <trkpt lat="48.39373" lon="2.46037">
        <ele>81.800003051758</ele>
        <time>2024-04-07T09:57:33.000Z</time>
      </trkpt>
      <trkpt lat="48.39367" lon="2.46054">
        <ele>82.599998474121</ele>
        <time>2024-04-07T09:57:37.000Z</time>
      </trkpt>
      <trkpt lat="48.39358" lon="2.46069">
        <ele>82.800003051758</ele>
        <time>2024-04-07T09:57:41.000Z</time>
      </trkpt>
      <trkpt lat="48.39349" lon="2.46094">
        <ele>82.800003051758</ele>
        <time>2024-04-07T09:57:45.000Z</time>
      </trkpt>
      <trkpt lat="48.39334" lon="2.46114">
        <ele>82.800003051758</ele>
        <time>2024-04-07T09:57:50.000Z</time>
      </trkpt>
      <trkpt lat="48.39317" lon="2.46124">
        <ele>81.400001525879</ele>
        <time>2024-04-07T09:57:54.000Z</time>
      </trkpt>
      <trkpt lat="48.39313" lon="2.46126">
        <ele>81</ele>
        <time>2024-04-07T09:57:55.000Z</time>
      </trkpt>
      <trkpt lat="48.39302" lon="2.46139">
        <ele>80.599998474121</ele>
        <time>2024-04-07T09:57:58.000Z</time>
      </trkpt>
      <trkpt lat="48.39298" lon="2.46141">
        <ele>80.599998474121</ele>
        <time>2024-04-07T09:57:59.000Z</time>
      </trkpt>
      <trkpt lat="48.39291" lon="2.46139">
        <ele>80.400001525879</ele>
        <time>2024-04-07T09:58:02.000Z</time>
      </trkpt>
      <trkpt lat="48.39288" lon="2.46135">
        <ele>80.400001525879</ele>
        <time>2024-04-07T09:58:04.000Z</time>
      </trkpt>
      <trkpt lat="48.39286" lon="2.46131">
        <ele>80.400001525879</ele>
        <time>2024-04-07T09:58:06.000Z</time>
      </trkpt>
      <trkpt lat="48.39282" lon="2.4612">
        <ele>81.800003051758</ele>
        <time>2024-04-07T09:58:11.000Z</time>
      </trkpt>
      <trkpt lat="48.39281" lon="2.46117">
        <ele>82.400001525879</ele>
        <time>2024-04-07T09:58:12.000Z</time>
      </trkpt>
      <trkpt lat="48.39279" lon="2.46112">
        <ele>83.599998474121</ele>
        <time>2024-04-07T09:58:14.000Z</time>
      </trkpt>
      <trkpt lat="48.39278" lon="2.46105">
        <ele>84.599998474121</ele>
        <time>2024-04-07T09:58:16.000Z</time>
      </trkpt>
      <trkpt lat="48.39277" lon="2.46098">
        <ele>85.800003051758</ele>
        <time>2024-04-07T09:58:19.000Z</time>
      </trkpt>
      <trkpt lat="48.39271" lon="2.46093">
        <ele>86.599998474121</ele>
        <time>2024-04-07T09:58:23.000Z</time>
      </trkpt>
      <trkpt lat="48.39267" lon="2.46092">
        <ele>86.800003051758</ele>
        <time>2024-04-07T09:58:25.000Z</time>
      </trkpt>
      <trkpt lat="48.39265" lon="2.4609">
        <ele>86.800003051758</ele>
        <time>2024-04-07T09:58:26.000Z</time>
      </trkpt>
      <trkpt lat="48.39263" lon="2.46087">
        <ele>86.800003051758</ele>
        <time>2024-04-07T09:58:27.000Z</time>
      </trkpt>
      <trkpt lat="48.39261" lon="2.46082">
        <ele>86.800003051758</ele>
        <time>2024-04-07T09:58:29.000Z</time>
      </trkpt>
      <trkpt lat="48.39259" lon="2.46076">
        <ele>87</ele>
        <time>2024-04-07T09:58:32.000Z</time>
      </trkpt>
      <trkpt lat="48.39265" lon="2.46053">
        <ele>87.199996948242</ele>
        <time>2024-04-07T09:58:38.000Z</time>
      </trkpt>
      <trkpt lat="48.39271" lon="2.46044">
        <ele>88</ele>
        <time>2024-04-07T09:58:41.000Z</time>
      </trkpt>
      <trkpt lat="48.39274" lon="2.46043">
        <ele>88.199996948242</ele>
        <time>2024-04-07T09:58:43.000Z</time>
      </trkpt>
      <trkpt lat="48.39281" lon="2.46037">
        <ele>88.400001525879</ele>
        <time>2024-04-07T09:58:48.000Z</time>
      </trkpt>
      <trkpt lat="48.39282" lon="2.46035">
        <ele>88.599998474121</ele>
        <time>2024-04-07T09:58:49.000Z</time>
      </trkpt>
      <trkpt lat="48.39283" lon="2.46031">
        <ele>89</ele>
        <time>2024-04-07T09:58:51.000Z</time>
      </trkpt>
      <trkpt lat="48.39285" lon="2.46025">
        <ele>90</ele>
        <time>2024-04-07T09:58:53.000Z</time>
      </trkpt>
      <trkpt lat="48.39288" lon="2.4602">
        <ele>91.400001525879</ele>
        <time>2024-04-07T09:58:55.000Z</time>
      </trkpt>
      <trkpt lat="48.3929" lon="2.46016">
        <ele>92.599998474121</ele>
        <time>2024-04-07T09:58:57.000Z</time>
      </trkpt>
      <trkpt lat="48.39292" lon="2.46017">
        <ele>93</ele>
        <time>2024-04-07T09:58:58.000Z</time>
      </trkpt>
      <trkpt lat="48.39293" lon="2.46022">
        <ele>93.599998474121</ele>
        <time>2024-04-07T09:59:01.000Z</time>
      </trkpt>
      <trkpt lat="48.39292" lon="2.46024">
        <ele>93.599998474121</ele>
        <time>2024-04-07T09:59:03.000Z</time>
      </trkpt>
      <trkpt lat="48.39296" lon="2.46034">
        <ele>93.599998474121</ele>
        <time>2024-04-07T09:59:07.000Z</time>
      </trkpt>
      <trkpt lat="48.39309" lon="2.46034">
        <ele>93.599998474121</ele>
        <time>2024-04-07T09:59:10.000Z</time>
      </trkpt>
      <trkpt lat="48.3932" lon="2.46027">
        <ele>92.199996948242</ele>
        <time>2024-04-07T09:59:13.000Z</time>
      </trkpt>
      <trkpt lat="48.39323" lon="2.46024">
        <ele>91.599998474121</ele>
        <time>2024-04-07T09:59:14.000Z</time>
      </trkpt>
      <trkpt lat="48.39326" lon="2.46022">
        <ele>91</ele>
        <time>2024-04-07T09:59:15.000Z</time>
      </trkpt>
      <trkpt lat="48.39333" lon="2.46011">
        <ele>89.800003051758</ele>
        <time>2024-04-07T09:59:18.000Z</time>
      </trkpt>
      <trkpt lat="48.39334" lon="2.46008">
        <ele>89.599998474121</ele>
        <time>2024-04-07T09:59:19.000Z</time>
      </trkpt>
      <trkpt lat="48.39335" lon="2.46">
        <ele>89.199996948242</ele>
        <time>2024-04-07T09:59:21.000Z</time>
      </trkpt>
      <trkpt lat="48.39333" lon="2.4599">
        <ele>89</ele>
        <time>2024-04-07T09:59:23.000Z</time>
      </trkpt>
      <trkpt lat="48.39332" lon="2.45978">
        <ele>88.800003051758</ele>
        <time>2024-04-07T09:59:25.000Z</time>
      </trkpt>
      <trkpt lat="48.39335" lon="2.45969">
        <ele>88.400001525879</ele>
        <time>2024-04-07T09:59:27.000Z</time>
      </trkpt>
      <trkpt lat="48.39344" lon="2.45965">
        <ele>88</ele>
        <time>2024-04-07T09:59:30.000Z</time>
      </trkpt>
      <trkpt lat="48.39349" lon="2.45963">
        <ele>87.400001525879</ele>
        <time>2024-04-07T09:59:32.000Z</time>
      </trkpt>
      <trkpt lat="48.39352" lon="2.45957">
        <ele>86.800003051758</ele>
        <time>2024-04-07T09:59:34.000Z</time>
      </trkpt>
      <trkpt lat="48.39352" lon="2.45936">
        <ele>86.599998474121</ele>
        <time>2024-04-07T09:59:39.000Z</time>
      </trkpt>
      <trkpt lat="48.39355" lon="2.4592">
        <ele>86.599998474121</ele>
        <time>2024-04-07T09:59:43.000Z</time>
      </trkpt>
      <trkpt lat="48.39364" lon="2.45915">
        <ele>87.400001525879</ele>
        <time>2024-04-07T09:59:47.000Z</time>
      </trkpt>
      <trkpt lat="48.39371" lon="2.45913">
        <ele>88.599998474121</ele>
        <time>2024-04-07T09:59:50.000Z</time>
      </trkpt>
      <trkpt lat="48.39376" lon="2.45913">
        <ele>89.199996948242</ele>
        <time>2024-04-07T09:59:52.000Z</time>
      </trkpt>
      <trkpt lat="48.39381" lon="2.45916">
        <ele>89.599998474121</ele>
        <time>2024-04-07T09:59:54.000Z</time>
      </trkpt>
      <trkpt lat="48.39387" lon="2.45924">
        <ele>90.199996948242</ele>
        <time>2024-04-07T09:59:58.000Z</time>
      </trkpt>
      <trkpt lat="48.39392" lon="2.45923">
        <ele>90.599998474121</ele>
        <time>2024-04-07T10:00:01.000Z</time>
      </trkpt>
      <trkpt lat="48.39393" lon="2.45922">
        <ele>90.800003051758</ele>
        <time>2024-04-07T10:00:02.000Z</time>
      </trkpt>
      <trkpt lat="48.39401" lon="2.45915">
        <ele>92.599998474121</ele>
        <time>2024-04-07T10:00:07.000Z</time>
      </trkpt>
      <trkpt lat="48.39402" lon="2.45912">
        <ele>93</ele>
        <time>2024-04-07T10:00:08.000Z</time>
      </trkpt>
      <trkpt lat="48.39406" lon="2.45909">
        <ele>93.800003051758</ele>
        <time>2024-04-07T10:00:10.000Z</time>
      </trkpt>
      <trkpt lat="48.39408" lon="2.4591">
        <ele>94.400001525879</ele>
        <time>2024-04-07T10:00:12.000Z</time>
      </trkpt>
      <trkpt lat="48.39412" lon="2.4592">
        <ele>94.599998474121</ele>
        <time>2024-04-07T10:00:16.000Z</time>
      </trkpt>
      <trkpt lat="48.39418" lon="2.45914">
        <ele>94.599998474121</ele>
        <time>2024-04-07T10:00:19.000Z</time>
      </trkpt>
      <trkpt lat="48.3942" lon="2.45912">
        <ele>94.599998474121</ele>
        <time>2024-04-07T10:00:20.000Z</time>
      </trkpt>
      <trkpt lat="48.39425" lon="2.45897">
        <ele>94</ele>
        <time>2024-04-07T10:00:25.000Z</time>
      </trkpt>
      <trkpt lat="48.39422" lon="2.45883">
        <ele>93.400001525879</ele>
        <time>2024-04-07T10:00:31.000Z</time>
      </trkpt>
      <trkpt lat="48.39417" lon="2.45883">
        <ele>93.800003051758</ele>
        <time>2024-04-07T10:00:36.000Z</time>
      </trkpt>
      <trkpt lat="48.39414" lon="2.45884">
        <ele>95</ele>
        <time>2024-04-07T10:00:39.000Z</time>
      </trkpt>
      <trkpt lat="48.3941" lon="2.4589">
        <ele>95.199996948242</ele>
        <time>2024-04-07T10:00:42.000Z</time>
      </trkpt>
      <trkpt lat="48.39402" lon="2.45895">
        <ele>95.400001525879</ele>
        <time>2024-04-07T10:00:45.000Z</time>
      </trkpt>
      <trkpt lat="48.394" lon="2.45894">
        <ele>95.400001525879</ele>
        <time>2024-04-07T10:00:46.000Z</time>
      </trkpt>
      <trkpt lat="48.39399" lon="2.45885">
        <ele>95.199996948242</ele>
        <time>2024-04-07T10:00:49.000Z</time>
      </trkpt>
      <trkpt lat="48.394" lon="2.45882">
        <ele>95</ele>
        <time>2024-04-07T10:00:50.000Z</time>
      </trkpt>
      <trkpt lat="48.394" lon="2.45878">
        <ele>94.199996948242</ele>
        <time>2024-04-07T10:00:51.000Z</time>
      </trkpt>
      <trkpt lat="48.394" lon="2.45875">
        <ele>93.800003051758</ele>
        <time>2024-04-07T10:00:52.000Z</time>
      </trkpt>
      <trkpt lat="48.39401" lon="2.45862">
        <ele>93.599998474121</ele>
        <time>2024-04-07T10:00:56.000Z</time>
      </trkpt>
      <trkpt lat="48.39399" lon="2.45841">
        <ele>93.800003051758</ele>
        <time>2024-04-07T10:01:02.000Z</time>
      </trkpt>
      <trkpt lat="48.39403" lon="2.45825">
        <ele>94.599998474121</ele>
        <time>2024-04-07T10:01:07.000Z</time>
      </trkpt>
      <trkpt lat="48.39403" lon="2.45819">
        <ele>94.599998474121</ele>
        <time>2024-04-07T10:01:09.000Z</time>
      </trkpt>
      <trkpt lat="48.39404" lon="2.45806">
        <ele>94.599998474121</ele>
        <time>2024-04-07T10:01:12.000Z</time>
      </trkpt>
      <trkpt lat="48.39407" lon="2.45789">
        <ele>94.199996948242</ele>
        <time>2024-04-07T10:01:16.000Z</time>
      </trkpt>
      <trkpt lat="48.39407" lon="2.45785">
        <ele>94.199996948242</ele>
        <time>2024-04-07T10:01:17.000Z</time>
      </trkpt>
      <trkpt lat="48.39405" lon="2.45782">
        <ele>93.599998474121</ele>
        <time>2024-04-07T10:01:20.000Z</time>
      </trkpt>
      <trkpt lat="48.39397" lon="2.45774">
        <ele>92.599998474121</ele>
        <time>2024-04-07T10:01:24.000Z</time>
      </trkpt>
      <trkpt lat="48.39384" lon="2.45765">
        <ele>92</ele>
        <time>2024-04-07T10:01:28.000Z</time>
      </trkpt>
      <trkpt lat="48.3938" lon="2.45765">
        <ele>91.599998474121</ele>
        <time>2024-04-07T10:01:29.000Z</time>
      </trkpt>
      <trkpt lat="48.39375" lon="2.45759">
        <ele>90.800003051758</ele>
        <time>2024-04-07T10:01:31.000Z</time>
      </trkpt>
      <trkpt lat="48.39374" lon="2.45754">
        <ele>90.400001525879</ele>
        <time>2024-04-07T10:01:32.000Z</time>
      </trkpt>
      <trkpt lat="48.39376" lon="2.45745">
        <ele>87.599998474121</ele>
        <time>2024-04-07T10:01:34.000Z</time>
      </trkpt>
      <trkpt lat="48.39377" lon="2.4574">
        <ele>86.599998474121</ele>
        <time>2024-04-07T10:01:35.000Z</time>
      </trkpt>
      <trkpt lat="48.39379" lon="2.45736">
        <ele>85.800003051758</ele>
        <time>2024-04-07T10:01:36.000Z</time>
      </trkpt>
      <trkpt lat="48.39381" lon="2.45732">
        <ele>85.199996948242</ele>
        <time>2024-04-07T10:01:37.000Z</time>
      </trkpt>
      <trkpt lat="48.39384" lon="2.45722">
        <ele>84.599998474121</ele>
        <time>2024-04-07T10:01:40.000Z</time>
      </trkpt>
      <trkpt lat="48.39391" lon="2.45712">
        <ele>84.400001525879</ele>
        <time>2024-04-07T10:01:43.000Z</time>
      </trkpt>
      <trkpt lat="48.39396" lon="2.45705">
        <ele>84.199996948242</ele>
        <time>2024-04-07T10:01:45.000Z</time>
      </trkpt>
      <trkpt lat="48.39411" lon="2.45693">
        <ele>84</ele>
        <time>2024-04-07T10:01:49.000Z</time>
      </trkpt>
      <trkpt lat="48.39422" lon="2.45687">
        <ele>83.199996948242</ele>
        <time>2024-04-07T10:01:53.000Z</time>
      </trkpt>
      <trkpt lat="48.39429" lon="2.45667">
        <ele>82.599998474121</ele>
        <time>2024-04-07T10:01:58.000Z</time>
      </trkpt>
      <trkpt lat="48.3944" lon="2.45645">
        <ele>82.199996948242</ele>
        <time>2024-04-07T10:02:02.000Z</time>
      </trkpt>
      <trkpt lat="48.39444" lon="2.4564">
        <ele>82.199996948242</ele>
        <time>2024-04-07T10:02:03.000Z</time>
      </trkpt>
      <trkpt lat="48.39453" lon="2.45617">
        <ele>81.800003051758</ele>
        <time>2024-04-07T10:02:06.000Z</time>
      </trkpt>
      <trkpt lat="48.39455" lon="2.45609">
        <ele>81.599998474121</ele>
        <time>2024-04-07T10:02:07.000Z</time>
      </trkpt>
      <trkpt lat="48.39459" lon="2.45599">
        <ele>81</ele>
        <time>2024-04-07T10:02:09.000Z</time>
      </trkpt>
      <trkpt lat="48.39461" lon="2.45593">
        <ele>80.599998474121</ele>
        <time>2024-04-07T10:02:10.000Z</time>
      </trkpt>
      <trkpt lat="48.39464" lon="2.45583">
        <ele>79.599998474121</ele>
        <time>2024-04-07T10:02:12.000Z</time>
      </trkpt>
      <trkpt lat="48.39465" lon="2.45571">
        <ele>78.800003051758</ele>
        <time>2024-04-07T10:02:14.000Z</time>
      </trkpt>
      <trkpt lat="48.39465" lon="2.45564">
        <ele>78.400001525879</ele>
        <time>2024-04-07T10:02:15.000Z</time>
      </trkpt>
      <trkpt lat="48.3946" lon="2.45548">
        <ele>78</ele>
        <time>2024-04-07T10:02:18.000Z</time>
      </trkpt>
      <trkpt lat="48.39453" lon="2.45541">
        <ele>77.599998474121</ele>
        <time>2024-04-07T10:02:22.000Z</time>
      </trkpt>
      <trkpt lat="48.39445" lon="2.45545">
        <ele>77.800003051758</ele>
        <time>2024-04-07T10:02:27.000Z</time>
      </trkpt>
      <trkpt lat="48.39441" lon="2.45547">
        <ele>78</ele>
        <time>2024-04-07T10:02:29.000Z</time>
      </trkpt>
      <trkpt lat="48.39432" lon="2.45546">
        <ele>79.599998474121</ele>
        <time>2024-04-07T10:02:33.000Z</time>
      </trkpt>
      <trkpt lat="48.39428" lon="2.45546">
        <ele>80</ele>
        <time>2024-04-07T10:02:34.000Z</time>
      </trkpt>
      <trkpt lat="48.3942" lon="2.45553">
        <ele>80.800003051758</ele>
        <time>2024-04-07T10:02:38.000Z</time>
      </trkpt>
      <trkpt lat="48.39419" lon="2.45555">
        <ele>81</ele>
        <time>2024-04-07T10:02:39.000Z</time>
      </trkpt>
      <trkpt lat="48.39414" lon="2.45565">
        <ele>81.800003051758</ele>
        <time>2024-04-07T10:02:43.000Z</time>
      </trkpt>
      <trkpt lat="48.39413" lon="2.45568">
        <ele>82.199996948242</ele>
        <time>2024-04-07T10:02:44.000Z</time>
      </trkpt>
      <trkpt lat="48.39412" lon="2.45571">
        <ele>82.400001525879</ele>
        <time>2024-04-07T10:02:45.000Z</time>
      </trkpt>
      <trkpt lat="48.39406" lon="2.45581">
        <ele>83.199996948242</ele>
        <time>2024-04-07T10:02:49.000Z</time>
      </trkpt>
      <trkpt lat="48.39402" lon="2.45583">
        <ele>83.599998474121</ele>
        <time>2024-04-07T10:02:50.000Z</time>
      </trkpt>
      <trkpt lat="48.39399" lon="2.45585">
        <ele>83.800003051758</ele>
        <time>2024-04-07T10:02:51.000Z</time>
      </trkpt>
      <trkpt lat="48.39383" lon="2.45592">
        <ele>84.199996948242</ele>
        <time>2024-04-07T10:02:54.000Z</time>
      </trkpt>
      <trkpt lat="48.39378" lon="2.45597">
        <ele>84.199996948242</ele>
        <time>2024-04-07T10:02:55.000Z</time>
      </trkpt>
      <trkpt lat="48.3936" lon="2.45616">
        <ele>84.199996948242</ele>
        <time>2024-04-07T10:02:58.000Z</time>
      </trkpt>
      <trkpt lat="48.39346" lon="2.45621">
        <ele>83.599998474121</ele>
        <time>2024-04-07T10:03:01.000Z</time>
      </trkpt>
      <trkpt lat="48.39339" lon="2.45623">
        <ele>82.199996948242</ele>
        <time>2024-04-07T10:03:04.000Z</time>
      </trkpt>
      <trkpt lat="48.39337" lon="2.45625">
        <ele>82.199996948242</ele>
        <time>2024-04-07T10:03:05.000Z</time>
      </trkpt>
      <trkpt lat="48.39333" lon="2.45632">
        <ele>82</ele>
        <time>2024-04-07T10:03:08.000Z</time>
      </trkpt>
      <trkpt lat="48.39329" lon="2.45638">
        <ele>82.199996948242</ele>
        <time>2024-04-07T10:03:11.000Z</time>
      </trkpt>
      <trkpt lat="48.39327" lon="2.45645">
        <ele>83.400001525879</ele>
        <time>2024-04-07T10:03:14.000Z</time>
      </trkpt>
      <trkpt lat="48.39325" lon="2.45651">
        <ele>84.400001525879</ele>
        <time>2024-04-07T10:03:17.000Z</time>
      </trkpt>
      <trkpt lat="48.39324" lon="2.45655">
        <ele>85.199996948242</ele>
        <time>2024-04-07T10:03:19.000Z</time>
      </trkpt>
      <trkpt lat="48.39322" lon="2.45655">
        <ele>85.800003051758</ele>
        <time>2024-04-07T10:03:21.000Z</time>
      </trkpt>
      <trkpt lat="48.3932" lon="2.45655">
        <ele>86.199996948242</ele>
        <time>2024-04-07T10:03:22.000Z</time>
      </trkpt>
      <trkpt lat="48.39316" lon="2.45654">
        <ele>86.800003051758</ele>
        <time>2024-04-07T10:03:24.000Z</time>
      </trkpt>
      <trkpt lat="48.39311" lon="2.45658">
        <ele>87.599998474121</ele>
        <time>2024-04-07T10:03:27.000Z</time>
      </trkpt>
      <trkpt lat="48.39309" lon="2.45659">
        <ele>87.800003051758</ele>
        <time>2024-04-07T10:03:28.000Z</time>
      </trkpt>
      <trkpt lat="48.39307" lon="2.4566">
        <ele>88</ele>
        <time>2024-04-07T10:03:29.000Z</time>
      </trkpt>
      <trkpt lat="48.393" lon="2.45664">
        <ele>89</ele>
        <time>2024-04-07T10:03:34.000Z</time>
      </trkpt>
      <trkpt lat="48.39299" lon="2.45664">
        <ele>89.400001525879</ele>
        <time>2024-04-07T10:03:35.000Z</time>
      </trkpt>
      <trkpt lat="48.39295" lon="2.45664">
        <ele>90.199996948242</ele>
        <time>2024-04-07T10:03:38.000Z</time>
      </trkpt>
      <trkpt lat="48.39294" lon="2.45661">
        <ele>91.199996948242</ele>
        <time>2024-04-07T10:03:41.000Z</time>
      </trkpt>
      <trkpt lat="48.39293" lon="2.45659">
        <ele>91.599998474121</ele>
        <time>2024-04-07T10:03:42.000Z</time>
      </trkpt>
      <trkpt lat="48.39288" lon="2.45653">
        <ele>92.400001525879</ele>
        <time>2024-04-07T10:03:45.000Z</time>
      </trkpt>
      <trkpt lat="48.39287" lon="2.45653">
        <ele>92.599998474121</ele>
        <time>2024-04-07T10:03:46.000Z</time>
      </trkpt>
      <trkpt lat="48.39285" lon="2.45651">
        <ele>92.599998474121</ele>
        <time>2024-04-07T10:03:47.000Z</time>
      </trkpt>
      <trkpt lat="48.39281" lon="2.45647">
        <ele>92.800003051758</ele>
        <time>2024-04-07T10:03:50.000Z</time>
      </trkpt>
      <trkpt lat="48.39269" lon="2.45642">
        <ele>92.800003051758</ele>
        <time>2024-04-07T10:03:54.000Z</time>
      </trkpt>
      <trkpt lat="48.39259" lon="2.45623">
        <ele>92.599998474121</ele>
        <time>2024-04-07T10:03:58.000Z</time>
      </trkpt>
      <trkpt lat="48.39257" lon="2.45618">
        <ele>92.599998474121</ele>
        <time>2024-04-07T10:03:59.000Z</time>
      </trkpt>
      <trkpt lat="48.39253" lon="2.45598">
        <ele>92</ele>
        <time>2024-04-07T10:04:03.000Z</time>
      </trkpt>
      <trkpt lat="48.39248" lon="2.45592">
        <ele>91.400001525879</ele>
        <time>2024-04-07T10:04:05.000Z</time>
      </trkpt>
      <trkpt lat="48.39246" lon="2.45589">
        <ele>91.199996948242</ele>
        <time>2024-04-07T10:04:06.000Z</time>
      </trkpt>
      <trkpt lat="48.39238" lon="2.45586">
        <ele>90.599998474121</ele>
        <time>2024-04-07T10:04:09.000Z</time>
      </trkpt>
      <trkpt lat="48.39235" lon="2.45584">
        <ele>90</ele>
        <time>2024-04-07T10:04:10.000Z</time>
      </trkpt>
      <trkpt lat="48.39233" lon="2.45584">
        <ele>89.199996948242</ele>
        <time>2024-04-07T10:04:11.000Z</time>
      </trkpt>
      <trkpt lat="48.3923" lon="2.45581">
        <ele>88.599998474121</ele>
        <time>2024-04-07T10:04:12.000Z</time>
      </trkpt>
      <trkpt lat="48.39224" lon="2.45569">
        <ele>87.599998474121</ele>
        <time>2024-04-07T10:04:15.000Z</time>
      </trkpt>
      <trkpt lat="48.39222" lon="2.45564">
        <ele>87.199996948242</ele>
        <time>2024-04-07T10:04:16.000Z</time>
      </trkpt>
      <trkpt lat="48.3922" lon="2.4556">
        <ele>87</ele>
        <time>2024-04-07T10:04:17.000Z</time>
      </trkpt>
      <trkpt lat="48.39219" lon="2.45557">
        <ele>86.800003051758</ele>
        <time>2024-04-07T10:04:18.000Z</time>
      </trkpt>
      <trkpt lat="48.39215" lon="2.45555">
        <ele>86</ele>
        <time>2024-04-07T10:04:20.000Z</time>
      </trkpt>
      <trkpt lat="48.39213" lon="2.45557">
        <ele>85</ele>
        <time>2024-04-07T10:04:22.000Z</time>
      </trkpt>
      <trkpt lat="48.39207" lon="2.45564">
        <ele>84.400001525879</ele>
        <time>2024-04-07T10:04:26.000Z</time>
      </trkpt>
      <trkpt lat="48.392" lon="2.45564">
        <ele>84.199996948242</ele>
        <time>2024-04-07T10:04:30.000Z</time>
      </trkpt>
      <trkpt lat="48.39193" lon="2.45548">
        <ele>85.599998474121</ele>
        <time>2024-04-07T10:04:35.000Z</time>
      </trkpt>
      <trkpt lat="48.39187" lon="2.45535">
        <ele>85.800003051758</ele>
        <time>2024-04-07T10:04:38.000Z</time>
      </trkpt>
      <trkpt lat="48.39178" lon="2.45518">
        <ele>85.800003051758</ele>
        <time>2024-04-07T10:04:41.000Z</time>
      </trkpt>
      <trkpt lat="48.39175" lon="2.45512">
        <ele>85.800003051758</ele>
        <time>2024-04-07T10:04:42.000Z</time>
      </trkpt>
      <trkpt lat="48.39164" lon="2.455">
        <ele>84.400001525879</ele>
        <time>2024-04-07T10:04:46.000Z</time>
      </trkpt>
      <trkpt lat="48.39161" lon="2.45499">
        <ele>84</ele>
        <time>2024-04-07T10:04:47.000Z</time>
      </trkpt>
      <trkpt lat="48.39158" lon="2.45496">
        <ele>83.800003051758</ele>
        <time>2024-04-07T10:04:48.000Z</time>
      </trkpt>
      <trkpt lat="48.39146" lon="2.45486">
        <ele>83.599998474121</ele>
        <time>2024-04-07T10:04:53.000Z</time>
      </trkpt>
      <trkpt lat="48.39132" lon="2.45472">
        <ele>84.800003051758</ele>
        <time>2024-04-07T10:04:59.000Z</time>
      </trkpt>
      <trkpt lat="48.39127" lon="2.45466">
        <ele>86</ele>
        <time>2024-04-07T10:05:02.000Z</time>
      </trkpt>
      <trkpt lat="48.39118" lon="2.45456">
        <ele>86.800003051758</ele>
        <time>2024-04-07T10:05:06.000Z</time>
      </trkpt>
      <trkpt lat="48.391" lon="2.45441">
        <ele>86.800003051758</ele>
        <time>2024-04-07T10:05:12.000Z</time>
      </trkpt>
      <trkpt lat="48.39087" lon="2.45427">
        <ele>86.199996948242</ele>
        <time>2024-04-07T10:05:17.000Z</time>
      </trkpt>
      <trkpt lat="48.39067" lon="2.45419">
        <ele>86.199996948242</ele>
        <time>2024-04-07T10:05:22.000Z</time>
      </trkpt>
      <trkpt lat="48.39046" lon="2.45405">
        <ele>86.400001525879</ele>
        <time>2024-04-07T10:05:28.000Z</time>
      </trkpt>
      <trkpt lat="48.39031" lon="2.454">
        <ele>86.800003051758</ele>
        <time>2024-04-07T10:05:32.000Z</time>
      </trkpt>
      <trkpt lat="48.39025" lon="2.45404">
        <ele>87</ele>
        <time>2024-04-07T10:05:34.000Z</time>
      </trkpt>
      <trkpt lat="48.3902" lon="2.45406">
        <ele>87</ele>
        <time>2024-04-07T10:05:36.000Z</time>
      </trkpt>
      <trkpt lat="48.39018" lon="2.45408">
        <ele>87</ele>
        <time>2024-04-07T10:05:37.000Z</time>
      </trkpt>
      <trkpt lat="48.38999" lon="2.45418">
        <ele>88</ele>
        <time>2024-04-07T10:05:43.000Z</time>
      </trkpt>
      <trkpt lat="48.38985" lon="2.45423">
        <ele>89.199996948242</ele>
        <time>2024-04-07T10:05:46.000Z</time>
      </trkpt>
      <trkpt lat="48.38979" lon="2.45431">
        <ele>89.800003051758</ele>
        <time>2024-04-07T10:05:48.000Z</time>
      </trkpt>
      <trkpt lat="48.38975" lon="2.45437">
        <ele>90.199996948242</ele>
        <time>2024-04-07T10:05:50.000Z</time>
      </trkpt>
      <trkpt lat="48.38967" lon="2.45454">
        <ele>90.599998474121</ele>
        <time>2024-04-07T10:05:55.000Z</time>
      </trkpt>
      <trkpt lat="48.38962" lon="2.45459">
        <ele>91.400001525879</ele>
        <time>2024-04-07T10:05:57.000Z</time>
      </trkpt>
      <trkpt lat="48.38955" lon="2.45471">
        <ele>92.400001525879</ele>
        <time>2024-04-07T10:06:01.000Z</time>
      </trkpt>
      <trkpt lat="48.38953" lon="2.45475">
        <ele>92.599998474121</ele>
        <time>2024-04-07T10:06:02.000Z</time>
      </trkpt>
      <trkpt lat="48.38947" lon="2.45485">
        <ele>93.400001525879</ele>
        <time>2024-04-07T10:06:06.000Z</time>
      </trkpt>
      <trkpt lat="48.38943" lon="2.45491">
        <ele>94.400001525879</ele>
        <time>2024-04-07T10:06:09.000Z</time>
      </trkpt>
      <trkpt lat="48.38941" lon="2.45494">
        <ele>94.599998474121</ele>
        <time>2024-04-07T10:06:10.000Z</time>
      </trkpt>
      <trkpt lat="48.3893" lon="2.4551">
        <ele>95.800003051758</ele>
        <time>2024-04-07T10:06:16.000Z</time>
      </trkpt>
      <trkpt lat="48.38922" lon="2.45528">
        <ele>96.800003051758</ele>
        <time>2024-04-07T10:06:23.000Z</time>
      </trkpt>
      <trkpt lat="48.3892" lon="2.45532">
        <ele>97</ele>
        <time>2024-04-07T10:06:24.000Z</time>
      </trkpt>
      <trkpt lat="48.38916" lon="2.45541">
        <ele>97.800003051758</ele>
        <time>2024-04-07T10:06:27.000Z</time>
      </trkpt>
      <trkpt lat="48.38911" lon="2.45551">
        <ele>98.400001525879</ele>
        <time>2024-04-07T10:06:30.000Z</time>
      </trkpt>
      <trkpt lat="48.38907" lon="2.45561">
        <ele>99</ele>
        <time>2024-04-07T10:06:33.000Z</time>
      </trkpt>
      <trkpt lat="48.38902" lon="2.45569">
        <ele>99.599998474121</ele>
        <time>2024-04-07T10:06:36.000Z</time>
      </trkpt>
      <trkpt lat="48.38897" lon="2.45575">
        <ele>100</ele>
        <time>2024-04-07T10:06:39.000Z</time>
      </trkpt>
      <trkpt lat="48.38894" lon="2.45581">
        <ele>101</ele>
        <time>2024-04-07T10:06:42.000Z</time>
      </trkpt>
      <trkpt lat="48.38893" lon="2.45582">
        <ele>101.19999694824</ele>
        <time>2024-04-07T10:06:43.000Z</time>
      </trkpt>
      <trkpt lat="48.38885" lon="2.45588">
        <ele>102.40000152588</ele>
        <time>2024-04-07T10:06:48.000Z</time>
      </trkpt>
      <trkpt lat="48.38879" lon="2.45592">
        <ele>103.40000152588</ele>
        <time>2024-04-07T10:06:53.000Z</time>
      </trkpt>
      <trkpt lat="48.38876" lon="2.45595">
        <ele>104</ele>
        <time>2024-04-07T10:06:55.000Z</time>
      </trkpt>
      <trkpt lat="48.38873" lon="2.45597">
        <ele>104.59999847412</ele>
        <time>2024-04-07T10:06:57.000Z</time>
      </trkpt>
      <trkpt lat="48.38866" lon="2.45599">
        <ele>105.40000152588</ele>
        <time>2024-04-07T10:07:01.000Z</time>
      </trkpt>
      <trkpt lat="48.38864" lon="2.456">
        <ele>105.59999847412</ele>
        <time>2024-04-07T10:07:02.000Z</time>
      </trkpt>
      <trkpt lat="48.38859" lon="2.45603">
        <ele>106.59999847412</ele>
        <time>2024-04-07T10:07:07.000Z</time>
      </trkpt>
      <trkpt lat="48.38855" lon="2.45604">
        <ele>107.19999694824</ele>
        <time>2024-04-07T10:07:09.000Z</time>
      </trkpt>
      <trkpt lat="48.38852" lon="2.45605">
        <ele>108</ele>
        <time>2024-04-07T10:07:11.000Z</time>
      </trkpt>
      <trkpt lat="48.3885" lon="2.45607">
        <ele>108.59999847412</ele>
        <time>2024-04-07T10:07:13.000Z</time>
      </trkpt>
      <trkpt lat="48.38848" lon="2.45608">
        <ele>109</ele>
        <time>2024-04-07T10:07:14.000Z</time>
      </trkpt>
      <trkpt lat="48.38844" lon="2.4561">
        <ele>109.80000305176</ele>
        <time>2024-04-07T10:07:17.000Z</time>
      </trkpt>
      <trkpt lat="48.38842" lon="2.4561">
        <ele>110</ele>
        <time>2024-04-07T10:07:18.000Z</time>
      </trkpt>
      <trkpt lat="48.38834" lon="2.45613">
        <ele>111.59999847412</ele>
        <time>2024-04-07T10:07:23.000Z</time>
      </trkpt>
      <trkpt lat="48.3883" lon="2.45614">
        <ele>112.19999694824</ele>
        <time>2024-04-07T10:07:26.000Z</time>
      </trkpt>
      <trkpt lat="48.38829" lon="2.45614">
        <ele>112.59999847412</ele>
        <time>2024-04-07T10:07:27.000Z</time>
      </trkpt>
      <trkpt lat="48.38823" lon="2.45615">
        <ele>113.59999847412</ele>
        <time>2024-04-07T10:07:31.000Z</time>
      </trkpt>
      <trkpt lat="48.38821" lon="2.45615">
        <ele>113.80000305176</ele>
        <time>2024-04-07T10:07:32.000Z</time>
      </trkpt>
      <trkpt lat="48.38817" lon="2.45615">
        <ele>114.40000152588</ele>
        <time>2024-04-07T10:07:34.000Z</time>
      </trkpt>
      <trkpt lat="48.38813" lon="2.45612">
        <ele>115</ele>
        <time>2024-04-07T10:07:37.000Z</time>
      </trkpt>
      <trkpt lat="48.38812" lon="2.45607">
        <ele>115.40000152588</ele>
        <time>2024-04-07T10:07:39.000Z</time>
      </trkpt>
      <trkpt lat="48.38814" lon="2.45592">
        <ele>115.40000152588</ele>
        <time>2024-04-07T10:07:42.000Z</time>
      </trkpt>
      <trkpt lat="48.38814" lon="2.45585">
        <ele>115.40000152588</ele>
        <time>2024-04-07T10:07:43.000Z</time>
      </trkpt>
      <trkpt lat="48.38813" lon="2.45555">
        <ele>115.40000152588</ele>
        <time>2024-04-07T10:07:47.000Z</time>
      </trkpt>
      <trkpt lat="48.38812" lon="2.45547">
        <ele>115.40000152588</ele>
        <time>2024-04-07T10:07:48.000Z</time>
      </trkpt>
      <trkpt lat="48.38806" lon="2.45522">
        <ele>113</ele>
        <time>2024-04-07T10:07:51.000Z</time>
      </trkpt>
      <trkpt lat="48.38802" lon="2.45515">
        <ele>110.80000305176</ele>
        <time>2024-04-07T10:07:52.000Z</time>
      </trkpt>
      <trkpt lat="48.38795" lon="2.45504">
        <ele>108.80000305176</ele>
        <time>2024-04-07T10:07:54.000Z</time>
      </trkpt>
      <trkpt lat="48.38792" lon="2.45501">
        <ele>108</ele>
        <time>2024-04-07T10:07:55.000Z</time>
      </trkpt>
      <trkpt lat="48.3879" lon="2.45499">
        <ele>107.59999847412</ele>
        <time>2024-04-07T10:07:56.000Z</time>
      </trkpt>
      <trkpt lat="48.3878" lon="2.4549">
        <ele>107</ele>
        <time>2024-04-07T10:08:00.000Z</time>
      </trkpt>
      <trkpt lat="48.38763" lon="2.45479">
        <ele>108.19999694824</ele>
        <time>2024-04-07T10:08:07.000Z</time>
      </trkpt>
      <trkpt lat="48.38761" lon="2.45476">
        <ele>108.59999847412</ele>
        <time>2024-04-07T10:08:08.000Z</time>
      </trkpt>
      <trkpt lat="48.38752" lon="2.45463">
        <ele>109.19999694824</ele>
        <time>2024-04-07T10:08:12.000Z</time>
      </trkpt>
      <trkpt lat="48.38731" lon="2.45451">
        <ele>109.19999694824</ele>
        <time>2024-04-07T10:08:16.000Z</time>
      </trkpt>
      <trkpt lat="48.38709" lon="2.45451">
        <ele>108.80000305176</ele>
        <time>2024-04-07T10:08:20.000Z</time>
      </trkpt>
      <trkpt lat="48.38707" lon="2.45449">
        <ele>107</ele>
        <time>2024-04-07T10:08:21.000Z</time>
      </trkpt>
      <trkpt lat="48.387" lon="2.45444">
        <ele>106.19999694824</ele>
        <time>2024-04-07T10:08:23.000Z</time>
      </trkpt>
      <trkpt lat="48.38697" lon="2.45441">
        <ele>105.80000305176</ele>
        <time>2024-04-07T10:08:24.000Z</time>
      </trkpt>
      <trkpt lat="48.38685" lon="2.45423">
        <ele>105.19999694824</ele>
        <time>2024-04-07T10:08:28.000Z</time>
      </trkpt>
      <trkpt lat="48.38678" lon="2.45417">
        <ele>104.80000305176</ele>
        <time>2024-04-07T10:08:30.000Z</time>
      </trkpt>
      <trkpt lat="48.38669" lon="2.45415">
        <ele>104.19999694824</ele>
        <time>2024-04-07T10:08:32.000Z</time>
      </trkpt>
      <trkpt lat="48.38653" lon="2.45404">
        <ele>103.80000305176</ele>
        <time>2024-04-07T10:08:36.000Z</time>
      </trkpt>
      <trkpt lat="48.38649" lon="2.45399">
        <ele>103.19999694824</ele>
        <time>2024-04-07T10:08:37.000Z</time>
      </trkpt>
      <trkpt lat="48.38646" lon="2.45392">
        <ele>102.19999694824</ele>
        <time>2024-04-07T10:08:38.000Z</time>
      </trkpt>
      <trkpt lat="48.38644" lon="2.45386">
        <ele>101.19999694824</ele>
        <time>2024-04-07T10:08:39.000Z</time>
      </trkpt>
      <trkpt lat="48.38642" lon="2.45373">
        <ele>100</ele>
        <time>2024-04-07T10:08:41.000Z</time>
      </trkpt>
      <trkpt lat="48.38641" lon="2.45358">
        <ele>99.599998474121</ele>
        <time>2024-04-07T10:08:43.000Z</time>
      </trkpt>
      <trkpt lat="48.38643" lon="2.45338">
        <ele>99</ele>
        <time>2024-04-07T10:08:46.000Z</time>
      </trkpt>
      <trkpt lat="48.38643" lon="2.45332">
        <ele>99</ele>
        <time>2024-04-07T10:08:47.000Z</time>
      </trkpt>
      <trkpt lat="48.38639" lon="2.45315">
        <ele>97.199996948242</ele>
        <time>2024-04-07T10:08:50.000Z</time>
      </trkpt>
      <trkpt lat="48.38633" lon="2.45303">
        <ele>95.800003051758</ele>
        <time>2024-04-07T10:08:52.000Z</time>
      </trkpt>
      <trkpt lat="48.38624" lon="2.45292">
        <ele>95</ele>
        <time>2024-04-07T10:08:54.000Z</time>
      </trkpt>
      <trkpt lat="48.38619" lon="2.45288">
        <ele>94.599998474121</ele>
        <time>2024-04-07T10:08:55.000Z</time>
      </trkpt>
      <trkpt lat="48.38614" lon="2.45285">
        <ele>94</ele>
        <time>2024-04-07T10:08:56.000Z</time>
      </trkpt>
      <trkpt lat="48.38611" lon="2.45282">
        <ele>93.400001525879</ele>
        <time>2024-04-07T10:08:57.000Z</time>
      </trkpt>
      <trkpt lat="48.38609" lon="2.45279">
        <ele>92.599998474121</ele>
        <time>2024-04-07T10:08:58.000Z</time>
      </trkpt>
      <trkpt lat="48.38608" lon="2.45277">
        <ele>91.400001525879</ele>
        <time>2024-04-07T10:08:59.000Z</time>
      </trkpt>
      <trkpt lat="48.38607" lon="2.45275">
        <ele>89.599998474121</ele>
        <time>2024-04-07T10:09:01.000Z</time>
      </trkpt>
      <trkpt lat="48.38607" lon="2.45274">
        <ele>88.800003051758</ele>
        <time>2024-04-07T10:09:02.000Z</time>
      </trkpt>
      <trkpt lat="48.38606" lon="2.45273">
        <ele>88.199996948242</ele>
        <time>2024-04-07T10:09:03.000Z</time>
      </trkpt>
      <trkpt lat="48.38607" lon="2.4527">
        <ele>87.800003051758</ele>
        <time>2024-04-07T10:09:04.000Z</time>
      </trkpt>
      <trkpt lat="48.38608" lon="2.45262">
        <ele>87.400001525879</ele>
        <time>2024-04-07T10:09:06.000Z</time>
      </trkpt>
      <trkpt lat="48.3861" lon="2.45248">
        <ele>87.199996948242</ele>
        <time>2024-04-07T10:09:09.000Z</time>
      </trkpt>
      <trkpt lat="48.38612" lon="2.45245">
        <ele>87.199996948242</ele>
        <time>2024-04-07T10:09:10.000Z</time>
      </trkpt>
      <trkpt lat="48.38614" lon="2.45242">
        <ele>87</ele>
        <time>2024-04-07T10:09:11.000Z</time>
      </trkpt>
      <trkpt lat="48.38618" lon="2.45224">
        <ele>86</ele>
        <time>2024-04-07T10:09:15.000Z</time>
      </trkpt>
      <trkpt lat="48.38618" lon="2.45218">
        <ele>85.800003051758</ele>
        <time>2024-04-07T10:09:16.000Z</time>
      </trkpt>
      <trkpt lat="48.38618" lon="2.45211">
        <ele>85.800003051758</ele>
        <time>2024-04-07T10:09:17.000Z</time>
      </trkpt>
      <trkpt lat="48.38622" lon="2.45191">
        <ele>85.400001525879</ele>
        <time>2024-04-07T10:09:20.000Z</time>
      </trkpt>
      <trkpt lat="48.38628" lon="2.45164">
        <ele>84.800003051758</ele>
        <time>2024-04-07T10:09:24.000Z</time>
      </trkpt>
      <trkpt lat="48.38632" lon="2.45146">
        <ele>83.599998474121</ele>
        <time>2024-04-07T10:09:27.000Z</time>
      </trkpt>
      <trkpt lat="48.38633" lon="2.45112">
        <ele>83</ele>
        <time>2024-04-07T10:09:33.000Z</time>
      </trkpt>
      <trkpt lat="48.38621" lon="2.45084">
        <ele>83</ele>
        <time>2024-04-07T10:09:39.000Z</time>
      </trkpt>
      <trkpt lat="48.38607" lon="2.45063">
        <ele>83.199996948242</ele>
        <time>2024-04-07T10:09:46.000Z</time>
      </trkpt>
      <trkpt lat="48.38598" lon="2.4505">
        <ele>83.599998474121</ele>
        <time>2024-04-07T10:09:51.000Z</time>
      </trkpt>
      <trkpt lat="48.38588" lon="2.45028">
        <ele>84</ele>
        <time>2024-04-07T10:09:58.000Z</time>
      </trkpt>
      <trkpt lat="48.38579" lon="2.4501">
        <ele>84.199996948242</ele>
        <time>2024-04-07T10:10:03.000Z</time>
      </trkpt>
      <trkpt lat="48.38561" lon="2.44979">
        <ele>84.599998474121</ele>
        <time>2024-04-07T10:10:10.000Z</time>
      </trkpt>
      <trkpt lat="48.38557" lon="2.44974">
        <ele>84.599998474121</ele>
        <time>2024-04-07T10:10:11.000Z</time>
      </trkpt>
      <trkpt lat="48.38536" lon="2.44946">
        <ele>84.800003051758</ele>
        <time>2024-04-07T10:10:17.000Z</time>
      </trkpt>
      <trkpt lat="48.38518" lon="2.4492">
        <ele>84.800003051758</ele>
        <time>2024-04-07T10:10:23.000Z</time>
      </trkpt>
      <trkpt lat="48.38508" lon="2.44908">
        <ele>84.800003051758</ele>
        <time>2024-04-07T10:10:26.000Z</time>
      </trkpt>
      <trkpt lat="48.38487" lon="2.44885">
        <ele>85.199996948242</ele>
        <time>2024-04-07T10:10:32.000Z</time>
      </trkpt>
      <trkpt lat="48.38473" lon="2.44869">
        <ele>85.599998474121</ele>
        <time>2024-04-07T10:10:36.000Z</time>
      </trkpt>
      <trkpt lat="48.38469" lon="2.44865">
        <ele>85.800003051758</ele>
        <time>2024-04-07T10:10:37.000Z</time>
      </trkpt>
      <trkpt lat="48.3844" lon="2.44835">
        <ele>86.800003051758</ele>
        <time>2024-04-07T10:10:45.000Z</time>
      </trkpt>
      <trkpt lat="48.38436" lon="2.44831">
        <ele>87</ele>
        <time>2024-04-07T10:10:46.000Z</time>
      </trkpt>
      <trkpt lat="48.38421" lon="2.44816">
        <ele>88.199996948242</ele>
        <time>2024-04-07T10:10:50.000Z</time>
      </trkpt>
      <trkpt lat="48.38404" lon="2.44798">
        <ele>88.800003051758</ele>
        <time>2024-04-07T10:10:55.000Z</time>
      </trkpt>
      <trkpt lat="48.38384" lon="2.44777">
        <ele>89.199996948242</ele>
        <time>2024-04-07T10:11:01.000Z</time>
      </trkpt>
      <trkpt lat="48.38374" lon="2.44767">
        <ele>89.599998474121</ele>
        <time>2024-04-07T10:11:04.000Z</time>
      </trkpt>
      <trkpt lat="48.38342" lon="2.4473">
        <ele>90</ele>
        <time>2024-04-07T10:11:13.000Z</time>
      </trkpt>
      <trkpt lat="48.38311" lon="2.44695">
        <ele>90.199996948242</ele>
        <time>2024-04-07T10:11:22.000Z</time>
      </trkpt>
      <trkpt lat="48.38307" lon="2.44691">
        <ele>90.199996948242</ele>
        <time>2024-04-07T10:11:23.000Z</time>
      </trkpt>
      <trkpt lat="48.38272" lon="2.44662">
        <ele>91</ele>
        <time>2024-04-07T10:11:32.000Z</time>
      </trkpt>
      <trkpt lat="48.38242" lon="2.4463">
        <ele>91</ele>
        <time>2024-04-07T10:11:40.000Z</time>
      </trkpt>
      <trkpt lat="48.38228" lon="2.44603">
        <ele>91</ele>
        <time>2024-04-07T10:11:45.000Z</time>
      </trkpt>
      <trkpt lat="48.38226" lon="2.44597">
        <ele>91</ele>
        <time>2024-04-07T10:11:46.000Z</time>
      </trkpt>
      <trkpt lat="48.38222" lon="2.44585">
        <ele>91</ele>
        <time>2024-04-07T10:11:48.000Z</time>
      </trkpt>
      <trkpt lat="48.38215" lon="2.44562">
        <ele>91</ele>
        <time>2024-04-07T10:11:52.000Z</time>
      </trkpt>
      <trkpt lat="48.38207" lon="2.44547">
        <ele>91.400001525879</ele>
        <time>2024-04-07T10:11:55.000Z</time>
      </trkpt>
      <trkpt lat="48.38195" lon="2.44527">
        <ele>91.800003051758</ele>
        <time>2024-04-07T10:11:59.000Z</time>
      </trkpt>
      <trkpt lat="48.38178" lon="2.44497">
        <ele>92.400001525879</ele>
        <time>2024-04-07T10:12:05.000Z</time>
      </trkpt>
      <trkpt lat="48.38174" lon="2.44487">
        <ele>92.599998474121</ele>
        <time>2024-04-07T10:12:07.000Z</time>
      </trkpt>
      <trkpt lat="48.38161" lon="2.44455">
        <ele>92.800003051758</ele>
        <time>2024-04-07T10:12:13.000Z</time>
      </trkpt>
      <trkpt lat="48.38147" lon="2.44412">
        <ele>93.199996948242</ele>
        <time>2024-04-07T10:12:21.000Z</time>
      </trkpt>
      <trkpt lat="48.38133" lon="2.44377">
        <ele>93.400001525879</ele>
        <time>2024-04-07T10:12:28.000Z</time>
      </trkpt>
      <trkpt lat="48.38131" lon="2.44372">
        <ele>93.599998474121</ele>
        <time>2024-04-07T10:12:29.000Z</time>
      </trkpt>
      <trkpt lat="48.38125" lon="2.44361">
        <ele>93.599998474121</ele>
        <time>2024-04-07T10:12:32.000Z</time>
      </trkpt>
      <trkpt lat="48.38124" lon="2.4436">
        <ele>93.599998474121</ele>
        <time>2024-04-07T10:12:33.000Z</time>
      </trkpt>
      <trkpt lat="48.38121" lon="2.44366">
        <ele>93.599998474121</ele>
        <time>2024-04-07T10:12:36.000Z</time>
      </trkpt>
      <trkpt lat="48.3812" lon="2.44367">
        <ele>93.599998474121</ele>
        <time>2024-04-07T10:12:37.000Z</time>
      </trkpt>
      <trkpt lat="48.38109" lon="2.44373">
        <ele>93.800003051758</ele>
        <time>2024-04-07T10:12:44.000Z</time>
      </trkpt>
      <trkpt lat="48.38106" lon="2.44375">
        <ele>94.400001525879</ele>
        <time>2024-04-07T10:12:46.000Z</time>
      </trkpt>
      <trkpt lat="48.38105" lon="2.44377">
        <ele>94.599998474121</ele>
        <time>2024-04-07T10:12:47.000Z</time>
      </trkpt>
      <trkpt lat="48.38103" lon="2.44382">
        <ele>95.599998474121</ele>
        <time>2024-04-07T10:12:49.000Z</time>
      </trkpt>
      <trkpt lat="48.38102" lon="2.44385">
        <ele>96</ele>
        <time>2024-04-07T10:12:50.000Z</time>
      </trkpt>
      <trkpt lat="48.38096" lon="2.44394">
        <ele>96.800003051758</ele>
        <time>2024-04-07T10:12:55.000Z</time>
      </trkpt>
      <trkpt lat="48.38094" lon="2.44394">
        <ele>96.800003051758</ele>
        <time>2024-04-07T10:12:56.000Z</time>
      </trkpt>
      <trkpt lat="48.3809" lon="2.44396">
        <ele>97.199996948242</ele>
        <time>2024-04-07T10:12:59.000Z</time>
      </trkpt>
      <trkpt lat="48.38083" lon="2.44398">
        <ele>97.199996948242</ele>
        <time>2024-04-07T10:13:02.000Z</time>
      </trkpt>
      <trkpt lat="48.38075" lon="2.44399">
        <ele>97.800003051758</ele>
        <time>2024-04-07T10:13:06.000Z</time>
      </trkpt>
      <trkpt lat="48.38071" lon="2.444">
        <ele>98.800003051758</ele>
        <time>2024-04-07T10:13:09.000Z</time>
      </trkpt>
      <trkpt lat="48.38068" lon="2.44399">
        <ele>99.800003051758</ele>
        <time>2024-04-07T10:13:13.000Z</time>
      </trkpt>
      <trkpt lat="48.38064" lon="2.44399">
        <ele>100.59999847412</ele>
        <time>2024-04-07T10:13:16.000Z</time>
      </trkpt>
      <trkpt lat="48.38062" lon="2.444">
        <ele>100.80000305176</ele>
        <time>2024-04-07T10:13:17.000Z</time>
      </trkpt>
      <trkpt lat="48.38061" lon="2.44401">
        <ele>100.80000305176</ele>
        <time>2024-04-07T10:13:18.000Z</time>
      </trkpt>
      <trkpt lat="48.38058" lon="2.44408">
        <ele>101.80000305176</ele>
        <time>2024-04-07T10:13:21.000Z</time>
      </trkpt>
      <trkpt lat="48.38057" lon="2.44411">
        <ele>102</ele>
        <time>2024-04-07T10:13:22.000Z</time>
      </trkpt>
      <trkpt lat="48.38055" lon="2.44422">
        <ele>103</ele>
        <time>2024-04-07T10:13:26.000Z</time>
      </trkpt>
      <trkpt lat="48.38056" lon="2.44427">
        <ele>103.19999694824</ele>
        <time>2024-04-07T10:13:28.000Z</time>
      </trkpt>
      <trkpt lat="48.38057" lon="2.44441">
        <ele>103.80000305176</ele>
        <time>2024-04-07T10:13:34.000Z</time>
      </trkpt>
      <trkpt lat="48.38057" lon="2.44443">
        <ele>104.19999694824</ele>
        <time>2024-04-07T10:13:35.000Z</time>
      </trkpt>
      <trkpt lat="48.38056" lon="2.44449">
        <ele>106</ele>
        <time>2024-04-07T10:13:38.000Z</time>
      </trkpt>
      <trkpt lat="48.38055" lon="2.44457">
        <ele>107</ele>
        <time>2024-04-07T10:13:42.000Z</time>
      </trkpt>
      <trkpt lat="48.38053" lon="2.44464">
        <ele>108.40000152588</ele>
        <time>2024-04-07T10:13:46.000Z</time>
      </trkpt>
      <trkpt lat="48.38051" lon="2.44472">
        <ele>109.59999847412</ele>
        <time>2024-04-07T10:13:50.000Z</time>
      </trkpt>
      <trkpt lat="48.38046" lon="2.44482">
        <ele>110.59999847412</ele>
        <time>2024-04-07T10:13:55.000Z</time>
      </trkpt>
      <trkpt lat="48.38045" lon="2.44483">
        <ele>110.80000305176</ele>
        <time>2024-04-07T10:13:56.000Z</time>
      </trkpt>
      <trkpt lat="48.38042" lon="2.44491">
        <ele>112</ele>
        <time>2024-04-07T10:14:01.000Z</time>
      </trkpt>
      <trkpt lat="48.38038" lon="2.44496">
        <ele>113.19999694824</ele>
        <time>2024-04-07T10:14:05.000Z</time>
      </trkpt>
      <trkpt lat="48.38036" lon="2.44503">
        <ele>114</ele>
        <time>2024-04-07T10:14:08.000Z</time>
      </trkpt>
      <trkpt lat="48.38035" lon="2.44505">
        <ele>114.40000152588</ele>
        <time>2024-04-07T10:14:09.000Z</time>
      </trkpt>
      <trkpt lat="48.38031" lon="2.44515">
        <ele>115.40000152588</ele>
        <time>2024-04-07T10:14:14.000Z</time>
      </trkpt>
      <trkpt lat="48.3803" lon="2.44516">
        <ele>115.40000152588</ele>
        <time>2024-04-07T10:14:15.000Z</time>
      </trkpt>
      <trkpt lat="48.38023" lon="2.44522">
        <ele>116.19999694824</ele>
        <time>2024-04-07T10:14:21.000Z</time>
      </trkpt>
      <trkpt lat="48.38022" lon="2.44522">
        <ele>116.40000152588</ele>
        <time>2024-04-07T10:14:22.000Z</time>
      </trkpt>
      <trkpt lat="48.38019" lon="2.44523">
        <ele>117</ele>
        <time>2024-04-07T10:14:24.000Z</time>
      </trkpt>
      <trkpt lat="48.38016" lon="2.44523">
        <ele>117.40000152588</ele>
        <time>2024-04-07T10:14:26.000Z</time>
      </trkpt>
      <trkpt lat="48.38012" lon="2.44525">
        <ele>118.80000305176</ele>
        <time>2024-04-07T10:14:29.000Z</time>
      </trkpt>
      <trkpt lat="48.38007" lon="2.4453">
        <ele>119.40000152588</ele>
        <time>2024-04-07T10:14:32.000Z</time>
      </trkpt>
      <trkpt lat="48.38006" lon="2.44532">
        <ele>119.59999847412</ele>
        <time>2024-04-07T10:14:33.000Z</time>
      </trkpt>
      <trkpt lat="48.37996" lon="2.44543">
        <ele>120.80000305176</ele>
        <time>2024-04-07T10:14:39.000Z</time>
      </trkpt>
      <trkpt lat="48.37994" lon="2.44546">
        <ele>121</ele>
        <time>2024-04-07T10:14:40.000Z</time>
      </trkpt>
      <trkpt lat="48.37989" lon="2.44564">
        <ele>121</ele>
        <time>2024-04-07T10:14:46.000Z</time>
      </trkpt>
      <trkpt lat="48.37985" lon="2.44588">
        <ele>121</ele>
        <time>2024-04-07T10:14:51.000Z</time>
      </trkpt>
      <trkpt lat="48.37985" lon="2.44592">
        <ele>120.80000305176</ele>
        <time>2024-04-07T10:14:52.000Z</time>
      </trkpt>
      <trkpt lat="48.37982" lon="2.44608">
        <ele>120.40000152588</ele>
        <time>2024-04-07T10:14:56.000Z</time>
      </trkpt>
      <trkpt lat="48.37981" lon="2.44612">
        <ele>120.40000152588</ele>
        <time>2024-04-07T10:14:57.000Z</time>
      </trkpt>
      <trkpt lat="48.37978" lon="2.44637">
        <ele>120.40000152588</ele>
        <time>2024-04-07T10:15:02.000Z</time>
      </trkpt>
      <trkpt lat="48.37974" lon="2.44663">
        <ele>120.40000152588</ele>
        <time>2024-04-07T10:15:05.000Z</time>
      </trkpt>
      <trkpt lat="48.37974" lon="2.44671">
        <ele>120.40000152588</ele>
        <time>2024-04-07T10:15:06.000Z</time>
      </trkpt>
      <trkpt lat="48.3798" lon="2.44692">
        <ele>119.80000305176</ele>
        <time>2024-04-07T10:15:10.000Z</time>
      </trkpt>
      <trkpt lat="48.37982" lon="2.44696">
        <ele>119.40000152588</ele>
        <time>2024-04-07T10:15:11.000Z</time>
      </trkpt>
      <trkpt lat="48.37994" lon="2.44709">
        <ele>118.59999847412</ele>
        <time>2024-04-07T10:15:15.000Z</time>
      </trkpt>
      <trkpt lat="48.38002" lon="2.44718">
        <ele>118.40000152588</ele>
        <time>2024-04-07T10:15:19.000Z</time>
      </trkpt>
      <trkpt lat="48.38007" lon="2.4472">
        <ele>118.40000152588</ele>
        <time>2024-04-07T10:15:21.000Z</time>
      </trkpt>
      <trkpt lat="48.38016" lon="2.44727">
        <ele>118.19999694824</ele>
        <time>2024-04-07T10:15:24.000Z</time>
      </trkpt>
      <trkpt lat="48.38025" lon="2.44746">
        <ele>118.40000152588</ele>
        <time>2024-04-07T10:15:29.000Z</time>
      </trkpt>
      <trkpt lat="48.38033" lon="2.44763">
        <ele>119</ele>
        <time>2024-04-07T10:15:35.000Z</time>
      </trkpt>
      <trkpt lat="48.38042" lon="2.44775">
        <ele>119.19999694824</ele>
        <time>2024-04-07T10:15:39.000Z</time>
      </trkpt>
      <trkpt lat="48.38043" lon="2.4478">
        <ele>119.19999694824</ele>
        <time>2024-04-07T10:15:40.000Z</time>
      </trkpt>
      <trkpt lat="48.38048" lon="2.44809">
        <ele>119</ele>
        <time>2024-04-07T10:15:46.000Z</time>
      </trkpt>
      <trkpt lat="48.38051" lon="2.44838">
        <ele>118.40000152588</ele>
        <time>2024-04-07T10:15:50.000Z</time>
      </trkpt>
      <trkpt lat="48.38052" lon="2.44861">
        <ele>117.80000305176</ele>
        <time>2024-04-07T10:15:54.000Z</time>
      </trkpt>
      <trkpt lat="48.38056" lon="2.44879">
        <ele>117.80000305176</ele>
        <time>2024-04-07T10:15:59.000Z</time>
      </trkpt>
      <trkpt lat="48.38059" lon="2.44886">
        <ele>117.80000305176</ele>
        <time>2024-04-07T10:16:01.000Z</time>
      </trkpt>
      <trkpt lat="48.38063" lon="2.44896">
        <ele>118.19999694824</ele>
        <time>2024-04-07T10:16:04.000Z</time>
      </trkpt>
      <trkpt lat="48.38068" lon="2.44901">
        <ele>118.80000305176</ele>
        <time>2024-04-07T10:16:06.000Z</time>
      </trkpt>
      <trkpt lat="48.38072" lon="2.44903">
        <ele>119.40000152588</ele>
        <time>2024-04-07T10:16:08.000Z</time>
      </trkpt>
      <trkpt lat="48.38077" lon="2.44903">
        <ele>120.40000152588</ele>
        <time>2024-04-07T10:16:10.000Z</time>
      </trkpt>
      <trkpt lat="48.38081" lon="2.44904">
        <ele>121.59999847412</ele>
        <time>2024-04-07T10:16:13.000Z</time>
      </trkpt>
      <trkpt lat="48.38082" lon="2.44904">
        <ele>122</ele>
        <time>2024-04-07T10:16:14.000Z</time>
      </trkpt>
      <trkpt lat="48.38087" lon="2.44905">
        <ele>122.59999847412</ele>
        <time>2024-04-07T10:16:19.000Z</time>
      </trkpt>
      <trkpt lat="48.38093" lon="2.44908">
        <ele>122.80000305176</ele>
        <time>2024-04-07T10:16:24.000Z</time>
      </trkpt>
      <trkpt lat="48.38103" lon="2.44907">
        <ele>122.80000305176</ele>
        <time>2024-04-07T10:16:30.000Z</time>
      </trkpt>
      <trkpt lat="48.38104" lon="2.44906">
        <ele>122.80000305176</ele>
        <time>2024-04-07T10:16:31.000Z</time>
      </trkpt>
      <trkpt lat="48.38109" lon="2.449">
        <ele>122.80000305176</ele>
        <time>2024-04-07T10:16:35.000Z</time>
      </trkpt>
      <trkpt lat="48.38114" lon="2.44898">
        <ele>122.80000305176</ele>
        <time>2024-04-07T10:16:37.000Z</time>
      </trkpt>
      <trkpt lat="48.38119" lon="2.44905">
        <ele>122.80000305176</ele>
        <time>2024-04-07T10:16:41.000Z</time>
      </trkpt>
      <trkpt lat="48.3812" lon="2.44908">
        <ele>122.80000305176</ele>
        <time>2024-04-07T10:16:42.000Z</time>
      </trkpt>
      <trkpt lat="48.38126" lon="2.44925">
        <ele>123.19999694824</ele>
        <time>2024-04-07T10:16:49.000Z</time>
      </trkpt>
      <trkpt lat="48.3813" lon="2.44931">
        <ele>123.59999847412</ele>
        <time>2024-04-07T10:16:52.000Z</time>
      </trkpt>
      <trkpt lat="48.38135" lon="2.44937">
        <ele>124</ele>
        <time>2024-04-07T10:16:55.000Z</time>
      </trkpt>
      <trkpt lat="48.38137" lon="2.4495">
        <ele>124.59999847412</ele>
        <time>2024-04-07T10:16:59.000Z</time>
      </trkpt>
      <trkpt lat="48.38137" lon="2.44954">
        <ele>124.59999847412</ele>
        <time>2024-04-07T10:17:00.000Z</time>
      </trkpt>
      <trkpt lat="48.38139" lon="2.44965">
        <ele>124.80000305176</ele>
        <time>2024-04-07T10:17:03.000Z</time>
      </trkpt>
      <trkpt lat="48.38143" lon="2.44969">
        <ele>124.80000305176</ele>
        <time>2024-04-07T10:17:05.000Z</time>
      </trkpt>
      <trkpt lat="48.38144" lon="2.44984">
        <ele>124.80000305176</ele>
        <time>2024-04-07T10:17:09.000Z</time>
      </trkpt>
      <trkpt lat="48.38144" lon="2.44988">
        <ele>124.80000305176</ele>
        <time>2024-04-07T10:17:10.000Z</time>
      </trkpt>
      <trkpt lat="48.38137" lon="2.45008">
        <ele>124.80000305176</ele>
        <time>2024-04-07T10:17:16.000Z</time>
      </trkpt>
      <trkpt lat="48.38129" lon="2.45027">
        <ele>124.80000305176</ele>
        <time>2024-04-07T10:17:21.000Z</time>
      </trkpt>
      <trkpt lat="48.38126" lon="2.45053">
        <ele>124.80000305176</ele>
        <time>2024-04-07T10:17:27.000Z</time>
      </trkpt>
      <trkpt lat="48.38132" lon="2.4508">
        <ele>125</ele>
        <time>2024-04-07T10:17:32.000Z</time>
      </trkpt>
      <trkpt lat="48.38133" lon="2.45086">
        <ele>125.19999694824</ele>
        <time>2024-04-07T10:17:33.000Z</time>
      </trkpt>
      <trkpt lat="48.38137" lon="2.45116">
        <ele>125.40000152588</ele>
        <time>2024-04-07T10:17:38.000Z</time>
      </trkpt>
      <trkpt lat="48.38144" lon="2.45147">
        <ele>125.40000152588</ele>
        <time>2024-04-07T10:17:43.000Z</time>
      </trkpt>
      <trkpt lat="48.38139" lon="2.45148">
        <ele>125.40000152588</ele>
        <time>2024-04-07T10:17:46.000Z</time>
      </trkpt>
      <trkpt lat="48.38124" lon="2.45142">
        <ele>125.40000152588</ele>
        <time>2024-04-07T10:17:51.000Z</time>
      </trkpt>
      <trkpt lat="48.38117" lon="2.4514">
        <ele>125.40000152588</ele>
        <time>2024-04-07T10:17:53.000Z</time>
      </trkpt>
      <trkpt lat="48.38086" lon="2.45137">
        <ele>125.19999694824</ele>
        <time>2024-04-07T10:18:01.000Z</time>
      </trkpt>
      <trkpt lat="48.38057" lon="2.45144">
        <ele>125</ele>
        <time>2024-04-07T10:18:08.000Z</time>
      </trkpt>
      <trkpt lat="48.38048" lon="2.45146">
        <ele>125.19999694824</ele>
        <time>2024-04-07T10:18:10.000Z</time>
      </trkpt>
      <trkpt lat="48.38015" lon="2.45152">
        <ele>126.19999694824</ele>
        <time>2024-04-07T10:18:18.000Z</time>
      </trkpt>
      <trkpt lat="48.38002" lon="2.45153">
        <ele>126.40000152588</ele>
        <time>2024-04-07T10:18:21.000Z</time>
      </trkpt>
      <trkpt lat="48.37968" lon="2.45145">
        <ele>127</ele>
        <time>2024-04-07T10:18:29.000Z</time>
      </trkpt>
      <trkpt lat="48.3793" lon="2.45127">
        <ele>127.19999694824</ele>
        <time>2024-04-07T10:18:38.000Z</time>
      </trkpt>
      <trkpt lat="48.37888" lon="2.45107">
        <ele>127</ele>
        <time>2024-04-07T10:18:47.000Z</time>
      </trkpt>
      <trkpt lat="48.37849" lon="2.45088">
        <ele>127.59999847412</ele>
        <time>2024-04-07T10:18:56.000Z</time>
      </trkpt>
      <trkpt lat="48.37844" lon="2.45086">
        <ele>127.80000305176</ele>
        <time>2024-04-07T10:18:57.000Z</time>
      </trkpt>
      <trkpt lat="48.37821" lon="2.4507">
        <ele>128.60000610352</ele>
        <time>2024-04-07T10:19:02.000Z</time>
      </trkpt>
      <trkpt lat="48.37809" lon="2.45059">
        <ele>128.80000305176</ele>
        <time>2024-04-07T10:19:05.000Z</time>
      </trkpt>
      <trkpt lat="48.37789" lon="2.45043">
        <ele>129</ele>
        <time>2024-04-07T10:19:10.000Z</time>
      </trkpt>
      <trkpt lat="48.37784" lon="2.45041">
        <ele>129</ele>
        <time>2024-04-07T10:19:11.000Z</time>
      </trkpt>
      <trkpt lat="48.37756" lon="2.45018">
        <ele>129.60000610352</ele>
        <time>2024-04-07T10:19:18.000Z</time>
      </trkpt>
      <trkpt lat="48.37753" lon="2.45014">
        <ele>129.60000610352</ele>
        <time>2024-04-07T10:19:19.000Z</time>
      </trkpt>
      <trkpt lat="48.37745" lon="2.45006">
        <ele>129.80000305176</ele>
        <time>2024-04-07T10:19:21.000Z</time>
      </trkpt>
      <trkpt lat="48.37737" lon="2.44998">
        <ele>130.19999694824</ele>
        <time>2024-04-07T10:19:23.000Z</time>
      </trkpt>
      <trkpt lat="48.37708" lon="2.44968">
        <ele>130.19999694824</ele>
        <time>2024-04-07T10:19:30.000Z</time>
      </trkpt>
      <trkpt lat="48.37687" lon="2.44946">
        <ele>129.60000610352</ele>
        <time>2024-04-07T10:19:35.000Z</time>
      </trkpt>
      <trkpt lat="48.37678" lon="2.44939">
        <ele>129.39999389648</ele>
        <time>2024-04-07T10:19:37.000Z</time>
      </trkpt>
      <trkpt lat="48.37647" lon="2.44909">
        <ele>128.80000305176</ele>
        <time>2024-04-07T10:19:44.000Z</time>
      </trkpt>
      <trkpt lat="48.37599" lon="2.44862">
        <ele>128.19999694824</ele>
        <time>2024-04-07T10:19:55.000Z</time>
      </trkpt>
      <trkpt lat="48.37572" lon="2.44841">
        <ele>128.19999694824</ele>
        <time>2024-04-07T10:20:01.000Z</time>
      </trkpt>
      <trkpt lat="48.3757" lon="2.44829">
        <ele>128.19999694824</ele>
        <time>2024-04-07T10:20:03.000Z</time>
      </trkpt>
      <trkpt lat="48.37572" lon="2.44816">
        <ele>128.19999694824</ele>
        <time>2024-04-07T10:20:05.000Z</time>
      </trkpt>
      <trkpt lat="48.37574" lon="2.44804">
        <ele>128.19999694824</ele>
        <time>2024-04-07T10:20:07.000Z</time>
      </trkpt>
      <trkpt lat="48.37575" lon="2.44798">
        <ele>128.19999694824</ele>
        <time>2024-04-07T10:20:08.000Z</time>
      </trkpt>
      <trkpt lat="48.37575" lon="2.44792">
        <ele>128.19999694824</ele>
        <time>2024-04-07T10:20:09.000Z</time>
      </trkpt>
      <trkpt lat="48.37582" lon="2.44758">
        <ele>128.60000610352</ele>
        <time>2024-04-07T10:20:14.000Z</time>
      </trkpt>
      <trkpt lat="48.3759" lon="2.44706">
        <ele>128.60000610352</ele>
        <time>2024-04-07T10:20:21.000Z</time>
      </trkpt>
      <trkpt lat="48.37596" lon="2.44657">
        <ele>128.19999694824</ele>
        <time>2024-04-07T10:20:27.000Z</time>
      </trkpt>
      <trkpt lat="48.376" lon="2.44631">
        <ele>128</ele>
        <time>2024-04-07T10:20:30.000Z</time>
      </trkpt>
      <trkpt lat="48.37601" lon="2.44622">
        <ele>128</ele>
        <time>2024-04-07T10:20:31.000Z</time>
      </trkpt>
      <trkpt lat="48.37602" lon="2.44614">
        <ele>127.80000305176</ele>
        <time>2024-04-07T10:20:32.000Z</time>
      </trkpt>
      <trkpt lat="48.37606" lon="2.44588">
        <ele>127.19999694824</ele>
        <time>2024-04-07T10:20:35.000Z</time>
      </trkpt>
      <trkpt lat="48.37612" lon="2.44546">
        <ele>127</ele>
        <time>2024-04-07T10:20:40.000Z</time>
      </trkpt>
      <trkpt lat="48.37615" lon="2.44521">
        <ele>126.59999847412</ele>
        <time>2024-04-07T10:20:43.000Z</time>
      </trkpt>
      <trkpt lat="48.37621" lon="2.44478">
        <ele>126.59999847412</ele>
        <time>2024-04-07T10:20:48.000Z</time>
      </trkpt>
      <trkpt lat="48.37633" lon="2.44396">
        <ele>126</ele>
        <time>2024-04-07T10:20:57.000Z</time>
      </trkpt>
      <trkpt lat="48.37635" lon="2.44387">
        <ele>126</ele>
        <time>2024-04-07T10:20:58.000Z</time>
      </trkpt>
      <trkpt lat="48.37636" lon="2.44378">
        <ele>125.80000305176</ele>
        <time>2024-04-07T10:20:59.000Z</time>
      </trkpt>
      <trkpt lat="48.37646" lon="2.44314">
        <ele>125.19999694824</ele>
        <time>2024-04-07T10:21:06.000Z</time>
      </trkpt>
      <trkpt lat="48.3765" lon="2.44287">
        <ele>124.59999847412</ele>
        <time>2024-04-07T10:21:09.000Z</time>
      </trkpt>
      <trkpt lat="48.37655" lon="2.4425">
        <ele>123.80000305176</ele>
        <time>2024-04-07T10:21:13.000Z</time>
      </trkpt>
      <trkpt lat="48.3766" lon="2.4422">
        <ele>123.40000152588</ele>
        <time>2024-04-07T10:21:16.000Z</time>
      </trkpt>
      <trkpt lat="48.37665" lon="2.44189">
        <ele>122.59999847412</ele>
        <time>2024-04-07T10:21:19.000Z</time>
      </trkpt>
      <trkpt lat="48.37668" lon="2.4418">
        <ele>122.40000152588</ele>
        <time>2024-04-07T10:21:20.000Z</time>
      </trkpt>
      <trkpt lat="48.3767" lon="2.4417">
        <ele>122.19999694824</ele>
        <time>2024-04-07T10:21:21.000Z</time>
      </trkpt>
      <trkpt lat="48.37678" lon="2.44145">
        <ele>121</ele>
        <time>2024-04-07T10:21:24.000Z</time>
      </trkpt>
      <trkpt lat="48.37681" lon="2.44139">
        <ele>120.59999847412</ele>
        <time>2024-04-07T10:21:25.000Z</time>
      </trkpt>
      <trkpt lat="48.37691" lon="2.4412">
        <ele>120</ele>
        <time>2024-04-07T10:21:28.000Z</time>
      </trkpt>
      <trkpt lat="48.37703" lon="2.44099">
        <ele>119.40000152588</ele>
        <time>2024-04-07T10:21:31.000Z</time>
      </trkpt>
      <trkpt lat="48.37733" lon="2.44048">
        <ele>119</ele>
        <time>2024-04-07T10:21:37.000Z</time>
      </trkpt>
      <trkpt lat="48.37738" lon="2.4404">
        <ele>118.80000305176</ele>
        <time>2024-04-07T10:21:38.000Z</time>
      </trkpt>
      <trkpt lat="48.37747" lon="2.44025">
        <ele>117.59999847412</ele>
        <time>2024-04-07T10:21:40.000Z</time>
      </trkpt>
      <trkpt lat="48.37756" lon="2.44012">
        <ele>116.40000152588</ele>
        <time>2024-04-07T10:21:42.000Z</time>
      </trkpt>
      <trkpt lat="48.37763" lon="2.44003">
        <ele>116</ele>
        <time>2024-04-07T10:21:44.000Z</time>
      </trkpt>
      <trkpt lat="48.37778" lon="2.43992">
        <ele>116</ele>
        <time>2024-04-07T10:21:48.000Z</time>
      </trkpt>
      <trkpt lat="48.37781" lon="2.4399">
        <ele>116</ele>
        <time>2024-04-07T10:21:49.000Z</time>
      </trkpt>
      <trkpt lat="48.37798" lon="2.43982">
        <ele>117.40000152588</ele>
        <time>2024-04-07T10:21:53.000Z</time>
      </trkpt>
      <trkpt lat="48.37811" lon="2.43975">
        <ele>118.59999847412</ele>
        <time>2024-04-07T10:21:56.000Z</time>
      </trkpt>
      <trkpt lat="48.37816" lon="2.43972">
        <ele>118.80000305176</ele>
        <time>2024-04-07T10:21:57.000Z</time>
      </trkpt>
      <trkpt lat="48.37833" lon="2.43957">
        <ele>119</ele>
        <time>2024-04-07T10:22:01.000Z</time>
      </trkpt>
      <trkpt lat="48.37846" lon="2.43942">
        <ele>119</ele>
        <time>2024-04-07T10:22:04.000Z</time>
      </trkpt>
      <trkpt lat="48.3787" lon="2.43905">
        <ele>118.80000305176</ele>
        <time>2024-04-07T10:22:11.000Z</time>
      </trkpt>
      <trkpt lat="48.37885" lon="2.43864">
        <ele>119.40000152588</ele>
        <time>2024-04-07T10:22:18.000Z</time>
      </trkpt>
      <trkpt lat="48.3789" lon="2.43853">
        <ele>119.80000305176</ele>
        <time>2024-04-07T10:22:20.000Z</time>
      </trkpt>
      <trkpt lat="48.379" lon="2.43826">
        <ele>120.80000305176</ele>
        <time>2024-04-07T10:22:25.000Z</time>
      </trkpt>
      <trkpt lat="48.37904" lon="2.43814">
        <ele>121.40000152588</ele>
        <time>2024-04-07T10:22:27.000Z</time>
      </trkpt>
      <trkpt lat="48.37918" lon="2.43772">
        <ele>121.80000305176</ele>
        <time>2024-04-07T10:22:33.000Z</time>
      </trkpt>
      <trkpt lat="48.37931" lon="2.43749">
        <ele>121.80000305176</ele>
        <time>2024-04-07T10:22:36.000Z</time>
      </trkpt>
      <trkpt lat="48.37936" lon="2.43742">
        <ele>121.80000305176</ele>
        <time>2024-04-07T10:22:37.000Z</time>
      </trkpt>
      <trkpt lat="48.3796" lon="2.43719">
        <ele>120.80000305176</ele>
        <time>2024-04-07T10:22:41.000Z</time>
      </trkpt>
      <trkpt lat="48.37965" lon="2.43713">
        <ele>120.40000152588</ele>
        <time>2024-04-07T10:22:42.000Z</time>
      </trkpt>
      <trkpt lat="48.37975" lon="2.43701">
        <ele>119</ele>
        <time>2024-04-07T10:22:44.000Z</time>
      </trkpt>
      <trkpt lat="48.37979" lon="2.43694">
        <ele>118.19999694824</ele>
        <time>2024-04-07T10:22:45.000Z</time>
      </trkpt>
      <trkpt lat="48.37987" lon="2.43681">
        <ele>117.40000152588</ele>
        <time>2024-04-07T10:22:47.000Z</time>
      </trkpt>
      <trkpt lat="48.37994" lon="2.43668">
        <ele>117</ele>
        <time>2024-04-07T10:22:49.000Z</time>
      </trkpt>
      <trkpt lat="48.38011" lon="2.43634">
        <ele>116.59999847412</ele>
        <time>2024-04-07T10:22:54.000Z</time>
      </trkpt>
      <trkpt lat="48.38036" lon="2.43578">
        <ele>116.40000152588</ele>
        <time>2024-04-07T10:23:02.000Z</time>
      </trkpt>
      <trkpt lat="48.38048" lon="2.4355">
        <ele>116.59999847412</ele>
        <time>2024-04-07T10:23:06.000Z</time>
      </trkpt>
      <trkpt lat="48.3806" lon="2.43524">
        <ele>116.59999847412</ele>
        <time>2024-04-07T10:23:10.000Z</time>
      </trkpt>
      <trkpt lat="48.38079" lon="2.43483">
        <ele>117</ele>
        <time>2024-04-07T10:23:17.000Z</time>
      </trkpt>
      <trkpt lat="48.38082" lon="2.43478">
        <ele>117</ele>
        <time>2024-04-07T10:23:18.000Z</time>
      </trkpt>
      <trkpt lat="48.38095" lon="2.43453">
        <ele>117.59999847412</ele>
        <time>2024-04-07T10:23:23.000Z</time>
      </trkpt>
      <trkpt lat="48.38103" lon="2.43439">
        <ele>118.19999694824</ele>
        <time>2024-04-07T10:23:26.000Z</time>
      </trkpt>
      <trkpt lat="48.38118" lon="2.4341">
        <ele>119.19999694824</ele>
        <time>2024-04-07T10:23:32.000Z</time>
      </trkpt>
      <trkpt lat="48.38121" lon="2.43405">
        <ele>119.19999694824</ele>
        <time>2024-04-07T10:23:33.000Z</time>
      </trkpt>
      <trkpt lat="48.38134" lon="2.43372">
        <ele>119.80000305176</ele>
        <time>2024-04-07T10:23:39.000Z</time>
      </trkpt>
      <trkpt lat="48.38136" lon="2.43366">
        <ele>119.80000305176</ele>
        <time>2024-04-07T10:23:40.000Z</time>
      </trkpt>
      <trkpt lat="48.38145" lon="2.43351">
        <ele>119.80000305176</ele>
        <time>2024-04-07T10:23:43.000Z</time>
      </trkpt>
      <trkpt lat="48.38148" lon="2.43346">
        <ele>119.80000305176</ele>
        <time>2024-04-07T10:23:44.000Z</time>
      </trkpt>
      <trkpt lat="48.38171" lon="2.43322">
        <ele>119.80000305176</ele>
        <time>2024-04-07T10:23:51.000Z</time>
      </trkpt>
      <trkpt lat="48.38184" lon="2.4331">
        <ele>119.80000305176</ele>
        <time>2024-04-07T10:23:56.000Z</time>
      </trkpt>
      <trkpt lat="48.38185" lon="2.43303">
        <ele>120.19999694824</ele>
        <time>2024-04-07T10:23:58.000Z</time>
      </trkpt>
      <trkpt lat="48.38184" lon="2.43299">
        <ele>120.19999694824</ele>
        <time>2024-04-07T10:23:59.000Z</time>
      </trkpt>
      <trkpt lat="48.38171" lon="2.43283">
        <ele>120.40000152588</ele>
        <time>2024-04-07T10:24:03.000Z</time>
      </trkpt>
      <trkpt lat="48.38154" lon="2.43257">
        <ele>120.40000152588</ele>
        <time>2024-04-07T10:24:09.000Z</time>
      </trkpt>
      <trkpt lat="48.38155" lon="2.43252">
        <ele>120.40000152588</ele>
        <time>2024-04-07T10:24:10.000Z</time>
      </trkpt>
      <trkpt lat="48.38168" lon="2.43217">
        <ele>120.40000152588</ele>
        <time>2024-04-07T10:24:16.000Z</time>
      </trkpt>
      <trkpt lat="48.3818" lon="2.43187">
        <ele>121.19999694824</ele>
        <time>2024-04-07T10:24:21.000Z</time>
      </trkpt>
      <trkpt lat="48.38188" lon="2.43171">
        <ele>121.59999847412</ele>
        <time>2024-04-07T10:24:24.000Z</time>
      </trkpt>
      <trkpt lat="48.38206" lon="2.43128">
        <ele>122.59999847412</ele>
        <time>2024-04-07T10:24:31.000Z</time>
      </trkpt>
      <trkpt lat="48.3822" lon="2.43095">
        <ele>123.19999694824</ele>
        <time>2024-04-07T10:24:36.000Z</time>
      </trkpt>
      <trkpt lat="48.38226" lon="2.43082">
        <ele>123.19999694824</ele>
        <time>2024-04-07T10:24:38.000Z</time>
      </trkpt>
      <trkpt lat="48.38228" lon="2.43075">
        <ele>123.40000152588</ele>
        <time>2024-04-07T10:24:39.000Z</time>
      </trkpt>
      <trkpt lat="48.38239" lon="2.43048">
        <ele>123.80000305176</ele>
        <time>2024-04-07T10:24:43.000Z</time>
      </trkpt>
      <trkpt lat="48.38263" lon="2.42993">
        <ele>124</ele>
        <time>2024-04-07T10:24:51.000Z</time>
      </trkpt>
      <trkpt lat="48.38271" lon="2.42973">
        <ele>124.19999694824</ele>
        <time>2024-04-07T10:24:54.000Z</time>
      </trkpt>
      <trkpt lat="48.38279" lon="2.42952">
        <ele>124.19999694824</ele>
        <time>2024-04-07T10:24:57.000Z</time>
      </trkpt>
      <trkpt lat="48.38288" lon="2.42923">
        <ele>124.80000305176</ele>
        <time>2024-04-07T10:25:01.000Z</time>
      </trkpt>
      <trkpt lat="48.38298" lon="2.42895">
        <ele>125.19999694824</ele>
        <time>2024-04-07T10:25:05.000Z</time>
      </trkpt>
      <trkpt lat="48.38318" lon="2.42843">
        <ele>125.80000305176</ele>
        <time>2024-04-07T10:25:13.000Z</time>
      </trkpt>
      <trkpt lat="48.38321" lon="2.42837">
        <ele>126</ele>
        <time>2024-04-07T10:25:14.000Z</time>
      </trkpt>
      <trkpt lat="48.38334" lon="2.42811">
        <ele>126.80000305176</ele>
        <time>2024-04-07T10:25:19.000Z</time>
      </trkpt>
      <trkpt lat="48.38337" lon="2.42805">
        <ele>127</ele>
        <time>2024-04-07T10:25:20.000Z</time>
      </trkpt>
      <trkpt lat="48.38346" lon="2.42781">
        <ele>128.39999389648</ele>
        <time>2024-04-07T10:25:24.000Z</time>
      </trkpt>
      <trkpt lat="48.38367" lon="2.42732">
        <ele>129</ele>
        <time>2024-04-07T10:25:32.000Z</time>
      </trkpt>
      <trkpt lat="48.38376" lon="2.42715">
        <ele>129.19999694824</ele>
        <time>2024-04-07T10:25:35.000Z</time>
      </trkpt>
      <trkpt lat="48.38388" lon="2.42702">
        <ele>129.19999694824</ele>
        <time>2024-04-07T10:25:38.000Z</time>
      </trkpt>
      <trkpt lat="48.38403" lon="2.42695">
        <ele>129.19999694824</ele>
        <time>2024-04-07T10:25:41.000Z</time>
      </trkpt>
      <trkpt lat="48.38413" lon="2.42691">
        <ele>129.39999389648</ele>
        <time>2024-04-07T10:25:43.000Z</time>
      </trkpt>
      <trkpt lat="48.38452" lon="2.42677">
        <ele>129.60000610352</ele>
        <time>2024-04-07T10:25:51.000Z</time>
      </trkpt>
      <trkpt lat="48.38497" lon="2.4266">
        <ele>130.19999694824</ele>
        <time>2024-04-07T10:26:00.000Z</time>
      </trkpt>
      <trkpt lat="48.38513" lon="2.42655">
        <ele>130.60000610352</ele>
        <time>2024-04-07T10:26:03.000Z</time>
      </trkpt>
      <trkpt lat="48.38529" lon="2.42649">
        <ele>130.80000305176</ele>
        <time>2024-04-07T10:26:06.000Z</time>
      </trkpt>
      <trkpt lat="48.38577" lon="2.4263">
        <ele>131.19999694824</ele>
        <time>2024-04-07T10:26:15.000Z</time>
      </trkpt>
      <trkpt lat="48.38606" lon="2.42618">
        <ele>131.60000610352</ele>
        <time>2024-04-07T10:26:20.000Z</time>
      </trkpt>
      <trkpt lat="48.38628" lon="2.42606">
        <ele>131.60000610352</ele>
        <time>2024-04-07T10:26:24.000Z</time>
      </trkpt>
      <trkpt lat="48.38669" lon="2.42575">
        <ele>131.80000305176</ele>
        <time>2024-04-07T10:26:32.000Z</time>
      </trkpt>
      <trkpt lat="48.38674" lon="2.4257">
        <ele>131.80000305176</ele>
        <time>2024-04-07T10:26:33.000Z</time>
      </trkpt>
      <trkpt lat="48.38708" lon="2.42541">
        <ele>131.80000305176</ele>
        <time>2024-04-07T10:26:40.000Z</time>
      </trkpt>
      <trkpt lat="48.38729" lon="2.42529">
        <ele>132.19999694824</ele>
        <time>2024-04-07T10:26:45.000Z</time>
      </trkpt>
      <trkpt lat="48.38733" lon="2.42527">
        <ele>132.39999389648</ele>
        <time>2024-04-07T10:26:46.000Z</time>
      </trkpt>
      <trkpt lat="48.38741" lon="2.4252">
        <ele>132.80000305176</ele>
        <time>2024-04-07T10:26:48.000Z</time>
      </trkpt>
      <trkpt lat="48.38741" lon="2.42507">
        <ele>133.19999694824</ele>
        <time>2024-04-07T10:26:50.000Z</time>
      </trkpt>
      <trkpt lat="48.38738" lon="2.42492">
        <ele>133.19999694824</ele>
        <time>2024-04-07T10:26:52.000Z</time>
      </trkpt>
      <trkpt lat="48.38733" lon="2.42468">
        <ele>133.19999694824</ele>
        <time>2024-04-07T10:26:55.000Z</time>
      </trkpt>
      <trkpt lat="48.3872" lon="2.42404">
        <ele>132.60000610352</ele>
        <time>2024-04-07T10:27:03.000Z</time>
      </trkpt>
      <trkpt lat="48.38704" lon="2.42323">
        <ele>132.60000610352</ele>
        <time>2024-04-07T10:27:13.000Z</time>
      </trkpt>
      <trkpt lat="48.38702" lon="2.42315">
        <ele>132.80000305176</ele>
        <time>2024-04-07T10:27:14.000Z</time>
      </trkpt>
      <trkpt lat="48.38687" lon="2.42232">
        <ele>133.19999694824</ele>
        <time>2024-04-07T10:27:24.000Z</time>
      </trkpt>
      <trkpt lat="48.38678" lon="2.42189">
        <ele>133</ele>
        <time>2024-04-07T10:27:29.000Z</time>
      </trkpt>
      <trkpt lat="48.3867" lon="2.42146">
        <ele>132.80000305176</ele>
        <time>2024-04-07T10:27:34.000Z</time>
      </trkpt>
      <trkpt lat="48.38666" lon="2.42128">
        <ele>132.60000610352</ele>
        <time>2024-04-07T10:27:36.000Z</time>
      </trkpt>
      <trkpt lat="48.38656" lon="2.42085">
        <ele>132.19999694824</ele>
        <time>2024-04-07T10:27:41.000Z</time>
      </trkpt>
      <trkpt lat="48.38651" lon="2.42069">
        <ele>132</ele>
        <time>2024-04-07T10:27:43.000Z</time>
      </trkpt>
      <trkpt lat="48.38634" lon="2.4201">
        <ele>131.80000305176</ele>
        <time>2024-04-07T10:27:50.000Z</time>
      </trkpt>
      <trkpt lat="48.38629" lon="2.41993">
        <ele>131.80000305176</ele>
        <time>2024-04-07T10:27:52.000Z</time>
      </trkpt>
      <trkpt lat="48.38616" lon="2.41941">
        <ele>131.60000610352</ele>
        <time>2024-04-07T10:27:58.000Z</time>
      </trkpt>
      <trkpt lat="48.38615" lon="2.41932">
        <ele>131.60000610352</ele>
        <time>2024-04-07T10:27:59.000Z</time>
      </trkpt>
      <trkpt lat="48.38609" lon="2.41872">
        <ele>131.39999389648</ele>
        <time>2024-04-07T10:28:06.000Z</time>
      </trkpt>
      <trkpt lat="48.38607" lon="2.41816">
        <ele>131.80000305176</ele>
        <time>2024-04-07T10:28:13.000Z</time>
      </trkpt>
      <trkpt lat="48.38606" lon="2.4178">
        <ele>132.80000305176</ele>
        <time>2024-04-07T10:28:18.000Z</time>
      </trkpt>
      <trkpt lat="48.38605" lon="2.41772">
        <ele>133.19999694824</ele>
        <time>2024-04-07T10:28:19.000Z</time>
      </trkpt>
      <trkpt lat="48.38603" lon="2.41748">
        <ele>133.80000305176</ele>
        <time>2024-04-07T10:28:22.000Z</time>
      </trkpt>
      <trkpt lat="48.38603" lon="2.41731">
        <ele>134.19999694824</ele>
        <time>2024-04-07T10:28:24.000Z</time>
      </trkpt>
      <trkpt lat="48.38604" lon="2.41713">
        <ele>134.60000610352</ele>
        <time>2024-04-07T10:28:26.000Z</time>
      </trkpt>
      <trkpt lat="48.38608" lon="2.41689">
        <ele>135</ele>
        <time>2024-04-07T10:28:29.000Z</time>
      </trkpt>
      <trkpt lat="48.38615" lon="2.41666">
        <ele>135.60000610352</ele>
        <time>2024-04-07T10:28:32.000Z</time>
      </trkpt>
      <trkpt lat="48.38623" lon="2.41644">
        <ele>135.60000610352</ele>
        <time>2024-04-07T10:28:35.000Z</time>
      </trkpt>
      <trkpt lat="48.38649" lon="2.416">
        <ele>136</ele>
        <time>2024-04-07T10:28:42.000Z</time>
      </trkpt>
      <trkpt lat="48.38671" lon="2.41572">
        <ele>136.60000610352</ele>
        <time>2024-04-07T10:28:47.000Z</time>
      </trkpt>
      <trkpt lat="48.38681" lon="2.41562">
        <ele>136.60000610352</ele>
        <time>2024-04-07T10:28:49.000Z</time>
      </trkpt>
      <trkpt lat="48.38712" lon="2.4153">
        <ele>136.80000305176</ele>
        <time>2024-04-07T10:28:55.000Z</time>
      </trkpt>
      <trkpt lat="48.38746" lon="2.4149">
        <ele>135.80000305176</ele>
        <time>2024-04-07T10:29:02.000Z</time>
      </trkpt>
      <trkpt lat="48.38755" lon="2.41479">
        <ele>135.60000610352</ele>
        <time>2024-04-07T10:29:04.000Z</time>
      </trkpt>
      <trkpt lat="48.38773" lon="2.41456">
        <ele>135.39999389648</ele>
        <time>2024-04-07T10:29:08.000Z</time>
      </trkpt>
      <trkpt lat="48.38781" lon="2.41444">
        <ele>135.39999389648</ele>
        <time>2024-04-07T10:29:10.000Z</time>
      </trkpt>
      <trkpt lat="48.38787" lon="2.4143">
        <ele>135.19999694824</ele>
        <time>2024-04-07T10:29:12.000Z</time>
      </trkpt>
      <trkpt lat="48.38787" lon="2.41422">
        <ele>135.19999694824</ele>
        <time>2024-04-07T10:29:13.000Z</time>
      </trkpt>
      <trkpt lat="48.38781" lon="2.41381">
        <ele>135</ele>
        <time>2024-04-07T10:29:18.000Z</time>
      </trkpt>
      <trkpt lat="48.38773" lon="2.41339">
        <ele>134.39999389648</ele>
        <time>2024-04-07T10:29:23.000Z</time>
      </trkpt>
      <trkpt lat="48.3877" lon="2.41314">
        <ele>133.80000305176</ele>
        <time>2024-04-07T10:29:26.000Z</time>
      </trkpt>
      <trkpt lat="48.38767" lon="2.41298">
        <ele>133.39999389648</ele>
        <time>2024-04-07T10:29:28.000Z</time>
      </trkpt>
      <trkpt lat="48.38765" lon="2.41282">
        <ele>133.19999694824</ele>
        <time>2024-04-07T10:29:30.000Z</time>
      </trkpt>
      <trkpt lat="48.38762" lon="2.41266">
        <ele>132.80000305176</ele>
        <time>2024-04-07T10:29:32.000Z</time>
      </trkpt>
      <trkpt lat="48.38761" lon="2.41258">
        <ele>132.60000610352</ele>
        <time>2024-04-07T10:29:33.000Z</time>
      </trkpt>
      <trkpt lat="48.38758" lon="2.41235">
        <ele>132.39999389648</ele>
        <time>2024-04-07T10:29:36.000Z</time>
      </trkpt>
      <trkpt lat="48.38756" lon="2.41228">
        <ele>132.39999389648</ele>
        <time>2024-04-07T10:29:37.000Z</time>
      </trkpt>
      <trkpt lat="48.38746" lon="2.41184">
        <ele>132.19999694824</ele>
        <time>2024-04-07T10:29:43.000Z</time>
      </trkpt>
      <trkpt lat="48.38739" lon="2.41136">
        <ele>132.19999694824</ele>
        <time>2024-04-07T10:29:50.000Z</time>
      </trkpt>
      <trkpt lat="48.38736" lon="2.4111">
        <ele>132.19999694824</ele>
        <time>2024-04-07T10:29:54.000Z</time>
      </trkpt>
      <trkpt lat="48.38735" lon="2.41104">
        <ele>132.19999694824</ele>
        <time>2024-04-07T10:29:55.000Z</time>
      </trkpt>
      <trkpt lat="48.38729" lon="2.41072">
        <ele>132.60000610352</ele>
        <time>2024-04-07T10:30:00.000Z</time>
      </trkpt>
      <trkpt lat="48.38726" lon="2.41059">
        <ele>132.60000610352</ele>
        <time>2024-04-07T10:30:02.000Z</time>
      </trkpt>
      <trkpt lat="48.38718" lon="2.41003">
        <ele>132.39999389648</ele>
        <time>2024-04-07T10:30:10.000Z</time>
      </trkpt>
      <trkpt lat="48.38713" lon="2.40962">
        <ele>132.19999694824</ele>
        <time>2024-04-07T10:30:16.000Z</time>
      </trkpt>
      <trkpt lat="48.38704" lon="2.40902">
        <ele>132</ele>
        <time>2024-04-07T10:30:25.000Z</time>
      </trkpt>
      <trkpt lat="48.38692" lon="2.40827">
        <ele>131.60000610352</ele>
        <time>2024-04-07T10:30:36.000Z</time>
      </trkpt>
      <trkpt lat="48.38691" lon="2.4082">
        <ele>131.60000610352</ele>
        <time>2024-04-07T10:30:37.000Z</time>
      </trkpt>
      <trkpt lat="48.3869" lon="2.40813">
        <ele>131.60000610352</ele>
        <time>2024-04-07T10:30:38.000Z</time>
      </trkpt>
      <trkpt lat="48.38691" lon="2.40797">
        <ele>131.60000610352</ele>
        <time>2024-04-07T10:30:41.000Z</time>
      </trkpt>
      <trkpt lat="48.38699" lon="2.40794">
        <ele>131.80000305176</ele>
        <time>2024-04-07T10:30:44.000Z</time>
      </trkpt>
      <trkpt lat="48.38702" lon="2.40794">
        <ele>131.80000305176</ele>
        <time>2024-04-07T10:30:45.000Z</time>
      </trkpt>
      <trkpt lat="48.38726" lon="2.40795">
        <ele>132.60000610352</ele>
        <time>2024-04-07T10:30:52.000Z</time>
      </trkpt>
      <trkpt lat="48.38733" lon="2.40794">
        <ele>132.80000305176</ele>
        <time>2024-04-07T10:30:54.000Z</time>
      </trkpt>
      <trkpt lat="48.38754" lon="2.40792">
        <ele>133</ele>
        <time>2024-04-07T10:30:59.000Z</time>
      </trkpt>
      <trkpt lat="48.38794" lon="2.40786">
        <ele>133.19999694824</ele>
        <time>2024-04-07T10:31:08.000Z</time>
      </trkpt>
      <trkpt lat="48.38823" lon="2.40785">
        <ele>133.19999694824</ele>
        <time>2024-04-07T10:31:14.000Z</time>
      </trkpt>
      <trkpt lat="48.38832" lon="2.40784">
        <ele>133.19999694824</ele>
        <time>2024-04-07T10:31:16.000Z</time>
      </trkpt>
      <trkpt lat="48.38872" lon="2.4078">
        <ele>132.60000610352</ele>
        <time>2024-04-07T10:31:24.000Z</time>
      </trkpt>
      <trkpt lat="48.38916" lon="2.40776">
        <ele>132.39999389648</ele>
        <time>2024-04-07T10:31:33.000Z</time>
      </trkpt>
      <trkpt lat="48.38925" lon="2.40774">
        <ele>132.39999389648</ele>
        <time>2024-04-07T10:31:35.000Z</time>
      </trkpt>
      <trkpt lat="48.38937" lon="2.40769">
        <ele>132.39999389648</ele>
        <time>2024-04-07T10:31:38.000Z</time>
      </trkpt>
      <trkpt lat="48.38948" lon="2.40769">
        <ele>132.39999389648</ele>
        <time>2024-04-07T10:31:42.000Z</time>
      </trkpt>
      <trkpt lat="48.38951" lon="2.4077">
        <ele>132.39999389648</ele>
        <time>2024-04-07T10:31:44.000Z</time>
      </trkpt>
      <trkpt lat="48.38954" lon="2.40773">
        <ele>132.39999389648</ele>
        <time>2024-04-07T10:31:46.000Z</time>
      </trkpt>
      <trkpt lat="48.38961" lon="2.40769">
        <ele>132.19999694824</ele>
        <time>2024-04-07T10:31:49.000Z</time>
      </trkpt>
      <trkpt lat="48.38964" lon="2.40768">
        <ele>132.19999694824</ele>
        <time>2024-04-07T10:31:50.000Z</time>
      </trkpt>
      <trkpt lat="48.38978" lon="2.40764">
        <ele>132</ele>
        <time>2024-04-07T10:31:56.000Z</time>
      </trkpt>
      <trkpt lat="48.38986" lon="2.40761">
        <ele>131.80000305176</ele>
        <time>2024-04-07T10:31:59.000Z</time>
      </trkpt>
      <trkpt lat="48.38995" lon="2.40757">
        <ele>131.39999389648</ele>
        <time>2024-04-07T10:32:02.000Z</time>
      </trkpt>
      <trkpt lat="48.39007" lon="2.40753">
        <ele>130.80000305176</ele>
        <time>2024-04-07T10:32:07.000Z</time>
      </trkpt>
      <trkpt lat="48.3901" lon="2.40752">
        <ele>130.80000305176</ele>
        <time>2024-04-07T10:32:08.000Z</time>
      </trkpt>
      <trkpt lat="48.39013" lon="2.40752">
        <ele>130.60000610352</ele>
        <time>2024-04-07T10:32:09.000Z</time>
      </trkpt>
      <trkpt lat="48.3902" lon="2.40754">
        <ele>130.39999389648</ele>
        <time>2024-04-07T10:32:12.000Z</time>
      </trkpt>
      <trkpt lat="48.39027" lon="2.40751">
        <ele>130.19999694824</ele>
        <time>2024-04-07T10:32:15.000Z</time>
      </trkpt>
      <trkpt lat="48.3903" lon="2.40749">
        <ele>130.19999694824</ele>
        <time>2024-04-07T10:32:16.000Z</time>
      </trkpt>
      <trkpt lat="48.39046" lon="2.40742">
        <ele>130</ele>
        <time>2024-04-07T10:32:21.000Z</time>
      </trkpt>
      <trkpt lat="48.3906" lon="2.4074">
        <ele>129.39999389648</ele>
        <time>2024-04-07T10:32:24.000Z</time>
      </trkpt>
      <trkpt lat="48.39067" lon="2.40742">
        <ele>129</ele>
        <time>2024-04-07T10:32:26.000Z</time>
      </trkpt>
      <trkpt lat="48.39078" lon="2.40744">
        <ele>128.19999694824</ele>
        <time>2024-04-07T10:32:29.000Z</time>
      </trkpt>
      <trkpt lat="48.39085" lon="2.40748">
        <ele>127.80000305176</ele>
        <time>2024-04-07T10:32:31.000Z</time>
      </trkpt>
      <trkpt lat="48.39089" lon="2.40749">
        <ele>127.80000305176</ele>
        <time>2024-04-07T10:32:32.000Z</time>
      </trkpt>
      <trkpt lat="48.39097" lon="2.40742">
        <ele>127.59999847412</ele>
        <time>2024-04-07T10:32:34.000Z</time>
      </trkpt>
      <trkpt lat="48.39106" lon="2.40732">
        <ele>127</ele>
        <time>2024-04-07T10:32:36.000Z</time>
      </trkpt>
      <trkpt lat="48.39122" lon="2.4071">
        <ele>126.40000152588</ele>
        <time>2024-04-07T10:32:40.000Z</time>
      </trkpt>
      <trkpt lat="48.3913" lon="2.407">
        <ele>125.80000305176</ele>
        <time>2024-04-07T10:32:42.000Z</time>
      </trkpt>
      <trkpt lat="48.39137" lon="2.40691">
        <ele>125.19999694824</ele>
        <time>2024-04-07T10:32:44.000Z</time>
      </trkpt>
      <trkpt lat="48.39146" lon="2.40679">
        <ele>124.19999694824</ele>
        <time>2024-04-07T10:32:46.000Z</time>
      </trkpt>
      <trkpt lat="48.3915" lon="2.40675">
        <ele>123.80000305176</ele>
        <time>2024-04-07T10:32:47.000Z</time>
      </trkpt>
      <trkpt lat="48.39158" lon="2.40664">
        <ele>123.19999694824</ele>
        <time>2024-04-07T10:32:49.000Z</time>
      </trkpt>
      <trkpt lat="48.39177" lon="2.40634">
        <ele>122.40000152588</ele>
        <time>2024-04-07T10:32:54.000Z</time>
      </trkpt>
      <trkpt lat="48.39184" lon="2.40619">
        <ele>122</ele>
        <time>2024-04-07T10:32:56.000Z</time>
      </trkpt>
      <trkpt lat="48.39199" lon="2.40593">
        <ele>121.80000305176</ele>
        <time>2024-04-07T10:33:00.000Z</time>
      </trkpt>
      <trkpt lat="48.39217" lon="2.40558">
        <ele>121.59999847412</ele>
        <time>2024-04-07T10:33:05.000Z</time>
      </trkpt>
      <trkpt lat="48.39219" lon="2.40551">
        <ele>121.59999847412</ele>
        <time>2024-04-07T10:33:06.000Z</time>
      </trkpt>
      <trkpt lat="48.39226" lon="2.40522">
        <ele>121.59999847412</ele>
        <time>2024-04-07T10:33:10.000Z</time>
      </trkpt>
      <trkpt lat="48.39227" lon="2.40514">
        <ele>121.59999847412</ele>
        <time>2024-04-07T10:33:11.000Z</time>
      </trkpt>
      <trkpt lat="48.39237" lon="2.40471">
        <ele>121.40000152588</ele>
        <time>2024-04-07T10:33:16.000Z</time>
      </trkpt>
      <trkpt lat="48.39243" lon="2.40427">
        <ele>121.19999694824</ele>
        <time>2024-04-07T10:33:20.000Z</time>
      </trkpt>
      <trkpt lat="48.39243" lon="2.40415">
        <ele>120.19999694824</ele>
        <time>2024-04-07T10:33:21.000Z</time>
      </trkpt>
      <trkpt lat="48.39242" lon="2.40391">
        <ele>119</ele>
        <time>2024-04-07T10:33:23.000Z</time>
      </trkpt>
      <trkpt lat="48.39239" lon="2.40373">
        <ele>117.40000152588</ele>
        <time>2024-04-07T10:33:25.000Z</time>
      </trkpt>
      <trkpt lat="48.39233" lon="2.40364">
        <ele>116.19999694824</ele>
        <time>2024-04-07T10:33:27.000Z</time>
      </trkpt>
      <trkpt lat="48.3923" lon="2.4036">
        <ele>116</ele>
        <time>2024-04-07T10:33:28.000Z</time>
      </trkpt>
      <trkpt lat="48.39225" lon="2.40346">
        <ele>115.80000305176</ele>
        <time>2024-04-07T10:33:31.000Z</time>
      </trkpt>
      <trkpt lat="48.39222" lon="2.40337">
        <ele>115.80000305176</ele>
        <time>2024-04-07T10:33:33.000Z</time>
      </trkpt>
      <trkpt lat="48.39215" lon="2.40315">
        <ele>116.59999847412</ele>
        <time>2024-04-07T10:33:38.000Z</time>
      </trkpt>
      <trkpt lat="48.39209" lon="2.40293">
        <ele>116.80000305176</ele>
        <time>2024-04-07T10:33:43.000Z</time>
      </trkpt>
      <trkpt lat="48.39207" lon="2.40288">
        <ele>116.80000305176</ele>
        <time>2024-04-07T10:33:44.000Z</time>
      </trkpt>
      <trkpt lat="48.39203" lon="2.40265">
        <ele>117</ele>
        <time>2024-04-07T10:33:49.000Z</time>
      </trkpt>
      <trkpt lat="48.39201" lon="2.40256">
        <ele>117.40000152588</ele>
        <time>2024-04-07T10:33:51.000Z</time>
      </trkpt>
      <trkpt lat="48.39196" lon="2.40235">
        <ele>117.59999847412</ele>
        <time>2024-04-07T10:33:56.000Z</time>
      </trkpt>
      <trkpt lat="48.39191" lon="2.40213">
        <ele>117.59999847412</ele>
        <time>2024-04-07T10:34:01.000Z</time>
      </trkpt>
      <trkpt lat="48.39184" lon="2.40185">
        <ele>117.40000152588</ele>
        <time>2024-04-07T10:34:07.000Z</time>
      </trkpt>
      <trkpt lat="48.39175" lon="2.40166">
        <ele>117.40000152588</ele>
        <time>2024-04-07T10:34:12.000Z</time>
      </trkpt>
      <trkpt lat="48.39166" lon="2.40149">
        <ele>117.40000152588</ele>
        <time>2024-04-07T10:34:18.000Z</time>
      </trkpt>
      <trkpt lat="48.39157" lon="2.4013">
        <ele>117.40000152588</ele>
        <time>2024-04-07T10:34:22.000Z</time>
      </trkpt>
      <trkpt lat="48.39148" lon="2.40112">
        <ele>117</ele>
        <time>2024-04-07T10:34:26.000Z</time>
      </trkpt>
      <trkpt lat="48.39145" lon="2.40105">
        <ele>116.59999847412</ele>
        <time>2024-04-07T10:34:28.000Z</time>
      </trkpt>
      <trkpt lat="48.39145" lon="2.40102">
        <ele>116.40000152588</ele>
        <time>2024-04-07T10:34:29.000Z</time>
      </trkpt>
      <trkpt lat="48.39145" lon="2.40097">
        <ele>116.19999694824</ele>
        <time>2024-04-07T10:34:30.000Z</time>
      </trkpt>
      <trkpt lat="48.39146" lon="2.40071">
        <ele>115.40000152588</ele>
        <time>2024-04-07T10:34:34.000Z</time>
      </trkpt>
      <trkpt lat="48.39146" lon="2.40066">
        <ele>115.40000152588</ele>
        <time>2024-04-07T10:34:35.000Z</time>
      </trkpt>
      <trkpt lat="48.39144" lon="2.40052">
        <ele>115.19999694824</ele>
        <time>2024-04-07T10:34:39.000Z</time>
      </trkpt>
      <trkpt lat="48.39144" lon="2.4003">
        <ele>115.40000152588</ele>
        <time>2024-04-07T10:34:44.000Z</time>
      </trkpt>
      <trkpt lat="48.39142" lon="2.40006">
        <ele>114</ele>
        <time>2024-04-07T10:34:48.000Z</time>
      </trkpt>
      <trkpt lat="48.39142" lon="2.39998">
        <ele>114</ele>
        <time>2024-04-07T10:34:50.000Z</time>
      </trkpt>
      <trkpt lat="48.39143" lon="2.39988">
        <ele>114.19999694824</ele>
        <time>2024-04-07T10:34:55.000Z</time>
      </trkpt>
      <trkpt lat="48.39143" lon="2.39978">
        <ele>114.19999694824</ele>
        <time>2024-04-07T10:34:59.000Z</time>
      </trkpt>
      <trkpt lat="48.39143" lon="2.3997">
        <ele>114</ele>
        <time>2024-04-07T10:35:02.000Z</time>
      </trkpt>
      <trkpt lat="48.39141" lon="2.39955">
        <ele>114</ele>
        <time>2024-04-07T10:35:05.000Z</time>
      </trkpt>
      <trkpt lat="48.39141" lon="2.3995">
        <ele>114</ele>
        <time>2024-04-07T10:35:06.000Z</time>
      </trkpt>
      <trkpt lat="48.39141" lon="2.39938">
        <ele>114</ele>
        <time>2024-04-07T10:35:08.000Z</time>
      </trkpt>
      <trkpt lat="48.39137" lon="2.39919">
        <ele>112.19999694824</ele>
        <time>2024-04-07T10:35:12.000Z</time>
      </trkpt>
      <trkpt lat="48.3913" lon="2.39897">
        <ele>110.40000152588</ele>
        <time>2024-04-07T10:35:16.000Z</time>
      </trkpt>
      <trkpt lat="48.3913" lon="2.39894">
        <ele>108.40000152588</ele>
        <time>2024-04-07T10:35:17.000Z</time>
      </trkpt>
      <trkpt lat="48.3913" lon="2.39874">
        <ele>107.40000152588</ele>
        <time>2024-04-07T10:35:21.000Z</time>
      </trkpt>
      <trkpt lat="48.39129" lon="2.39869">
        <ele>107.19999694824</ele>
        <time>2024-04-07T10:35:22.000Z</time>
      </trkpt>
      <trkpt lat="48.39124" lon="2.39855">
        <ele>106.80000305176</ele>
        <time>2024-04-07T10:35:26.000Z</time>
      </trkpt>
      <trkpt lat="48.39119" lon="2.39837">
        <ele>106.80000305176</ele>
        <time>2024-04-07T10:35:30.000Z</time>
      </trkpt>
      <trkpt lat="48.39118" lon="2.39831">
        <ele>106.80000305176</ele>
        <time>2024-04-07T10:35:31.000Z</time>
      </trkpt>
      <trkpt lat="48.39114" lon="2.39808">
        <ele>107</ele>
        <time>2024-04-07T10:35:36.000Z</time>
      </trkpt>
      <trkpt lat="48.39118" lon="2.39788">
        <ele>107</ele>
        <time>2024-04-07T10:35:40.000Z</time>
      </trkpt>
      <trkpt lat="48.39121" lon="2.39772">
        <ele>107.40000152588</ele>
        <time>2024-04-07T10:35:45.000Z</time>
      </trkpt>
      <trkpt lat="48.39124" lon="2.3976">
        <ele>107.40000152588</ele>
        <time>2024-04-07T10:35:49.000Z</time>
      </trkpt>
      <trkpt lat="48.39125" lon="2.39752">
        <ele>108.19999694824</ele>
        <time>2024-04-07T10:35:52.000Z</time>
      </trkpt>
      <trkpt lat="48.39125" lon="2.39751">
        <ele>108.80000305176</ele>
        <time>2024-04-07T10:35:53.000Z</time>
      </trkpt>
      <trkpt lat="48.39126" lon="2.39747">
        <ele>110</ele>
        <time>2024-04-07T10:35:57.000Z</time>
      </trkpt>
      <trkpt lat="48.39127" lon="2.39743">
        <ele>111</ele>
        <time>2024-04-07T10:36:00.000Z</time>
      </trkpt>
      <trkpt lat="48.39127" lon="2.3974">
        <ele>111.40000152588</ele>
        <time>2024-04-07T10:36:01.000Z</time>
      </trkpt>
      <trkpt lat="48.3913" lon="2.39725">
        <ele>112</ele>
        <time>2024-04-07T10:36:12.000Z</time>
      </trkpt>
      <trkpt lat="48.3913" lon="2.39725">
        <ele>112.19999694824</ele>
        <time>2024-04-07T10:36:14.000Z</time>
      </trkpt>
      <trkpt lat="48.39128" lon="2.39722">
        <ele>112.59999847412</ele>
        <time>2024-04-07T10:36:22.000Z</time>
      </trkpt>
      <trkpt lat="48.39121" lon="2.39714">
        <ele>113.19999694824</ele>
        <time>2024-04-07T10:36:33.000Z</time>
      </trkpt>
      <trkpt lat="48.3912" lon="2.3971">
        <ele>114.40000152588</ele>
        <time>2024-04-07T10:36:36.000Z</time>
      </trkpt>
      <trkpt lat="48.3912" lon="2.39707">
        <ele>115.59999847412</ele>
        <time>2024-04-07T10:36:40.000Z</time>
      </trkpt>
      <trkpt lat="48.39118" lon="2.39705">
        <ele>116.19999694824</ele>
        <time>2024-04-07T10:36:43.000Z</time>
      </trkpt>
      <trkpt lat="48.39118" lon="2.39704">
        <ele>116.59999847412</ele>
        <time>2024-04-07T10:36:44.000Z</time>
      </trkpt>
      <trkpt lat="48.39115" lon="2.397">
        <ele>117.80000305176</ele>
        <time>2024-04-07T10:36:50.000Z</time>
      </trkpt>
      <trkpt lat="48.39114" lon="2.39696">
        <ele>119</ele>
        <time>2024-04-07T10:36:55.000Z</time>
      </trkpt>
      <trkpt lat="48.39114" lon="2.39695">
        <ele>119.19999694824</ele>
        <time>2024-04-07T10:36:56.000Z</time>
      </trkpt>
      <trkpt lat="48.39113" lon="2.39689">
        <ele>119.80000305176</ele>
        <time>2024-04-07T10:36:59.000Z</time>
      </trkpt>
      <trkpt lat="48.39113" lon="2.3968">
        <ele>119.80000305176</ele>
        <time>2024-04-07T10:37:02.000Z</time>
      </trkpt>
      <trkpt lat="48.39112" lon="2.39666">
        <ele>119.59999847412</ele>
        <time>2024-04-07T10:37:08.000Z</time>
      </trkpt>
      <trkpt lat="48.39114" lon="2.39645">
        <ele>119.19999694824</ele>
        <time>2024-04-07T10:37:12.000Z</time>
      </trkpt>
      <trkpt lat="48.39112" lon="2.39626">
        <ele>118.19999694824</ele>
        <time>2024-04-07T10:37:17.000Z</time>
      </trkpt>
      <trkpt lat="48.39112" lon="2.39619">
        <ele>117</ele>
        <time>2024-04-07T10:37:19.000Z</time>
      </trkpt>
      <trkpt lat="48.39112" lon="2.39608">
        <ele>116.59999847412</ele>
        <time>2024-04-07T10:37:22.000Z</time>
      </trkpt>
      <trkpt lat="48.3911" lon="2.39604">
        <ele>116.59999847412</ele>
        <time>2024-04-07T10:37:24.000Z</time>
      </trkpt>
      <trkpt lat="48.3911" lon="2.39599">
        <ele>116.40000152588</ele>
        <time>2024-04-07T10:37:28.000Z</time>
      </trkpt>
      <trkpt lat="48.39109" lon="2.39591">
        <ele>116</ele>
        <time>2024-04-07T10:37:37.000Z</time>
      </trkpt>
      <trkpt lat="48.39107" lon="2.39588">
        <ele>116</ele>
        <time>2024-04-07T10:37:39.000Z</time>
      </trkpt>
      <trkpt lat="48.39105" lon="2.39583">
        <ele>115.80000305176</ele>
        <time>2024-04-07T10:37:42.000Z</time>
      </trkpt>
      <trkpt lat="48.39097" lon="2.39579">
        <ele>115.80000305176</ele>
        <time>2024-04-07T10:37:47.000Z</time>
      </trkpt>
      <trkpt lat="48.39094" lon="2.39574">
        <ele>115.19999694824</ele>
        <time>2024-04-07T10:37:50.000Z</time>
      </trkpt>
      <trkpt lat="48.39094" lon="2.39573">
        <ele>115.19999694824</ele>
        <time>2024-04-07T10:37:51.000Z</time>
      </trkpt>
      <trkpt lat="48.3909" lon="2.39559">
        <ele>115</ele>
        <time>2024-04-07T10:38:01.000Z</time>
      </trkpt>
      <trkpt lat="48.39079" lon="2.39548">
        <ele>115</ele>
        <time>2024-04-07T10:38:06.000Z</time>
      </trkpt>
      <trkpt lat="48.39071" lon="2.39544">
        <ele>114</ele>
        <time>2024-04-07T10:38:09.000Z</time>
      </trkpt>
      <trkpt lat="48.39068" lon="2.39543">
        <ele>113.80000305176</ele>
        <time>2024-04-07T10:38:10.000Z</time>
      </trkpt>
      <trkpt lat="48.39065" lon="2.39541">
        <ele>112.80000305176</ele>
        <time>2024-04-07T10:38:11.000Z</time>
      </trkpt>
      <trkpt lat="48.39062" lon="2.39539">
        <ele>111.80000305176</ele>
        <time>2024-04-07T10:38:12.000Z</time>
      </trkpt>
      <trkpt lat="48.39059" lon="2.39537">
        <ele>110.59999847412</ele>
        <time>2024-04-07T10:38:13.000Z</time>
      </trkpt>
      <trkpt lat="48.39051" lon="2.39532">
        <ele>109</ele>
        <time>2024-04-07T10:38:15.000Z</time>
      </trkpt>
      <trkpt lat="48.39048" lon="2.39529">
        <ele>108.59999847412</ele>
        <time>2024-04-07T10:38:16.000Z</time>
      </trkpt>
      <trkpt lat="48.39047" lon="2.39525">
        <ele>108.19999694824</ele>
        <time>2024-04-07T10:38:17.000Z</time>
      </trkpt>
      <trkpt lat="48.39045" lon="2.39519">
        <ele>106.40000152588</ele>
        <time>2024-04-07T10:38:19.000Z</time>
      </trkpt>
      <trkpt lat="48.39044" lon="2.39519">
        <ele>105.19999694824</ele>
        <time>2024-04-07T10:38:20.000Z</time>
      </trkpt>
      <trkpt lat="48.39042" lon="2.39519">
        <ele>103.80000305176</ele>
        <time>2024-04-07T10:38:21.000Z</time>
      </trkpt>
      <trkpt lat="48.39041" lon="2.39519">
        <ele>102.40000152588</ele>
        <time>2024-04-07T10:38:22.000Z</time>
      </trkpt>
      <trkpt lat="48.39039" lon="2.39519">
        <ele>101</ele>
        <time>2024-04-07T10:38:23.000Z</time>
      </trkpt>
      <trkpt lat="48.39039" lon="2.3952">
        <ele>99.800003051758</ele>
        <time>2024-04-07T10:38:24.000Z</time>
      </trkpt>
      <trkpt lat="48.39039" lon="2.39521">
        <ele>98.599998474121</ele>
        <time>2024-04-07T10:38:25.000Z</time>
      </trkpt>
      <trkpt lat="48.39039" lon="2.39522">
        <ele>97.199996948242</ele>
        <time>2024-04-07T10:38:26.000Z</time>
      </trkpt>
      <trkpt lat="48.39039" lon="2.39522">
        <ele>95.599998474121</ele>
        <time>2024-04-07T10:38:28.000Z</time>
      </trkpt>
      <trkpt lat="48.39038" lon="2.39522">
        <ele>95.400001525879</ele>
        <time>2024-04-07T10:38:29.000Z</time>
      </trkpt>
      <trkpt lat="48.39038" lon="2.39517">
        <ele>95</ele>
        <time>2024-04-07T10:38:40.000Z</time>
      </trkpt>
      <trkpt lat="48.3904" lon="2.3951">
        <ele>95.199996948242</ele>
        <time>2024-04-07T10:38:45.000Z</time>
      </trkpt>
      <trkpt lat="48.39043" lon="2.39506">
        <ele>95.199996948242</ele>
        <time>2024-04-07T10:38:47.000Z</time>
      </trkpt>
      <trkpt lat="48.39051" lon="2.39502">
        <ele>95.199996948242</ele>
        <time>2024-04-07T10:38:49.000Z</time>
      </trkpt>
      <trkpt lat="48.39055" lon="2.39498">
        <ele>95</ele>
        <time>2024-04-07T10:38:50.000Z</time>
      </trkpt>
      <trkpt lat="48.39058" lon="2.39494">
        <ele>95</ele>
        <time>2024-04-07T10:38:51.000Z</time>
      </trkpt>
      <trkpt lat="48.3907" lon="2.3949">
        <ele>94.800003051758</ele>
        <time>2024-04-07T10:38:54.000Z</time>
      </trkpt>
      <trkpt lat="48.39074" lon="2.39489">
        <ele>94</ele>
        <time>2024-04-07T10:38:55.000Z</time>
      </trkpt>
      <trkpt lat="48.39076" lon="2.39489">
        <ele>93</ele>
        <time>2024-04-07T10:38:56.000Z</time>
      </trkpt>
      <trkpt lat="48.3908" lon="2.39489">
        <ele>91</ele>
        <time>2024-04-07T10:38:58.000Z</time>
      </trkpt>
      <trkpt lat="48.39084" lon="2.39489">
        <ele>89.599998474121</ele>
        <time>2024-04-07T10:38:59.000Z</time>
      </trkpt>
      <trkpt lat="48.39088" lon="2.39488">
        <ele>88.599998474121</ele>
        <time>2024-04-07T10:39:00.000Z</time>
      </trkpt>
      <trkpt lat="48.39092" lon="2.39485">
        <ele>87.800003051758</ele>
        <time>2024-04-07T10:39:01.000Z</time>
      </trkpt>
      <trkpt lat="48.39097" lon="2.39483">
        <ele>87.400001525879</ele>
        <time>2024-04-07T10:39:02.000Z</time>
      </trkpt>
      <trkpt lat="48.39102" lon="2.39479">
        <ele>87.199996948242</ele>
        <time>2024-04-07T10:39:03.000Z</time>
      </trkpt>
      <trkpt lat="48.39117" lon="2.39469">
        <ele>86.800003051758</ele>
        <time>2024-04-07T10:39:06.000Z</time>
      </trkpt>
      <trkpt lat="48.39125" lon="2.39467">
        <ele>86.400001525879</ele>
        <time>2024-04-07T10:39:08.000Z</time>
      </trkpt>
      <trkpt lat="48.39128" lon="2.39468">
        <ele>85.400001525879</ele>
        <time>2024-04-07T10:39:09.000Z</time>
      </trkpt>
      <trkpt lat="48.3913" lon="2.39468">
        <ele>84</ele>
        <time>2024-04-07T10:39:10.000Z</time>
      </trkpt>
      <trkpt lat="48.39132" lon="2.39469">
        <ele>82.599998474121</ele>
        <time>2024-04-07T10:39:11.000Z</time>
      </trkpt>
      <trkpt lat="48.39134" lon="2.39469">
        <ele>81</ele>
        <time>2024-04-07T10:39:12.000Z</time>
      </trkpt>
      <trkpt lat="48.39138" lon="2.3947">
        <ele>80</ele>
        <time>2024-04-07T10:39:14.000Z</time>
      </trkpt>
      <trkpt lat="48.39139" lon="2.39472">
        <ele>79.800003051758</ele>
        <time>2024-04-07T10:39:15.000Z</time>
      </trkpt>
      <trkpt lat="48.39145" lon="2.39481">
        <ele>79.599998474121</ele>
        <time>2024-04-07T10:39:21.000Z</time>
      </trkpt>
      <trkpt lat="48.39152" lon="2.39487">
        <ele>80.599998474121</ele>
        <time>2024-04-07T10:39:27.000Z</time>
      </trkpt>
      <trkpt lat="48.39156" lon="2.39489">
        <ele>81.199996948242</ele>
        <time>2024-04-07T10:39:29.000Z</time>
      </trkpt>
      <trkpt lat="48.3916" lon="2.39488">
        <ele>81.400001525879</ele>
        <time>2024-04-07T10:39:32.000Z</time>
      </trkpt>
      <trkpt lat="48.39162" lon="2.39487">
        <ele>81.400001525879</ele>
        <time>2024-04-07T10:39:33.000Z</time>
      </trkpt>
      <trkpt lat="48.39167" lon="2.39474">
        <ele>81.400001525879</ele>
        <time>2024-04-07T10:39:40.000Z</time>
      </trkpt>
      <trkpt lat="48.39166" lon="2.3947">
        <ele>80.599998474121</ele>
        <time>2024-04-07T10:39:44.000Z</time>
      </trkpt>
      <trkpt lat="48.39166" lon="2.39466">
        <ele>80</ele>
        <time>2024-04-07T10:39:46.000Z</time>
      </trkpt>
      <trkpt lat="48.39166" lon="2.39463">
        <ele>79.800003051758</ele>
        <time>2024-04-07T10:39:47.000Z</time>
      </trkpt>
      <trkpt lat="48.39164" lon="2.39444">
        <ele>79.599998474121</ele>
        <time>2024-04-07T10:39:51.000Z</time>
      </trkpt>
      <trkpt lat="48.39163" lon="2.39435">
        <ele>79.599998474121</ele>
        <time>2024-04-07T10:39:52.000Z</time>
      </trkpt>
      <trkpt lat="48.39156" lon="2.3941">
        <ele>79.400001525879</ele>
        <time>2024-04-07T10:39:55.000Z</time>
      </trkpt>
      <trkpt lat="48.39152" lon="2.39396">
        <ele>79</ele>
        <time>2024-04-07T10:39:57.000Z</time>
      </trkpt>
      <trkpt lat="48.39151" lon="2.39388">
        <ele>78.599998474121</ele>
        <time>2024-04-07T10:39:58.000Z</time>
      </trkpt>
      <trkpt lat="48.3915" lon="2.39379">
        <ele>77.400001525879</ele>
        <time>2024-04-07T10:39:59.000Z</time>
      </trkpt>
      <trkpt lat="48.3915" lon="2.39371">
        <ele>76</ele>
        <time>2024-04-07T10:40:00.000Z</time>
      </trkpt>
      <trkpt lat="48.39147" lon="2.39352">
        <ele>74.800003051758</ele>
        <time>2024-04-07T10:40:02.000Z</time>
      </trkpt>
      <trkpt lat="48.39143" lon="2.39344">
        <ele>74.599998474121</ele>
        <time>2024-04-07T10:40:03.000Z</time>
      </trkpt>
      <trkpt lat="48.39138" lon="2.39335">
        <ele>74.199996948242</ele>
        <time>2024-04-07T10:40:04.000Z</time>
      </trkpt>
      <trkpt lat="48.39131" lon="2.39317">
        <ele>73.800003051758</ele>
        <time>2024-04-07T10:40:06.000Z</time>
      </trkpt>
      <trkpt lat="48.3913" lon="2.39309">
        <ele>73.400001525879</ele>
        <time>2024-04-07T10:40:07.000Z</time>
      </trkpt>
      <trkpt lat="48.39132" lon="2.39292">
        <ele>71.800003051758</ele>
        <time>2024-04-07T10:40:10.000Z</time>
      </trkpt>
      <trkpt lat="48.39133" lon="2.39288">
        <ele>70.800003051758</ele>
        <time>2024-04-07T10:40:11.000Z</time>
      </trkpt>
      <trkpt lat="48.39141" lon="2.39283">
        <ele>69.800003051758</ele>
        <time>2024-04-07T10:40:15.000Z</time>
      </trkpt>
      <trkpt lat="48.39143" lon="2.39282">
        <ele>69.800003051758</ele>
        <time>2024-04-07T10:40:16.000Z</time>
      </trkpt>
      <trkpt lat="48.39157" lon="2.39281">
        <ele>69.599998474121</ele>
        <time>2024-04-07T10:40:21.000Z</time>
      </trkpt>
      <trkpt lat="48.39163" lon="2.3928">
        <ele>69.599998474121</ele>
        <time>2024-04-07T10:40:24.000Z</time>
      </trkpt>
      <trkpt lat="48.39166" lon="2.39282">
        <ele>69.599998474121</ele>
        <time>2024-04-07T10:40:26.000Z</time>
      </trkpt>
      <trkpt lat="48.39168" lon="2.39284">
        <ele>69.599998474121</ele>
        <time>2024-04-07T10:40:27.000Z</time>
      </trkpt>
      <trkpt lat="48.39177" lon="2.39295">
        <ele>69.800003051758</ele>
        <time>2024-04-07T10:40:32.000Z</time>
      </trkpt>
      <trkpt lat="48.39179" lon="2.393">
        <ele>69.599998474121</ele>
        <time>2024-04-07T10:40:34.000Z</time>
      </trkpt>
      <trkpt lat="48.3919" lon="2.39328">
        <ele>69.599998474121</ele>
        <time>2024-04-07T10:40:41.000Z</time>
      </trkpt>
      <trkpt lat="48.392" lon="2.39353">
        <ele>69.199996948242</ele>
        <time>2024-04-07T10:40:46.000Z</time>
      </trkpt>
      <trkpt lat="48.39203" lon="2.39363">
        <ele>69</ele>
        <time>2024-04-07T10:40:48.000Z</time>
      </trkpt>
      <trkpt lat="48.39208" lon="2.39379">
        <ele>69</ele>
        <time>2024-04-07T10:40:51.000Z</time>
      </trkpt>
      <trkpt lat="48.39215" lon="2.39395">
        <ele>68.800003051758</ele>
        <time>2024-04-07T10:40:54.000Z</time>
      </trkpt>
      <trkpt lat="48.39217" lon="2.394">
        <ele>68.800003051758</ele>
        <time>2024-04-07T10:40:55.000Z</time>
      </trkpt>
      <trkpt lat="48.39226" lon="2.39421">
        <ele>68.800003051758</ele>
        <time>2024-04-07T10:40:59.000Z</time>
      </trkpt>
      <trkpt lat="48.39228" lon="2.39426">
        <ele>68.800003051758</ele>
        <time>2024-04-07T10:41:00.000Z</time>
      </trkpt>
      <trkpt lat="48.39241" lon="2.39457">
        <ele>68.800003051758</ele>
        <time>2024-04-07T10:41:06.000Z</time>
      </trkpt>
      <trkpt lat="48.39243" lon="2.39463">
        <ele>68.800003051758</ele>
        <time>2024-04-07T10:41:07.000Z</time>
      </trkpt>
      <trkpt lat="48.39259" lon="2.39494">
        <ele>69</ele>
        <time>2024-04-07T10:41:13.000Z</time>
      </trkpt>
      <trkpt lat="48.39279" lon="2.39522">
        <ele>69.199996948242</ele>
        <time>2024-04-07T10:41:20.000Z</time>
      </trkpt>
      <trkpt lat="48.39294" lon="2.39521">
        <ele>69.800003051758</ele>
        <time>2024-04-07T10:41:24.000Z</time>
      </trkpt>
      <trkpt lat="48.39299" lon="2.39512">
        <ele>70</ele>
        <time>2024-04-07T10:41:27.000Z</time>
      </trkpt>
      <trkpt lat="48.39299" lon="2.39507">
        <ele>70</ele>
        <time>2024-04-07T10:41:28.000Z</time>
      </trkpt>
      <trkpt lat="48.3929" lon="2.39473">
        <ele>69.800003051758</ele>
        <time>2024-04-07T10:41:34.000Z</time>
      </trkpt>
      <trkpt lat="48.39276" lon="2.39424">
        <ele>69</ele>
        <time>2024-04-07T10:41:42.000Z</time>
      </trkpt>
      <trkpt lat="48.39268" lon="2.39393">
        <ele>69</ele>
        <time>2024-04-07T10:41:47.000Z</time>
      </trkpt>
      <trkpt lat="48.39264" lon="2.3938">
        <ele>69</ele>
        <time>2024-04-07T10:41:49.000Z</time>
      </trkpt>
      <trkpt lat="48.39257" lon="2.39352">
        <ele>69</ele>
        <time>2024-04-07T10:41:53.000Z</time>
      </trkpt>
      <trkpt lat="48.39254" lon="2.39335">
        <ele>68.800003051758</ele>
        <time>2024-04-07T10:41:55.000Z</time>
      </trkpt>
      <trkpt lat="48.39253" lon="2.39326">
        <ele>68.800003051758</ele>
        <time>2024-04-07T10:41:56.000Z</time>
      </trkpt>
      <trkpt lat="48.39252" lon="2.39317">
        <ele>68.800003051758</ele>
        <time>2024-04-07T10:41:57.000Z</time>
      </trkpt>
      <trkpt lat="48.39249" lon="2.39285">
        <ele>68.599998474121</ele>
        <time>2024-04-07T10:42:01.000Z</time>
      </trkpt>
      <trkpt lat="48.39245" lon="2.39254">
        <ele>68</ele>
        <time>2024-04-07T10:42:05.000Z</time>
      </trkpt>
      <trkpt lat="48.39244" lon="2.39239">
        <ele>68</ele>
        <time>2024-04-07T10:42:07.000Z</time>
      </trkpt>
      <trkpt lat="48.39244" lon="2.39215">
        <ele>68</ele>
        <time>2024-04-07T10:42:10.000Z</time>
      </trkpt>
      <trkpt lat="48.39245" lon="2.39207">
        <ele>67.800003051758</ele>
        <time>2024-04-07T10:42:11.000Z</time>
      </trkpt>
      <trkpt lat="48.39248" lon="2.3919">
        <ele>67.800003051758</ele>
        <time>2024-04-07T10:42:13.000Z</time>
      </trkpt>
      <trkpt lat="48.39249" lon="2.39173">
        <ele>67.800003051758</ele>
        <time>2024-04-07T10:42:15.000Z</time>
      </trkpt>
      <trkpt lat="48.39253" lon="2.39131">
        <ele>67.599998474121</ele>
        <time>2024-04-07T10:42:20.000Z</time>
      </trkpt>
      <trkpt lat="48.3926" lon="2.391">
        <ele>67.400001525879</ele>
        <time>2024-04-07T10:42:24.000Z</time>
      </trkpt>
      <trkpt lat="48.39266" lon="2.39087">
        <ele>67.199996948242</ele>
        <time>2024-04-07T10:42:26.000Z</time>
      </trkpt>
      <trkpt lat="48.39268" lon="2.39065">
        <ele>67.199996948242</ele>
        <time>2024-04-07T10:42:29.000Z</time>
      </trkpt>
      <trkpt lat="48.39271" lon="2.39049">
        <ele>67</ele>
        <time>2024-04-07T10:42:31.000Z</time>
      </trkpt>
      <trkpt lat="48.39278" lon="2.39008">
        <ele>67</ele>
        <time>2024-04-07T10:42:36.000Z</time>
      </trkpt>
      <trkpt lat="48.39292" lon="2.38944">
        <ele>67</ele>
        <time>2024-04-07T10:42:44.000Z</time>
      </trkpt>
      <trkpt lat="48.39303" lon="2.38887">
        <ele>66.800003051758</ele>
        <time>2024-04-07T10:42:51.000Z</time>
      </trkpt>
      <trkpt lat="48.39305" lon="2.3888">
        <ele>66.800003051758</ele>
        <time>2024-04-07T10:42:52.000Z</time>
      </trkpt>
      <trkpt lat="48.39317" lon="2.38821">
        <ele>66.599998474121</ele>
        <time>2024-04-07T10:42:59.000Z</time>
      </trkpt>
      <trkpt lat="48.39327" lon="2.38762">
        <ele>66.599998474121</ele>
        <time>2024-04-07T10:43:06.000Z</time>
      </trkpt>
      <trkpt lat="48.3934" lon="2.38696">
        <ele>66.599998474121</ele>
        <time>2024-04-07T10:43:14.000Z</time>
      </trkpt>
      <trkpt lat="48.39356" lon="2.38641">
        <ele>66.400001525879</ele>
        <time>2024-04-07T10:43:21.000Z</time>
      </trkpt>
      <trkpt lat="48.39371" lon="2.38597">
        <ele>66.400001525879</ele>
        <time>2024-04-07T10:43:27.000Z</time>
      </trkpt>
      <trkpt lat="48.39392" lon="2.38539">
        <ele>66.599998474121</ele>
        <time>2024-04-07T10:43:35.000Z</time>
      </trkpt>
      <trkpt lat="48.39405" lon="2.38502">
        <ele>66.599998474121</ele>
        <time>2024-04-07T10:43:41.000Z</time>
      </trkpt>
      <trkpt lat="48.39421" lon="2.38463">
        <ele>66.800003051758</ele>
        <time>2024-04-07T10:43:47.000Z</time>
      </trkpt>
      <trkpt lat="48.39424" lon="2.38457">
        <ele>66.800003051758</ele>
        <time>2024-04-07T10:43:48.000Z</time>
      </trkpt>
      <trkpt lat="48.39429" lon="2.38434">
        <ele>67</ele>
        <time>2024-04-07T10:43:51.000Z</time>
      </trkpt>
      <trkpt lat="48.39432" lon="2.38378">
        <ele>66.800003051758</ele>
        <time>2024-04-07T10:43:58.000Z</time>
      </trkpt>
      <trkpt lat="48.39436" lon="2.3832">
        <ele>67.199996948242</ele>
        <time>2024-04-07T10:44:06.000Z</time>
      </trkpt>
      <trkpt lat="48.39437" lon="2.38306">
        <ele>67</ele>
        <time>2024-04-07T10:44:08.000Z</time>
      </trkpt>
      <trkpt lat="48.39435" lon="2.38282">
        <ele>67</ele>
        <time>2024-04-07T10:44:11.000Z</time>
      </trkpt>
      <trkpt lat="48.39431" lon="2.38207">
        <ele>66.800003051758</ele>
        <time>2024-04-07T10:44:21.000Z</time>
      </trkpt>
      <trkpt lat="48.39425" lon="2.38158">
        <ele>66.599998474121</ele>
        <time>2024-04-07T10:44:28.000Z</time>
      </trkpt>
      <trkpt lat="48.39418" lon="2.38111">
        <ele>66.599998474121</ele>
        <time>2024-04-07T10:44:35.000Z</time>
      </trkpt>
      <trkpt lat="48.39416" lon="2.38099">
        <ele>66.800003051758</ele>
        <time>2024-04-07T10:44:38.000Z</time>
      </trkpt>
      <trkpt lat="48.39416" lon="2.38096">
        <ele>67</ele>
        <time>2024-04-07T10:44:39.000Z</time>
      </trkpt>
      <trkpt lat="48.39414" lon="2.38091">
        <ele>67.199996948242</ele>
        <time>2024-04-07T10:44:41.000Z</time>
      </trkpt>
      <trkpt lat="48.39411" lon="2.38089">
        <ele>67.400001525879</ele>
        <time>2024-04-07T10:44:43.000Z</time>
      </trkpt>
      <trkpt lat="48.39408" lon="2.38092">
        <ele>67.800003051758</ele>
        <time>2024-04-07T10:44:45.000Z</time>
      </trkpt>
      <trkpt lat="48.39407" lon="2.38092">
        <ele>68</ele>
        <time>2024-04-07T10:44:46.000Z</time>
      </trkpt>
      <trkpt lat="48.39406" lon="2.3809">
        <ele>68.199996948242</ele>
        <time>2024-04-07T10:44:47.000Z</time>
      </trkpt>
      <trkpt lat="48.39403" lon="2.38075">
        <ele>68.400001525879</ele>
        <time>2024-04-07T10:44:51.000Z</time>
      </trkpt>
      <trkpt lat="48.39397" lon="2.38072">
        <ele>68.400001525879</ele>
        <time>2024-04-07T10:44:53.000Z</time>
      </trkpt>
      <trkpt lat="48.39389" lon="2.38067">
        <ele>68.599998474121</ele>
        <time>2024-04-07T10:44:56.000Z</time>
      </trkpt>
      <trkpt lat="48.39366" lon="2.38053">
        <ele>68.400001525879</ele>
        <time>2024-04-07T10:45:02.000Z</time>
      </trkpt>
      <trkpt lat="48.39352" lon="2.38041">
        <ele>68.400001525879</ele>
        <time>2024-04-07T10:45:06.000Z</time>
      </trkpt>
      <trkpt lat="48.39348" lon="2.38038">
        <ele>68.400001525879</ele>
        <time>2024-04-07T10:45:07.000Z</time>
      </trkpt>
      <trkpt lat="48.39321" lon="2.38015">
        <ele>68.599998474121</ele>
        <time>2024-04-07T10:45:14.000Z</time>
      </trkpt>
      <trkpt lat="48.39313" lon="2.38006">
        <ele>68.400001525879</ele>
        <time>2024-04-07T10:45:18.000Z</time>
      </trkpt>
      <trkpt lat="48.39311" lon="2.38005">
        <ele>69.199996948242</ele>
        <time>2024-04-07T10:45:25.000Z</time>
      </trkpt>
      <trkpt lat="48.39311" lon="2.38005">
        <ele>69.599998474121</ele>
        <time>2024-04-07T10:45:27.000Z</time>
      </trkpt>
      <trkpt lat="48.39309" lon="2.38002">
        <ele>69.800003051758</ele>
        <time>2024-04-07T10:45:30.000Z</time>
      </trkpt>
      <trkpt lat="48.3931" lon="2.37998">
        <ele>69.800003051758</ele>
        <time>2024-04-07T10:45:31.000Z</time>
      </trkpt>
      <trkpt lat="48.39311" lon="2.37982">
        <ele>69.800003051758</ele>
        <time>2024-04-07T10:45:34.000Z</time>
      </trkpt>
      <trkpt lat="48.39312" lon="2.37969">
        <ele>69.800003051758</ele>
        <time>2024-04-07T10:45:36.000Z</time>
      </trkpt>
      <trkpt lat="48.39317" lon="2.3792">
        <ele>69.400001525879</ele>
        <time>2024-04-07T10:45:43.000Z</time>
      </trkpt>
      <trkpt lat="48.39323" lon="2.37884">
        <ele>69.400001525879</ele>
        <time>2024-04-07T10:45:48.000Z</time>
      </trkpt>
      <trkpt lat="48.39326" lon="2.37872">
        <ele>69.400001525879</ele>
        <time>2024-04-07T10:45:50.000Z</time>
      </trkpt>
      <trkpt lat="48.39323" lon="2.37857">
        <ele>69.400001525879</ele>
        <time>2024-04-07T10:45:53.000Z</time>
      </trkpt>
      <trkpt lat="48.39307" lon="2.37852">
        <ele>69.599998474121</ele>
        <time>2024-04-07T10:45:57.000Z</time>
      </trkpt>
      <trkpt lat="48.39269" lon="2.37848">
        <ele>69.400001525879</ele>
        <time>2024-04-07T10:46:05.000Z</time>
      </trkpt>
      <trkpt lat="48.39232" lon="2.37847">
        <ele>69</ele>
        <time>2024-04-07T10:46:12.000Z</time>
      </trkpt>
      <trkpt lat="48.3921" lon="2.37847">
        <ele>68.800003051758</ele>
        <time>2024-04-07T10:46:16.000Z</time>
      </trkpt>
      <trkpt lat="48.39189" lon="2.37847">
        <ele>68.800003051758</ele>
        <time>2024-04-07T10:46:20.000Z</time>
      </trkpt>
      <trkpt lat="48.39174" lon="2.37847">
        <ele>68.800003051758</ele>
        <time>2024-04-07T10:46:23.000Z</time>
      </trkpt>
      <trkpt lat="48.39157" lon="2.37847">
        <ele>69</ele>
        <time>2024-04-07T10:46:27.000Z</time>
      </trkpt>
      <trkpt lat="48.39142" lon="2.37845">
        <ele>69.400001525879</ele>
        <time>2024-04-07T10:46:32.000Z</time>
      </trkpt>
      <trkpt lat="48.39141" lon="2.37844">
        <ele>69.599998474121</ele>
        <time>2024-04-07T10:46:33.000Z</time>
      </trkpt>
      <trkpt lat="48.38878" lon="2.37898">
        <ele>72.599998474121</ele>
        <time>2024-04-07T10:54:34.000Z</time>
      </trkpt>
      <trkpt lat="48.38875" lon="2.37893">
        <ele>72.599998474121</ele>
        <time>2024-04-07T10:54:35.000Z</time>
      </trkpt>
      <trkpt lat="48.38868" lon="2.37883">
        <ele>71.400001525879</ele>
        <time>2024-04-07T10:54:37.000Z</time>
      </trkpt>
      <trkpt lat="48.38859" lon="2.37871">
        <ele>69.800003051758</ele>
        <time>2024-04-07T10:54:39.000Z</time>
      </trkpt>
      <trkpt lat="48.38831" lon="2.37857">
        <ele>69.199996948242</ele>
        <time>2024-04-07T10:54:43.000Z</time>
      </trkpt>
      <trkpt lat="48.38813" lon="2.37854">
        <ele>69.199996948242</ele>
        <time>2024-04-07T10:54:45.000Z</time>
      </trkpt>
      <trkpt lat="48.38777" lon="2.37849">
        <ele>69.199996948242</ele>
        <time>2024-04-07T10:54:49.000Z</time>
      </trkpt>
      <trkpt lat="48.38732" lon="2.37855">
        <ele>69.400001525879</ele>
        <time>2024-04-07T10:54:54.000Z</time>
      </trkpt>
      <trkpt lat="48.38673" lon="2.37867">
        <ele>69.400001525879</ele>
        <time>2024-04-07T10:55:01.000Z</time>
      </trkpt>
      <trkpt lat="48.38612" lon="2.37877">
        <ele>69.400001525879</ele>
        <time>2024-04-07T10:55:08.000Z</time>
      </trkpt>
      <trkpt lat="48.38603" lon="2.37878">
        <ele>69.400001525879</ele>
        <time>2024-04-07T10:55:09.000Z</time>
      </trkpt>
      <trkpt lat="48.38571" lon="2.37878">
        <ele>69.800003051758</ele>
        <time>2024-04-07T10:55:13.000Z</time>
      </trkpt>
      <trkpt lat="48.38553" lon="2.37877">
        <ele>70</ele>
        <time>2024-04-07T10:55:17.000Z</time>
      </trkpt>
      <trkpt lat="48.38526" lon="2.37876">
        <ele>70.199996948242</ele>
        <time>2024-04-07T10:55:21.000Z</time>
      </trkpt>
      <trkpt lat="48.38488" lon="2.37882">
        <ele>70.400001525879</ele>
        <time>2024-04-07T10:55:26.000Z</time>
      </trkpt>
      <trkpt lat="48.38448" lon="2.3788">
        <ele>70.199996948242</ele>
        <time>2024-04-07T10:55:31.000Z</time>
      </trkpt>
      <trkpt lat="48.38396" lon="2.3787">
        <ele>70</ele>
        <time>2024-04-07T10:55:37.000Z</time>
      </trkpt>
      <trkpt lat="48.38369" lon="2.37859">
        <ele>70</ele>
        <time>2024-04-07T10:55:41.000Z</time>
      </trkpt>
      <trkpt lat="48.38336" lon="2.37846">
        <ele>70</ele>
        <time>2024-04-07T10:55:46.000Z</time>
      </trkpt>
      <trkpt lat="48.38298" lon="2.37838">
        <ele>69.800003051758</ele>
        <time>2024-04-07T10:55:52.000Z</time>
      </trkpt>
      <trkpt lat="48.38292" lon="2.37838">
        <ele>69.599998474121</ele>
        <time>2024-04-07T10:55:53.000Z</time>
      </trkpt>
    </trkseg>
  </trk>
</gpx>